<?xml version="1.0" encoding="UTF-8" standalone="no" ?>
<gpx xmlns="http://www.topografix.com/GPX/1/1" xmlns:xsi="http://www.w3.org/2001/XMLSchema-instance" xsi:schemaLocation="http://www.topografix.com/GPX/1/1 http://www.topografix.com/GPX/1/1/gpx.xsd" version="1.1" creator="VisuGPX - https://www.visugpx.com">
  <metadata>
    <name>2014-08-24-VTT_MARCILLAC SALLE LA SOURCE(12)</name>
    <desc><![CDATA[2014-08-24-VTT_MARCILLAC SALLE LA SOURCE(12)]]></desc>
  </metadata>
  <trk>
    <name><![CDATA[2014-08-24-VTT_MARCILLAC SALLE LA SOURCE(12)]]></name>
    <trkseg>
      <trkpt lat="44.47395" lon="2.46318">
        <ele>230.8</ele>
        <time>2014-08-24T07:01:21Z</time>
      </trkpt>
      <trkpt lat="44.47395" lon="2.46316">
        <ele>255</ele>
        <time>2014-08-24T07:01:24Z</time>
      </trkpt>
      <trkpt lat="44.47408" lon="2.46323">
        <ele>273</ele>
        <time>2014-08-24T07:01:31Z</time>
      </trkpt>
      <trkpt lat="44.47396" lon="2.46319">
        <ele>276</ele>
        <time>2014-08-24T07:01:39Z</time>
      </trkpt>
      <trkpt lat="44.47387" lon="2.46314">
        <ele>277</ele>
        <time>2014-08-24T07:01:47Z</time>
      </trkpt>
      <trkpt lat="44.47378" lon="2.46312">
        <ele>277</ele>
        <time>2014-08-24T07:01:59Z</time>
      </trkpt>
      <trkpt lat="44.47365" lon="2.4631">
        <ele>277</ele>
        <time>2014-08-24T07:02:07Z</time>
      </trkpt>
      <trkpt lat="44.47352" lon="2.46308">
        <ele>277</ele>
        <time>2014-08-24T07:02:15Z</time>
      </trkpt>
      <trkpt lat="44.47343" lon="2.46306">
        <ele>277</ele>
        <time>2014-08-24T07:02:28Z</time>
      </trkpt>
      <trkpt lat="44.47334" lon="2.463">
        <ele>278</ele>
        <time>2014-08-24T07:03:12Z</time>
      </trkpt>
      <trkpt lat="44.47349" lon="2.46308">
        <ele>277</ele>
        <time>2014-08-24T07:03:40Z</time>
      </trkpt>
      <trkpt lat="44.4736" lon="2.46299">
        <ele>277</ele>
        <time>2014-08-24T07:03:52Z</time>
      </trkpt>
      <trkpt lat="44.47377" lon="2.46296">
        <ele>276</ele>
        <time>2014-08-24T07:04:00Z</time>
      </trkpt>
      <trkpt lat="44.4739" lon="2.46297">
        <ele>276</ele>
        <time>2014-08-24T07:04:08Z</time>
      </trkpt>
      <trkpt lat="44.47404" lon="2.46299">
        <ele>277</ele>
        <time>2014-08-24T07:04:16Z</time>
      </trkpt>
      <trkpt lat="44.47413" lon="2.46307">
        <ele>277</ele>
        <time>2014-08-24T07:04:28Z</time>
      </trkpt>
      <trkpt lat="44.47382" lon="2.46308">
        <ele>276</ele>
        <time>2014-08-24T07:05:31Z</time>
      </trkpt>
      <trkpt lat="44.47373" lon="2.46308">
        <ele>276.8</ele>
        <time>2014-08-24T07:05:58Z</time>
      </trkpt>
      <trkpt lat="44.47363" lon="2.46311">
        <ele>276.2</ele>
        <time>2014-08-24T07:06:33Z</time>
      </trkpt>
      <trkpt lat="44.47354" lon="2.46314">
        <ele>277</ele>
        <time>2014-08-24T07:06:46Z</time>
      </trkpt>
      <trkpt lat="44.47363" lon="2.46312">
        <ele>275.7</ele>
        <time>2014-08-24T07:07:35Z</time>
      </trkpt>
      <trkpt lat="44.47372" lon="2.4631">
        <ele>275.7</ele>
        <time>2014-08-24T07:08:32Z</time>
      </trkpt>
      <trkpt lat="44.47363" lon="2.46306">
        <ele>276.2</ele>
        <time>2014-08-24T07:11:59Z</time>
      </trkpt>
      <trkpt lat="44.47357" lon="2.46296">
        <ele>277.1</ele>
        <time>2014-08-24T07:12:50Z</time>
      </trkpt>
      <trkpt lat="44.47359" lon="2.46282">
        <ele>277.7</ele>
        <time>2014-08-24T07:12:55Z</time>
      </trkpt>
      <trkpt lat="44.47363" lon="2.46267">
        <ele>277.8</ele>
        <time>2014-08-24T07:12:59Z</time>
      </trkpt>
      <trkpt lat="44.47366" lon="2.46252">
        <ele>278</ele>
        <time>2014-08-24T07:13:02Z</time>
      </trkpt>
      <trkpt lat="44.47374" lon="2.46239">
        <ele>277.9</ele>
        <time>2014-08-24T07:13:05Z</time>
      </trkpt>
      <trkpt lat="44.47385" lon="2.46234">
        <ele>277</ele>
        <time>2014-08-24T07:13:08Z</time>
      </trkpt>
      <trkpt lat="44.47395" lon="2.4623">
        <ele>277.3</ele>
        <time>2014-08-24T07:13:11Z</time>
      </trkpt>
      <trkpt lat="44.47406" lon="2.46226">
        <ele>277.4</ele>
        <time>2014-08-24T07:13:15Z</time>
      </trkpt>
      <trkpt lat="44.47415" lon="2.46223">
        <ele>277.9</ele>
        <time>2014-08-24T07:13:20Z</time>
      </trkpt>
      <trkpt lat="44.4742" lon="2.46235">
        <ele>277.9</ele>
        <time>2014-08-24T07:13:23Z</time>
      </trkpt>
      <trkpt lat="44.47424" lon="2.4625">
        <ele>277.5</ele>
        <time>2014-08-24T07:13:26Z</time>
      </trkpt>
      <trkpt lat="44.47429" lon="2.46267">
        <ele>276.7</ele>
        <time>2014-08-24T07:13:29Z</time>
      </trkpt>
      <trkpt lat="44.47433" lon="2.46283">
        <ele>276.9</ele>
        <time>2014-08-24T07:13:32Z</time>
      </trkpt>
      <trkpt lat="44.47437" lon="2.46299">
        <ele>276.9</ele>
        <time>2014-08-24T07:13:35Z</time>
      </trkpt>
      <trkpt lat="44.47443" lon="2.46311">
        <ele>276.8</ele>
        <time>2014-08-24T07:13:38Z</time>
      </trkpt>
      <trkpt lat="44.47453" lon="2.46315">
        <ele>276.2</ele>
        <time>2014-08-24T07:13:42Z</time>
      </trkpt>
      <trkpt lat="44.47463" lon="2.46312">
        <ele>276.4</ele>
        <time>2014-08-24T07:13:46Z</time>
      </trkpt>
      <trkpt lat="44.47472" lon="2.4631">
        <ele>276.8</ele>
        <time>2014-08-24T07:13:56Z</time>
      </trkpt>
      <trkpt lat="44.4748" lon="2.46302">
        <ele>276.7</ele>
        <time>2014-08-24T07:14:01Z</time>
      </trkpt>
      <trkpt lat="44.47487" lon="2.46293">
        <ele>276.4</ele>
        <time>2014-08-24T07:14:05Z</time>
      </trkpt>
      <trkpt lat="44.475" lon="2.46271">
        <ele>278</ele>
        <time>2014-08-24T07:14:14Z</time>
      </trkpt>
      <trkpt lat="44.47508" lon="2.46265">
        <ele>277.8</ele>
        <time>2014-08-24T07:14:17Z</time>
      </trkpt>
      <trkpt lat="44.47517" lon="2.46259">
        <ele>278</ele>
        <time>2014-08-24T07:14:20Z</time>
      </trkpt>
      <trkpt lat="44.47526" lon="2.46253">
        <ele>278.2</ele>
        <time>2014-08-24T07:14:23Z</time>
      </trkpt>
      <trkpt lat="44.47539" lon="2.46248">
        <ele>279.5</ele>
        <time>2014-08-24T07:14:27Z</time>
      </trkpt>
      <trkpt lat="44.47551" lon="2.46246">
        <ele>280</ele>
        <time>2014-08-24T07:14:30Z</time>
      </trkpt>
      <trkpt lat="44.4756" lon="2.46243">
        <ele>280.3</ele>
        <time>2014-08-24T07:14:33Z</time>
      </trkpt>
      <trkpt lat="44.4757" lon="2.46239">
        <ele>281.2</ele>
        <time>2014-08-24T07:14:36Z</time>
      </trkpt>
      <trkpt lat="44.4758" lon="2.46233">
        <ele>281.8</ele>
        <time>2014-08-24T07:14:40Z</time>
      </trkpt>
      <trkpt lat="44.47589" lon="2.46226">
        <ele>281.8</ele>
        <time>2014-08-24T07:14:44Z</time>
      </trkpt>
      <trkpt lat="44.47598" lon="2.46215">
        <ele>282.7</ele>
        <time>2014-08-24T07:14:48Z</time>
      </trkpt>
      <trkpt lat="44.47607" lon="2.46205">
        <ele>283.2</ele>
        <time>2014-08-24T07:14:52Z</time>
      </trkpt>
      <trkpt lat="44.47615" lon="2.46197">
        <ele>283</ele>
        <time>2014-08-24T07:14:55Z</time>
      </trkpt>
      <trkpt lat="44.47623" lon="2.46189">
        <ele>283.1</ele>
        <time>2014-08-24T07:14:58Z</time>
      </trkpt>
      <trkpt lat="44.4763" lon="2.46181">
        <ele>284.3</ele>
        <time>2014-08-24T07:15:01Z</time>
      </trkpt>
      <trkpt lat="44.4764" lon="2.4617">
        <ele>284.7</ele>
        <time>2014-08-24T07:15:05Z</time>
      </trkpt>
      <trkpt lat="44.47646" lon="2.46161">
        <ele>284.3</ele>
        <time>2014-08-24T07:15:08Z</time>
      </trkpt>
      <trkpt lat="44.47662" lon="2.46142">
        <ele>284.4</ele>
        <time>2014-08-24T07:15:15Z</time>
      </trkpt>
      <trkpt lat="44.4767" lon="2.46132">
        <ele>285</ele>
        <time>2014-08-24T07:15:19Z</time>
      </trkpt>
      <trkpt lat="44.47679" lon="2.46122">
        <ele>285.8</ele>
        <time>2014-08-24T07:15:23Z</time>
      </trkpt>
      <trkpt lat="44.47688" lon="2.46112">
        <ele>286.2</ele>
        <time>2014-08-24T07:15:27Z</time>
      </trkpt>
      <trkpt lat="44.47698" lon="2.46102">
        <ele>286.7</ele>
        <time>2014-08-24T07:15:31Z</time>
      </trkpt>
      <trkpt lat="44.47705" lon="2.46094">
        <ele>286.8</ele>
        <time>2014-08-24T07:15:34Z</time>
      </trkpt>
      <trkpt lat="44.47713" lon="2.46085">
        <ele>287</ele>
        <time>2014-08-24T07:15:37Z</time>
      </trkpt>
      <trkpt lat="44.4772" lon="2.46076">
        <ele>287.7</ele>
        <time>2014-08-24T07:15:40Z</time>
      </trkpt>
      <trkpt lat="44.47727" lon="2.46067">
        <ele>288.3</ele>
        <time>2014-08-24T07:15:43Z</time>
      </trkpt>
      <trkpt lat="44.47733" lon="2.46059">
        <ele>288.8</ele>
        <time>2014-08-24T07:15:46Z</time>
      </trkpt>
      <trkpt lat="44.4774" lon="2.46049">
        <ele>289.7</ele>
        <time>2014-08-24T07:15:49Z</time>
      </trkpt>
      <trkpt lat="44.47746" lon="2.46039">
        <ele>290.1</ele>
        <time>2014-08-24T07:15:52Z</time>
      </trkpt>
      <trkpt lat="44.47753" lon="2.46026">
        <ele>290.5</ele>
        <time>2014-08-24T07:15:56Z</time>
      </trkpt>
      <trkpt lat="44.4776" lon="2.46014">
        <ele>290.5</ele>
        <time>2014-08-24T07:16:00Z</time>
      </trkpt>
      <trkpt lat="44.47766" lon="2.46">
        <ele>290.8</ele>
        <time>2014-08-24T07:16:04Z</time>
      </trkpt>
      <trkpt lat="44.47772" lon="2.45986">
        <ele>290.8</ele>
        <time>2014-08-24T07:16:08Z</time>
      </trkpt>
      <trkpt lat="44.47778" lon="2.45972">
        <ele>293</ele>
        <time>2014-08-24T07:16:12Z</time>
      </trkpt>
      <trkpt lat="44.4779" lon="2.45944">
        <ele>294.9</ele>
        <time>2014-08-24T07:16:20Z</time>
      </trkpt>
      <trkpt lat="44.47796" lon="2.4593">
        <ele>294.9</ele>
        <time>2014-08-24T07:16:24Z</time>
      </trkpt>
      <trkpt lat="44.47803" lon="2.45917">
        <ele>295.7</ele>
        <time>2014-08-24T07:16:28Z</time>
      </trkpt>
      <trkpt lat="44.4781" lon="2.45904">
        <ele>296.5</ele>
        <time>2014-08-24T07:16:32Z</time>
      </trkpt>
      <trkpt lat="44.47819" lon="2.45893">
        <ele>297.3</ele>
        <time>2014-08-24T07:16:36Z</time>
      </trkpt>
      <trkpt lat="44.47827" lon="2.45881">
        <ele>297.9</ele>
        <time>2014-08-24T07:16:40Z</time>
      </trkpt>
      <trkpt lat="44.47835" lon="2.4587">
        <ele>298.8</ele>
        <time>2014-08-24T07:16:44Z</time>
      </trkpt>
      <trkpt lat="44.47843" lon="2.4586">
        <ele>299.2</ele>
        <time>2014-08-24T07:16:48Z</time>
      </trkpt>
      <trkpt lat="44.47851" lon="2.4585">
        <ele>300.4</ele>
        <time>2014-08-24T07:16:52Z</time>
      </trkpt>
      <trkpt lat="44.4786" lon="2.45842">
        <ele>302.5</ele>
        <time>2014-08-24T07:16:56Z</time>
      </trkpt>
      <trkpt lat="44.4787" lon="2.45835">
        <ele>302.4</ele>
        <time>2014-08-24T07:17:00Z</time>
      </trkpt>
      <trkpt lat="44.47879" lon="2.45828">
        <ele>302.6</ele>
        <time>2014-08-24T07:17:04Z</time>
      </trkpt>
      <trkpt lat="44.47889" lon="2.45821">
        <ele>303.1</ele>
        <time>2014-08-24T07:17:08Z</time>
      </trkpt>
      <trkpt lat="44.479" lon="2.45817">
        <ele>304.3</ele>
        <time>2014-08-24T07:17:12Z</time>
      </trkpt>
      <trkpt lat="44.47911" lon="2.45816">
        <ele>304.1</ele>
        <time>2014-08-24T07:17:16Z</time>
      </trkpt>
      <trkpt lat="44.47932" lon="2.45821">
        <ele>306.5</ele>
        <time>2014-08-24T07:17:24Z</time>
      </trkpt>
      <trkpt lat="44.47942" lon="2.45824">
        <ele>306.9</ele>
        <time>2014-08-24T07:17:28Z</time>
      </trkpt>
      <trkpt lat="44.47953" lon="2.45826">
        <ele>307.1</ele>
        <time>2014-08-24T07:17:32Z</time>
      </trkpt>
      <trkpt lat="44.47964" lon="2.45826">
        <ele>308.1</ele>
        <time>2014-08-24T07:17:36Z</time>
      </trkpt>
      <trkpt lat="44.47974" lon="2.45827">
        <ele>309.5</ele>
        <time>2014-08-24T07:17:40Z</time>
      </trkpt>
      <trkpt lat="44.47984" lon="2.45826">
        <ele>310.7</ele>
        <time>2014-08-24T07:17:44Z</time>
      </trkpt>
      <trkpt lat="44.47994" lon="2.45824">
        <ele>311.4</ele>
        <time>2014-08-24T07:17:48Z</time>
      </trkpt>
      <trkpt lat="44.48003" lon="2.4582">
        <ele>312.1</ele>
        <time>2014-08-24T07:17:52Z</time>
      </trkpt>
      <trkpt lat="44.48013" lon="2.45816">
        <ele>312</ele>
        <time>2014-08-24T07:17:56Z</time>
      </trkpt>
      <trkpt lat="44.48021" lon="2.45811">
        <ele>312.8</ele>
        <time>2014-08-24T07:18:00Z</time>
      </trkpt>
      <trkpt lat="44.48031" lon="2.45802">
        <ele>314.6</ele>
        <time>2014-08-24T07:18:05Z</time>
      </trkpt>
      <trkpt lat="44.48038" lon="2.45795">
        <ele>314.7</ele>
        <time>2014-08-24T07:18:09Z</time>
      </trkpt>
      <trkpt lat="44.48046" lon="2.45783">
        <ele>315</ele>
        <time>2014-08-24T07:18:13Z</time>
      </trkpt>
      <trkpt lat="44.48055" lon="2.45774">
        <ele>315.1</ele>
        <time>2014-08-24T07:18:17Z</time>
      </trkpt>
      <trkpt lat="44.48072" lon="2.45759">
        <ele>315.7</ele>
        <time>2014-08-24T07:18:24Z</time>
      </trkpt>
      <trkpt lat="44.48078" lon="2.45749">
        <ele>316.2</ele>
        <time>2014-08-24T07:18:27Z</time>
      </trkpt>
      <trkpt lat="44.48085" lon="2.45736">
        <ele>317.5</ele>
        <time>2014-08-24T07:18:31Z</time>
      </trkpt>
      <trkpt lat="44.4809" lon="2.45721">
        <ele>316.8</ele>
        <time>2014-08-24T07:18:35Z</time>
      </trkpt>
      <trkpt lat="44.48094" lon="2.45705">
        <ele>317.2</ele>
        <time>2014-08-24T07:18:39Z</time>
      </trkpt>
      <trkpt lat="44.48097" lon="2.4569">
        <ele>317.8</ele>
        <time>2014-08-24T07:18:43Z</time>
      </trkpt>
      <trkpt lat="44.48101" lon="2.45678">
        <ele>318</ele>
        <time>2014-08-24T07:18:46Z</time>
      </trkpt>
      <trkpt lat="44.48106" lon="2.45666">
        <ele>318.3</ele>
        <time>2014-08-24T07:18:49Z</time>
      </trkpt>
      <trkpt lat="44.48111" lon="2.45655">
        <ele>318.5</ele>
        <time>2014-08-24T07:18:52Z</time>
      </trkpt>
      <trkpt lat="44.48117" lon="2.45645">
        <ele>318.5</ele>
        <time>2014-08-24T07:18:55Z</time>
      </trkpt>
      <trkpt lat="44.48124" lon="2.45636">
        <ele>319</ele>
        <time>2014-08-24T07:18:58Z</time>
      </trkpt>
      <trkpt lat="44.48131" lon="2.45628">
        <ele>319.6</ele>
        <time>2014-08-24T07:19:01Z</time>
      </trkpt>
      <trkpt lat="44.48139" lon="2.45621">
        <ele>320.4</ele>
        <time>2014-08-24T07:19:04Z</time>
      </trkpt>
      <trkpt lat="44.48147" lon="2.45616">
        <ele>320.9</ele>
        <time>2014-08-24T07:19:07Z</time>
      </trkpt>
      <trkpt lat="44.48156" lon="2.45611">
        <ele>322</ele>
        <time>2014-08-24T07:19:10Z</time>
      </trkpt>
      <trkpt lat="44.48164" lon="2.45606">
        <ele>322.5</ele>
        <time>2014-08-24T07:19:13Z</time>
      </trkpt>
      <trkpt lat="44.48173" lon="2.45601">
        <ele>323.1</ele>
        <time>2014-08-24T07:19:16Z</time>
      </trkpt>
      <trkpt lat="44.48182" lon="2.45597">
        <ele>323.3</ele>
        <time>2014-08-24T07:19:19Z</time>
      </trkpt>
      <trkpt lat="44.48199" lon="2.45588">
        <ele>325.2</ele>
        <time>2014-08-24T07:19:25Z</time>
      </trkpt>
      <trkpt lat="44.48208" lon="2.45584">
        <ele>326.1</ele>
        <time>2014-08-24T07:19:28Z</time>
      </trkpt>
      <trkpt lat="44.48218" lon="2.4558">
        <ele>326.7</ele>
        <time>2014-08-24T07:19:32Z</time>
      </trkpt>
      <trkpt lat="44.48229" lon="2.45577">
        <ele>327.1</ele>
        <time>2014-08-24T07:19:36Z</time>
      </trkpt>
      <trkpt lat="44.4824" lon="2.45575">
        <ele>327.2</ele>
        <time>2014-08-24T07:19:40Z</time>
      </trkpt>
      <trkpt lat="44.48249" lon="2.45574">
        <ele>327.4</ele>
        <time>2014-08-24T07:19:43Z</time>
      </trkpt>
      <trkpt lat="44.48259" lon="2.45574">
        <ele>327.2</ele>
        <time>2014-08-24T07:19:46Z</time>
      </trkpt>
      <trkpt lat="44.48268" lon="2.45575">
        <ele>326</ele>
        <time>2014-08-24T07:19:49Z</time>
      </trkpt>
      <trkpt lat="44.48278" lon="2.45574">
        <ele>325.6</ele>
        <time>2014-08-24T07:19:52Z</time>
      </trkpt>
      <trkpt lat="44.48288" lon="2.45576">
        <ele>326.2</ele>
        <time>2014-08-24T07:19:55Z</time>
      </trkpt>
      <trkpt lat="44.48297" lon="2.45578">
        <ele>326</ele>
        <time>2014-08-24T07:19:58Z</time>
      </trkpt>
      <trkpt lat="44.48307" lon="2.45581">
        <ele>325.8</ele>
        <time>2014-08-24T07:20:01Z</time>
      </trkpt>
      <trkpt lat="44.48316" lon="2.45586">
        <ele>325.1</ele>
        <time>2014-08-24T07:20:04Z</time>
      </trkpt>
      <trkpt lat="44.48325" lon="2.4559">
        <ele>325.1</ele>
        <time>2014-08-24T07:20:07Z</time>
      </trkpt>
      <trkpt lat="44.48334" lon="2.45595">
        <ele>325.5</ele>
        <time>2014-08-24T07:20:10Z</time>
      </trkpt>
      <trkpt lat="44.48342" lon="2.456">
        <ele>325.4</ele>
        <time>2014-08-24T07:20:13Z</time>
      </trkpt>
      <trkpt lat="44.48353" lon="2.45607">
        <ele>325.9</ele>
        <time>2014-08-24T07:20:17Z</time>
      </trkpt>
      <trkpt lat="44.48361" lon="2.45612">
        <ele>325.9</ele>
        <time>2014-08-24T07:20:20Z</time>
      </trkpt>
      <trkpt lat="44.48379" lon="2.45624">
        <ele>327.9</ele>
        <time>2014-08-24T07:20:26Z</time>
      </trkpt>
      <trkpt lat="44.48388" lon="2.4563">
        <ele>328.4</ele>
        <time>2014-08-24T07:20:29Z</time>
      </trkpt>
      <trkpt lat="44.48396" lon="2.45634">
        <ele>328.1</ele>
        <time>2014-08-24T07:20:32Z</time>
      </trkpt>
      <trkpt lat="44.48405" lon="2.45638">
        <ele>328.5</ele>
        <time>2014-08-24T07:20:35Z</time>
      </trkpt>
      <trkpt lat="44.48414" lon="2.45644">
        <ele>328.8</ele>
        <time>2014-08-24T07:20:38Z</time>
      </trkpt>
      <trkpt lat="44.48423" lon="2.45653">
        <ele>328</ele>
        <time>2014-08-24T07:20:41Z</time>
      </trkpt>
      <trkpt lat="44.48431" lon="2.45663">
        <ele>327.6</ele>
        <time>2014-08-24T07:20:44Z</time>
      </trkpt>
      <trkpt lat="44.48438" lon="2.45674">
        <ele>327.4</ele>
        <time>2014-08-24T07:20:47Z</time>
      </trkpt>
      <trkpt lat="44.48446" lon="2.45684">
        <ele>327.3</ele>
        <time>2014-08-24T07:20:50Z</time>
      </trkpt>
      <trkpt lat="44.48454" lon="2.45697">
        <ele>326.3</ele>
        <time>2014-08-24T07:20:53Z</time>
      </trkpt>
      <trkpt lat="44.48462" lon="2.45711">
        <ele>326</ele>
        <time>2014-08-24T07:20:56Z</time>
      </trkpt>
      <trkpt lat="44.48468" lon="2.45721">
        <ele>325.5</ele>
        <time>2014-08-24T07:20:58Z</time>
      </trkpt>
      <trkpt lat="44.48475" lon="2.45731">
        <ele>324.8</ele>
        <time>2014-08-24T07:21:00Z</time>
      </trkpt>
      <trkpt lat="44.48482" lon="2.45741">
        <ele>324</ele>
        <time>2014-08-24T07:21:02Z</time>
      </trkpt>
      <trkpt lat="44.48491" lon="2.45749">
        <ele>323</ele>
        <time>2014-08-24T07:21:04Z</time>
      </trkpt>
      <trkpt lat="44.48499" lon="2.45755">
        <ele>322.5</ele>
        <time>2014-08-24T07:21:06Z</time>
      </trkpt>
      <trkpt lat="44.48511" lon="2.4576">
        <ele>322.1</ele>
        <time>2014-08-24T07:21:09Z</time>
      </trkpt>
      <trkpt lat="44.48522" lon="2.45763">
        <ele>321.5</ele>
        <time>2014-08-24T07:21:12Z</time>
      </trkpt>
      <trkpt lat="44.48534" lon="2.45767">
        <ele>322.1</ele>
        <time>2014-08-24T07:21:15Z</time>
      </trkpt>
      <trkpt lat="44.48544" lon="2.4577">
        <ele>322</ele>
        <time>2014-08-24T07:21:18Z</time>
      </trkpt>
      <trkpt lat="44.48553" lon="2.45775">
        <ele>322.4</ele>
        <time>2014-08-24T07:21:21Z</time>
      </trkpt>
      <trkpt lat="44.4857" lon="2.45791">
        <ele>323.2</ele>
        <time>2014-08-24T07:21:27Z</time>
      </trkpt>
      <trkpt lat="44.48579" lon="2.45799">
        <ele>322.1</ele>
        <time>2014-08-24T07:21:30Z</time>
      </trkpt>
      <trkpt lat="44.48589" lon="2.45804">
        <ele>321.3</ele>
        <time>2014-08-24T07:21:33Z</time>
      </trkpt>
      <trkpt lat="44.486" lon="2.45809">
        <ele>321</ele>
        <time>2014-08-24T07:21:36Z</time>
      </trkpt>
      <trkpt lat="44.4861" lon="2.45811">
        <ele>321.1</ele>
        <time>2014-08-24T07:21:39Z</time>
      </trkpt>
      <trkpt lat="44.48621" lon="2.45815">
        <ele>321.3</ele>
        <time>2014-08-24T07:21:42Z</time>
      </trkpt>
      <trkpt lat="44.48631" lon="2.45828">
        <ele>321</ele>
        <time>2014-08-24T07:21:45Z</time>
      </trkpt>
      <trkpt lat="44.48634" lon="2.45842">
        <ele>320.9</ele>
        <time>2014-08-24T07:21:47Z</time>
      </trkpt>
      <trkpt lat="44.48632" lon="2.45859">
        <ele>320.4</ele>
        <time>2014-08-24T07:21:49Z</time>
      </trkpt>
      <trkpt lat="44.48628" lon="2.45873">
        <ele>319.7</ele>
        <time>2014-08-24T07:21:51Z</time>
      </trkpt>
      <trkpt lat="44.48627" lon="2.45888">
        <ele>319.1</ele>
        <time>2014-08-24T07:21:53Z</time>
      </trkpt>
      <trkpt lat="44.4863" lon="2.45901">
        <ele>319.1</ele>
        <time>2014-08-24T07:21:55Z</time>
      </trkpt>
      <trkpt lat="44.48636" lon="2.45911">
        <ele>319.3</ele>
        <time>2014-08-24T07:21:57Z</time>
      </trkpt>
      <trkpt lat="44.48644" lon="2.45918">
        <ele>319</ele>
        <time>2014-08-24T07:21:59Z</time>
      </trkpt>
      <trkpt lat="44.48656" lon="2.45924">
        <ele>319.2</ele>
        <time>2014-08-24T07:22:02Z</time>
      </trkpt>
      <trkpt lat="44.48667" lon="2.45929">
        <ele>319.8</ele>
        <time>2014-08-24T07:22:05Z</time>
      </trkpt>
      <trkpt lat="44.48678" lon="2.45937">
        <ele>319.4</ele>
        <time>2014-08-24T07:22:08Z</time>
      </trkpt>
      <trkpt lat="44.48687" lon="2.4595">
        <ele>319</ele>
        <time>2014-08-24T07:22:11Z</time>
      </trkpt>
      <trkpt lat="44.48692" lon="2.45961">
        <ele>318.7</ele>
        <time>2014-08-24T07:22:13Z</time>
      </trkpt>
      <trkpt lat="44.48697" lon="2.45979">
        <ele>318.8</ele>
        <time>2014-08-24T07:22:16Z</time>
      </trkpt>
      <trkpt lat="44.48699" lon="2.45991">
        <ele>318.5</ele>
        <time>2014-08-24T07:22:18Z</time>
      </trkpt>
      <trkpt lat="44.48702" lon="2.46009">
        <ele>318.1</ele>
        <time>2014-08-24T07:22:21Z</time>
      </trkpt>
      <trkpt lat="44.48705" lon="2.46021">
        <ele>317.4</ele>
        <time>2014-08-24T07:22:23Z</time>
      </trkpt>
      <trkpt lat="44.48712" lon="2.46046">
        <ele>316.3</ele>
        <time>2014-08-24T07:22:27Z</time>
      </trkpt>
      <trkpt lat="44.4872" lon="2.46054">
        <ele>315.9</ele>
        <time>2014-08-24T07:22:29Z</time>
      </trkpt>
      <trkpt lat="44.48729" lon="2.46056">
        <ele>315.9</ele>
        <time>2014-08-24T07:22:31Z</time>
      </trkpt>
      <trkpt lat="44.4874" lon="2.46054">
        <ele>315.4</ele>
        <time>2014-08-24T07:22:33Z</time>
      </trkpt>
      <trkpt lat="44.48752" lon="2.46053">
        <ele>314.7</ele>
        <time>2014-08-24T07:22:35Z</time>
      </trkpt>
      <trkpt lat="44.48764" lon="2.46055">
        <ele>313.9</ele>
        <time>2014-08-24T07:22:37Z</time>
      </trkpt>
      <trkpt lat="44.48776" lon="2.46057">
        <ele>313.5</ele>
        <time>2014-08-24T07:22:39Z</time>
      </trkpt>
      <trkpt lat="44.48787" lon="2.46054">
        <ele>313.4</ele>
        <time>2014-08-24T07:22:41Z</time>
      </trkpt>
      <trkpt lat="44.48795" lon="2.46043">
        <ele>313</ele>
        <time>2014-08-24T07:22:43Z</time>
      </trkpt>
      <trkpt lat="44.48802" lon="2.46031">
        <ele>312.5</ele>
        <time>2014-08-24T07:22:45Z</time>
      </trkpt>
      <trkpt lat="44.48813" lon="2.46024">
        <ele>311.3</ele>
        <time>2014-08-24T07:22:47Z</time>
      </trkpt>
      <trkpt lat="44.48822" lon="2.46028">
        <ele>310.6</ele>
        <time>2014-08-24T07:22:49Z</time>
      </trkpt>
      <trkpt lat="44.4883" lon="2.46041">
        <ele>310.1</ele>
        <time>2014-08-24T07:22:51Z</time>
      </trkpt>
      <trkpt lat="44.48836" lon="2.46057">
        <ele>308.8</ele>
        <time>2014-08-24T07:22:53Z</time>
      </trkpt>
      <trkpt lat="44.48843" lon="2.46074">
        <ele>308.1</ele>
        <time>2014-08-24T07:22:55Z</time>
      </trkpt>
      <trkpt lat="44.48852" lon="2.46089">
        <ele>307.6</ele>
        <time>2014-08-24T07:22:57Z</time>
      </trkpt>
      <trkpt lat="44.48861" lon="2.46101">
        <ele>307.2</ele>
        <time>2014-08-24T07:22:59Z</time>
      </trkpt>
      <trkpt lat="44.4887" lon="2.46113">
        <ele>306.9</ele>
        <time>2014-08-24T07:23:01Z</time>
      </trkpt>
      <trkpt lat="44.48876" lon="2.46127">
        <ele>306.4</ele>
        <time>2014-08-24T07:23:03Z</time>
      </trkpt>
      <trkpt lat="44.48879" lon="2.46143">
        <ele>306.3</ele>
        <time>2014-08-24T07:23:05Z</time>
      </trkpt>
      <trkpt lat="44.4888" lon="2.46157">
        <ele>306.3</ele>
        <time>2014-08-24T07:23:07Z</time>
      </trkpt>
      <trkpt lat="44.48881" lon="2.46171">
        <ele>305</ele>
        <time>2014-08-24T07:23:09Z</time>
      </trkpt>
      <trkpt lat="44.4888" lon="2.46185">
        <ele>304.8</ele>
        <time>2014-08-24T07:23:11Z</time>
      </trkpt>
      <trkpt lat="44.48879" lon="2.46198">
        <ele>305.1</ele>
        <time>2014-08-24T07:23:13Z</time>
      </trkpt>
      <trkpt lat="44.48879" lon="2.46211">
        <ele>304.4</ele>
        <time>2014-08-24T07:23:15Z</time>
      </trkpt>
      <trkpt lat="44.48881" lon="2.46226">
        <ele>303.4</ele>
        <time>2014-08-24T07:23:17Z</time>
      </trkpt>
      <trkpt lat="44.48887" lon="2.4624">
        <ele>303.1</ele>
        <time>2014-08-24T07:23:19Z</time>
      </trkpt>
      <trkpt lat="44.48894" lon="2.46253">
        <ele>302.7</ele>
        <time>2014-08-24T07:23:21Z</time>
      </trkpt>
      <trkpt lat="44.489" lon="2.46268">
        <ele>302.3</ele>
        <time>2014-08-24T07:23:23Z</time>
      </trkpt>
      <trkpt lat="44.48904" lon="2.46284">
        <ele>301.4</ele>
        <time>2014-08-24T07:23:25Z</time>
      </trkpt>
      <trkpt lat="44.48912" lon="2.46319">
        <ele>301.4</ele>
        <time>2014-08-24T07:23:29Z</time>
      </trkpt>
      <trkpt lat="44.48915" lon="2.46337">
        <ele>299.7</ele>
        <time>2014-08-24T07:23:31Z</time>
      </trkpt>
      <trkpt lat="44.48916" lon="2.46354">
        <ele>298.7</ele>
        <time>2014-08-24T07:23:33Z</time>
      </trkpt>
      <trkpt lat="44.48915" lon="2.46373">
        <ele>298.5</ele>
        <time>2014-08-24T07:23:35Z</time>
      </trkpt>
      <trkpt lat="44.48917" lon="2.46392">
        <ele>298.1</ele>
        <time>2014-08-24T07:23:37Z</time>
      </trkpt>
      <trkpt lat="44.48918" lon="2.46409">
        <ele>297.6</ele>
        <time>2014-08-24T07:23:39Z</time>
      </trkpt>
      <trkpt lat="44.48917" lon="2.46427">
        <ele>297.8</ele>
        <time>2014-08-24T07:23:41Z</time>
      </trkpt>
      <trkpt lat="44.48916" lon="2.46444">
        <ele>297.8</ele>
        <time>2014-08-24T07:23:43Z</time>
      </trkpt>
      <trkpt lat="44.48918" lon="2.46459">
        <ele>297.8</ele>
        <time>2014-08-24T07:23:45Z</time>
      </trkpt>
      <trkpt lat="44.48919" lon="2.46474">
        <ele>297.1</ele>
        <time>2014-08-24T07:23:47Z</time>
      </trkpt>
      <trkpt lat="44.4892" lon="2.46487">
        <ele>296.7</ele>
        <time>2014-08-24T07:23:49Z</time>
      </trkpt>
      <trkpt lat="44.48921" lon="2.465">
        <ele>297.5</ele>
        <time>2014-08-24T07:23:51Z</time>
      </trkpt>
      <trkpt lat="44.48922" lon="2.46518">
        <ele>298.5</ele>
        <time>2014-08-24T07:23:54Z</time>
      </trkpt>
      <trkpt lat="44.48923" lon="2.46534">
        <ele>299.1</ele>
        <time>2014-08-24T07:23:57Z</time>
      </trkpt>
      <trkpt lat="44.48922" lon="2.4655">
        <ele>299</ele>
        <time>2014-08-24T07:24:00Z</time>
      </trkpt>
      <trkpt lat="44.4892" lon="2.46566">
        <ele>299.8</ele>
        <time>2014-08-24T07:24:03Z</time>
      </trkpt>
      <trkpt lat="44.48917" lon="2.46582">
        <ele>300.3</ele>
        <time>2014-08-24T07:24:06Z</time>
      </trkpt>
      <trkpt lat="44.48917" lon="2.46596">
        <ele>300.4</ele>
        <time>2014-08-24T07:24:09Z</time>
      </trkpt>
      <trkpt lat="44.48917" lon="2.46611">
        <ele>301</ele>
        <time>2014-08-24T07:24:12Z</time>
      </trkpt>
      <trkpt lat="44.48917" lon="2.46627">
        <ele>301.5</ele>
        <time>2014-08-24T07:24:15Z</time>
      </trkpt>
      <trkpt lat="44.48917" lon="2.46643">
        <ele>301.4</ele>
        <time>2014-08-24T07:24:18Z</time>
      </trkpt>
      <trkpt lat="44.48922" lon="2.46658">
        <ele>301.4</ele>
        <time>2014-08-24T07:24:21Z</time>
      </trkpt>
      <trkpt lat="44.48929" lon="2.46673">
        <ele>301.3</ele>
        <time>2014-08-24T07:24:24Z</time>
      </trkpt>
      <trkpt lat="44.48937" lon="2.46687">
        <ele>301.5</ele>
        <time>2014-08-24T07:24:27Z</time>
      </trkpt>
      <trkpt lat="44.48953" lon="2.46713">
        <ele>301.2</ele>
        <time>2014-08-24T07:24:33Z</time>
      </trkpt>
      <trkpt lat="44.48957" lon="2.46726">
        <ele>301.3</ele>
        <time>2014-08-24T07:24:36Z</time>
      </trkpt>
      <trkpt lat="44.48959" lon="2.4674">
        <ele>301.2</ele>
        <time>2014-08-24T07:24:39Z</time>
      </trkpt>
      <trkpt lat="44.48959" lon="2.46754">
        <ele>302.6</ele>
        <time>2014-08-24T07:24:42Z</time>
      </trkpt>
      <trkpt lat="44.48958" lon="2.46767">
        <ele>303.2</ele>
        <time>2014-08-24T07:24:45Z</time>
      </trkpt>
      <trkpt lat="44.48956" lon="2.46779">
        <ele>303.6</ele>
        <time>2014-08-24T07:24:48Z</time>
      </trkpt>
      <trkpt lat="44.48955" lon="2.46795">
        <ele>305.2</ele>
        <time>2014-08-24T07:24:52Z</time>
      </trkpt>
      <trkpt lat="44.48954" lon="2.4681">
        <ele>306.1</ele>
        <time>2014-08-24T07:24:56Z</time>
      </trkpt>
      <trkpt lat="44.48954" lon="2.46822">
        <ele>307.5</ele>
        <time>2014-08-24T07:25:00Z</time>
      </trkpt>
      <trkpt lat="44.48951" lon="2.46836">
        <ele>308.4</ele>
        <time>2014-08-24T07:25:04Z</time>
      </trkpt>
      <trkpt lat="44.48949" lon="2.46851">
        <ele>308.8</ele>
        <time>2014-08-24T07:25:08Z</time>
      </trkpt>
      <trkpt lat="44.48947" lon="2.46866">
        <ele>308.5</ele>
        <time>2014-08-24T07:25:12Z</time>
      </trkpt>
      <trkpt lat="44.48943" lon="2.46879">
        <ele>308.8</ele>
        <time>2014-08-24T07:25:16Z</time>
      </trkpt>
      <trkpt lat="44.48938" lon="2.46893">
        <ele>309.3</ele>
        <time>2014-08-24T07:25:20Z</time>
      </trkpt>
      <trkpt lat="44.48934" lon="2.46909">
        <ele>309.4</ele>
        <time>2014-08-24T07:25:24Z</time>
      </trkpt>
      <trkpt lat="44.48932" lon="2.46924">
        <ele>310.3</ele>
        <time>2014-08-24T07:25:27Z</time>
      </trkpt>
      <trkpt lat="44.48931" lon="2.46939">
        <ele>309.5</ele>
        <time>2014-08-24T07:25:30Z</time>
      </trkpt>
      <trkpt lat="44.48927" lon="2.46968">
        <ele>310</ele>
        <time>2014-08-24T07:25:36Z</time>
      </trkpt>
      <trkpt lat="44.48924" lon="2.46985">
        <ele>309.7</ele>
        <time>2014-08-24T07:25:39Z</time>
      </trkpt>
      <trkpt lat="44.48925" lon="2.47">
        <ele>309.1</ele>
        <time>2014-08-24T07:25:42Z</time>
      </trkpt>
      <trkpt lat="44.48927" lon="2.47015">
        <ele>308.7</ele>
        <time>2014-08-24T07:25:46Z</time>
      </trkpt>
      <trkpt lat="44.48925" lon="2.47029">
        <ele>309.5</ele>
        <time>2014-08-24T07:25:49Z</time>
      </trkpt>
      <trkpt lat="44.48924" lon="2.47046">
        <ele>308.7</ele>
        <time>2014-08-24T07:25:52Z</time>
      </trkpt>
      <trkpt lat="44.48922" lon="2.47064">
        <ele>308.4</ele>
        <time>2014-08-24T07:25:55Z</time>
      </trkpt>
      <trkpt lat="44.48923" lon="2.47082">
        <ele>308</ele>
        <time>2014-08-24T07:25:58Z</time>
      </trkpt>
      <trkpt lat="44.48924" lon="2.47095">
        <ele>307.5</ele>
        <time>2014-08-24T07:26:01Z</time>
      </trkpt>
      <trkpt lat="44.48924" lon="2.47109">
        <ele>307.1</ele>
        <time>2014-08-24T07:26:05Z</time>
      </trkpt>
      <trkpt lat="44.48919" lon="2.4712">
        <ele>306.8</ele>
        <time>2014-08-24T07:26:08Z</time>
      </trkpt>
      <trkpt lat="44.48915" lon="2.47134">
        <ele>305.9</ele>
        <time>2014-08-24T07:26:11Z</time>
      </trkpt>
      <trkpt lat="44.48909" lon="2.47145">
        <ele>306.4</ele>
        <time>2014-08-24T07:26:15Z</time>
      </trkpt>
      <trkpt lat="44.48905" lon="2.47158">
        <ele>307</ele>
        <time>2014-08-24T07:26:18Z</time>
      </trkpt>
      <trkpt lat="44.48902" lon="2.47171">
        <ele>307.1</ele>
        <time>2014-08-24T07:26:21Z</time>
      </trkpt>
      <trkpt lat="44.48902" lon="2.47186">
        <ele>306.6</ele>
        <time>2014-08-24T07:26:26Z</time>
      </trkpt>
      <trkpt lat="44.48901" lon="2.472">
        <ele>308.4</ele>
        <time>2014-08-24T07:26:31Z</time>
      </trkpt>
      <trkpt lat="44.48898" lon="2.47229">
        <ele>312.1</ele>
        <time>2014-08-24T07:26:42Z</time>
      </trkpt>
      <trkpt lat="44.48896" lon="2.47243">
        <ele>314.1</ele>
        <time>2014-08-24T07:26:48Z</time>
      </trkpt>
      <trkpt lat="44.48897" lon="2.47258">
        <ele>315.2</ele>
        <time>2014-08-24T07:26:54Z</time>
      </trkpt>
      <trkpt lat="44.48898" lon="2.4727">
        <ele>316.5</ele>
        <time>2014-08-24T07:26:59Z</time>
      </trkpt>
      <trkpt lat="44.48895" lon="2.47285">
        <ele>317.1</ele>
        <time>2014-08-24T07:27:04Z</time>
      </trkpt>
      <trkpt lat="44.489" lon="2.47296">
        <ele>318</ele>
        <time>2014-08-24T07:27:09Z</time>
      </trkpt>
      <trkpt lat="44.48905" lon="2.47309">
        <ele>319.3</ele>
        <time>2014-08-24T07:27:15Z</time>
      </trkpt>
      <trkpt lat="44.48908" lon="2.47323">
        <ele>319.4</ele>
        <time>2014-08-24T07:27:21Z</time>
      </trkpt>
      <trkpt lat="44.48913" lon="2.47337">
        <ele>319.7</ele>
        <time>2014-08-24T07:27:25Z</time>
      </trkpt>
      <trkpt lat="44.48921" lon="2.47345">
        <ele>319.8</ele>
        <time>2014-08-24T07:27:28Z</time>
      </trkpt>
      <trkpt lat="44.48928" lon="2.47354">
        <ele>319.5</ele>
        <time>2014-08-24T07:27:32Z</time>
      </trkpt>
      <trkpt lat="44.48938" lon="2.47376">
        <ele>320.5</ele>
        <time>2014-08-24T07:27:40Z</time>
      </trkpt>
      <trkpt lat="44.48944" lon="2.47387">
        <ele>320.6</ele>
        <time>2014-08-24T07:27:44Z</time>
      </trkpt>
      <trkpt lat="44.48951" lon="2.47396">
        <ele>321.5</ele>
        <time>2014-08-24T07:27:49Z</time>
      </trkpt>
      <trkpt lat="44.48955" lon="2.47409">
        <ele>321.9</ele>
        <time>2014-08-24T07:27:54Z</time>
      </trkpt>
      <trkpt lat="44.48953" lon="2.47424">
        <ele>322.5</ele>
        <time>2014-08-24T07:28:00Z</time>
      </trkpt>
      <trkpt lat="44.48954" lon="2.47439">
        <ele>323.7</ele>
        <time>2014-08-24T07:28:04Z</time>
      </trkpt>
      <trkpt lat="44.48963" lon="2.47443">
        <ele>322.9</ele>
        <time>2014-08-24T07:28:08Z</time>
      </trkpt>
      <trkpt lat="44.48973" lon="2.47444">
        <ele>323.1</ele>
        <time>2014-08-24T07:28:12Z</time>
      </trkpt>
      <trkpt lat="44.48984" lon="2.47452">
        <ele>323.3</ele>
        <time>2014-08-24T07:28:15Z</time>
      </trkpt>
      <trkpt lat="44.48992" lon="2.47462">
        <ele>322.8</ele>
        <time>2014-08-24T07:28:17Z</time>
      </trkpt>
      <trkpt lat="44.49001" lon="2.47472">
        <ele>322.4</ele>
        <time>2014-08-24T07:28:19Z</time>
      </trkpt>
      <trkpt lat="44.4902" lon="2.47486">
        <ele>321.4</ele>
        <time>2014-08-24T07:28:23Z</time>
      </trkpt>
      <trkpt lat="44.49029" lon="2.47495">
        <ele>320.4</ele>
        <time>2014-08-24T07:28:25Z</time>
      </trkpt>
      <trkpt lat="44.49037" lon="2.47504">
        <ele>319.8</ele>
        <time>2014-08-24T07:28:27Z</time>
      </trkpt>
      <trkpt lat="44.49044" lon="2.47512">
        <ele>320.1</ele>
        <time>2014-08-24T07:28:31Z</time>
      </trkpt>
      <trkpt lat="44.49052" lon="2.4752">
        <ele>320.9</ele>
        <time>2014-08-24T07:28:37Z</time>
      </trkpt>
      <trkpt lat="44.49067" lon="2.47536">
        <ele>324.3</ele>
        <time>2014-08-24T07:28:48Z</time>
      </trkpt>
      <trkpt lat="44.49076" lon="2.47546">
        <ele>326</ele>
        <time>2014-08-24T07:28:54Z</time>
      </trkpt>
      <trkpt lat="44.49081" lon="2.47562">
        <ele>326.7</ele>
        <time>2014-08-24T07:28:57Z</time>
      </trkpt>
      <trkpt lat="44.49086" lon="2.47574">
        <ele>327.1</ele>
        <time>2014-08-24T07:28:59Z</time>
      </trkpt>
      <trkpt lat="44.49092" lon="2.47586">
        <ele>325.4</ele>
        <time>2014-08-24T07:29:02Z</time>
      </trkpt>
      <trkpt lat="44.491" lon="2.47593">
        <ele>325.4</ele>
        <time>2014-08-24T07:29:06Z</time>
      </trkpt>
      <trkpt lat="44.49108" lon="2.47602">
        <ele>326.2</ele>
        <time>2014-08-24T07:29:11Z</time>
      </trkpt>
      <trkpt lat="44.49116" lon="2.47609">
        <ele>326.3</ele>
        <time>2014-08-24T07:29:17Z</time>
      </trkpt>
      <trkpt lat="44.49125" lon="2.47614">
        <ele>326.1</ele>
        <time>2014-08-24T07:29:23Z</time>
      </trkpt>
      <trkpt lat="44.49134" lon="2.4762">
        <ele>326.1</ele>
        <time>2014-08-24T07:29:29Z</time>
      </trkpt>
      <trkpt lat="44.49143" lon="2.47625">
        <ele>329.2</ele>
        <time>2014-08-24T07:29:36Z</time>
      </trkpt>
      <trkpt lat="44.49153" lon="2.47626">
        <ele>330</ele>
        <time>2014-08-24T07:29:44Z</time>
      </trkpt>
      <trkpt lat="44.49191" lon="2.47646">
        <ele>333.8</ele>
        <time>2014-08-24T07:30:04Z</time>
      </trkpt>
      <trkpt lat="44.492" lon="2.47648">
        <ele>335</ele>
        <time>2014-08-24T07:30:07Z</time>
      </trkpt>
      <trkpt lat="44.4921" lon="2.4765">
        <ele>335.5</ele>
        <time>2014-08-24T07:30:11Z</time>
      </trkpt>
      <trkpt lat="44.49221" lon="2.47655">
        <ele>336</ele>
        <time>2014-08-24T07:30:15Z</time>
      </trkpt>
      <trkpt lat="44.49233" lon="2.47658">
        <ele>337.8</ele>
        <time>2014-08-24T07:30:19Z</time>
      </trkpt>
      <trkpt lat="44.49244" lon="2.47662">
        <ele>339.2</ele>
        <time>2014-08-24T07:30:23Z</time>
      </trkpt>
      <trkpt lat="44.49255" lon="2.47662">
        <ele>340.2</ele>
        <time>2014-08-24T07:30:27Z</time>
      </trkpt>
      <trkpt lat="44.49265" lon="2.47662">
        <ele>342.3</ele>
        <time>2014-08-24T07:30:32Z</time>
      </trkpt>
      <trkpt lat="44.49275" lon="2.47661">
        <ele>343.7</ele>
        <time>2014-08-24T07:30:37Z</time>
      </trkpt>
      <trkpt lat="44.49285" lon="2.47657">
        <ele>344.4</ele>
        <time>2014-08-24T07:30:44Z</time>
      </trkpt>
      <trkpt lat="44.49291" lon="2.47648">
        <ele>346.5</ele>
        <time>2014-08-24T07:30:51Z</time>
      </trkpt>
      <trkpt lat="44.49298" lon="2.47622">
        <ele>350.4</ele>
        <time>2014-08-24T07:31:04Z</time>
      </trkpt>
      <trkpt lat="44.49301" lon="2.47608">
        <ele>352.2</ele>
        <time>2014-08-24T07:31:11Z</time>
      </trkpt>
      <trkpt lat="44.49305" lon="2.47597">
        <ele>354</ele>
        <time>2014-08-24T07:31:19Z</time>
      </trkpt>
      <trkpt lat="44.49312" lon="2.47588">
        <ele>355.9</ele>
        <time>2014-08-24T07:32:06Z</time>
      </trkpt>
      <trkpt lat="44.49326" lon="2.47573">
        <ele>359.8</ele>
        <time>2014-08-24T07:32:30Z</time>
      </trkpt>
      <trkpt lat="44.49328" lon="2.4756">
        <ele>362.8</ele>
        <time>2014-08-24T07:32:44Z</time>
      </trkpt>
      <trkpt lat="44.49321" lon="2.47551">
        <ele>363.1</ele>
        <time>2014-08-24T07:33:14Z</time>
      </trkpt>
      <trkpt lat="44.49339" lon="2.4752">
        <ele>370.3</ele>
        <time>2014-08-24T07:35:12Z</time>
      </trkpt>
      <trkpt lat="44.4934" lon="2.47507">
        <ele>374.6</ele>
        <time>2014-08-24T07:35:24Z</time>
      </trkpt>
      <trkpt lat="44.49343" lon="2.47495">
        <ele>376</ele>
        <time>2014-08-24T07:35:35Z</time>
      </trkpt>
      <trkpt lat="44.49348" lon="2.47483">
        <ele>378.2</ele>
        <time>2014-08-24T07:35:47Z</time>
      </trkpt>
      <trkpt lat="44.49352" lon="2.47472">
        <ele>378.9</ele>
        <time>2014-08-24T07:35:57Z</time>
      </trkpt>
      <trkpt lat="44.49361" lon="2.47448">
        <ele>381.2</ele>
        <time>2014-08-24T07:36:11Z</time>
      </trkpt>
      <trkpt lat="44.49366" lon="2.47437">
        <ele>382.6</ele>
        <time>2014-08-24T07:36:17Z</time>
      </trkpt>
      <trkpt lat="44.49373" lon="2.47429">
        <ele>383.4</ele>
        <time>2014-08-24T07:36:23Z</time>
      </trkpt>
      <trkpt lat="44.4938" lon="2.47419">
        <ele>384.3</ele>
        <time>2014-08-24T07:36:29Z</time>
      </trkpt>
      <trkpt lat="44.49386" lon="2.47408">
        <ele>385.7</ele>
        <time>2014-08-24T07:36:36Z</time>
      </trkpt>
      <trkpt lat="44.4939" lon="2.47395">
        <ele>386.6</ele>
        <time>2014-08-24T07:36:43Z</time>
      </trkpt>
      <trkpt lat="44.49394" lon="2.47381">
        <ele>387.8</ele>
        <time>2014-08-24T07:36:48Z</time>
      </trkpt>
      <trkpt lat="44.49389" lon="2.47369">
        <ele>391</ele>
        <time>2014-08-24T07:37:00Z</time>
      </trkpt>
      <trkpt lat="44.49394" lon="2.47362">
        <ele>391</ele>
        <time>2014-08-24T07:40:04Z</time>
      </trkpt>
      <trkpt lat="44.49378" lon="2.47377">
        <ele>392.5</ele>
        <time>2014-08-24T07:40:14Z</time>
      </trkpt>
      <trkpt lat="44.4937" lon="2.47383">
        <ele>392.9</ele>
        <time>2014-08-24T07:40:19Z</time>
      </trkpt>
      <trkpt lat="44.4936" lon="2.47391">
        <ele>394.3</ele>
        <time>2014-08-24T07:40:24Z</time>
      </trkpt>
      <trkpt lat="44.49352" lon="2.47399">
        <ele>395.4</ele>
        <time>2014-08-24T07:40:28Z</time>
      </trkpt>
      <trkpt lat="44.49344" lon="2.47407">
        <ele>396.1</ele>
        <time>2014-08-24T07:40:32Z</time>
      </trkpt>
      <trkpt lat="44.49337" lon="2.47416">
        <ele>395.9</ele>
        <time>2014-08-24T07:40:36Z</time>
      </trkpt>
      <trkpt lat="44.49329" lon="2.47425">
        <ele>396.5</ele>
        <time>2014-08-24T07:40:40Z</time>
      </trkpt>
      <trkpt lat="44.49321" lon="2.47432">
        <ele>397.9</ele>
        <time>2014-08-24T07:40:44Z</time>
      </trkpt>
      <trkpt lat="44.49312" lon="2.47438">
        <ele>398.1</ele>
        <time>2014-08-24T07:40:48Z</time>
      </trkpt>
      <trkpt lat="44.49304" lon="2.47447">
        <ele>399.5</ele>
        <time>2014-08-24T07:40:53Z</time>
      </trkpt>
      <trkpt lat="44.49296" lon="2.47456">
        <ele>400.4</ele>
        <time>2014-08-24T07:40:59Z</time>
      </trkpt>
      <trkpt lat="44.49287" lon="2.47465">
        <ele>400.9</ele>
        <time>2014-08-24T07:41:04Z</time>
      </trkpt>
      <trkpt lat="44.4928" lon="2.47475">
        <ele>401.8</ele>
        <time>2014-08-24T07:41:09Z</time>
      </trkpt>
      <trkpt lat="44.49266" lon="2.47496">
        <ele>404.2</ele>
        <time>2014-08-24T07:41:19Z</time>
      </trkpt>
      <trkpt lat="44.49258" lon="2.47506">
        <ele>404.6</ele>
        <time>2014-08-24T07:41:24Z</time>
      </trkpt>
      <trkpt lat="44.4925" lon="2.4751">
        <ele>405.2</ele>
        <time>2014-08-24T07:41:28Z</time>
      </trkpt>
      <trkpt lat="44.49239" lon="2.47507">
        <ele>405.8</ele>
        <time>2014-08-24T07:41:33Z</time>
      </trkpt>
      <trkpt lat="44.49232" lon="2.475">
        <ele>407.2</ele>
        <time>2014-08-24T07:41:38Z</time>
      </trkpt>
      <trkpt lat="44.49225" lon="2.4749">
        <ele>407.7</ele>
        <time>2014-08-24T07:41:43Z</time>
      </trkpt>
      <trkpt lat="44.49219" lon="2.47477">
        <ele>408.2</ele>
        <time>2014-08-24T07:41:48Z</time>
      </trkpt>
      <trkpt lat="44.49214" lon="2.47466">
        <ele>408.1</ele>
        <time>2014-08-24T07:41:52Z</time>
      </trkpt>
      <trkpt lat="44.49209" lon="2.47455">
        <ele>407.9</ele>
        <time>2014-08-24T07:41:56Z</time>
      </trkpt>
      <trkpt lat="44.49204" lon="2.47444">
        <ele>409.2</ele>
        <time>2014-08-24T07:42:00Z</time>
      </trkpt>
      <trkpt lat="44.492" lon="2.47431">
        <ele>409.5</ele>
        <time>2014-08-24T07:42:04Z</time>
      </trkpt>
      <trkpt lat="44.49196" lon="2.47417">
        <ele>409.4</ele>
        <time>2014-08-24T07:42:08Z</time>
      </trkpt>
      <trkpt lat="44.49189" lon="2.47405">
        <ele>410.7</ele>
        <time>2014-08-24T07:42:12Z</time>
      </trkpt>
      <trkpt lat="44.49174" lon="2.47386">
        <ele>411.3</ele>
        <time>2014-08-24T07:42:18Z</time>
      </trkpt>
      <trkpt lat="44.49167" lon="2.47377">
        <ele>410</ele>
        <time>2014-08-24T07:42:21Z</time>
      </trkpt>
      <trkpt lat="44.49161" lon="2.47368">
        <ele>410.3</ele>
        <time>2014-08-24T07:42:24Z</time>
      </trkpt>
      <trkpt lat="44.49155" lon="2.47358">
        <ele>409.9</ele>
        <time>2014-08-24T07:42:27Z</time>
      </trkpt>
      <trkpt lat="44.49147" lon="2.47349">
        <ele>409.7</ele>
        <time>2014-08-24T07:42:30Z</time>
      </trkpt>
      <trkpt lat="44.49139" lon="2.47339">
        <ele>409.4</ele>
        <time>2014-08-24T07:42:33Z</time>
      </trkpt>
      <trkpt lat="44.49133" lon="2.47325">
        <ele>409.3</ele>
        <time>2014-08-24T07:42:36Z</time>
      </trkpt>
      <trkpt lat="44.49132" lon="2.47308">
        <ele>407.9</ele>
        <time>2014-08-24T07:42:39Z</time>
      </trkpt>
      <trkpt lat="44.49137" lon="2.4729">
        <ele>408.1</ele>
        <time>2014-08-24T07:42:42Z</time>
      </trkpt>
      <trkpt lat="44.49141" lon="2.47279">
        <ele>407.9</ele>
        <time>2014-08-24T07:42:44Z</time>
      </trkpt>
      <trkpt lat="44.49148" lon="2.47271">
        <ele>407.4</ele>
        <time>2014-08-24T07:42:46Z</time>
      </trkpt>
      <trkpt lat="44.49157" lon="2.47266">
        <ele>406.8</ele>
        <time>2014-08-24T07:42:48Z</time>
      </trkpt>
      <trkpt lat="44.49169" lon="2.4726">
        <ele>406</ele>
        <time>2014-08-24T07:42:51Z</time>
      </trkpt>
      <trkpt lat="44.49182" lon="2.47259">
        <ele>405.6</ele>
        <time>2014-08-24T07:42:54Z</time>
      </trkpt>
      <trkpt lat="44.49191" lon="2.47255">
        <ele>405.4</ele>
        <time>2014-08-24T07:42:56Z</time>
      </trkpt>
      <trkpt lat="44.49199" lon="2.4725">
        <ele>404.9</ele>
        <time>2014-08-24T07:42:58Z</time>
      </trkpt>
      <trkpt lat="44.49208" lon="2.47242">
        <ele>404</ele>
        <time>2014-08-24T07:43:00Z</time>
      </trkpt>
      <trkpt lat="44.49216" lon="2.47231">
        <ele>403.1</ele>
        <time>2014-08-24T07:43:02Z</time>
      </trkpt>
      <trkpt lat="44.4922" lon="2.47217">
        <ele>402.5</ele>
        <time>2014-08-24T07:43:04Z</time>
      </trkpt>
      <trkpt lat="44.49219" lon="2.472">
        <ele>402</ele>
        <time>2014-08-24T07:43:06Z</time>
      </trkpt>
      <trkpt lat="44.49216" lon="2.47184">
        <ele>401.5</ele>
        <time>2014-08-24T07:43:08Z</time>
      </trkpt>
      <trkpt lat="44.49212" lon="2.47168">
        <ele>400.7</ele>
        <time>2014-08-24T07:43:10Z</time>
      </trkpt>
      <trkpt lat="44.49208" lon="2.4715">
        <ele>399.8</ele>
        <time>2014-08-24T07:43:12Z</time>
      </trkpt>
      <trkpt lat="44.49205" lon="2.47133">
        <ele>399.5</ele>
        <time>2014-08-24T07:43:14Z</time>
      </trkpt>
      <trkpt lat="44.49216" lon="2.47103">
        <ele>398.4</ele>
        <time>2014-08-24T07:43:18Z</time>
      </trkpt>
      <trkpt lat="44.49226" lon="2.47094">
        <ele>397.8</ele>
        <time>2014-08-24T07:43:20Z</time>
      </trkpt>
      <trkpt lat="44.49236" lon="2.47083">
        <ele>397.2</ele>
        <time>2014-08-24T07:43:22Z</time>
      </trkpt>
      <trkpt lat="44.49243" lon="2.47068">
        <ele>396.5</ele>
        <time>2014-08-24T07:43:24Z</time>
      </trkpt>
      <trkpt lat="44.49242" lon="2.47053">
        <ele>396.2</ele>
        <time>2014-08-24T07:43:26Z</time>
      </trkpt>
      <trkpt lat="44.49235" lon="2.47045">
        <ele>396.1</ele>
        <time>2014-08-24T07:43:28Z</time>
      </trkpt>
      <trkpt lat="44.49226" lon="2.47035">
        <ele>395.6</ele>
        <time>2014-08-24T07:43:31Z</time>
      </trkpt>
      <trkpt lat="44.49219" lon="2.47023">
        <ele>396.8</ele>
        <time>2014-08-24T07:43:34Z</time>
      </trkpt>
      <trkpt lat="44.49211" lon="2.47012">
        <ele>396.3</ele>
        <time>2014-08-24T07:43:37Z</time>
      </trkpt>
      <trkpt lat="44.49205" lon="2.47002">
        <ele>394.9</ele>
        <time>2014-08-24T07:43:40Z</time>
      </trkpt>
      <trkpt lat="44.49204" lon="2.46988">
        <ele>395.1</ele>
        <time>2014-08-24T07:43:43Z</time>
      </trkpt>
      <trkpt lat="44.49207" lon="2.46971">
        <ele>395.3</ele>
        <time>2014-08-24T07:43:46Z</time>
      </trkpt>
      <trkpt lat="44.49211" lon="2.46959">
        <ele>395.2</ele>
        <time>2014-08-24T07:43:48Z</time>
      </trkpt>
      <trkpt lat="44.49215" lon="2.46946">
        <ele>395.1</ele>
        <time>2014-08-24T07:43:50Z</time>
      </trkpt>
      <trkpt lat="44.4922" lon="2.46932">
        <ele>394.2</ele>
        <time>2014-08-24T07:43:52Z</time>
      </trkpt>
      <trkpt lat="44.49224" lon="2.46918">
        <ele>394</ele>
        <time>2014-08-24T07:43:54Z</time>
      </trkpt>
      <trkpt lat="44.49229" lon="2.46903">
        <ele>394.2</ele>
        <time>2014-08-24T07:43:56Z</time>
      </trkpt>
      <trkpt lat="44.49234" lon="2.46887">
        <ele>394</ele>
        <time>2014-08-24T07:43:58Z</time>
      </trkpt>
      <trkpt lat="44.49239" lon="2.46869">
        <ele>393.6</ele>
        <time>2014-08-24T07:44:00Z</time>
      </trkpt>
      <trkpt lat="44.49243" lon="2.4685">
        <ele>393.2</ele>
        <time>2014-08-24T07:44:02Z</time>
      </trkpt>
      <trkpt lat="44.49247" lon="2.46829">
        <ele>392.6</ele>
        <time>2014-08-24T07:44:04Z</time>
      </trkpt>
      <trkpt lat="44.49252" lon="2.46809">
        <ele>392</ele>
        <time>2014-08-24T07:44:06Z</time>
      </trkpt>
      <trkpt lat="44.49258" lon="2.46789">
        <ele>390.1</ele>
        <time>2014-08-24T07:44:08Z</time>
      </trkpt>
      <trkpt lat="44.49265" lon="2.46769">
        <ele>388.9</ele>
        <time>2014-08-24T07:44:10Z</time>
      </trkpt>
      <trkpt lat="44.49273" lon="2.4675">
        <ele>388.2</ele>
        <time>2014-08-24T07:44:12Z</time>
      </trkpt>
      <trkpt lat="44.49283" lon="2.46734">
        <ele>387.6</ele>
        <time>2014-08-24T07:44:14Z</time>
      </trkpt>
      <trkpt lat="44.49296" lon="2.46724">
        <ele>387</ele>
        <time>2014-08-24T07:44:16Z</time>
      </trkpt>
      <trkpt lat="44.49321" lon="2.46722">
        <ele>385.6</ele>
        <time>2014-08-24T07:44:20Z</time>
      </trkpt>
      <trkpt lat="44.49334" lon="2.46729">
        <ele>385</ele>
        <time>2014-08-24T07:44:23Z</time>
      </trkpt>
      <trkpt lat="44.49342" lon="2.46734">
        <ele>384.7</ele>
        <time>2014-08-24T07:44:25Z</time>
      </trkpt>
      <trkpt lat="44.49353" lon="2.4674">
        <ele>384.9</ele>
        <time>2014-08-24T07:44:28Z</time>
      </trkpt>
      <trkpt lat="44.49364" lon="2.46751">
        <ele>385.4</ele>
        <time>2014-08-24T07:44:31Z</time>
      </trkpt>
      <trkpt lat="44.49371" lon="2.46763">
        <ele>386.7</ele>
        <time>2014-08-24T07:44:34Z</time>
      </trkpt>
      <trkpt lat="44.49761" lon="2.4691">
        <ele>396</ele>
        <time>2014-08-24T07:47:52Z</time>
      </trkpt>
      <trkpt lat="44.49771" lon="2.46887">
        <ele>420.5</ele>
        <time>2014-08-24T07:48:00Z</time>
      </trkpt>
      <trkpt lat="44.49778" lon="2.46877">
        <ele>423.1</ele>
        <time>2014-08-24T07:48:04Z</time>
      </trkpt>
      <trkpt lat="44.49784" lon="2.46867">
        <ele>425.2</ele>
        <time>2014-08-24T07:48:08Z</time>
      </trkpt>
      <trkpt lat="44.49791" lon="2.46858">
        <ele>425.4</ele>
        <time>2014-08-24T07:48:12Z</time>
      </trkpt>
      <trkpt lat="44.49799" lon="2.46851">
        <ele>426.2</ele>
        <time>2014-08-24T07:48:16Z</time>
      </trkpt>
      <trkpt lat="44.49808" lon="2.46845">
        <ele>427.2</ele>
        <time>2014-08-24T07:48:21Z</time>
      </trkpt>
      <trkpt lat="44.49818" lon="2.46838">
        <ele>428.3</ele>
        <time>2014-08-24T07:48:26Z</time>
      </trkpt>
      <trkpt lat="44.4982" lon="2.46826">
        <ele>429</ele>
        <time>2014-08-24T07:48:31Z</time>
      </trkpt>
      <trkpt lat="44.49813" lon="2.46816">
        <ele>430.3</ele>
        <time>2014-08-24T07:48:36Z</time>
      </trkpt>
      <trkpt lat="44.49804" lon="2.46807">
        <ele>431.4</ele>
        <time>2014-08-24T07:48:41Z</time>
      </trkpt>
      <trkpt lat="44.49796" lon="2.46799">
        <ele>432.5</ele>
        <time>2014-08-24T07:48:46Z</time>
      </trkpt>
      <trkpt lat="44.49787" lon="2.46792">
        <ele>432.4</ele>
        <time>2014-08-24T07:48:51Z</time>
      </trkpt>
      <trkpt lat="44.49779" lon="2.46786">
        <ele>434.2</ele>
        <time>2014-08-24T07:48:56Z</time>
      </trkpt>
      <trkpt lat="44.49762" lon="2.46771">
        <ele>434.8</ele>
        <time>2014-08-24T07:49:05Z</time>
      </trkpt>
      <trkpt lat="44.49755" lon="2.46761">
        <ele>435.8</ele>
        <time>2014-08-24T07:49:09Z</time>
      </trkpt>
      <trkpt lat="44.49748" lon="2.4675">
        <ele>436</ele>
        <time>2014-08-24T07:49:13Z</time>
      </trkpt>
      <trkpt lat="44.49742" lon="2.46739">
        <ele>436.1</ele>
        <time>2014-08-24T07:49:17Z</time>
      </trkpt>
      <trkpt lat="44.49734" lon="2.46729">
        <ele>436.4</ele>
        <time>2014-08-24T07:49:21Z</time>
      </trkpt>
      <trkpt lat="44.49727" lon="2.46719">
        <ele>437.1</ele>
        <time>2014-08-24T07:49:25Z</time>
      </trkpt>
      <trkpt lat="44.4972" lon="2.46708">
        <ele>437.1</ele>
        <time>2014-08-24T07:49:30Z</time>
      </trkpt>
      <trkpt lat="44.49713" lon="2.46699">
        <ele>436.8</ele>
        <time>2014-08-24T07:49:36Z</time>
      </trkpt>
      <trkpt lat="44.49721" lon="2.46695">
        <ele>437.7</ele>
        <time>2014-08-24T07:49:49Z</time>
      </trkpt>
      <trkpt lat="44.49729" lon="2.46703">
        <ele>439.1</ele>
        <time>2014-08-24T07:49:55Z</time>
      </trkpt>
      <trkpt lat="44.49736" lon="2.4671">
        <ele>440.6</ele>
        <time>2014-08-24T07:50:01Z</time>
      </trkpt>
      <trkpt lat="44.4975" lon="2.46729">
        <ele>442.6</ele>
        <time>2014-08-24T07:50:12Z</time>
      </trkpt>
      <trkpt lat="44.49757" lon="2.46739">
        <ele>443.8</ele>
        <time>2014-08-24T07:50:18Z</time>
      </trkpt>
      <trkpt lat="44.49767" lon="2.46746">
        <ele>445.4</ele>
        <time>2014-08-24T07:50:24Z</time>
      </trkpt>
      <trkpt lat="44.49776" lon="2.46752">
        <ele>446.2</ele>
        <time>2014-08-24T07:50:30Z</time>
      </trkpt>
      <trkpt lat="44.49785" lon="2.46754">
        <ele>447.8</ele>
        <time>2014-08-24T07:50:36Z</time>
      </trkpt>
      <trkpt lat="44.49795" lon="2.46759">
        <ele>450.5</ele>
        <time>2014-08-24T07:50:43Z</time>
      </trkpt>
      <trkpt lat="44.49804" lon="2.46763">
        <ele>450.4</ele>
        <time>2014-08-24T07:50:49Z</time>
      </trkpt>
      <trkpt lat="44.49813" lon="2.46766">
        <ele>452.4</ele>
        <time>2014-08-24T07:50:56Z</time>
      </trkpt>
      <trkpt lat="44.49823" lon="2.46768">
        <ele>453.9</ele>
        <time>2014-08-24T07:51:03Z</time>
      </trkpt>
      <trkpt lat="44.49841" lon="2.46773">
        <ele>455.4</ele>
        <time>2014-08-24T07:51:17Z</time>
      </trkpt>
      <trkpt lat="44.4985" lon="2.46779">
        <ele>457.9</ele>
        <time>2014-08-24T07:51:24Z</time>
      </trkpt>
      <trkpt lat="44.49859" lon="2.46784">
        <ele>459.2</ele>
        <time>2014-08-24T07:51:31Z</time>
      </trkpt>
      <trkpt lat="44.49869" lon="2.46786">
        <ele>460.6</ele>
        <time>2014-08-24T07:51:38Z</time>
      </trkpt>
      <trkpt lat="44.49869" lon="2.46773">
        <ele>462.1</ele>
        <time>2014-08-24T07:51:48Z</time>
      </trkpt>
      <trkpt lat="44.49862" lon="2.46764">
        <ele>463.7</ele>
        <time>2014-08-24T07:51:55Z</time>
      </trkpt>
      <trkpt lat="44.49856" lon="2.46752">
        <ele>465.1</ele>
        <time>2014-08-24T07:52:02Z</time>
      </trkpt>
      <trkpt lat="44.49851" lon="2.46741">
        <ele>465.2</ele>
        <time>2014-08-24T07:52:08Z</time>
      </trkpt>
      <trkpt lat="44.49847" lon="2.46715">
        <ele>468.2</ele>
        <time>2014-08-24T07:52:20Z</time>
      </trkpt>
      <trkpt lat="44.49853" lon="2.46705">
        <ele>468.1</ele>
        <time>2014-08-24T07:52:25Z</time>
      </trkpt>
      <trkpt lat="44.49862" lon="2.46697">
        <ele>469.2</ele>
        <time>2014-08-24T07:52:31Z</time>
      </trkpt>
      <trkpt lat="44.49872" lon="2.46693">
        <ele>471.9</ele>
        <time>2014-08-24T07:52:37Z</time>
      </trkpt>
      <trkpt lat="44.49881" lon="2.46693">
        <ele>472</ele>
        <time>2014-08-24T07:52:42Z</time>
      </trkpt>
      <trkpt lat="44.49891" lon="2.46697">
        <ele>473.2</ele>
        <time>2014-08-24T07:52:47Z</time>
      </trkpt>
      <trkpt lat="44.49899" lon="2.46705">
        <ele>473</ele>
        <time>2014-08-24T07:52:52Z</time>
      </trkpt>
      <trkpt lat="44.49908" lon="2.46714">
        <ele>473.4</ele>
        <time>2014-08-24T07:52:56Z</time>
      </trkpt>
      <trkpt lat="44.49918" lon="2.4672">
        <ele>473.6</ele>
        <time>2014-08-24T07:53:00Z</time>
      </trkpt>
      <trkpt lat="44.49928" lon="2.46722">
        <ele>475</ele>
        <time>2014-08-24T07:53:03Z</time>
      </trkpt>
      <trkpt lat="44.4994" lon="2.46721">
        <ele>475.6</ele>
        <time>2014-08-24T07:53:06Z</time>
      </trkpt>
      <trkpt lat="44.49952" lon="2.46717">
        <ele>475.3</ele>
        <time>2014-08-24T07:53:09Z</time>
      </trkpt>
      <trkpt lat="44.49972" lon="2.46705">
        <ele>475.6</ele>
        <time>2014-08-24T07:53:14Z</time>
      </trkpt>
      <trkpt lat="44.49983" lon="2.46697">
        <ele>475.2</ele>
        <time>2014-08-24T07:53:17Z</time>
      </trkpt>
      <trkpt lat="44.49995" lon="2.46698">
        <ele>474.9</ele>
        <time>2014-08-24T07:53:20Z</time>
      </trkpt>
      <trkpt lat="44.50003" lon="2.4671">
        <ele>474.7</ele>
        <time>2014-08-24T07:53:23Z</time>
      </trkpt>
      <trkpt lat="44.50009" lon="2.46721">
        <ele>474.6</ele>
        <time>2014-08-24T07:53:26Z</time>
      </trkpt>
      <trkpt lat="44.50018" lon="2.4673">
        <ele>475.3</ele>
        <time>2014-08-24T07:53:30Z</time>
      </trkpt>
      <trkpt lat="44.50028" lon="2.46732">
        <ele>475.9</ele>
        <time>2014-08-24T07:53:34Z</time>
      </trkpt>
      <trkpt lat="44.50039" lon="2.46732">
        <ele>475.9</ele>
        <time>2014-08-24T07:53:38Z</time>
      </trkpt>
      <trkpt lat="44.50051" lon="2.46731">
        <ele>478</ele>
        <time>2014-08-24T07:53:42Z</time>
      </trkpt>
      <trkpt lat="44.5006" lon="2.46731">
        <ele>478.4</ele>
        <time>2014-08-24T07:53:45Z</time>
      </trkpt>
      <trkpt lat="44.50072" lon="2.46732">
        <ele>479.1</ele>
        <time>2014-08-24T07:53:49Z</time>
      </trkpt>
      <trkpt lat="44.50083" lon="2.46735">
        <ele>478.8</ele>
        <time>2014-08-24T07:53:53Z</time>
      </trkpt>
      <trkpt lat="44.50093" lon="2.46745">
        <ele>479.7</ele>
        <time>2014-08-24T07:53:57Z</time>
      </trkpt>
      <trkpt lat="44.50096" lon="2.46759">
        <ele>479.6</ele>
        <time>2014-08-24T07:54:01Z</time>
      </trkpt>
      <trkpt lat="44.50093" lon="2.46775">
        <ele>480.3</ele>
        <time>2014-08-24T07:54:05Z</time>
      </trkpt>
      <trkpt lat="44.5009" lon="2.46788">
        <ele>481.3</ele>
        <time>2014-08-24T07:54:09Z</time>
      </trkpt>
      <trkpt lat="44.50086" lon="2.46801">
        <ele>482.4</ele>
        <time>2014-08-24T07:54:13Z</time>
      </trkpt>
      <trkpt lat="44.50076" lon="2.46827">
        <ele>483.2</ele>
        <time>2014-08-24T07:54:21Z</time>
      </trkpt>
      <trkpt lat="44.5007" lon="2.46838">
        <ele>484.1</ele>
        <time>2014-08-24T07:54:25Z</time>
      </trkpt>
      <trkpt lat="44.50063" lon="2.4685">
        <ele>484.7</ele>
        <time>2014-08-24T07:54:29Z</time>
      </trkpt>
      <trkpt lat="44.50057" lon="2.46863">
        <ele>485</ele>
        <time>2014-08-24T07:54:33Z</time>
      </trkpt>
      <trkpt lat="44.50053" lon="2.46877">
        <ele>485.9</ele>
        <time>2014-08-24T07:54:37Z</time>
      </trkpt>
      <trkpt lat="44.50053" lon="2.46892">
        <ele>486.4</ele>
        <time>2014-08-24T07:54:41Z</time>
      </trkpt>
      <trkpt lat="44.50058" lon="2.46905">
        <ele>486</ele>
        <time>2014-08-24T07:54:45Z</time>
      </trkpt>
      <trkpt lat="44.50068" lon="2.46914">
        <ele>487.1</ele>
        <time>2014-08-24T07:54:49Z</time>
      </trkpt>
      <trkpt lat="44.50076" lon="2.46921">
        <ele>488.6</ele>
        <time>2014-08-24T07:54:52Z</time>
      </trkpt>
      <trkpt lat="44.50083" lon="2.46929">
        <ele>489.3</ele>
        <time>2014-08-24T07:54:55Z</time>
      </trkpt>
      <trkpt lat="44.50089" lon="2.46938">
        <ele>489.6</ele>
        <time>2014-08-24T07:54:58Z</time>
      </trkpt>
      <trkpt lat="44.50096" lon="2.46952">
        <ele>489.5</ele>
        <time>2014-08-24T07:55:02Z</time>
      </trkpt>
      <trkpt lat="44.50098" lon="2.46967">
        <ele>489.6</ele>
        <time>2014-08-24T07:55:06Z</time>
      </trkpt>
      <trkpt lat="44.50095" lon="2.46982">
        <ele>490.9</ele>
        <time>2014-08-24T07:55:10Z</time>
      </trkpt>
      <trkpt lat="44.5009" lon="2.46995">
        <ele>491.7</ele>
        <time>2014-08-24T07:55:14Z</time>
      </trkpt>
      <trkpt lat="44.50086" lon="2.47022">
        <ele>493</ele>
        <time>2014-08-24T07:55:22Z</time>
      </trkpt>
      <trkpt lat="44.50085" lon="2.47037">
        <ele>493</ele>
        <time>2014-08-24T07:55:27Z</time>
      </trkpt>
      <trkpt lat="44.50085" lon="2.47052">
        <ele>494.8</ele>
        <time>2014-08-24T07:55:32Z</time>
      </trkpt>
      <trkpt lat="44.50083" lon="2.47067">
        <ele>496</ele>
        <time>2014-08-24T07:55:37Z</time>
      </trkpt>
      <trkpt lat="44.50081" lon="2.4708">
        <ele>495.6</ele>
        <time>2014-08-24T07:55:42Z</time>
      </trkpt>
      <trkpt lat="44.50079" lon="2.47093">
        <ele>496.8</ele>
        <time>2014-08-24T07:55:48Z</time>
      </trkpt>
      <trkpt lat="44.50078" lon="2.47106">
        <ele>497.7</ele>
        <time>2014-08-24T07:55:56Z</time>
      </trkpt>
      <trkpt lat="44.50071" lon="2.47097">
        <ele>498.9</ele>
        <time>2014-08-24T07:56:12Z</time>
      </trkpt>
      <trkpt lat="44.50072" lon="2.47083">
        <ele>501.1</ele>
        <time>2014-08-24T07:56:19Z</time>
      </trkpt>
      <trkpt lat="44.50069" lon="2.47055">
        <ele>506.5</ele>
        <time>2014-08-24T07:56:36Z</time>
      </trkpt>
      <trkpt lat="44.50068" lon="2.47043">
        <ele>507.8</ele>
        <time>2014-08-24T07:56:44Z</time>
      </trkpt>
      <trkpt lat="44.50068" lon="2.4703">
        <ele>510.6</ele>
        <time>2014-08-24T07:56:52Z</time>
      </trkpt>
      <trkpt lat="44.50064" lon="2.47018">
        <ele>509.9</ele>
        <time>2014-08-24T07:56:59Z</time>
      </trkpt>
      <trkpt lat="44.5006" lon="2.47005">
        <ele>510.6</ele>
        <time>2014-08-24T07:57:05Z</time>
      </trkpt>
      <trkpt lat="44.50055" lon="2.46993">
        <ele>512.9</ele>
        <time>2014-08-24T07:57:12Z</time>
      </trkpt>
      <trkpt lat="44.50048" lon="2.46985">
        <ele>515.1</ele>
        <time>2014-08-24T07:57:20Z</time>
      </trkpt>
      <trkpt lat="44.5003" lon="2.4698">
        <ele>518</ele>
        <time>2014-08-24T07:57:37Z</time>
      </trkpt>
      <trkpt lat="44.50021" lon="2.46977">
        <ele>519.8</ele>
        <time>2014-08-24T07:57:43Z</time>
      </trkpt>
      <trkpt lat="44.50011" lon="2.46979">
        <ele>520.8</ele>
        <time>2014-08-24T07:57:51Z</time>
      </trkpt>
      <trkpt lat="44.50002" lon="2.46985">
        <ele>520.4</ele>
        <time>2014-08-24T07:57:57Z</time>
      </trkpt>
      <trkpt lat="44.49993" lon="2.46991">
        <ele>520.4</ele>
        <time>2014-08-24T07:58:02Z</time>
      </trkpt>
      <trkpt lat="44.49984" lon="2.46998">
        <ele>521.6</ele>
        <time>2014-08-24T07:58:07Z</time>
      </trkpt>
      <trkpt lat="44.49976" lon="2.47004">
        <ele>521.6</ele>
        <time>2014-08-24T07:58:11Z</time>
      </trkpt>
      <trkpt lat="44.49967" lon="2.47008">
        <ele>522.1</ele>
        <time>2014-08-24T07:58:14Z</time>
      </trkpt>
      <trkpt lat="44.49958" lon="2.47013">
        <ele>522.4</ele>
        <time>2014-08-24T07:58:16Z</time>
      </trkpt>
      <trkpt lat="44.49951" lon="2.47022">
        <ele>522.5</ele>
        <time>2014-08-24T07:58:21Z</time>
      </trkpt>
      <trkpt lat="44.49935" lon="2.47032">
        <ele>522.5</ele>
        <time>2014-08-24T08:00:18Z</time>
      </trkpt>
      <trkpt lat="44.49929" lon="2.47062">
        <ele>521.2</ele>
        <time>2014-08-24T08:00:24Z</time>
      </trkpt>
      <trkpt lat="44.49927" lon="2.47075">
        <ele>521</ele>
        <time>2014-08-24T08:00:27Z</time>
      </trkpt>
      <trkpt lat="44.49925" lon="2.47091">
        <ele>519.3</ele>
        <time>2014-08-24T08:00:30Z</time>
      </trkpt>
      <trkpt lat="44.49922" lon="2.47106">
        <ele>518.8</ele>
        <time>2014-08-24T08:00:33Z</time>
      </trkpt>
      <trkpt lat="44.49919" lon="2.47122">
        <ele>518</ele>
        <time>2014-08-24T08:00:37Z</time>
      </trkpt>
      <trkpt lat="44.49917" lon="2.47134">
        <ele>519.2</ele>
        <time>2014-08-24T08:00:40Z</time>
      </trkpt>
      <trkpt lat="44.49915" lon="2.47147">
        <ele>519.2</ele>
        <time>2014-08-24T08:00:43Z</time>
      </trkpt>
      <trkpt lat="44.49915" lon="2.47163">
        <ele>521.6</ele>
        <time>2014-08-24T08:00:47Z</time>
      </trkpt>
      <trkpt lat="44.49912" lon="2.47177">
        <ele>522.9</ele>
        <time>2014-08-24T08:00:51Z</time>
      </trkpt>
      <trkpt lat="44.49908" lon="2.47192">
        <ele>522.7</ele>
        <time>2014-08-24T08:00:55Z</time>
      </trkpt>
      <trkpt lat="44.49905" lon="2.47205">
        <ele>524.1</ele>
        <time>2014-08-24T08:00:59Z</time>
      </trkpt>
      <trkpt lat="44.49902" lon="2.47217">
        <ele>524.9</ele>
        <time>2014-08-24T08:01:04Z</time>
      </trkpt>
      <trkpt lat="44.49898" lon="2.47229">
        <ele>524.9</ele>
        <time>2014-08-24T08:01:08Z</time>
      </trkpt>
      <trkpt lat="44.49894" lon="2.4724">
        <ele>524.9</ele>
        <time>2014-08-24T08:01:11Z</time>
      </trkpt>
      <trkpt lat="44.49888" lon="2.47251">
        <ele>524.8</ele>
        <time>2014-08-24T08:01:14Z</time>
      </trkpt>
      <trkpt lat="44.4988" lon="2.47261">
        <ele>524.4</ele>
        <time>2014-08-24T08:01:17Z</time>
      </trkpt>
      <trkpt lat="44.49875" lon="2.47272">
        <ele>522.9</ele>
        <time>2014-08-24T08:01:21Z</time>
      </trkpt>
      <trkpt lat="44.49889" lon="2.47296">
        <ele>522.6</ele>
        <time>2014-08-24T08:02:22Z</time>
      </trkpt>
      <trkpt lat="44.4991" lon="2.47315">
        <ele>521.7</ele>
        <time>2014-08-24T08:02:26Z</time>
      </trkpt>
      <trkpt lat="44.49924" lon="2.47323">
        <ele>521.4</ele>
        <time>2014-08-24T08:02:28Z</time>
      </trkpt>
      <trkpt lat="44.49936" lon="2.47333">
        <ele>520.1</ele>
        <time>2014-08-24T08:02:30Z</time>
      </trkpt>
      <trkpt lat="44.49945" lon="2.4735">
        <ele>518.6</ele>
        <time>2014-08-24T08:02:32Z</time>
      </trkpt>
      <trkpt lat="44.49957" lon="2.47366">
        <ele>516.5</ele>
        <time>2014-08-24T08:02:34Z</time>
      </trkpt>
      <trkpt lat="44.49964" lon="2.47375">
        <ele>515.8</ele>
        <time>2014-08-24T08:02:35Z</time>
      </trkpt>
      <trkpt lat="44.4997" lon="2.47384">
        <ele>515.1</ele>
        <time>2014-08-24T08:02:36Z</time>
      </trkpt>
      <trkpt lat="44.49976" lon="2.47394">
        <ele>514.5</ele>
        <time>2014-08-24T08:02:37Z</time>
      </trkpt>
      <trkpt lat="44.49982" lon="2.47404">
        <ele>514</ele>
        <time>2014-08-24T08:02:38Z</time>
      </trkpt>
      <trkpt lat="44.49987" lon="2.47415">
        <ele>512.9</ele>
        <time>2014-08-24T08:02:39Z</time>
      </trkpt>
      <trkpt lat="44.49995" lon="2.47434">
        <ele>511.4</ele>
        <time>2014-08-24T08:02:41Z</time>
      </trkpt>
      <trkpt lat="44.50001" lon="2.47452">
        <ele>510.6</ele>
        <time>2014-08-24T08:02:43Z</time>
      </trkpt>
      <trkpt lat="44.50005" lon="2.47467">
        <ele>510.1</ele>
        <time>2014-08-24T08:02:45Z</time>
      </trkpt>
      <trkpt lat="44.50009" lon="2.4748">
        <ele>510.1</ele>
        <time>2014-08-24T08:02:47Z</time>
      </trkpt>
      <trkpt lat="44.50013" lon="2.47495">
        <ele>510.5</ele>
        <time>2014-08-24T08:02:51Z</time>
      </trkpt>
      <trkpt lat="44.50015" lon="2.47508">
        <ele>511.7</ele>
        <time>2014-08-24T08:02:56Z</time>
      </trkpt>
      <trkpt lat="44.50019" lon="2.47521">
        <ele>511.5</ele>
        <time>2014-08-24T08:03:01Z</time>
      </trkpt>
      <trkpt lat="44.50023" lon="2.47534">
        <ele>512.7</ele>
        <time>2014-08-24T08:03:06Z</time>
      </trkpt>
      <trkpt lat="44.50024" lon="2.47549">
        <ele>513.3</ele>
        <time>2014-08-24T08:03:11Z</time>
      </trkpt>
      <trkpt lat="44.50026" lon="2.47562">
        <ele>516</ele>
        <time>2014-08-24T08:03:16Z</time>
      </trkpt>
      <trkpt lat="44.50031" lon="2.47575">
        <ele>518</ele>
        <time>2014-08-24T08:03:21Z</time>
      </trkpt>
      <trkpt lat="44.50036" lon="2.47586">
        <ele>519.3</ele>
        <time>2014-08-24T08:03:26Z</time>
      </trkpt>
      <trkpt lat="44.50049" lon="2.47606">
        <ele>520.6</ele>
        <time>2014-08-24T08:03:37Z</time>
      </trkpt>
      <trkpt lat="44.5006" lon="2.4761">
        <ele>520</ele>
        <time>2014-08-24T08:03:41Z</time>
      </trkpt>
      <trkpt lat="44.5007" lon="2.47612">
        <ele>520.1</ele>
        <time>2014-08-24T08:03:45Z</time>
      </trkpt>
      <trkpt lat="44.50079" lon="2.47614">
        <ele>520.1</ele>
        <time>2014-08-24T08:03:48Z</time>
      </trkpt>
      <trkpt lat="44.50089" lon="2.47616">
        <ele>520.1</ele>
        <time>2014-08-24T08:03:51Z</time>
      </trkpt>
      <trkpt lat="44.50099" lon="2.47619">
        <ele>520</ele>
        <time>2014-08-24T08:03:54Z</time>
      </trkpt>
      <trkpt lat="44.50108" lon="2.47623">
        <ele>520.1</ele>
        <time>2014-08-24T08:03:57Z</time>
      </trkpt>
      <trkpt lat="44.50117" lon="2.47627">
        <ele>520.3</ele>
        <time>2014-08-24T08:04:00Z</time>
      </trkpt>
      <trkpt lat="44.50126" lon="2.4763">
        <ele>521.2</ele>
        <time>2014-08-24T08:04:03Z</time>
      </trkpt>
      <trkpt lat="44.50136" lon="2.47633">
        <ele>521.9</ele>
        <time>2014-08-24T08:04:06Z</time>
      </trkpt>
      <trkpt lat="44.50145" lon="2.47638">
        <ele>521.9</ele>
        <time>2014-08-24T08:04:09Z</time>
      </trkpt>
      <trkpt lat="44.50155" lon="2.47642">
        <ele>522.5</ele>
        <time>2014-08-24T08:04:13Z</time>
      </trkpt>
      <trkpt lat="44.50166" lon="2.47647">
        <ele>522.2</ele>
        <time>2014-08-24T08:04:17Z</time>
      </trkpt>
      <trkpt lat="44.50177" lon="2.47649">
        <ele>521.3</ele>
        <time>2014-08-24T08:04:20Z</time>
      </trkpt>
      <trkpt lat="44.50185" lon="2.47662">
        <ele>519.7</ele>
        <time>2014-08-24T08:04:23Z</time>
      </trkpt>
      <trkpt lat="44.50188" lon="2.47676">
        <ele>518.9</ele>
        <time>2014-08-24T08:04:25Z</time>
      </trkpt>
      <trkpt lat="44.5019" lon="2.47691">
        <ele>518.5</ele>
        <time>2014-08-24T08:04:27Z</time>
      </trkpt>
      <trkpt lat="44.50191" lon="2.47723">
        <ele>515.8</ele>
        <time>2014-08-24T08:04:31Z</time>
      </trkpt>
      <trkpt lat="44.5019" lon="2.47742">
        <ele>514.2</ele>
        <time>2014-08-24T08:04:33Z</time>
      </trkpt>
      <trkpt lat="44.50188" lon="2.47763">
        <ele>513</ele>
        <time>2014-08-24T08:04:35Z</time>
      </trkpt>
      <trkpt lat="44.50187" lon="2.47784">
        <ele>512.4</ele>
        <time>2014-08-24T08:04:37Z</time>
      </trkpt>
      <trkpt lat="44.50187" lon="2.47805">
        <ele>510.9</ele>
        <time>2014-08-24T08:04:39Z</time>
      </trkpt>
      <trkpt lat="44.50187" lon="2.47825">
        <ele>509.8</ele>
        <time>2014-08-24T08:04:41Z</time>
      </trkpt>
      <trkpt lat="44.50188" lon="2.47842">
        <ele>508.9</ele>
        <time>2014-08-24T08:04:43Z</time>
      </trkpt>
      <trkpt lat="44.50191" lon="2.47856">
        <ele>507.9</ele>
        <time>2014-08-24T08:04:45Z</time>
      </trkpt>
      <trkpt lat="44.50197" lon="2.4787">
        <ele>507.7</ele>
        <time>2014-08-24T08:04:48Z</time>
      </trkpt>
      <trkpt lat="44.50204" lon="2.4788">
        <ele>508.5</ele>
        <time>2014-08-24T08:04:51Z</time>
      </trkpt>
      <trkpt lat="44.50212" lon="2.47891">
        <ele>509.1</ele>
        <time>2014-08-24T08:04:55Z</time>
      </trkpt>
      <trkpt lat="44.50219" lon="2.479">
        <ele>510.3</ele>
        <time>2014-08-24T08:04:59Z</time>
      </trkpt>
      <trkpt lat="44.50226" lon="2.47908">
        <ele>511</ele>
        <time>2014-08-24T08:05:03Z</time>
      </trkpt>
      <trkpt lat="44.50233" lon="2.47917">
        <ele>511.1</ele>
        <time>2014-08-24T08:05:07Z</time>
      </trkpt>
      <trkpt lat="44.5024" lon="2.47927">
        <ele>511.3</ele>
        <time>2014-08-24T08:05:12Z</time>
      </trkpt>
      <trkpt lat="44.50247" lon="2.47939">
        <ele>512.4</ele>
        <time>2014-08-24T08:05:17Z</time>
      </trkpt>
      <trkpt lat="44.50254" lon="2.4795">
        <ele>514.1</ele>
        <time>2014-08-24T08:05:22Z</time>
      </trkpt>
      <trkpt lat="44.50246" lon="2.47958">
        <ele>515.8</ele>
        <time>2014-08-24T08:05:36Z</time>
      </trkpt>
      <trkpt lat="44.50227" lon="2.47956">
        <ele>518.7</ele>
        <time>2014-08-24T08:05:50Z</time>
      </trkpt>
      <trkpt lat="44.50218" lon="2.47958">
        <ele>521.6</ele>
        <time>2014-08-24T08:05:57Z</time>
      </trkpt>
      <trkpt lat="44.50208" lon="2.4796">
        <ele>522</ele>
        <time>2014-08-24T08:06:05Z</time>
      </trkpt>
      <trkpt lat="44.50199" lon="2.4796">
        <ele>525.8</ele>
        <time>2014-08-24T08:06:13Z</time>
      </trkpt>
      <trkpt lat="44.50189" lon="2.47965">
        <ele>526.3</ele>
        <time>2014-08-24T08:06:22Z</time>
      </trkpt>
      <trkpt lat="44.50184" lon="2.47976">
        <ele>530.7</ele>
        <time>2014-08-24T08:06:29Z</time>
      </trkpt>
      <trkpt lat="44.50181" lon="2.47988">
        <ele>532.3</ele>
        <time>2014-08-24T08:06:36Z</time>
      </trkpt>
      <trkpt lat="44.50179" lon="2.48003">
        <ele>535</ele>
        <time>2014-08-24T08:06:43Z</time>
      </trkpt>
      <trkpt lat="44.5019" lon="2.48025">
        <ele>539.3</ele>
        <time>2014-08-24T08:06:59Z</time>
      </trkpt>
      <trkpt lat="44.50193" lon="2.48038">
        <ele>540.3</ele>
        <time>2014-08-24T08:07:10Z</time>
      </trkpt>
      <trkpt lat="44.50196" lon="2.4805">
        <ele>540.5</ele>
        <time>2014-08-24T08:07:21Z</time>
      </trkpt>
      <trkpt lat="44.50199" lon="2.48063">
        <ele>541.1</ele>
        <time>2014-08-24T08:07:30Z</time>
      </trkpt>
      <trkpt lat="44.502" lon="2.48076">
        <ele>541.2</ele>
        <time>2014-08-24T08:07:39Z</time>
      </trkpt>
      <trkpt lat="44.50198" lon="2.4809">
        <ele>543</ele>
        <time>2014-08-24T08:07:47Z</time>
      </trkpt>
      <trkpt lat="44.50189" lon="2.48113">
        <ele>544.4</ele>
        <time>2014-08-24T08:08:00Z</time>
      </trkpt>
      <trkpt lat="44.50182" lon="2.48122">
        <ele>545</ele>
        <time>2014-08-24T08:08:07Z</time>
      </trkpt>
      <trkpt lat="44.50174" lon="2.48131">
        <ele>545.2</ele>
        <time>2014-08-24T08:08:14Z</time>
      </trkpt>
      <trkpt lat="44.50167" lon="2.48141">
        <ele>545.7</ele>
        <time>2014-08-24T08:08:21Z</time>
      </trkpt>
      <trkpt lat="44.50159" lon="2.48151">
        <ele>547.6</ele>
        <time>2014-08-24T08:08:28Z</time>
      </trkpt>
      <trkpt lat="44.50152" lon="2.48161">
        <ele>547.5</ele>
        <time>2014-08-24T08:08:34Z</time>
      </trkpt>
      <trkpt lat="44.50144" lon="2.48171">
        <ele>547.6</ele>
        <time>2014-08-24T08:08:39Z</time>
      </trkpt>
      <trkpt lat="44.50137" lon="2.48181">
        <ele>547.4</ele>
        <time>2014-08-24T08:08:44Z</time>
      </trkpt>
      <trkpt lat="44.5013" lon="2.48192">
        <ele>547.5</ele>
        <time>2014-08-24T08:08:49Z</time>
      </trkpt>
      <trkpt lat="44.50117" lon="2.48214">
        <ele>548.3</ele>
        <time>2014-08-24T08:08:59Z</time>
      </trkpt>
      <trkpt lat="44.50107" lon="2.48222">
        <ele>549</ele>
        <time>2014-08-24T08:09:04Z</time>
      </trkpt>
      <trkpt lat="44.50099" lon="2.4823">
        <ele>548.9</ele>
        <time>2014-08-24T08:09:08Z</time>
      </trkpt>
      <trkpt lat="44.5009" lon="2.48238">
        <ele>548.4</ele>
        <time>2014-08-24T08:09:12Z</time>
      </trkpt>
      <trkpt lat="44.50082" lon="2.48247">
        <ele>548.7</ele>
        <time>2014-08-24T08:09:16Z</time>
      </trkpt>
      <trkpt lat="44.50075" lon="2.48255">
        <ele>549.6</ele>
        <time>2014-08-24T08:09:20Z</time>
      </trkpt>
      <trkpt lat="44.50068" lon="2.48264">
        <ele>549.6</ele>
        <time>2014-08-24T08:09:24Z</time>
      </trkpt>
      <trkpt lat="44.50059" lon="2.48271">
        <ele>549.9</ele>
        <time>2014-08-24T08:09:28Z</time>
      </trkpt>
      <trkpt lat="44.50051" lon="2.48279">
        <ele>550</ele>
        <time>2014-08-24T08:09:32Z</time>
      </trkpt>
      <trkpt lat="44.50042" lon="2.48285">
        <ele>551.3</ele>
        <time>2014-08-24T08:09:36Z</time>
      </trkpt>
      <trkpt lat="44.50033" lon="2.48292">
        <ele>551.8</ele>
        <time>2014-08-24T08:09:40Z</time>
      </trkpt>
      <trkpt lat="44.50024" lon="2.48299">
        <ele>551.3</ele>
        <time>2014-08-24T08:09:44Z</time>
      </trkpt>
      <trkpt lat="44.50016" lon="2.48305">
        <ele>551</ele>
        <time>2014-08-24T08:09:48Z</time>
      </trkpt>
      <trkpt lat="44.50007" lon="2.48312">
        <ele>551.2</ele>
        <time>2014-08-24T08:09:52Z</time>
      </trkpt>
      <trkpt lat="44.49992" lon="2.48328">
        <ele>550.5</ele>
        <time>2014-08-24T08:10:00Z</time>
      </trkpt>
      <trkpt lat="44.49985" lon="2.48337">
        <ele>551.4</ele>
        <time>2014-08-24T08:10:04Z</time>
      </trkpt>
      <trkpt lat="44.4998" lon="2.48349">
        <ele>550.7</ele>
        <time>2014-08-24T08:10:08Z</time>
      </trkpt>
      <trkpt lat="44.49974" lon="2.48361">
        <ele>550.3</ele>
        <time>2014-08-24T08:10:12Z</time>
      </trkpt>
      <trkpt lat="44.49969" lon="2.48372">
        <ele>549.2</ele>
        <time>2014-08-24T08:10:15Z</time>
      </trkpt>
      <trkpt lat="44.4996" lon="2.4838">
        <ele>548.5</ele>
        <time>2014-08-24T08:10:19Z</time>
      </trkpt>
      <trkpt lat="44.49949" lon="2.48379">
        <ele>546.6</ele>
        <time>2014-08-24T08:11:33Z</time>
      </trkpt>
      <trkpt lat="44.49927" lon="2.48371">
        <ele>546.5</ele>
        <time>2014-08-24T08:11:40Z</time>
      </trkpt>
      <trkpt lat="44.49913" lon="2.48366">
        <ele>545.8</ele>
        <time>2014-08-24T08:11:43Z</time>
      </trkpt>
      <trkpt lat="44.49904" lon="2.48364">
        <ele>545.2</ele>
        <time>2014-08-24T08:11:45Z</time>
      </trkpt>
      <trkpt lat="44.49894" lon="2.48361">
        <ele>544.8</ele>
        <time>2014-08-24T08:11:47Z</time>
      </trkpt>
      <trkpt lat="44.49885" lon="2.48357">
        <ele>544.5</ele>
        <time>2014-08-24T08:11:49Z</time>
      </trkpt>
      <trkpt lat="44.49875" lon="2.48354">
        <ele>544.1</ele>
        <time>2014-08-24T08:11:51Z</time>
      </trkpt>
      <trkpt lat="44.49864" lon="2.48351">
        <ele>543.1</ele>
        <time>2014-08-24T08:11:53Z</time>
      </trkpt>
      <trkpt lat="44.49853" lon="2.48348">
        <ele>542.6</ele>
        <time>2014-08-24T08:11:55Z</time>
      </trkpt>
      <trkpt lat="44.4984" lon="2.48344">
        <ele>542.3</ele>
        <time>2014-08-24T08:11:57Z</time>
      </trkpt>
      <trkpt lat="44.49827" lon="2.48341">
        <ele>541.7</ele>
        <time>2014-08-24T08:11:59Z</time>
      </trkpt>
      <trkpt lat="44.49813" lon="2.48337">
        <ele>541.1</ele>
        <time>2014-08-24T08:12:01Z</time>
      </trkpt>
      <trkpt lat="44.49799" lon="2.48335">
        <ele>540.5</ele>
        <time>2014-08-24T08:12:03Z</time>
      </trkpt>
      <trkpt lat="44.49784" lon="2.48335">
        <ele>539.8</ele>
        <time>2014-08-24T08:12:05Z</time>
      </trkpt>
      <trkpt lat="44.49769" lon="2.48336">
        <ele>539.1</ele>
        <time>2014-08-24T08:12:07Z</time>
      </trkpt>
      <trkpt lat="44.49752" lon="2.48337">
        <ele>537.6</ele>
        <time>2014-08-24T08:12:09Z</time>
      </trkpt>
      <trkpt lat="44.49735" lon="2.48339">
        <ele>536.3</ele>
        <time>2014-08-24T08:12:11Z</time>
      </trkpt>
      <trkpt lat="44.49718" lon="2.48341">
        <ele>535.3</ele>
        <time>2014-08-24T08:12:13Z</time>
      </trkpt>
      <trkpt lat="44.49701" lon="2.48344">
        <ele>534.4</ele>
        <time>2014-08-24T08:12:15Z</time>
      </trkpt>
      <trkpt lat="44.49684" lon="2.48346">
        <ele>533.8</ele>
        <time>2014-08-24T08:12:17Z</time>
      </trkpt>
      <trkpt lat="44.49666" lon="2.48347">
        <ele>531.8</ele>
        <time>2014-08-24T08:12:19Z</time>
      </trkpt>
      <trkpt lat="44.49649" lon="2.48348">
        <ele>530.6</ele>
        <time>2014-08-24T08:12:21Z</time>
      </trkpt>
      <trkpt lat="44.49632" lon="2.48346">
        <ele>529.9</ele>
        <time>2014-08-24T08:12:23Z</time>
      </trkpt>
      <trkpt lat="44.49616" lon="2.48342">
        <ele>529.6</ele>
        <time>2014-08-24T08:12:25Z</time>
      </trkpt>
      <trkpt lat="44.49601" lon="2.48339">
        <ele>529.3</ele>
        <time>2014-08-24T08:12:27Z</time>
      </trkpt>
      <trkpt lat="44.49587" lon="2.48336">
        <ele>528.9</ele>
        <time>2014-08-24T08:12:29Z</time>
      </trkpt>
      <trkpt lat="44.49574" lon="2.48333">
        <ele>528.5</ele>
        <time>2014-08-24T08:12:31Z</time>
      </trkpt>
      <trkpt lat="44.49562" lon="2.48331">
        <ele>528.1</ele>
        <time>2014-08-24T08:12:33Z</time>
      </trkpt>
      <trkpt lat="44.49553" lon="2.48329">
        <ele>527.4</ele>
        <time>2014-08-24T08:12:35Z</time>
      </trkpt>
      <trkpt lat="44.49527" lon="2.48327">
        <ele>526</ele>
        <time>2014-08-24T08:12:41Z</time>
      </trkpt>
      <trkpt lat="44.49514" lon="2.48328">
        <ele>525.9</ele>
        <time>2014-08-24T08:12:44Z</time>
      </trkpt>
      <trkpt lat="44.49505" lon="2.4833">
        <ele>525.8</ele>
        <time>2014-08-24T08:12:46Z</time>
      </trkpt>
      <trkpt lat="44.49492" lon="2.48333">
        <ele>525.9</ele>
        <time>2014-08-24T08:12:49Z</time>
      </trkpt>
      <trkpt lat="44.49483" lon="2.48334">
        <ele>526.1</ele>
        <time>2014-08-24T08:12:51Z</time>
      </trkpt>
      <trkpt lat="44.49474" lon="2.48336">
        <ele>526.1</ele>
        <time>2014-08-24T08:12:53Z</time>
      </trkpt>
      <trkpt lat="44.4946" lon="2.48339">
        <ele>526</ele>
        <time>2014-08-24T08:12:56Z</time>
      </trkpt>
      <trkpt lat="44.49451" lon="2.4834">
        <ele>525.7</ele>
        <time>2014-08-24T08:12:58Z</time>
      </trkpt>
      <trkpt lat="44.49441" lon="2.48342">
        <ele>525.2</ele>
        <time>2014-08-24T08:13:00Z</time>
      </trkpt>
      <trkpt lat="44.49431" lon="2.48343">
        <ele>525</ele>
        <time>2014-08-24T08:13:02Z</time>
      </trkpt>
      <trkpt lat="44.49421" lon="2.48345">
        <ele>525</ele>
        <time>2014-08-24T08:13:04Z</time>
      </trkpt>
      <trkpt lat="44.49412" lon="2.48347">
        <ele>524.9</ele>
        <time>2014-08-24T08:13:06Z</time>
      </trkpt>
      <trkpt lat="44.49402" lon="2.48348">
        <ele>524.8</ele>
        <time>2014-08-24T08:13:08Z</time>
      </trkpt>
      <trkpt lat="44.49392" lon="2.4835">
        <ele>524.1</ele>
        <time>2014-08-24T08:13:10Z</time>
      </trkpt>
      <trkpt lat="44.49382" lon="2.48351">
        <ele>524.1</ele>
        <time>2014-08-24T08:13:12Z</time>
      </trkpt>
      <trkpt lat="44.49372" lon="2.48353">
        <ele>524.5</ele>
        <time>2014-08-24T08:13:14Z</time>
      </trkpt>
      <trkpt lat="44.49362" lon="2.48354">
        <ele>524.7</ele>
        <time>2014-08-24T08:13:16Z</time>
      </trkpt>
      <trkpt lat="44.49353" lon="2.48356">
        <ele>524.9</ele>
        <time>2014-08-24T08:13:18Z</time>
      </trkpt>
      <trkpt lat="44.49341" lon="2.48358">
        <ele>524.6</ele>
        <time>2014-08-24T08:13:21Z</time>
      </trkpt>
      <trkpt lat="44.49332" lon="2.48365">
        <ele>524.7</ele>
        <time>2014-08-24T08:13:24Z</time>
      </trkpt>
      <trkpt lat="44.49322" lon="2.48373">
        <ele>524.2</ele>
        <time>2014-08-24T08:13:27Z</time>
      </trkpt>
      <trkpt lat="44.49312" lon="2.48382">
        <ele>523.7</ele>
        <time>2014-08-24T08:13:30Z</time>
      </trkpt>
      <trkpt lat="44.49302" lon="2.48393">
        <ele>523</ele>
        <time>2014-08-24T08:13:33Z</time>
      </trkpt>
      <trkpt lat="44.49294" lon="2.484">
        <ele>523.2</ele>
        <time>2014-08-24T08:13:35Z</time>
      </trkpt>
      <trkpt lat="44.49287" lon="2.48408">
        <ele>523.3</ele>
        <time>2014-08-24T08:13:37Z</time>
      </trkpt>
      <trkpt lat="44.49269" lon="2.48423">
        <ele>522</ele>
        <time>2014-08-24T08:13:41Z</time>
      </trkpt>
      <trkpt lat="44.49261" lon="2.48431">
        <ele>521.6</ele>
        <time>2014-08-24T08:13:43Z</time>
      </trkpt>
      <trkpt lat="44.49253" lon="2.48439">
        <ele>521.6</ele>
        <time>2014-08-24T08:13:45Z</time>
      </trkpt>
      <trkpt lat="44.49244" lon="2.48447">
        <ele>521.2</ele>
        <time>2014-08-24T08:13:47Z</time>
      </trkpt>
      <trkpt lat="44.49235" lon="2.48452">
        <ele>520.8</ele>
        <time>2014-08-24T08:13:49Z</time>
      </trkpt>
      <trkpt lat="44.49225" lon="2.48455">
        <ele>520.4</ele>
        <time>2014-08-24T08:13:51Z</time>
      </trkpt>
      <trkpt lat="44.49216" lon="2.48458">
        <ele>520.2</ele>
        <time>2014-08-24T08:13:53Z</time>
      </trkpt>
      <trkpt lat="44.49203" lon="2.4846">
        <ele>519.5</ele>
        <time>2014-08-24T08:13:56Z</time>
      </trkpt>
      <trkpt lat="44.49194" lon="2.4846">
        <ele>519.5</ele>
        <time>2014-08-24T08:13:58Z</time>
      </trkpt>
      <trkpt lat="44.49185" lon="2.48456">
        <ele>519.7</ele>
        <time>2014-08-24T08:14:00Z</time>
      </trkpt>
      <trkpt lat="44.49176" lon="2.4845">
        <ele>520.1</ele>
        <time>2014-08-24T08:14:02Z</time>
      </trkpt>
      <trkpt lat="44.49166" lon="2.48449">
        <ele>518.7</ele>
        <time>2014-08-24T08:14:05Z</time>
      </trkpt>
      <trkpt lat="44.49157" lon="2.48462">
        <ele>517.7</ele>
        <time>2014-08-24T08:14:08Z</time>
      </trkpt>
      <trkpt lat="44.49151" lon="2.48471">
        <ele>517.2</ele>
        <time>2014-08-24T08:14:10Z</time>
      </trkpt>
      <trkpt lat="44.49145" lon="2.48481">
        <ele>516.7</ele>
        <time>2014-08-24T08:14:12Z</time>
      </trkpt>
      <trkpt lat="44.49138" lon="2.48492">
        <ele>515.3</ele>
        <time>2014-08-24T08:14:15Z</time>
      </trkpt>
      <trkpt lat="44.49131" lon="2.48501">
        <ele>513.5</ele>
        <time>2014-08-24T08:14:18Z</time>
      </trkpt>
      <trkpt lat="44.49134" lon="2.48514">
        <ele>512.9</ele>
        <time>2014-08-24T08:14:22Z</time>
      </trkpt>
      <trkpt lat="44.49134" lon="2.48531">
        <ele>511.9</ele>
        <time>2014-08-24T08:14:25Z</time>
      </trkpt>
      <trkpt lat="44.4913" lon="2.48545">
        <ele>512</ele>
        <time>2014-08-24T08:14:27Z</time>
      </trkpt>
      <trkpt lat="44.49133" lon="2.4856">
        <ele>511.2</ele>
        <time>2014-08-24T08:14:29Z</time>
      </trkpt>
      <trkpt lat="44.49139" lon="2.48573">
        <ele>510.1</ele>
        <time>2014-08-24T08:14:31Z</time>
      </trkpt>
      <trkpt lat="44.49144" lon="2.48584">
        <ele>508.7</ele>
        <time>2014-08-24T08:14:33Z</time>
      </trkpt>
      <trkpt lat="44.49148" lon="2.48595">
        <ele>507.9</ele>
        <time>2014-08-24T08:14:35Z</time>
      </trkpt>
      <trkpt lat="44.49153" lon="2.48607">
        <ele>507.5</ele>
        <time>2014-08-24T08:14:37Z</time>
      </trkpt>
      <trkpt lat="44.49157" lon="2.48621">
        <ele>506.8</ele>
        <time>2014-08-24T08:14:39Z</time>
      </trkpt>
      <trkpt lat="44.49177" lon="2.48632">
        <ele>505.6</ele>
        <time>2014-08-24T08:14:43Z</time>
      </trkpt>
      <trkpt lat="44.49192" lon="2.4863">
        <ele>504.9</ele>
        <time>2014-08-24T08:14:45Z</time>
      </trkpt>
      <trkpt lat="44.49207" lon="2.48633">
        <ele>504.3</ele>
        <time>2014-08-24T08:14:47Z</time>
      </trkpt>
      <trkpt lat="44.49223" lon="2.48629">
        <ele>502.1</ele>
        <time>2014-08-24T08:14:49Z</time>
      </trkpt>
      <trkpt lat="44.49239" lon="2.48617">
        <ele>500</ele>
        <time>2014-08-24T08:14:51Z</time>
      </trkpt>
      <trkpt lat="44.49248" lon="2.48612">
        <ele>499</ele>
        <time>2014-08-24T08:14:52Z</time>
      </trkpt>
      <trkpt lat="44.49257" lon="2.48607">
        <ele>498.2</ele>
        <time>2014-08-24T08:14:53Z</time>
      </trkpt>
      <trkpt lat="44.49266" lon="2.48603">
        <ele>497.1</ele>
        <time>2014-08-24T08:14:54Z</time>
      </trkpt>
      <trkpt lat="44.49276" lon="2.48599">
        <ele>496.3</ele>
        <time>2014-08-24T08:14:55Z</time>
      </trkpt>
      <trkpt lat="44.49285" lon="2.48597">
        <ele>495.6</ele>
        <time>2014-08-24T08:14:56Z</time>
      </trkpt>
      <trkpt lat="44.49302" lon="2.48594">
        <ele>494.7</ele>
        <time>2014-08-24T08:14:58Z</time>
      </trkpt>
      <trkpt lat="44.49316" lon="2.48588">
        <ele>494.1</ele>
        <time>2014-08-24T08:15:00Z</time>
      </trkpt>
      <trkpt lat="44.49331" lon="2.48582">
        <ele>492.6</ele>
        <time>2014-08-24T08:15:02Z</time>
      </trkpt>
      <trkpt lat="44.49349" lon="2.4858">
        <ele>491.1</ele>
        <time>2014-08-24T08:15:04Z</time>
      </trkpt>
      <trkpt lat="44.49358" lon="2.48581">
        <ele>490.2</ele>
        <time>2014-08-24T08:15:05Z</time>
      </trkpt>
      <trkpt lat="44.49368" lon="2.48584">
        <ele>489.6</ele>
        <time>2014-08-24T08:15:06Z</time>
      </trkpt>
      <trkpt lat="44.49377" lon="2.48587">
        <ele>488.7</ele>
        <time>2014-08-24T08:15:07Z</time>
      </trkpt>
      <trkpt lat="44.49386" lon="2.48592">
        <ele>488</ele>
        <time>2014-08-24T08:15:08Z</time>
      </trkpt>
      <trkpt lat="44.49394" lon="2.48598">
        <ele>487.5</ele>
        <time>2014-08-24T08:15:09Z</time>
      </trkpt>
      <trkpt lat="44.49402" lon="2.48606">
        <ele>487</ele>
        <time>2014-08-24T08:15:10Z</time>
      </trkpt>
      <trkpt lat="44.49409" lon="2.48613">
        <ele>486.6</ele>
        <time>2014-08-24T08:15:11Z</time>
      </trkpt>
      <trkpt lat="44.49425" lon="2.48627">
        <ele>486.1</ele>
        <time>2014-08-24T08:15:13Z</time>
      </trkpt>
      <trkpt lat="44.49441" lon="2.48635">
        <ele>484.6</ele>
        <time>2014-08-24T08:15:15Z</time>
      </trkpt>
      <trkpt lat="44.49455" lon="2.48639">
        <ele>482.5</ele>
        <time>2014-08-24T08:15:17Z</time>
      </trkpt>
      <trkpt lat="44.49465" lon="2.48637">
        <ele>480.4</ele>
        <time>2014-08-24T08:15:19Z</time>
      </trkpt>
      <trkpt lat="44.49473" lon="2.4863">
        <ele>478.5</ele>
        <time>2014-08-24T08:15:21Z</time>
      </trkpt>
      <trkpt lat="44.49481" lon="2.48623">
        <ele>477.1</ele>
        <time>2014-08-24T08:15:23Z</time>
      </trkpt>
      <trkpt lat="44.49491" lon="2.48612">
        <ele>475.3</ele>
        <time>2014-08-24T08:15:26Z</time>
      </trkpt>
      <trkpt lat="44.49501" lon="2.48601">
        <ele>474.6</ele>
        <time>2014-08-24T08:15:29Z</time>
      </trkpt>
      <trkpt lat="44.4951" lon="2.48592">
        <ele>474.6</ele>
        <time>2014-08-24T08:15:31Z</time>
      </trkpt>
      <trkpt lat="44.49519" lon="2.48585">
        <ele>474.4</ele>
        <time>2014-08-24T08:15:33Z</time>
      </trkpt>
      <trkpt lat="44.4953" lon="2.48579">
        <ele>474</ele>
        <time>2014-08-24T08:15:35Z</time>
      </trkpt>
      <trkpt lat="44.49542" lon="2.48572">
        <ele>473.5</ele>
        <time>2014-08-24T08:15:37Z</time>
      </trkpt>
      <trkpt lat="44.49553" lon="2.48563">
        <ele>472.8</ele>
        <time>2014-08-24T08:15:39Z</time>
      </trkpt>
      <trkpt lat="44.49562" lon="2.48554">
        <ele>472.1</ele>
        <time>2014-08-24T08:15:41Z</time>
      </trkpt>
      <trkpt lat="44.49579" lon="2.48533">
        <ele>471.4</ele>
        <time>2014-08-24T08:15:46Z</time>
      </trkpt>
      <trkpt lat="44.49587" lon="2.48525">
        <ele>471.4</ele>
        <time>2014-08-24T08:15:49Z</time>
      </trkpt>
      <trkpt lat="44.49595" lon="2.48517">
        <ele>471.7</ele>
        <time>2014-08-24T08:15:52Z</time>
      </trkpt>
      <trkpt lat="44.49603" lon="2.4851">
        <ele>471.6</ele>
        <time>2014-08-24T08:15:55Z</time>
      </trkpt>
      <trkpt lat="44.4961" lon="2.48504">
        <ele>472.3</ele>
        <time>2014-08-24T08:15:58Z</time>
      </trkpt>
      <trkpt lat="44.49619" lon="2.48498">
        <ele>472.6</ele>
        <time>2014-08-24T08:16:02Z</time>
      </trkpt>
      <trkpt lat="44.49628" lon="2.48494">
        <ele>472.8</ele>
        <time>2014-08-24T08:16:07Z</time>
      </trkpt>
      <trkpt lat="44.49638" lon="2.4849">
        <ele>472.4</ele>
        <time>2014-08-24T08:16:12Z</time>
      </trkpt>
      <trkpt lat="44.49648" lon="2.48486">
        <ele>472.3</ele>
        <time>2014-08-24T08:16:17Z</time>
      </trkpt>
      <trkpt lat="44.49658" lon="2.48484">
        <ele>472.3</ele>
        <time>2014-08-24T08:16:21Z</time>
      </trkpt>
      <trkpt lat="44.49668" lon="2.48482">
        <ele>472</ele>
        <time>2014-08-24T08:16:25Z</time>
      </trkpt>
      <trkpt lat="44.49678" lon="2.48479">
        <ele>471.8</ele>
        <time>2014-08-24T08:16:29Z</time>
      </trkpt>
      <trkpt lat="44.49688" lon="2.48476">
        <ele>473.3</ele>
        <time>2014-08-24T08:16:33Z</time>
      </trkpt>
      <trkpt lat="44.49697" lon="2.48473">
        <ele>474.3</ele>
        <time>2014-08-24T08:16:37Z</time>
      </trkpt>
      <trkpt lat="44.49707" lon="2.4847">
        <ele>475.1</ele>
        <time>2014-08-24T08:16:42Z</time>
      </trkpt>
      <trkpt lat="44.49727" lon="2.48471">
        <ele>476.5</ele>
        <time>2014-08-24T08:16:52Z</time>
      </trkpt>
      <trkpt lat="44.49736" lon="2.48471">
        <ele>476.3</ele>
        <time>2014-08-24T08:16:57Z</time>
      </trkpt>
      <trkpt lat="44.49746" lon="2.48473">
        <ele>477.8</ele>
        <time>2014-08-24T08:17:02Z</time>
      </trkpt>
      <trkpt lat="44.49756" lon="2.48476">
        <ele>478.1</ele>
        <time>2014-08-24T08:17:07Z</time>
      </trkpt>
      <trkpt lat="44.49765" lon="2.48482">
        <ele>477.9</ele>
        <time>2014-08-24T08:17:12Z</time>
      </trkpt>
      <trkpt lat="44.49775" lon="2.4849">
        <ele>477.5</ele>
        <time>2014-08-24T08:17:17Z</time>
      </trkpt>
      <trkpt lat="44.49784" lon="2.48497">
        <ele>477.2</ele>
        <time>2014-08-24T08:17:21Z</time>
      </trkpt>
      <trkpt lat="44.4979" lon="2.48507">
        <ele>477</ele>
        <time>2014-08-24T08:17:26Z</time>
      </trkpt>
      <trkpt lat="44.49785" lon="2.48521">
        <ele>477.3</ele>
        <time>2014-08-24T08:17:31Z</time>
      </trkpt>
      <trkpt lat="44.49779" lon="2.48536">
        <ele>476.2</ele>
        <time>2014-08-24T08:17:35Z</time>
      </trkpt>
      <trkpt lat="44.49774" lon="2.48548">
        <ele>476.6</ele>
        <time>2014-08-24T08:17:38Z</time>
      </trkpt>
      <trkpt lat="44.49768" lon="2.48562">
        <ele>476.9</ele>
        <time>2014-08-24T08:17:42Z</time>
      </trkpt>
      <trkpt lat="44.49765" lon="2.48576">
        <ele>477</ele>
        <time>2014-08-24T08:17:46Z</time>
      </trkpt>
      <trkpt lat="44.49764" lon="2.48604">
        <ele>477.6</ele>
        <time>2014-08-24T08:17:54Z</time>
      </trkpt>
      <trkpt lat="44.49766" lon="2.48618">
        <ele>478.3</ele>
        <time>2014-08-24T08:17:58Z</time>
      </trkpt>
      <trkpt lat="44.49771" lon="2.48631">
        <ele>479.1</ele>
        <time>2014-08-24T08:18:02Z</time>
      </trkpt>
      <trkpt lat="44.49776" lon="2.48642">
        <ele>478.8</ele>
        <time>2014-08-24T08:18:06Z</time>
      </trkpt>
      <trkpt lat="44.49782" lon="2.48654">
        <ele>479.3</ele>
        <time>2014-08-24T08:18:10Z</time>
      </trkpt>
      <trkpt lat="44.49789" lon="2.48667">
        <ele>478.3</ele>
        <time>2014-08-24T08:18:13Z</time>
      </trkpt>
      <trkpt lat="44.49793" lon="2.4868">
        <ele>477.7</ele>
        <time>2014-08-24T08:18:16Z</time>
      </trkpt>
      <trkpt lat="44.49796" lon="2.48693">
        <ele>477.9</ele>
        <time>2014-08-24T08:18:19Z</time>
      </trkpt>
      <trkpt lat="44.49799" lon="2.48706">
        <ele>478.2</ele>
        <time>2014-08-24T08:18:23Z</time>
      </trkpt>
      <trkpt lat="44.49803" lon="2.48718">
        <ele>478.8</ele>
        <time>2014-08-24T08:18:27Z</time>
      </trkpt>
      <trkpt lat="44.49803" lon="2.48732">
        <ele>479.5</ele>
        <time>2014-08-24T08:18:32Z</time>
      </trkpt>
      <trkpt lat="44.498" lon="2.48746">
        <ele>481.1</ele>
        <time>2014-08-24T08:18:38Z</time>
      </trkpt>
      <trkpt lat="44.49794" lon="2.48756">
        <ele>482.7</ele>
        <time>2014-08-24T08:18:44Z</time>
      </trkpt>
      <trkpt lat="44.49787" lon="2.48766">
        <ele>483.7</ele>
        <time>2014-08-24T08:18:50Z</time>
      </trkpt>
      <trkpt lat="44.49782" lon="2.48791">
        <ele>485.1</ele>
        <time>2014-08-24T08:19:01Z</time>
      </trkpt>
      <trkpt lat="44.49789" lon="2.48801">
        <ele>486.5</ele>
        <time>2014-08-24T08:19:07Z</time>
      </trkpt>
      <trkpt lat="44.49795" lon="2.48812">
        <ele>485.7</ele>
        <time>2014-08-24T08:19:12Z</time>
      </trkpt>
      <trkpt lat="44.498" lon="2.48823">
        <ele>487.7</ele>
        <time>2014-08-24T08:19:17Z</time>
      </trkpt>
      <trkpt lat="44.49806" lon="2.48835">
        <ele>488.3</ele>
        <time>2014-08-24T08:19:22Z</time>
      </trkpt>
      <trkpt lat="44.49812" lon="2.48846">
        <ele>489</ele>
        <time>2014-08-24T08:19:27Z</time>
      </trkpt>
      <trkpt lat="44.49818" lon="2.48858">
        <ele>490.5</ele>
        <time>2014-08-24T08:19:32Z</time>
      </trkpt>
      <trkpt lat="44.49827" lon="2.48866">
        <ele>490.7</ele>
        <time>2014-08-24T08:19:37Z</time>
      </trkpt>
      <trkpt lat="44.49837" lon="2.48869">
        <ele>491.4</ele>
        <time>2014-08-24T08:19:42Z</time>
      </trkpt>
      <trkpt lat="44.49845" lon="2.48876">
        <ele>492.4</ele>
        <time>2014-08-24T08:19:47Z</time>
      </trkpt>
      <trkpt lat="44.49853" lon="2.48884">
        <ele>493.2</ele>
        <time>2014-08-24T08:19:52Z</time>
      </trkpt>
      <trkpt lat="44.49864" lon="2.48907">
        <ele>494.3</ele>
        <time>2014-08-24T08:20:01Z</time>
      </trkpt>
      <trkpt lat="44.49867" lon="2.48921">
        <ele>494.2</ele>
        <time>2014-08-24T08:20:06Z</time>
      </trkpt>
      <trkpt lat="44.49869" lon="2.48935">
        <ele>494.1</ele>
        <time>2014-08-24T08:20:10Z</time>
      </trkpt>
      <trkpt lat="44.49868" lon="2.4895">
        <ele>494</ele>
        <time>2014-08-24T08:20:14Z</time>
      </trkpt>
      <trkpt lat="44.49863" lon="2.48964">
        <ele>494.7</ele>
        <time>2014-08-24T08:20:19Z</time>
      </trkpt>
      <trkpt lat="44.49857" lon="2.48973">
        <ele>494.7</ele>
        <time>2014-08-24T08:20:23Z</time>
      </trkpt>
      <trkpt lat="44.49848" lon="2.48983">
        <ele>495</ele>
        <time>2014-08-24T08:20:28Z</time>
      </trkpt>
      <trkpt lat="44.4984" lon="2.4899">
        <ele>494.8</ele>
        <time>2014-08-24T08:20:32Z</time>
      </trkpt>
      <trkpt lat="44.49831" lon="2.48999">
        <ele>495.3</ele>
        <time>2014-08-24T08:20:37Z</time>
      </trkpt>
      <trkpt lat="44.49823" lon="2.49007">
        <ele>496.9</ele>
        <time>2014-08-24T08:20:42Z</time>
      </trkpt>
      <trkpt lat="44.49815" lon="2.49013">
        <ele>496.6</ele>
        <time>2014-08-24T08:20:47Z</time>
      </trkpt>
      <trkpt lat="44.49806" lon="2.49018">
        <ele>496.4</ele>
        <time>2014-08-24T08:20:54Z</time>
      </trkpt>
      <trkpt lat="44.49786" lon="2.49025">
        <ele>496.4</ele>
        <time>2014-08-24T08:21:04Z</time>
      </trkpt>
      <trkpt lat="44.49778" lon="2.49032">
        <ele>496.3</ele>
        <time>2014-08-24T08:21:08Z</time>
      </trkpt>
      <trkpt lat="44.49777" lon="2.49048">
        <ele>496.4</ele>
        <time>2014-08-24T08:21:12Z</time>
      </trkpt>
      <trkpt lat="44.49777" lon="2.49064">
        <ele>495.7</ele>
        <time>2014-08-24T08:21:16Z</time>
      </trkpt>
      <trkpt lat="44.49777" lon="2.49081">
        <ele>495.8</ele>
        <time>2014-08-24T08:21:20Z</time>
      </trkpt>
      <trkpt lat="44.49777" lon="2.49095">
        <ele>494.8</ele>
        <time>2014-08-24T08:21:23Z</time>
      </trkpt>
      <trkpt lat="44.49776" lon="2.49109">
        <ele>495.5</ele>
        <time>2014-08-24T08:21:26Z</time>
      </trkpt>
      <trkpt lat="44.49773" lon="2.49125">
        <ele>495</ele>
        <time>2014-08-24T08:21:29Z</time>
      </trkpt>
      <trkpt lat="44.4977" lon="2.49142">
        <ele>493.4</ele>
        <time>2014-08-24T08:21:32Z</time>
      </trkpt>
      <trkpt lat="44.49766" lon="2.49158">
        <ele>493.1</ele>
        <time>2014-08-24T08:21:35Z</time>
      </trkpt>
      <trkpt lat="44.49761" lon="2.49175">
        <ele>492.2</ele>
        <time>2014-08-24T08:21:38Z</time>
      </trkpt>
      <trkpt lat="44.49756" lon="2.49191">
        <ele>491.2</ele>
        <time>2014-08-24T08:21:41Z</time>
      </trkpt>
      <trkpt lat="44.49756" lon="2.49206">
        <ele>490.7</ele>
        <time>2014-08-24T08:21:44Z</time>
      </trkpt>
      <trkpt lat="44.49759" lon="2.4922">
        <ele>490.2</ele>
        <time>2014-08-24T08:21:47Z</time>
      </trkpt>
      <trkpt lat="44.49764" lon="2.49232">
        <ele>489.4</ele>
        <time>2014-08-24T08:21:50Z</time>
      </trkpt>
      <trkpt lat="44.4977" lon="2.49244">
        <ele>488.6</ele>
        <time>2014-08-24T08:21:53Z</time>
      </trkpt>
      <trkpt lat="44.49779" lon="2.49257">
        <ele>488.1</ele>
        <time>2014-08-24T08:21:56Z</time>
      </trkpt>
      <trkpt lat="44.49799" lon="2.49275">
        <ele>486.5</ele>
        <time>2014-08-24T08:22:01Z</time>
      </trkpt>
      <trkpt lat="44.49808" lon="2.49279">
        <ele>486</ele>
        <time>2014-08-24T08:22:03Z</time>
      </trkpt>
      <trkpt lat="44.49818" lon="2.49281">
        <ele>485.7</ele>
        <time>2014-08-24T08:22:05Z</time>
      </trkpt>
      <trkpt lat="44.49827" lon="2.49283">
        <ele>484.7</ele>
        <time>2014-08-24T08:22:07Z</time>
      </trkpt>
      <trkpt lat="44.4984" lon="2.49285">
        <ele>484</ele>
        <time>2014-08-24T08:22:10Z</time>
      </trkpt>
      <trkpt lat="44.49851" lon="2.49285">
        <ele>484.4</ele>
        <time>2014-08-24T08:22:13Z</time>
      </trkpt>
      <trkpt lat="44.4986" lon="2.49288">
        <ele>484.9</ele>
        <time>2014-08-24T08:22:16Z</time>
      </trkpt>
      <trkpt lat="44.49869" lon="2.49297">
        <ele>485</ele>
        <time>2014-08-24T08:22:19Z</time>
      </trkpt>
      <trkpt lat="44.49874" lon="2.49309">
        <ele>485.2</ele>
        <time>2014-08-24T08:22:22Z</time>
      </trkpt>
      <trkpt lat="44.49879" lon="2.49321">
        <ele>485.4</ele>
        <time>2014-08-24T08:22:25Z</time>
      </trkpt>
      <trkpt lat="44.49882" lon="2.49333">
        <ele>485.7</ele>
        <time>2014-08-24T08:22:28Z</time>
      </trkpt>
      <trkpt lat="44.49885" lon="2.49345">
        <ele>486.4</ele>
        <time>2014-08-24T08:22:31Z</time>
      </trkpt>
      <trkpt lat="44.49888" lon="2.49361">
        <ele>487.1</ele>
        <time>2014-08-24T08:22:35Z</time>
      </trkpt>
      <trkpt lat="44.49891" lon="2.49373">
        <ele>487.3</ele>
        <time>2014-08-24T08:22:38Z</time>
      </trkpt>
      <trkpt lat="44.49896" lon="2.49388">
        <ele>487.7</ele>
        <time>2014-08-24T08:22:42Z</time>
      </trkpt>
      <trkpt lat="44.49901" lon="2.49399">
        <ele>488.8</ele>
        <time>2014-08-24T08:22:46Z</time>
      </trkpt>
      <trkpt lat="44.49906" lon="2.4941">
        <ele>489.3</ele>
        <time>2014-08-24T08:22:50Z</time>
      </trkpt>
      <trkpt lat="44.49908" lon="2.49424">
        <ele>491.7</ele>
        <time>2014-08-24T08:22:55Z</time>
      </trkpt>
      <trkpt lat="44.49912" lon="2.49436">
        <ele>492.5</ele>
        <time>2014-08-24T08:23:01Z</time>
      </trkpt>
      <trkpt lat="44.49905" lon="2.49484">
        <ele>494</ele>
        <time>2014-08-24T08:23:22Z</time>
      </trkpt>
      <trkpt lat="44.49896" lon="2.49491">
        <ele>496</ele>
        <time>2014-08-24T08:23:28Z</time>
      </trkpt>
      <trkpt lat="44.49887" lon="2.49496">
        <ele>496.5</ele>
        <time>2014-08-24T08:23:33Z</time>
      </trkpt>
      <trkpt lat="44.49878" lon="2.495">
        <ele>497.9</ele>
        <time>2014-08-24T08:23:38Z</time>
      </trkpt>
      <trkpt lat="44.49868" lon="2.49504">
        <ele>498.1</ele>
        <time>2014-08-24T08:23:43Z</time>
      </trkpt>
      <trkpt lat="44.49858" lon="2.49508">
        <ele>499.2</ele>
        <time>2014-08-24T08:23:48Z</time>
      </trkpt>
      <trkpt lat="44.49848" lon="2.49511">
        <ele>500.9</ele>
        <time>2014-08-24T08:23:53Z</time>
      </trkpt>
      <trkpt lat="44.49838" lon="2.49516">
        <ele>500.8</ele>
        <time>2014-08-24T08:23:58Z</time>
      </trkpt>
      <trkpt lat="44.49828" lon="2.4952">
        <ele>502</ele>
        <time>2014-08-24T08:24:03Z</time>
      </trkpt>
      <trkpt lat="44.49809" lon="2.49529">
        <ele>502.9</ele>
        <time>2014-08-24T08:24:12Z</time>
      </trkpt>
      <trkpt lat="44.49801" lon="2.49534">
        <ele>503</ele>
        <time>2014-08-24T08:24:16Z</time>
      </trkpt>
      <trkpt lat="44.49791" lon="2.4954">
        <ele>503.8</ele>
        <time>2014-08-24T08:24:21Z</time>
      </trkpt>
      <trkpt lat="44.49782" lon="2.49544">
        <ele>504.8</ele>
        <time>2014-08-24T08:24:26Z</time>
      </trkpt>
      <trkpt lat="44.49772" lon="2.4955">
        <ele>505.5</ele>
        <time>2014-08-24T08:24:31Z</time>
      </trkpt>
      <trkpt lat="44.49763" lon="2.49553">
        <ele>506.6</ele>
        <time>2014-08-24T08:24:36Z</time>
      </trkpt>
      <trkpt lat="44.49752" lon="2.49555">
        <ele>508.4</ele>
        <time>2014-08-24T08:24:41Z</time>
      </trkpt>
      <trkpt lat="44.49741" lon="2.49556">
        <ele>508.3</ele>
        <time>2014-08-24T08:24:46Z</time>
      </trkpt>
      <trkpt lat="44.49732" lon="2.49556">
        <ele>508.6</ele>
        <time>2014-08-24T08:24:50Z</time>
      </trkpt>
      <trkpt lat="44.49723" lon="2.49559">
        <ele>508.6</ele>
        <time>2014-08-24T08:24:54Z</time>
      </trkpt>
      <trkpt lat="44.49714" lon="2.4956">
        <ele>510.5</ele>
        <time>2014-08-24T08:24:58Z</time>
      </trkpt>
      <trkpt lat="44.49703" lon="2.49562">
        <ele>510.7</ele>
        <time>2014-08-24T08:25:03Z</time>
      </trkpt>
      <trkpt lat="44.49692" lon="2.49564">
        <ele>512.3</ele>
        <time>2014-08-24T08:25:08Z</time>
      </trkpt>
      <trkpt lat="44.49674" lon="2.49569">
        <ele>514.1</ele>
        <time>2014-08-24T08:25:16Z</time>
      </trkpt>
      <trkpt lat="44.49664" lon="2.49571">
        <ele>515.4</ele>
        <time>2014-08-24T08:25:20Z</time>
      </trkpt>
      <trkpt lat="44.49655" lon="2.49574">
        <ele>515.5</ele>
        <time>2014-08-24T08:25:24Z</time>
      </trkpt>
      <trkpt lat="44.49646" lon="2.49577">
        <ele>516.5</ele>
        <time>2014-08-24T08:25:28Z</time>
      </trkpt>
      <trkpt lat="44.49636" lon="2.49579">
        <ele>516.7</ele>
        <time>2014-08-24T08:25:32Z</time>
      </trkpt>
      <trkpt lat="44.49627" lon="2.49581">
        <ele>517.6</ele>
        <time>2014-08-24T08:25:36Z</time>
      </trkpt>
      <trkpt lat="44.49618" lon="2.49581">
        <ele>517.8</ele>
        <time>2014-08-24T08:25:40Z</time>
      </trkpt>
      <trkpt lat="44.49608" lon="2.49581">
        <ele>519.2</ele>
        <time>2014-08-24T08:25:44Z</time>
      </trkpt>
      <trkpt lat="44.49599" lon="2.49579">
        <ele>519.6</ele>
        <time>2014-08-24T08:25:48Z</time>
      </trkpt>
      <trkpt lat="44.4959" lon="2.49577">
        <ele>520.1</ele>
        <time>2014-08-24T08:25:52Z</time>
      </trkpt>
      <trkpt lat="44.4958" lon="2.49573">
        <ele>521</ele>
        <time>2014-08-24T08:25:56Z</time>
      </trkpt>
      <trkpt lat="44.49571" lon="2.49571">
        <ele>521.8</ele>
        <time>2014-08-24T08:26:00Z</time>
      </trkpt>
      <trkpt lat="44.49562" lon="2.49568">
        <ele>522.5</ele>
        <time>2014-08-24T08:26:04Z</time>
      </trkpt>
      <trkpt lat="44.49551" lon="2.49565">
        <ele>522.9</ele>
        <time>2014-08-24T08:26:09Z</time>
      </trkpt>
      <trkpt lat="44.49533" lon="2.4956">
        <ele>523.7</ele>
        <time>2014-08-24T08:26:17Z</time>
      </trkpt>
      <trkpt lat="44.49523" lon="2.49557">
        <ele>525.1</ele>
        <time>2014-08-24T08:26:21Z</time>
      </trkpt>
      <trkpt lat="44.49514" lon="2.49553">
        <ele>525.8</ele>
        <time>2014-08-24T08:26:25Z</time>
      </trkpt>
      <trkpt lat="44.49505" lon="2.49549">
        <ele>526.4</ele>
        <time>2014-08-24T08:26:29Z</time>
      </trkpt>
      <trkpt lat="44.49496" lon="2.49545">
        <ele>527.1</ele>
        <time>2014-08-24T08:26:33Z</time>
      </trkpt>
      <trkpt lat="44.49488" lon="2.4954">
        <ele>527.6</ele>
        <time>2014-08-24T08:26:37Z</time>
      </trkpt>
      <trkpt lat="44.49479" lon="2.49535">
        <ele>528.1</ele>
        <time>2014-08-24T08:26:41Z</time>
      </trkpt>
      <trkpt lat="44.4947" lon="2.49531">
        <ele>528.4</ele>
        <time>2014-08-24T08:26:45Z</time>
      </trkpt>
      <trkpt lat="44.49459" lon="2.49525">
        <ele>530.6</ele>
        <time>2014-08-24T08:26:50Z</time>
      </trkpt>
      <trkpt lat="44.4945" lon="2.49522">
        <ele>531.5</ele>
        <time>2014-08-24T08:26:54Z</time>
      </trkpt>
      <trkpt lat="44.49441" lon="2.49518">
        <ele>532.1</ele>
        <time>2014-08-24T08:26:58Z</time>
      </trkpt>
      <trkpt lat="44.49432" lon="2.49516">
        <ele>533.3</ele>
        <time>2014-08-24T08:27:02Z</time>
      </trkpt>
      <trkpt lat="44.49422" lon="2.49517">
        <ele>532.9</ele>
        <time>2014-08-24T08:27:06Z</time>
      </trkpt>
      <trkpt lat="44.49414" lon="2.49525">
        <ele>534.3</ele>
        <time>2014-08-24T08:27:10Z</time>
      </trkpt>
      <trkpt lat="44.49402" lon="2.49547">
        <ele>534.6</ele>
        <time>2014-08-24T08:27:18Z</time>
      </trkpt>
      <trkpt lat="44.49397" lon="2.49558">
        <ele>535.9</ele>
        <time>2014-08-24T08:27:22Z</time>
      </trkpt>
      <trkpt lat="44.49393" lon="2.4957">
        <ele>536.6</ele>
        <time>2014-08-24T08:27:26Z</time>
      </trkpt>
      <trkpt lat="44.49389" lon="2.49581">
        <ele>536.3</ele>
        <time>2014-08-24T08:27:30Z</time>
      </trkpt>
      <trkpt lat="44.49386" lon="2.49594">
        <ele>536.7</ele>
        <time>2014-08-24T08:27:34Z</time>
      </trkpt>
      <trkpt lat="44.49383" lon="2.49608">
        <ele>536.6</ele>
        <time>2014-08-24T08:27:38Z</time>
      </trkpt>
      <trkpt lat="44.4938" lon="2.49623">
        <ele>535.3</ele>
        <time>2014-08-24T08:27:42Z</time>
      </trkpt>
      <trkpt lat="44.49378" lon="2.49638">
        <ele>535.1</ele>
        <time>2014-08-24T08:27:46Z</time>
      </trkpt>
      <trkpt lat="44.49376" lon="2.49652">
        <ele>536.1</ele>
        <time>2014-08-24T08:27:49Z</time>
      </trkpt>
      <trkpt lat="44.49374" lon="2.49667">
        <ele>536.3</ele>
        <time>2014-08-24T08:27:52Z</time>
      </trkpt>
      <trkpt lat="44.49373" lon="2.49683">
        <ele>535.7</ele>
        <time>2014-08-24T08:27:55Z</time>
      </trkpt>
      <trkpt lat="44.49376" lon="2.497">
        <ele>535.5</ele>
        <time>2014-08-24T08:27:58Z</time>
      </trkpt>
      <trkpt lat="44.49379" lon="2.49715">
        <ele>535.5</ele>
        <time>2014-08-24T08:28:01Z</time>
      </trkpt>
      <trkpt lat="44.49378" lon="2.49732">
        <ele>535.3</ele>
        <time>2014-08-24T08:28:04Z</time>
      </trkpt>
      <trkpt lat="44.49376" lon="2.49747">
        <ele>534.5</ele>
        <time>2014-08-24T08:28:07Z</time>
      </trkpt>
      <trkpt lat="44.4938" lon="2.4976">
        <ele>533.7</ele>
        <time>2014-08-24T08:28:11Z</time>
      </trkpt>
      <trkpt lat="44.494" lon="2.49771">
        <ele>533.1</ele>
        <time>2014-08-24T08:28:19Z</time>
      </trkpt>
      <trkpt lat="44.49409" lon="2.49775">
        <ele>533.9</ele>
        <time>2014-08-24T08:28:23Z</time>
      </trkpt>
      <trkpt lat="44.49418" lon="2.49778">
        <ele>534.6</ele>
        <time>2014-08-24T08:28:27Z</time>
      </trkpt>
      <trkpt lat="44.49427" lon="2.49781">
        <ele>535.1</ele>
        <time>2014-08-24T08:28:31Z</time>
      </trkpt>
      <trkpt lat="44.49437" lon="2.49786">
        <ele>536.8</ele>
        <time>2014-08-24T08:28:35Z</time>
      </trkpt>
      <trkpt lat="44.49447" lon="2.4979">
        <ele>537.9</ele>
        <time>2014-08-24T08:28:39Z</time>
      </trkpt>
      <trkpt lat="44.49457" lon="2.4979">
        <ele>539.2</ele>
        <time>2014-08-24T08:28:43Z</time>
      </trkpt>
      <trkpt lat="44.49467" lon="2.49787">
        <ele>539.7</ele>
        <time>2014-08-24T08:28:47Z</time>
      </trkpt>
      <trkpt lat="44.49477" lon="2.49784">
        <ele>541.3</ele>
        <time>2014-08-24T08:28:51Z</time>
      </trkpt>
      <trkpt lat="44.49487" lon="2.49779">
        <ele>541.1</ele>
        <time>2014-08-24T08:28:55Z</time>
      </trkpt>
      <trkpt lat="44.49497" lon="2.49776">
        <ele>542.3</ele>
        <time>2014-08-24T08:28:59Z</time>
      </trkpt>
      <trkpt lat="44.49507" lon="2.49772">
        <ele>543</ele>
        <time>2014-08-24T08:29:03Z</time>
      </trkpt>
      <trkpt lat="44.49518" lon="2.49769">
        <ele>543.8</ele>
        <time>2014-08-24T08:29:07Z</time>
      </trkpt>
      <trkpt lat="44.49528" lon="2.49767">
        <ele>543.7</ele>
        <time>2014-08-24T08:29:11Z</time>
      </trkpt>
      <trkpt lat="44.49539" lon="2.49765">
        <ele>544.3</ele>
        <time>2014-08-24T08:29:15Z</time>
      </trkpt>
      <trkpt lat="44.49561" lon="2.49762">
        <ele>544.8</ele>
        <time>2014-08-24T08:29:23Z</time>
      </trkpt>
      <trkpt lat="44.49572" lon="2.4976">
        <ele>546.3</ele>
        <time>2014-08-24T08:29:27Z</time>
      </trkpt>
      <trkpt lat="44.49583" lon="2.49758">
        <ele>546.9</ele>
        <time>2014-08-24T08:29:31Z</time>
      </trkpt>
      <trkpt lat="44.49593" lon="2.49757">
        <ele>547.7</ele>
        <time>2014-08-24T08:29:35Z</time>
      </trkpt>
      <trkpt lat="44.49604" lon="2.49755">
        <ele>548.7</ele>
        <time>2014-08-24T08:29:39Z</time>
      </trkpt>
      <trkpt lat="44.49614" lon="2.49755">
        <ele>549</ele>
        <time>2014-08-24T08:29:43Z</time>
      </trkpt>
      <trkpt lat="44.49624" lon="2.49757">
        <ele>548.7</ele>
        <time>2014-08-24T08:29:47Z</time>
      </trkpt>
      <trkpt lat="44.49631" lon="2.49768">
        <ele>549.7</ele>
        <time>2014-08-24T08:29:52Z</time>
      </trkpt>
      <trkpt lat="44.49635" lon="2.4978">
        <ele>550.3</ele>
        <time>2014-08-24T08:29:56Z</time>
      </trkpt>
      <trkpt lat="44.4964" lon="2.49793">
        <ele>550.2</ele>
        <time>2014-08-24T08:30:00Z</time>
      </trkpt>
      <trkpt lat="44.49646" lon="2.49803">
        <ele>549.9</ele>
        <time>2014-08-24T08:30:03Z</time>
      </trkpt>
      <trkpt lat="44.49653" lon="2.49812">
        <ele>549.6</ele>
        <time>2014-08-24T08:30:06Z</time>
      </trkpt>
      <trkpt lat="44.49663" lon="2.4982">
        <ele>549</ele>
        <time>2014-08-24T08:30:09Z</time>
      </trkpt>
      <trkpt lat="44.4967" lon="2.49829">
        <ele>548.4</ele>
        <time>2014-08-24T08:30:13Z</time>
      </trkpt>
      <trkpt lat="44.49673" lon="2.49842">
        <ele>546.5</ele>
        <time>2014-08-24T08:30:18Z</time>
      </trkpt>
      <trkpt lat="44.49665" lon="2.49885">
        <ele>545.1</ele>
        <time>2014-08-24T08:30:23Z</time>
      </trkpt>
      <trkpt lat="44.49657" lon="2.49903">
        <ele>543.4</ele>
        <time>2014-08-24T08:30:25Z</time>
      </trkpt>
      <trkpt lat="44.49646" lon="2.49915">
        <ele>542.4</ele>
        <time>2014-08-24T08:30:27Z</time>
      </trkpt>
      <trkpt lat="44.49635" lon="2.49922">
        <ele>541.8</ele>
        <time>2014-08-24T08:30:29Z</time>
      </trkpt>
      <trkpt lat="44.49625" lon="2.49926">
        <ele>541.1</ele>
        <time>2014-08-24T08:30:31Z</time>
      </trkpt>
      <trkpt lat="44.49613" lon="2.49929">
        <ele>540.3</ele>
        <time>2014-08-24T08:30:34Z</time>
      </trkpt>
      <trkpt lat="44.49602" lon="2.49934">
        <ele>539.3</ele>
        <time>2014-08-24T08:30:37Z</time>
      </trkpt>
      <trkpt lat="44.49592" lon="2.49942">
        <ele>538.6</ele>
        <time>2014-08-24T08:30:40Z</time>
      </trkpt>
      <trkpt lat="44.49581" lon="2.49953">
        <ele>538.8</ele>
        <time>2014-08-24T08:30:43Z</time>
      </trkpt>
      <trkpt lat="44.49571" lon="2.49963">
        <ele>538.2</ele>
        <time>2014-08-24T08:30:46Z</time>
      </trkpt>
      <trkpt lat="44.49561" lon="2.49975">
        <ele>537.8</ele>
        <time>2014-08-24T08:30:49Z</time>
      </trkpt>
      <trkpt lat="44.49553" lon="2.49984">
        <ele>537.7</ele>
        <time>2014-08-24T08:30:51Z</time>
      </trkpt>
      <trkpt lat="44.49545" lon="2.49991">
        <ele>537.3</ele>
        <time>2014-08-24T08:30:53Z</time>
      </trkpt>
      <trkpt lat="44.49538" lon="2.49999">
        <ele>536.9</ele>
        <time>2014-08-24T08:30:55Z</time>
      </trkpt>
      <trkpt lat="44.4953" lon="2.50006">
        <ele>536.2</ele>
        <time>2014-08-24T08:30:57Z</time>
      </trkpt>
      <trkpt lat="44.49524" lon="2.50015">
        <ele>535.8</ele>
        <time>2014-08-24T08:30:59Z</time>
      </trkpt>
      <trkpt lat="44.49518" lon="2.5003">
        <ele>536.5</ele>
        <time>2014-08-24T08:31:02Z</time>
      </trkpt>
      <trkpt lat="44.49515" lon="2.50044">
        <ele>537.2</ele>
        <time>2014-08-24T08:31:05Z</time>
      </trkpt>
      <trkpt lat="44.49511" lon="2.50057">
        <ele>538.7</ele>
        <time>2014-08-24T08:31:08Z</time>
      </trkpt>
      <trkpt lat="44.49509" lon="2.5007">
        <ele>539.8</ele>
        <time>2014-08-24T08:31:11Z</time>
      </trkpt>
      <trkpt lat="44.49507" lon="2.50083">
        <ele>539.5</ele>
        <time>2014-08-24T08:31:14Z</time>
      </trkpt>
      <trkpt lat="44.49505" lon="2.50098">
        <ele>539</ele>
        <time>2014-08-24T08:31:17Z</time>
      </trkpt>
      <trkpt lat="44.49505" lon="2.50113">
        <ele>539.9</ele>
        <time>2014-08-24T08:31:20Z</time>
      </trkpt>
      <trkpt lat="44.49506" lon="2.5014">
        <ele>540.7</ele>
        <time>2014-08-24T08:31:26Z</time>
      </trkpt>
      <trkpt lat="44.49504" lon="2.50156">
        <ele>541.6</ele>
        <time>2014-08-24T08:31:30Z</time>
      </trkpt>
      <trkpt lat="44.49501" lon="2.50169">
        <ele>542.1</ele>
        <time>2014-08-24T08:31:33Z</time>
      </trkpt>
      <trkpt lat="44.49497" lon="2.50186">
        <ele>541.3</ele>
        <time>2014-08-24T08:31:36Z</time>
      </trkpt>
      <trkpt lat="44.49494" lon="2.50198">
        <ele>541.2</ele>
        <time>2014-08-24T08:31:38Z</time>
      </trkpt>
      <trkpt lat="44.4949" lon="2.50211">
        <ele>541.6</ele>
        <time>2014-08-24T08:31:40Z</time>
      </trkpt>
      <trkpt lat="44.49484" lon="2.50226">
        <ele>541.1</ele>
        <time>2014-08-24T08:31:43Z</time>
      </trkpt>
      <trkpt lat="44.49479" lon="2.50238">
        <ele>540.2</ele>
        <time>2014-08-24T08:31:46Z</time>
      </trkpt>
      <trkpt lat="44.49473" lon="2.5025">
        <ele>539.3</ele>
        <time>2014-08-24T08:31:49Z</time>
      </trkpt>
      <trkpt lat="44.4947" lon="2.50265">
        <ele>539.4</ele>
        <time>2014-08-24T08:31:53Z</time>
      </trkpt>
      <trkpt lat="44.49475" lon="2.50279">
        <ele>541.4</ele>
        <time>2014-08-24T08:31:57Z</time>
      </trkpt>
      <trkpt lat="44.49481" lon="2.50291">
        <ele>542.8</ele>
        <time>2014-08-24T08:32:01Z</time>
      </trkpt>
      <trkpt lat="44.49488" lon="2.50303">
        <ele>543.4</ele>
        <time>2014-08-24T08:32:05Z</time>
      </trkpt>
      <trkpt lat="44.49495" lon="2.50315">
        <ele>544.3</ele>
        <time>2014-08-24T08:32:09Z</time>
      </trkpt>
      <trkpt lat="44.49501" lon="2.50326">
        <ele>545.8</ele>
        <time>2014-08-24T08:32:13Z</time>
      </trkpt>
      <trkpt lat="44.49503" lon="2.50339">
        <ele>546.3</ele>
        <time>2014-08-24T08:32:17Z</time>
      </trkpt>
      <trkpt lat="44.49504" lon="2.50353">
        <ele>547.2</ele>
        <time>2014-08-24T08:32:21Z</time>
      </trkpt>
      <trkpt lat="44.49512" lon="2.50379">
        <ele>549.9</ele>
        <time>2014-08-24T08:32:29Z</time>
      </trkpt>
      <trkpt lat="44.49517" lon="2.50392">
        <ele>550.8</ele>
        <time>2014-08-24T08:32:33Z</time>
      </trkpt>
      <trkpt lat="44.49524" lon="2.50403">
        <ele>552.2</ele>
        <time>2014-08-24T08:32:37Z</time>
      </trkpt>
      <trkpt lat="44.49529" lon="2.50415">
        <ele>551.4</ele>
        <time>2014-08-24T08:32:41Z</time>
      </trkpt>
      <trkpt lat="44.49532" lon="2.5043">
        <ele>553.6</ele>
        <time>2014-08-24T08:32:45Z</time>
      </trkpt>
      <trkpt lat="44.49534" lon="2.50446">
        <ele>553.9</ele>
        <time>2014-08-24T08:32:49Z</time>
      </trkpt>
      <trkpt lat="44.49535" lon="2.50462">
        <ele>554</ele>
        <time>2014-08-24T08:32:53Z</time>
      </trkpt>
      <trkpt lat="44.49537" lon="2.50477">
        <ele>555.7</ele>
        <time>2014-08-24T08:32:57Z</time>
      </trkpt>
      <trkpt lat="44.4954" lon="2.50493">
        <ele>556</ele>
        <time>2014-08-24T08:33:01Z</time>
      </trkpt>
      <trkpt lat="44.49541" lon="2.50505">
        <ele>555.3</ele>
        <time>2014-08-24T08:33:31Z</time>
      </trkpt>
      <trkpt lat="44.49562" lon="2.5053">
        <ele>554.8</ele>
        <time>2014-08-24T08:36:32Z</time>
      </trkpt>
      <trkpt lat="44.49573" lon="2.50528">
        <ele>555.4</ele>
        <time>2014-08-24T08:36:36Z</time>
      </trkpt>
      <trkpt lat="44.49582" lon="2.50527">
        <ele>555.9</ele>
        <time>2014-08-24T08:36:39Z</time>
      </trkpt>
      <trkpt lat="44.49593" lon="2.50527">
        <ele>555.9</ele>
        <time>2014-08-24T08:36:42Z</time>
      </trkpt>
      <trkpt lat="44.49604" lon="2.50528">
        <ele>555.4</ele>
        <time>2014-08-24T08:36:45Z</time>
      </trkpt>
      <trkpt lat="44.49616" lon="2.50532">
        <ele>554.5</ele>
        <time>2014-08-24T08:36:48Z</time>
      </trkpt>
      <trkpt lat="44.49626" lon="2.50535">
        <ele>554.3</ele>
        <time>2014-08-24T08:36:51Z</time>
      </trkpt>
      <trkpt lat="44.49637" lon="2.50538">
        <ele>554.6</ele>
        <time>2014-08-24T08:36:54Z</time>
      </trkpt>
      <trkpt lat="44.49648" lon="2.5054">
        <ele>554.5</ele>
        <time>2014-08-24T08:36:57Z</time>
      </trkpt>
      <trkpt lat="44.49659" lon="2.50545">
        <ele>554.4</ele>
        <time>2014-08-24T08:37:00Z</time>
      </trkpt>
      <trkpt lat="44.49671" lon="2.50549">
        <ele>554.1</ele>
        <time>2014-08-24T08:37:03Z</time>
      </trkpt>
      <trkpt lat="44.49684" lon="2.50552">
        <ele>553.5</ele>
        <time>2014-08-24T08:37:06Z</time>
      </trkpt>
      <trkpt lat="44.49697" lon="2.50559">
        <ele>554</ele>
        <time>2014-08-24T08:37:09Z</time>
      </trkpt>
      <trkpt lat="44.49705" lon="2.50565">
        <ele>553.6</ele>
        <time>2014-08-24T08:37:11Z</time>
      </trkpt>
      <trkpt lat="44.49715" lon="2.5057">
        <ele>553.4</ele>
        <time>2014-08-24T08:37:13Z</time>
      </trkpt>
      <trkpt lat="44.49725" lon="2.50567">
        <ele>553.3</ele>
        <time>2014-08-24T08:37:15Z</time>
      </trkpt>
      <trkpt lat="44.49735" lon="2.50562">
        <ele>553.4</ele>
        <time>2014-08-24T08:37:17Z</time>
      </trkpt>
      <trkpt lat="44.49744" lon="2.50557">
        <ele>553.6</ele>
        <time>2014-08-24T08:37:19Z</time>
      </trkpt>
      <trkpt lat="44.49754" lon="2.50554">
        <ele>552.9</ele>
        <time>2014-08-24T08:37:21Z</time>
      </trkpt>
      <trkpt lat="44.49765" lon="2.50551">
        <ele>552</ele>
        <time>2014-08-24T08:37:23Z</time>
      </trkpt>
      <trkpt lat="44.49789" lon="2.50549">
        <ele>550</ele>
        <time>2014-08-24T08:37:27Z</time>
      </trkpt>
      <trkpt lat="44.49795" lon="2.5056">
        <ele>549</ele>
        <time>2014-08-24T08:37:29Z</time>
      </trkpt>
      <trkpt lat="44.49796" lon="2.50574">
        <ele>548.3</ele>
        <time>2014-08-24T08:37:31Z</time>
      </trkpt>
      <trkpt lat="44.49796" lon="2.50589">
        <ele>547.9</ele>
        <time>2014-08-24T08:37:33Z</time>
      </trkpt>
      <trkpt lat="44.49798" lon="2.50602">
        <ele>547.5</ele>
        <time>2014-08-24T08:37:35Z</time>
      </trkpt>
      <trkpt lat="44.49802" lon="2.50614">
        <ele>547.5</ele>
        <time>2014-08-24T08:37:37Z</time>
      </trkpt>
      <trkpt lat="44.49806" lon="2.50626">
        <ele>547.8</ele>
        <time>2014-08-24T08:37:39Z</time>
      </trkpt>
      <trkpt lat="44.49807" lon="2.5064">
        <ele>548.3</ele>
        <time>2014-08-24T08:37:41Z</time>
      </trkpt>
      <trkpt lat="44.49805" lon="2.50656">
        <ele>547.8</ele>
        <time>2014-08-24T08:37:44Z</time>
      </trkpt>
      <trkpt lat="44.49801" lon="2.50667">
        <ele>549.2</ele>
        <time>2014-08-24T08:37:47Z</time>
      </trkpt>
      <trkpt lat="44.49797" lon="2.50682">
        <ele>550.4</ele>
        <time>2014-08-24T08:37:51Z</time>
      </trkpt>
      <trkpt lat="44.49794" lon="2.50696">
        <ele>551.6</ele>
        <time>2014-08-24T08:37:55Z</time>
      </trkpt>
      <trkpt lat="44.49792" lon="2.50709">
        <ele>552.9</ele>
        <time>2014-08-24T08:37:59Z</time>
      </trkpt>
      <trkpt lat="44.49791" lon="2.50723">
        <ele>554.7</ele>
        <time>2014-08-24T08:38:03Z</time>
      </trkpt>
      <trkpt lat="44.4979" lon="2.50738">
        <ele>556.3</ele>
        <time>2014-08-24T08:38:07Z</time>
      </trkpt>
      <trkpt lat="44.49788" lon="2.50753">
        <ele>556.7</ele>
        <time>2014-08-24T08:38:11Z</time>
      </trkpt>
      <trkpt lat="44.49785" lon="2.50768">
        <ele>557.4</ele>
        <time>2014-08-24T08:38:15Z</time>
      </trkpt>
      <trkpt lat="44.49785" lon="2.50783">
        <ele>557</ele>
        <time>2014-08-24T08:38:19Z</time>
      </trkpt>
      <trkpt lat="44.49783" lon="2.50797">
        <ele>558.3</ele>
        <time>2014-08-24T08:38:22Z</time>
      </trkpt>
      <trkpt lat="44.49782" lon="2.5081">
        <ele>558.7</ele>
        <time>2014-08-24T08:38:25Z</time>
      </trkpt>
      <trkpt lat="44.49782" lon="2.50841">
        <ele>560.2</ele>
        <time>2014-08-24T08:38:32Z</time>
      </trkpt>
      <trkpt lat="44.49783" lon="2.50853">
        <ele>561</ele>
        <time>2014-08-24T08:38:35Z</time>
      </trkpt>
      <trkpt lat="44.49786" lon="2.50869">
        <ele>560.1</ele>
        <time>2014-08-24T08:38:39Z</time>
      </trkpt>
      <trkpt lat="44.49788" lon="2.50884">
        <ele>559.7</ele>
        <time>2014-08-24T08:38:43Z</time>
      </trkpt>
      <trkpt lat="44.4979" lon="2.509">
        <ele>560</ele>
        <time>2014-08-24T08:38:47Z</time>
      </trkpt>
      <trkpt lat="44.49793" lon="2.50914">
        <ele>560</ele>
        <time>2014-08-24T08:38:50Z</time>
      </trkpt>
      <trkpt lat="44.49799" lon="2.50931">
        <ele>560.1</ele>
        <time>2014-08-24T08:38:53Z</time>
      </trkpt>
      <trkpt lat="44.49805" lon="2.50942">
        <ele>560.2</ele>
        <time>2014-08-24T08:38:55Z</time>
      </trkpt>
      <trkpt lat="44.49814" lon="2.50952">
        <ele>559.7</ele>
        <time>2014-08-24T08:38:57Z</time>
      </trkpt>
      <trkpt lat="44.49826" lon="2.50963">
        <ele>558.3</ele>
        <time>2014-08-24T08:38:59Z</time>
      </trkpt>
      <trkpt lat="44.49838" lon="2.50975">
        <ele>556.7</ele>
        <time>2014-08-24T08:39:01Z</time>
      </trkpt>
      <trkpt lat="44.4985" lon="2.50989">
        <ele>554.9</ele>
        <time>2014-08-24T08:39:03Z</time>
      </trkpt>
      <trkpt lat="44.49855" lon="2.51007">
        <ele>554.1</ele>
        <time>2014-08-24T08:39:05Z</time>
      </trkpt>
      <trkpt lat="44.49855" lon="2.51021">
        <ele>553.8</ele>
        <time>2014-08-24T08:39:07Z</time>
      </trkpt>
      <trkpt lat="44.49853" lon="2.51037">
        <ele>554</ele>
        <time>2014-08-24T08:39:10Z</time>
      </trkpt>
      <trkpt lat="44.49852" lon="2.51053">
        <ele>552.9</ele>
        <time>2014-08-24T08:39:13Z</time>
      </trkpt>
      <trkpt lat="44.49851" lon="2.51067">
        <ele>553.7</ele>
        <time>2014-08-24T08:39:16Z</time>
      </trkpt>
      <trkpt lat="44.49849" lon="2.5108">
        <ele>555</ele>
        <time>2014-08-24T08:39:19Z</time>
      </trkpt>
      <trkpt lat="44.49847" lon="2.51094">
        <ele>555.6</ele>
        <time>2014-08-24T08:39:22Z</time>
      </trkpt>
      <trkpt lat="44.49845" lon="2.5111">
        <ele>555.8</ele>
        <time>2014-08-24T08:39:25Z</time>
      </trkpt>
      <trkpt lat="44.49844" lon="2.51127">
        <ele>555.9</ele>
        <time>2014-08-24T08:39:28Z</time>
      </trkpt>
      <trkpt lat="44.4985" lon="2.5116">
        <ele>555</ele>
        <time>2014-08-24T08:39:34Z</time>
      </trkpt>
      <trkpt lat="44.49853" lon="2.51176">
        <ele>555.4</ele>
        <time>2014-08-24T08:39:37Z</time>
      </trkpt>
      <trkpt lat="44.49857" lon="2.51192">
        <ele>555.7</ele>
        <time>2014-08-24T08:39:40Z</time>
      </trkpt>
      <trkpt lat="44.49862" lon="2.5121">
        <ele>555.6</ele>
        <time>2014-08-24T08:39:43Z</time>
      </trkpt>
      <trkpt lat="44.49867" lon="2.51222">
        <ele>555.9</ele>
        <time>2014-08-24T08:39:45Z</time>
      </trkpt>
      <trkpt lat="44.49871" lon="2.51237">
        <ele>555.5</ele>
        <time>2014-08-24T08:39:47Z</time>
      </trkpt>
      <trkpt lat="44.49875" lon="2.51255">
        <ele>554.9</ele>
        <time>2014-08-24T08:39:49Z</time>
      </trkpt>
      <trkpt lat="44.4988" lon="2.51274">
        <ele>554.4</ele>
        <time>2014-08-24T08:39:51Z</time>
      </trkpt>
      <trkpt lat="44.49885" lon="2.51293">
        <ele>553.5</ele>
        <time>2014-08-24T08:39:53Z</time>
      </trkpt>
      <trkpt lat="44.4989" lon="2.51312">
        <ele>552.5</ele>
        <time>2014-08-24T08:39:55Z</time>
      </trkpt>
      <trkpt lat="44.49891" lon="2.5133">
        <ele>551.3</ele>
        <time>2014-08-24T08:39:57Z</time>
      </trkpt>
      <trkpt lat="44.49884" lon="2.51344">
        <ele>550.2</ele>
        <time>2014-08-24T08:39:59Z</time>
      </trkpt>
      <trkpt lat="44.49874" lon="2.51355">
        <ele>549.3</ele>
        <time>2014-08-24T08:40:01Z</time>
      </trkpt>
      <trkpt lat="44.49864" lon="2.51363">
        <ele>548.9</ele>
        <time>2014-08-24T08:40:03Z</time>
      </trkpt>
      <trkpt lat="44.49855" lon="2.51354">
        <ele>548.2</ele>
        <time>2014-08-24T08:40:06Z</time>
      </trkpt>
      <trkpt lat="44.49845" lon="2.51347">
        <ele>548.6</ele>
        <time>2014-08-24T08:40:10Z</time>
      </trkpt>
      <trkpt lat="44.49836" lon="2.51344">
        <ele>549.5</ele>
        <time>2014-08-24T08:40:14Z</time>
      </trkpt>
      <trkpt lat="44.49826" lon="2.51337">
        <ele>550.6</ele>
        <time>2014-08-24T08:40:18Z</time>
      </trkpt>
      <trkpt lat="44.49818" lon="2.5133">
        <ele>552.9</ele>
        <time>2014-08-24T08:40:22Z</time>
      </trkpt>
      <trkpt lat="44.4981" lon="2.51323">
        <ele>553.7</ele>
        <time>2014-08-24T08:40:26Z</time>
      </trkpt>
      <trkpt lat="44.49802" lon="2.51315">
        <ele>553.7</ele>
        <time>2014-08-24T08:40:30Z</time>
      </trkpt>
      <trkpt lat="44.49785" lon="2.51302">
        <ele>554.1</ele>
        <time>2014-08-24T08:40:38Z</time>
      </trkpt>
      <trkpt lat="44.49776" lon="2.513">
        <ele>554.7</ele>
        <time>2014-08-24T08:40:42Z</time>
      </trkpt>
      <trkpt lat="44.49766" lon="2.51301">
        <ele>554.4</ele>
        <time>2014-08-24T08:40:47Z</time>
      </trkpt>
      <trkpt lat="44.49769" lon="2.51315">
        <ele>555</ele>
        <time>2014-08-24T08:40:52Z</time>
      </trkpt>
      <trkpt lat="44.49774" lon="2.51328">
        <ele>555.5</ele>
        <time>2014-08-24T08:40:57Z</time>
      </trkpt>
      <trkpt lat="44.49769" lon="2.5134">
        <ele>556.8</ele>
        <time>2014-08-24T08:41:01Z</time>
      </trkpt>
      <trkpt lat="44.49761" lon="2.51348">
        <ele>557.7</ele>
        <time>2014-08-24T08:41:05Z</time>
      </trkpt>
      <trkpt lat="44.49753" lon="2.51358">
        <ele>557.6</ele>
        <time>2014-08-24T08:41:09Z</time>
      </trkpt>
      <trkpt lat="44.49748" lon="2.51372">
        <ele>557.7</ele>
        <time>2014-08-24T08:41:13Z</time>
      </trkpt>
      <trkpt lat="44.49745" lon="2.51385">
        <ele>557.9</ele>
        <time>2014-08-24T08:41:17Z</time>
      </trkpt>
      <trkpt lat="44.49745" lon="2.51401">
        <ele>558.8</ele>
        <time>2014-08-24T08:41:22Z</time>
      </trkpt>
      <trkpt lat="44.49747" lon="2.51414">
        <ele>558.7</ele>
        <time>2014-08-24T08:41:26Z</time>
      </trkpt>
      <trkpt lat="44.49748" lon="2.51427">
        <ele>559.1</ele>
        <time>2014-08-24T08:41:30Z</time>
      </trkpt>
      <trkpt lat="44.49748" lon="2.5144">
        <ele>558.8</ele>
        <time>2014-08-24T08:41:34Z</time>
      </trkpt>
      <trkpt lat="44.49742" lon="2.51465">
        <ele>560.7</ele>
        <time>2014-08-24T08:41:43Z</time>
      </trkpt>
      <trkpt lat="44.49743" lon="2.51479">
        <ele>562.2</ele>
        <time>2014-08-24T08:41:49Z</time>
      </trkpt>
      <trkpt lat="44.49747" lon="2.51491">
        <ele>562.6</ele>
        <time>2014-08-24T08:41:53Z</time>
      </trkpt>
      <trkpt lat="44.49751" lon="2.51504">
        <ele>563</ele>
        <time>2014-08-24T08:41:57Z</time>
      </trkpt>
      <trkpt lat="44.49755" lon="2.51519">
        <ele>564.9</ele>
        <time>2014-08-24T08:42:02Z</time>
      </trkpt>
      <trkpt lat="44.49757" lon="2.51532">
        <ele>565</ele>
        <time>2014-08-24T08:42:06Z</time>
      </trkpt>
      <trkpt lat="44.49759" lon="2.51544">
        <ele>565.7</ele>
        <time>2014-08-24T08:42:10Z</time>
      </trkpt>
      <trkpt lat="44.4976" lon="2.51558">
        <ele>566</ele>
        <time>2014-08-24T08:42:14Z</time>
      </trkpt>
      <trkpt lat="44.49761" lon="2.51572">
        <ele>567</ele>
        <time>2014-08-24T08:42:18Z</time>
      </trkpt>
      <trkpt lat="44.49761" lon="2.51586">
        <ele>567.6</ele>
        <time>2014-08-24T08:42:22Z</time>
      </trkpt>
      <trkpt lat="44.49762" lon="2.516">
        <ele>568</ele>
        <time>2014-08-24T08:42:26Z</time>
      </trkpt>
      <trkpt lat="44.49762" lon="2.51614">
        <ele>568.4</ele>
        <time>2014-08-24T08:42:30Z</time>
      </trkpt>
      <trkpt lat="44.49762" lon="2.51629">
        <ele>569.2</ele>
        <time>2014-08-24T08:42:34Z</time>
      </trkpt>
      <trkpt lat="44.49763" lon="2.51644">
        <ele>569.5</ele>
        <time>2014-08-24T08:42:38Z</time>
      </trkpt>
      <trkpt lat="44.49765" lon="2.51675">
        <ele>569.5</ele>
        <time>2014-08-24T08:42:46Z</time>
      </trkpt>
      <trkpt lat="44.49766" lon="2.51691">
        <ele>570.1</ele>
        <time>2014-08-24T08:42:50Z</time>
      </trkpt>
      <trkpt lat="44.49767" lon="2.51707">
        <ele>570.4</ele>
        <time>2014-08-24T08:42:54Z</time>
      </trkpt>
      <trkpt lat="44.4977" lon="2.5172">
        <ele>570.5</ele>
        <time>2014-08-24T08:42:57Z</time>
      </trkpt>
      <trkpt lat="44.49776" lon="2.51734">
        <ele>571.3</ele>
        <time>2014-08-24T08:43:01Z</time>
      </trkpt>
      <trkpt lat="44.49784" lon="2.51745">
        <ele>571.9</ele>
        <time>2014-08-24T08:43:05Z</time>
      </trkpt>
      <trkpt lat="44.49793" lon="2.51754">
        <ele>572.4</ele>
        <time>2014-08-24T08:43:09Z</time>
      </trkpt>
      <trkpt lat="44.49805" lon="2.51757">
        <ele>572.3</ele>
        <time>2014-08-24T08:43:13Z</time>
      </trkpt>
      <trkpt lat="44.49814" lon="2.51758">
        <ele>572.3</ele>
        <time>2014-08-24T08:43:16Z</time>
      </trkpt>
      <trkpt lat="44.49824" lon="2.5176">
        <ele>573</ele>
        <time>2014-08-24T08:43:19Z</time>
      </trkpt>
      <trkpt lat="44.49834" lon="2.51762">
        <ele>573</ele>
        <time>2014-08-24T08:43:22Z</time>
      </trkpt>
      <trkpt lat="44.49844" lon="2.51764">
        <ele>573.1</ele>
        <time>2014-08-24T08:43:25Z</time>
      </trkpt>
      <trkpt lat="44.49854" lon="2.51767">
        <ele>573.6</ele>
        <time>2014-08-24T08:43:28Z</time>
      </trkpt>
      <trkpt lat="44.49863" lon="2.51769">
        <ele>573.8</ele>
        <time>2014-08-24T08:43:31Z</time>
      </trkpt>
      <trkpt lat="44.49872" lon="2.51772">
        <ele>574.1</ele>
        <time>2014-08-24T08:43:34Z</time>
      </trkpt>
      <trkpt lat="44.4988" lon="2.51779">
        <ele>574.4</ele>
        <time>2014-08-24T08:43:37Z</time>
      </trkpt>
      <trkpt lat="44.49889" lon="2.5179">
        <ele>574.9</ele>
        <time>2014-08-24T08:43:41Z</time>
      </trkpt>
      <trkpt lat="44.49897" lon="2.51819">
        <ele>576.2</ele>
        <time>2014-08-24T08:43:49Z</time>
      </trkpt>
      <trkpt lat="44.49897" lon="2.51835">
        <ele>577.8</ele>
        <time>2014-08-24T08:43:53Z</time>
      </trkpt>
      <trkpt lat="44.49897" lon="2.51852">
        <ele>578.7</ele>
        <time>2014-08-24T08:43:57Z</time>
      </trkpt>
      <trkpt lat="44.49897" lon="2.51865">
        <ele>578.8</ele>
        <time>2014-08-24T08:44:00Z</time>
      </trkpt>
      <trkpt lat="44.49897" lon="2.51878">
        <ele>578.9</ele>
        <time>2014-08-24T08:44:03Z</time>
      </trkpt>
      <trkpt lat="44.49897" lon="2.51892">
        <ele>579.2</ele>
        <time>2014-08-24T08:44:06Z</time>
      </trkpt>
      <trkpt lat="44.49896" lon="2.51905">
        <ele>579.6</ele>
        <time>2014-08-24T08:44:09Z</time>
      </trkpt>
      <trkpt lat="44.49895" lon="2.51918">
        <ele>579.7</ele>
        <time>2014-08-24T08:44:12Z</time>
      </trkpt>
      <trkpt lat="44.49894" lon="2.51932">
        <ele>580.3</ele>
        <time>2014-08-24T08:44:15Z</time>
      </trkpt>
      <trkpt lat="44.49893" lon="2.51946">
        <ele>581.4</ele>
        <time>2014-08-24T08:44:18Z</time>
      </trkpt>
      <trkpt lat="44.49892" lon="2.5196">
        <ele>582.1</ele>
        <time>2014-08-24T08:44:21Z</time>
      </trkpt>
      <trkpt lat="44.49893" lon="2.51974">
        <ele>581.9</ele>
        <time>2014-08-24T08:44:24Z</time>
      </trkpt>
      <trkpt lat="44.49894" lon="2.51988">
        <ele>581.8</ele>
        <time>2014-08-24T08:44:27Z</time>
      </trkpt>
      <trkpt lat="44.49895" lon="2.52002">
        <ele>582.2</ele>
        <time>2014-08-24T08:44:30Z</time>
      </trkpt>
      <trkpt lat="44.49896" lon="2.52017">
        <ele>581.9</ele>
        <time>2014-08-24T08:44:33Z</time>
      </trkpt>
      <trkpt lat="44.49896" lon="2.5203">
        <ele>582.7</ele>
        <time>2014-08-24T08:44:36Z</time>
      </trkpt>
      <trkpt lat="44.49897" lon="2.52044">
        <ele>583.6</ele>
        <time>2014-08-24T08:44:39Z</time>
      </trkpt>
      <trkpt lat="44.49898" lon="2.52059">
        <ele>583.9</ele>
        <time>2014-08-24T08:44:42Z</time>
      </trkpt>
      <trkpt lat="44.499" lon="2.52087">
        <ele>583.9</ele>
        <time>2014-08-24T08:44:48Z</time>
      </trkpt>
      <trkpt lat="44.49901" lon="2.52101">
        <ele>584.8</ele>
        <time>2014-08-24T08:44:51Z</time>
      </trkpt>
      <trkpt lat="44.49901" lon="2.52115">
        <ele>585.2</ele>
        <time>2014-08-24T08:44:54Z</time>
      </trkpt>
      <trkpt lat="44.49903" lon="2.52129">
        <ele>585</ele>
        <time>2014-08-24T08:44:57Z</time>
      </trkpt>
      <trkpt lat="44.49906" lon="2.52146">
        <ele>584.4</ele>
        <time>2014-08-24T08:45:00Z</time>
      </trkpt>
      <trkpt lat="44.49909" lon="2.52159">
        <ele>583.9</ele>
        <time>2014-08-24T08:45:02Z</time>
      </trkpt>
      <trkpt lat="44.49911" lon="2.52175">
        <ele>582.6</ele>
        <time>2014-08-24T08:45:04Z</time>
      </trkpt>
      <trkpt lat="44.49914" lon="2.52193">
        <ele>582.2</ele>
        <time>2014-08-24T08:45:06Z</time>
      </trkpt>
      <trkpt lat="44.49919" lon="2.52211">
        <ele>582.2</ele>
        <time>2014-08-24T08:45:08Z</time>
      </trkpt>
      <trkpt lat="44.49925" lon="2.52229">
        <ele>581.9</ele>
        <time>2014-08-24T08:45:10Z</time>
      </trkpt>
      <trkpt lat="44.4993" lon="2.52246">
        <ele>581.5</ele>
        <time>2014-08-24T08:45:12Z</time>
      </trkpt>
      <trkpt lat="44.49936" lon="2.52262">
        <ele>580.9</ele>
        <time>2014-08-24T08:45:14Z</time>
      </trkpt>
      <trkpt lat="44.49941" lon="2.52277">
        <ele>580.5</ele>
        <time>2014-08-24T08:45:16Z</time>
      </trkpt>
      <trkpt lat="44.49945" lon="2.52291">
        <ele>580.2</ele>
        <time>2014-08-24T08:45:18Z</time>
      </trkpt>
      <trkpt lat="44.49949" lon="2.52305">
        <ele>580.1</ele>
        <time>2014-08-24T08:45:20Z</time>
      </trkpt>
      <trkpt lat="44.49953" lon="2.52318">
        <ele>579.9</ele>
        <time>2014-08-24T08:45:22Z</time>
      </trkpt>
      <trkpt lat="44.49956" lon="2.52331">
        <ele>579.7</ele>
        <time>2014-08-24T08:45:24Z</time>
      </trkpt>
      <trkpt lat="44.49959" lon="2.52343">
        <ele>580.3</ele>
        <time>2014-08-24T08:45:26Z</time>
      </trkpt>
      <trkpt lat="44.49963" lon="2.52355">
        <ele>580.6</ele>
        <time>2014-08-24T08:45:28Z</time>
      </trkpt>
      <trkpt lat="44.49968" lon="2.52367">
        <ele>580.4</ele>
        <time>2014-08-24T08:45:30Z</time>
      </trkpt>
      <trkpt lat="44.49973" lon="2.52379">
        <ele>579.9</ele>
        <time>2014-08-24T08:45:32Z</time>
      </trkpt>
      <trkpt lat="44.49977" lon="2.52392">
        <ele>579.3</ele>
        <time>2014-08-24T08:45:34Z</time>
      </trkpt>
      <trkpt lat="44.4998" lon="2.52405">
        <ele>579.7</ele>
        <time>2014-08-24T08:45:36Z</time>
      </trkpt>
      <trkpt lat="44.49983" lon="2.52417">
        <ele>580.2</ele>
        <time>2014-08-24T08:45:38Z</time>
      </trkpt>
      <trkpt lat="44.49986" lon="2.52429">
        <ele>580.7</ele>
        <time>2014-08-24T08:45:40Z</time>
      </trkpt>
      <trkpt lat="44.4999" lon="2.52441">
        <ele>579.7</ele>
        <time>2014-08-24T08:45:42Z</time>
      </trkpt>
      <trkpt lat="44.49993" lon="2.52453">
        <ele>579.2</ele>
        <time>2014-08-24T08:45:44Z</time>
      </trkpt>
      <trkpt lat="44.5" lon="2.52478">
        <ele>578.2</ele>
        <time>2014-08-24T08:45:48Z</time>
      </trkpt>
      <trkpt lat="44.50003" lon="2.52494">
        <ele>577.5</ele>
        <time>2014-08-24T08:45:50Z</time>
      </trkpt>
      <trkpt lat="44.50007" lon="2.5251">
        <ele>577.7</ele>
        <time>2014-08-24T08:45:52Z</time>
      </trkpt>
      <trkpt lat="44.50007" lon="2.52527">
        <ele>577.5</ele>
        <time>2014-08-24T08:45:54Z</time>
      </trkpt>
      <trkpt lat="44.50006" lon="2.52544">
        <ele>577.2</ele>
        <time>2014-08-24T08:45:56Z</time>
      </trkpt>
      <trkpt lat="44.50004" lon="2.52561">
        <ele>577</ele>
        <time>2014-08-24T08:45:58Z</time>
      </trkpt>
      <trkpt lat="44.5" lon="2.52577">
        <ele>576.9</ele>
        <time>2014-08-24T08:46:00Z</time>
      </trkpt>
      <trkpt lat="44.49995" lon="2.52591">
        <ele>576.3</ele>
        <time>2014-08-24T08:46:02Z</time>
      </trkpt>
      <trkpt lat="44.49989" lon="2.52604">
        <ele>576.2</ele>
        <time>2014-08-24T08:46:04Z</time>
      </trkpt>
      <trkpt lat="44.49983" lon="2.52617">
        <ele>576.2</ele>
        <time>2014-08-24T08:46:06Z</time>
      </trkpt>
      <trkpt lat="44.49979" lon="2.5263">
        <ele>577.2</ele>
        <time>2014-08-24T08:46:08Z</time>
      </trkpt>
      <trkpt lat="44.49976" lon="2.52643">
        <ele>577.3</ele>
        <time>2014-08-24T08:46:10Z</time>
      </trkpt>
      <trkpt lat="44.49972" lon="2.52656">
        <ele>577</ele>
        <time>2014-08-24T08:46:12Z</time>
      </trkpt>
      <trkpt lat="44.4997" lon="2.52669">
        <ele>577.5</ele>
        <time>2014-08-24T08:46:14Z</time>
      </trkpt>
      <trkpt lat="44.49968" lon="2.52683">
        <ele>577.9</ele>
        <time>2014-08-24T08:46:16Z</time>
      </trkpt>
      <trkpt lat="44.49967" lon="2.52696">
        <ele>578.2</ele>
        <time>2014-08-24T08:46:18Z</time>
      </trkpt>
      <trkpt lat="44.49966" lon="2.52709">
        <ele>577.8</ele>
        <time>2014-08-24T08:46:20Z</time>
      </trkpt>
      <trkpt lat="44.49966" lon="2.52722">
        <ele>577.3</ele>
        <time>2014-08-24T08:46:22Z</time>
      </trkpt>
      <trkpt lat="44.49965" lon="2.52735">
        <ele>578</ele>
        <time>2014-08-24T08:46:24Z</time>
      </trkpt>
      <trkpt lat="44.49964" lon="2.52747">
        <ele>578.3</ele>
        <time>2014-08-24T08:46:26Z</time>
      </trkpt>
      <trkpt lat="44.49962" lon="2.52761">
        <ele>578.4</ele>
        <time>2014-08-24T08:46:28Z</time>
      </trkpt>
      <trkpt lat="44.49961" lon="2.52774">
        <ele>578.6</ele>
        <time>2014-08-24T08:46:30Z</time>
      </trkpt>
      <trkpt lat="44.49961" lon="2.52787">
        <ele>578.6</ele>
        <time>2014-08-24T08:46:32Z</time>
      </trkpt>
      <trkpt lat="44.4996" lon="2.52801">
        <ele>578.5</ele>
        <time>2014-08-24T08:46:34Z</time>
      </trkpt>
      <trkpt lat="44.4996" lon="2.52814">
        <ele>578.4</ele>
        <time>2014-08-24T08:46:36Z</time>
      </trkpt>
      <trkpt lat="44.49959" lon="2.52827">
        <ele>578.2</ele>
        <time>2014-08-24T08:46:38Z</time>
      </trkpt>
      <trkpt lat="44.49959" lon="2.5284">
        <ele>578.9</ele>
        <time>2014-08-24T08:46:40Z</time>
      </trkpt>
      <trkpt lat="44.49958" lon="2.52859">
        <ele>578.6</ele>
        <time>2014-08-24T08:46:43Z</time>
      </trkpt>
      <trkpt lat="44.49957" lon="2.52877">
        <ele>578.4</ele>
        <time>2014-08-24T08:46:46Z</time>
      </trkpt>
      <trkpt lat="44.49955" lon="2.52913">
        <ele>579.8</ele>
        <time>2014-08-24T08:46:52Z</time>
      </trkpt>
      <trkpt lat="44.49955" lon="2.52932">
        <ele>580.8</ele>
        <time>2014-08-24T08:46:55Z</time>
      </trkpt>
      <trkpt lat="44.49956" lon="2.52951">
        <ele>581.3</ele>
        <time>2014-08-24T08:46:58Z</time>
      </trkpt>
      <trkpt lat="44.49957" lon="2.52969">
        <ele>581.5</ele>
        <time>2014-08-24T08:47:01Z</time>
      </trkpt>
      <trkpt lat="44.49957" lon="2.52988">
        <ele>582.5</ele>
        <time>2014-08-24T08:47:04Z</time>
      </trkpt>
      <trkpt lat="44.49958" lon="2.53005">
        <ele>583.4</ele>
        <time>2014-08-24T08:47:07Z</time>
      </trkpt>
      <trkpt lat="44.4996" lon="2.53023">
        <ele>583.3</ele>
        <time>2014-08-24T08:47:10Z</time>
      </trkpt>
      <trkpt lat="44.49963" lon="2.5304">
        <ele>583.4</ele>
        <time>2014-08-24T08:47:13Z</time>
      </trkpt>
      <trkpt lat="44.49967" lon="2.53057">
        <ele>583.9</ele>
        <time>2014-08-24T08:47:16Z</time>
      </trkpt>
      <trkpt lat="44.49971" lon="2.53073">
        <ele>585.4</ele>
        <time>2014-08-24T08:47:19Z</time>
      </trkpt>
      <trkpt lat="44.49976" lon="2.53088">
        <ele>586</ele>
        <time>2014-08-24T08:47:22Z</time>
      </trkpt>
      <trkpt lat="44.4998" lon="2.53101">
        <ele>585.8</ele>
        <time>2014-08-24T08:47:25Z</time>
      </trkpt>
      <trkpt lat="44.49985" lon="2.53114">
        <ele>585.9</ele>
        <time>2014-08-24T08:47:28Z</time>
      </trkpt>
      <trkpt lat="44.4999" lon="2.53125">
        <ele>586.5</ele>
        <time>2014-08-24T08:47:31Z</time>
      </trkpt>
      <trkpt lat="44.49994" lon="2.53139">
        <ele>586.6</ele>
        <time>2014-08-24T08:47:35Z</time>
      </trkpt>
      <trkpt lat="44.49996" lon="2.53151">
        <ele>587.3</ele>
        <time>2014-08-24T08:47:38Z</time>
      </trkpt>
      <trkpt lat="44.49998" lon="2.53165">
        <ele>588</ele>
        <time>2014-08-24T08:47:42Z</time>
      </trkpt>
      <trkpt lat="44.49999" lon="2.53181">
        <ele>590.1</ele>
        <time>2014-08-24T08:47:46Z</time>
      </trkpt>
      <trkpt lat="44.49998" lon="2.53194">
        <ele>590.2</ele>
        <time>2014-08-24T08:47:49Z</time>
      </trkpt>
      <trkpt lat="44.49994" lon="2.53221">
        <ele>589.1</ele>
        <time>2014-08-24T08:47:57Z</time>
      </trkpt>
      <trkpt lat="44.49991" lon="2.53233">
        <ele>588.1</ele>
        <time>2014-08-24T08:48:00Z</time>
      </trkpt>
      <trkpt lat="44.49988" lon="2.53248">
        <ele>587.5</ele>
        <time>2014-08-24T08:48:03Z</time>
      </trkpt>
      <trkpt lat="44.49985" lon="2.53264">
        <ele>587.7</ele>
        <time>2014-08-24T08:48:06Z</time>
      </trkpt>
      <trkpt lat="44.49983" lon="2.53283">
        <ele>587.3</ele>
        <time>2014-08-24T08:48:09Z</time>
      </trkpt>
      <trkpt lat="44.4998" lon="2.53298">
        <ele>587</ele>
        <time>2014-08-24T08:48:11Z</time>
      </trkpt>
      <trkpt lat="44.49976" lon="2.53314">
        <ele>586.8</ele>
        <time>2014-08-24T08:48:13Z</time>
      </trkpt>
      <trkpt lat="44.49972" lon="2.53331">
        <ele>586.6</ele>
        <time>2014-08-24T08:48:15Z</time>
      </trkpt>
      <trkpt lat="44.49967" lon="2.53347">
        <ele>586.4</ele>
        <time>2014-08-24T08:48:17Z</time>
      </trkpt>
      <trkpt lat="44.49962" lon="2.53366">
        <ele>585.1</ele>
        <time>2014-08-24T08:48:19Z</time>
      </trkpt>
      <trkpt lat="44.49957" lon="2.53384">
        <ele>584.4</ele>
        <time>2014-08-24T08:48:21Z</time>
      </trkpt>
      <trkpt lat="44.49952" lon="2.53404">
        <ele>583.9</ele>
        <time>2014-08-24T08:48:23Z</time>
      </trkpt>
      <trkpt lat="44.49948" lon="2.53422">
        <ele>583</ele>
        <time>2014-08-24T08:48:25Z</time>
      </trkpt>
      <trkpt lat="44.49944" lon="2.53441">
        <ele>582.3</ele>
        <time>2014-08-24T08:48:27Z</time>
      </trkpt>
      <trkpt lat="44.49939" lon="2.53461">
        <ele>581.8</ele>
        <time>2014-08-24T08:48:29Z</time>
      </trkpt>
      <trkpt lat="44.49935" lon="2.53482">
        <ele>580.6</ele>
        <time>2014-08-24T08:48:31Z</time>
      </trkpt>
      <trkpt lat="44.4993" lon="2.53504">
        <ele>579.3</ele>
        <time>2014-08-24T08:48:33Z</time>
      </trkpt>
      <trkpt lat="44.49925" lon="2.53526">
        <ele>578.2</ele>
        <time>2014-08-24T08:48:35Z</time>
      </trkpt>
      <trkpt lat="44.4992" lon="2.53548">
        <ele>577.1</ele>
        <time>2014-08-24T08:48:37Z</time>
      </trkpt>
      <trkpt lat="44.49915" lon="2.53571">
        <ele>576</ele>
        <time>2014-08-24T08:48:39Z</time>
      </trkpt>
      <trkpt lat="44.4991" lon="2.53593">
        <ele>575.4</ele>
        <time>2014-08-24T08:48:41Z</time>
      </trkpt>
      <trkpt lat="44.49905" lon="2.53616">
        <ele>574.4</ele>
        <time>2014-08-24T08:48:43Z</time>
      </trkpt>
      <trkpt lat="44.49899" lon="2.53638">
        <ele>573.4</ele>
        <time>2014-08-24T08:48:45Z</time>
      </trkpt>
      <trkpt lat="44.49893" lon="2.5366">
        <ele>572.8</ele>
        <time>2014-08-24T08:48:47Z</time>
      </trkpt>
      <trkpt lat="44.49888" lon="2.53683">
        <ele>572.5</ele>
        <time>2014-08-24T08:48:49Z</time>
      </trkpt>
      <trkpt lat="44.49882" lon="2.53707">
        <ele>570.9</ele>
        <time>2014-08-24T08:48:51Z</time>
      </trkpt>
      <trkpt lat="44.49871" lon="2.53753">
        <ele>568.4</ele>
        <time>2014-08-24T08:48:55Z</time>
      </trkpt>
      <trkpt lat="44.49866" lon="2.53776">
        <ele>567.8</ele>
        <time>2014-08-24T08:48:57Z</time>
      </trkpt>
      <trkpt lat="44.49861" lon="2.53798">
        <ele>567.5</ele>
        <time>2014-08-24T08:48:59Z</time>
      </trkpt>
      <trkpt lat="44.49856" lon="2.5382">
        <ele>565.6</ele>
        <time>2014-08-24T08:49:01Z</time>
      </trkpt>
      <trkpt lat="44.49851" lon="2.53842">
        <ele>564.2</ele>
        <time>2014-08-24T08:49:03Z</time>
      </trkpt>
      <trkpt lat="44.49845" lon="2.53863">
        <ele>563.2</ele>
        <time>2014-08-24T08:49:05Z</time>
      </trkpt>
      <trkpt lat="44.49841" lon="2.53884">
        <ele>562.4</ele>
        <time>2014-08-24T08:49:07Z</time>
      </trkpt>
      <trkpt lat="44.49836" lon="2.53906">
        <ele>561.4</ele>
        <time>2014-08-24T08:49:09Z</time>
      </trkpt>
      <trkpt lat="44.49833" lon="2.53926">
        <ele>560.4</ele>
        <time>2014-08-24T08:49:11Z</time>
      </trkpt>
      <trkpt lat="44.49827" lon="2.53946">
        <ele>559.9</ele>
        <time>2014-08-24T08:49:13Z</time>
      </trkpt>
      <trkpt lat="44.49822" lon="2.53967">
        <ele>559.7</ele>
        <time>2014-08-24T08:49:15Z</time>
      </trkpt>
      <trkpt lat="44.49817" lon="2.53989">
        <ele>558.4</ele>
        <time>2014-08-24T08:49:17Z</time>
      </trkpt>
      <trkpt lat="44.49811" lon="2.54011">
        <ele>557.3</ele>
        <time>2014-08-24T08:49:19Z</time>
      </trkpt>
      <trkpt lat="44.49804" lon="2.54031">
        <ele>556.4</ele>
        <time>2014-08-24T08:49:21Z</time>
      </trkpt>
      <trkpt lat="44.49798" lon="2.5405">
        <ele>555.5</ele>
        <time>2014-08-24T08:49:23Z</time>
      </trkpt>
      <trkpt lat="44.49792" lon="2.54069">
        <ele>554.8</ele>
        <time>2014-08-24T08:49:25Z</time>
      </trkpt>
      <trkpt lat="44.49787" lon="2.5409">
        <ele>554.3</ele>
        <time>2014-08-24T08:49:27Z</time>
      </trkpt>
      <trkpt lat="44.49783" lon="2.54111">
        <ele>553.2</ele>
        <time>2014-08-24T08:49:29Z</time>
      </trkpt>
      <trkpt lat="44.49779" lon="2.54131">
        <ele>552.7</ele>
        <time>2014-08-24T08:49:31Z</time>
      </trkpt>
      <trkpt lat="44.49776" lon="2.54152">
        <ele>552</ele>
        <time>2014-08-24T08:49:33Z</time>
      </trkpt>
      <trkpt lat="44.49775" lon="2.54173">
        <ele>551.2</ele>
        <time>2014-08-24T08:49:35Z</time>
      </trkpt>
      <trkpt lat="44.49774" lon="2.54194">
        <ele>550.5</ele>
        <time>2014-08-24T08:49:37Z</time>
      </trkpt>
      <trkpt lat="44.49774" lon="2.54211">
        <ele>549.4</ele>
        <time>2014-08-24T08:49:39Z</time>
      </trkpt>
      <trkpt lat="44.49773" lon="2.54224">
        <ele>548.6</ele>
        <time>2014-08-24T08:49:42Z</time>
      </trkpt>
      <trkpt lat="44.49774" lon="2.54238">
        <ele>548.1</ele>
        <time>2014-08-24T08:49:46Z</time>
      </trkpt>
      <trkpt lat="44.49773" lon="2.54252">
        <ele>547.2</ele>
        <time>2014-08-24T08:49:48Z</time>
      </trkpt>
      <trkpt lat="44.49771" lon="2.54266">
        <ele>546.7</ele>
        <time>2014-08-24T08:49:50Z</time>
      </trkpt>
      <trkpt lat="44.49768" lon="2.5428">
        <ele>547.3</ele>
        <time>2014-08-24T08:49:52Z</time>
      </trkpt>
      <trkpt lat="44.4976" lon="2.5431">
        <ele>547</ele>
        <time>2014-08-24T08:49:56Z</time>
      </trkpt>
      <trkpt lat="44.49758" lon="2.54327">
        <ele>546.2</ele>
        <time>2014-08-24T08:49:58Z</time>
      </trkpt>
      <trkpt lat="44.49756" lon="2.54344">
        <ele>545.7</ele>
        <time>2014-08-24T08:50:00Z</time>
      </trkpt>
      <trkpt lat="44.49754" lon="2.54361">
        <ele>545.4</ele>
        <time>2014-08-24T08:50:02Z</time>
      </trkpt>
      <trkpt lat="44.49751" lon="2.54376">
        <ele>545</ele>
        <time>2014-08-24T08:50:04Z</time>
      </trkpt>
      <trkpt lat="44.49749" lon="2.54391">
        <ele>544.7</ele>
        <time>2014-08-24T08:50:06Z</time>
      </trkpt>
      <trkpt lat="44.49745" lon="2.54406">
        <ele>543.9</ele>
        <time>2014-08-24T08:50:08Z</time>
      </trkpt>
      <trkpt lat="44.49742" lon="2.5442">
        <ele>543</ele>
        <time>2014-08-24T08:50:10Z</time>
      </trkpt>
      <trkpt lat="44.49739" lon="2.54435">
        <ele>542.3</ele>
        <time>2014-08-24T08:50:12Z</time>
      </trkpt>
      <trkpt lat="44.49737" lon="2.54449">
        <ele>541.9</ele>
        <time>2014-08-24T08:50:14Z</time>
      </trkpt>
      <trkpt lat="44.49735" lon="2.54462">
        <ele>541.6</ele>
        <time>2014-08-24T08:50:16Z</time>
      </trkpt>
      <trkpt lat="44.49734" lon="2.54476">
        <ele>541.3</ele>
        <time>2014-08-24T08:50:18Z</time>
      </trkpt>
      <trkpt lat="44.49732" lon="2.54489">
        <ele>541.6</ele>
        <time>2014-08-24T08:50:20Z</time>
      </trkpt>
      <trkpt lat="44.4973" lon="2.54502">
        <ele>541.8</ele>
        <time>2014-08-24T08:50:22Z</time>
      </trkpt>
      <trkpt lat="44.49729" lon="2.54514">
        <ele>541.5</ele>
        <time>2014-08-24T08:50:24Z</time>
      </trkpt>
      <trkpt lat="44.49728" lon="2.54528">
        <ele>541.3</ele>
        <time>2014-08-24T08:50:26Z</time>
      </trkpt>
      <trkpt lat="44.49727" lon="2.54545">
        <ele>541</ele>
        <time>2014-08-24T08:50:29Z</time>
      </trkpt>
      <trkpt lat="44.49726" lon="2.54562">
        <ele>540.7</ele>
        <time>2014-08-24T08:50:32Z</time>
      </trkpt>
      <trkpt lat="44.49723" lon="2.5458">
        <ele>540.7</ele>
        <time>2014-08-24T08:50:35Z</time>
      </trkpt>
      <trkpt lat="44.49722" lon="2.54598">
        <ele>541.1</ele>
        <time>2014-08-24T08:50:38Z</time>
      </trkpt>
      <trkpt lat="44.49721" lon="2.54615">
        <ele>541</ele>
        <time>2014-08-24T08:50:41Z</time>
      </trkpt>
      <trkpt lat="44.49719" lon="2.54631">
        <ele>541.8</ele>
        <time>2014-08-24T08:50:44Z</time>
      </trkpt>
      <trkpt lat="44.49716" lon="2.54648">
        <ele>541.2</ele>
        <time>2014-08-24T08:50:47Z</time>
      </trkpt>
      <trkpt lat="44.49712" lon="2.54663">
        <ele>541.1</ele>
        <time>2014-08-24T08:50:50Z</time>
      </trkpt>
      <trkpt lat="44.49707" lon="2.54677">
        <ele>542</ele>
        <time>2014-08-24T08:50:53Z</time>
      </trkpt>
      <trkpt lat="44.49698" lon="2.547">
        <ele>542.1</ele>
        <time>2014-08-24T08:50:59Z</time>
      </trkpt>
      <trkpt lat="44.49692" lon="2.54712">
        <ele>542.8</ele>
        <time>2014-08-24T08:51:02Z</time>
      </trkpt>
      <trkpt lat="44.49685" lon="2.54727">
        <ele>542.7</ele>
        <time>2014-08-24T08:51:05Z</time>
      </trkpt>
      <trkpt lat="44.49679" lon="2.54743">
        <ele>542.3</ele>
        <time>2014-08-24T08:51:08Z</time>
      </trkpt>
      <trkpt lat="44.49676" lon="2.54757">
        <ele>542.7</ele>
        <time>2014-08-24T08:51:11Z</time>
      </trkpt>
      <trkpt lat="44.49673" lon="2.5477">
        <ele>542.9</ele>
        <time>2014-08-24T08:51:14Z</time>
      </trkpt>
      <trkpt lat="44.4967" lon="2.54786">
        <ele>542.6</ele>
        <time>2014-08-24T08:51:17Z</time>
      </trkpt>
      <trkpt lat="44.49666" lon="2.54803">
        <ele>542</ele>
        <time>2014-08-24T08:51:20Z</time>
      </trkpt>
      <trkpt lat="44.49663" lon="2.54818">
        <ele>541</ele>
        <time>2014-08-24T08:51:23Z</time>
      </trkpt>
      <trkpt lat="44.49661" lon="2.54831">
        <ele>540.2</ele>
        <time>2014-08-24T08:51:25Z</time>
      </trkpt>
      <trkpt lat="44.49657" lon="2.54849">
        <ele>539.4</ele>
        <time>2014-08-24T08:51:28Z</time>
      </trkpt>
      <trkpt lat="44.49653" lon="2.54865">
        <ele>539.7</ele>
        <time>2014-08-24T08:51:31Z</time>
      </trkpt>
      <trkpt lat="44.49647" lon="2.54881">
        <ele>539.9</ele>
        <time>2014-08-24T08:51:34Z</time>
      </trkpt>
      <trkpt lat="44.49642" lon="2.54892">
        <ele>539.8</ele>
        <time>2014-08-24T08:51:36Z</time>
      </trkpt>
      <trkpt lat="44.49635" lon="2.54903">
        <ele>539.7</ele>
        <time>2014-08-24T08:51:38Z</time>
      </trkpt>
      <trkpt lat="44.49628" lon="2.54913">
        <ele>539.2</ele>
        <time>2014-08-24T08:51:40Z</time>
      </trkpt>
      <trkpt lat="44.49621" lon="2.54922">
        <ele>539</ele>
        <time>2014-08-24T08:51:42Z</time>
      </trkpt>
      <trkpt lat="44.49615" lon="2.54932">
        <ele>539.1</ele>
        <time>2014-08-24T08:51:44Z</time>
      </trkpt>
      <trkpt lat="44.49609" lon="2.54943">
        <ele>538.6</ele>
        <time>2014-08-24T08:51:46Z</time>
      </trkpt>
      <trkpt lat="44.49603" lon="2.54955">
        <ele>537.9</ele>
        <time>2014-08-24T08:51:48Z</time>
      </trkpt>
      <trkpt lat="44.49598" lon="2.54968">
        <ele>537.9</ele>
        <time>2014-08-24T08:51:50Z</time>
      </trkpt>
      <trkpt lat="44.49594" lon="2.5498">
        <ele>537.9</ele>
        <time>2014-08-24T08:51:52Z</time>
      </trkpt>
      <trkpt lat="44.4959" lon="2.54993">
        <ele>537.9</ele>
        <time>2014-08-24T08:51:54Z</time>
      </trkpt>
      <trkpt lat="44.49583" lon="2.55018">
        <ele>537.6</ele>
        <time>2014-08-24T08:51:58Z</time>
      </trkpt>
      <trkpt lat="44.49579" lon="2.55035">
        <ele>537.1</ele>
        <time>2014-08-24T08:52:01Z</time>
      </trkpt>
      <trkpt lat="44.49577" lon="2.55053">
        <ele>537.8</ele>
        <time>2014-08-24T08:52:04Z</time>
      </trkpt>
      <trkpt lat="44.49573" lon="2.55071">
        <ele>539</ele>
        <time>2014-08-24T08:52:07Z</time>
      </trkpt>
      <trkpt lat="44.4957" lon="2.55088">
        <ele>539.8</ele>
        <time>2014-08-24T08:52:10Z</time>
      </trkpt>
      <trkpt lat="44.49567" lon="2.55103">
        <ele>539.1</ele>
        <time>2014-08-24T08:52:13Z</time>
      </trkpt>
      <trkpt lat="44.49563" lon="2.55118">
        <ele>540</ele>
        <time>2014-08-24T08:52:16Z</time>
      </trkpt>
      <trkpt lat="44.49558" lon="2.55132">
        <ele>540.5</ele>
        <time>2014-08-24T08:52:19Z</time>
      </trkpt>
      <trkpt lat="44.49554" lon="2.55147">
        <ele>541.5</ele>
        <time>2014-08-24T08:52:22Z</time>
      </trkpt>
      <trkpt lat="44.49548" lon="2.55159">
        <ele>541.4</ele>
        <time>2014-08-24T08:52:25Z</time>
      </trkpt>
      <trkpt lat="44.49544" lon="2.55172">
        <ele>540.9</ele>
        <time>2014-08-24T08:52:28Z</time>
      </trkpt>
      <trkpt lat="44.49539" lon="2.55185">
        <ele>541.3</ele>
        <time>2014-08-24T08:52:31Z</time>
      </trkpt>
      <trkpt lat="44.49533" lon="2.55196">
        <ele>541.6</ele>
        <time>2014-08-24T08:52:34Z</time>
      </trkpt>
      <trkpt lat="44.49528" lon="2.55209">
        <ele>541.7</ele>
        <time>2014-08-24T08:52:37Z</time>
      </trkpt>
      <trkpt lat="44.49524" lon="2.55221">
        <ele>542</ele>
        <time>2014-08-24T08:52:40Z</time>
      </trkpt>
      <trkpt lat="44.49518" lon="2.55232">
        <ele>542.6</ele>
        <time>2014-08-24T08:52:43Z</time>
      </trkpt>
      <trkpt lat="44.49512" lon="2.55246">
        <ele>543.3</ele>
        <time>2014-08-24T08:52:46Z</time>
      </trkpt>
      <trkpt lat="44.49503" lon="2.55259">
        <ele>543.2</ele>
        <time>2014-08-24T08:52:49Z</time>
      </trkpt>
      <trkpt lat="44.49493" lon="2.55271">
        <ele>543.6</ele>
        <time>2014-08-24T08:52:52Z</time>
      </trkpt>
      <trkpt lat="44.49486" lon="2.5528">
        <ele>543.4</ele>
        <time>2014-08-24T08:52:54Z</time>
      </trkpt>
      <trkpt lat="44.49476" lon="2.55291">
        <ele>542.8</ele>
        <time>2014-08-24T08:52:57Z</time>
      </trkpt>
      <trkpt lat="44.49456" lon="2.55313">
        <ele>541.8</ele>
        <time>2014-08-24T08:53:03Z</time>
      </trkpt>
      <trkpt lat="44.49446" lon="2.55326">
        <ele>541.4</ele>
        <time>2014-08-24T08:53:06Z</time>
      </trkpt>
      <trkpt lat="44.49437" lon="2.5534">
        <ele>541.3</ele>
        <time>2014-08-24T08:53:09Z</time>
      </trkpt>
      <trkpt lat="44.4943" lon="2.5535">
        <ele>541.5</ele>
        <time>2014-08-24T08:53:11Z</time>
      </trkpt>
      <trkpt lat="44.49423" lon="2.55359">
        <ele>541.7</ele>
        <time>2014-08-24T08:53:13Z</time>
      </trkpt>
      <trkpt lat="44.49415" lon="2.55368">
        <ele>541.4</ele>
        <time>2014-08-24T08:53:15Z</time>
      </trkpt>
      <trkpt lat="44.49407" lon="2.55379">
        <ele>541</ele>
        <time>2014-08-24T08:53:17Z</time>
      </trkpt>
      <trkpt lat="44.494" lon="2.5539">
        <ele>540.4</ele>
        <time>2014-08-24T08:53:19Z</time>
      </trkpt>
      <trkpt lat="44.49394" lon="2.55403">
        <ele>539.8</ele>
        <time>2014-08-24T08:53:21Z</time>
      </trkpt>
      <trkpt lat="44.49387" lon="2.55415">
        <ele>539.3</ele>
        <time>2014-08-24T08:53:23Z</time>
      </trkpt>
      <trkpt lat="44.4938" lon="2.55426">
        <ele>539.1</ele>
        <time>2014-08-24T08:53:25Z</time>
      </trkpt>
      <trkpt lat="44.49372" lon="2.55437">
        <ele>538.9</ele>
        <time>2014-08-24T08:53:27Z</time>
      </trkpt>
      <trkpt lat="44.49364" lon="2.55448">
        <ele>538.6</ele>
        <time>2014-08-24T08:53:29Z</time>
      </trkpt>
      <trkpt lat="44.49356" lon="2.55459">
        <ele>538.4</ele>
        <time>2014-08-24T08:53:31Z</time>
      </trkpt>
      <trkpt lat="44.49348" lon="2.5547">
        <ele>538.4</ele>
        <time>2014-08-24T08:53:33Z</time>
      </trkpt>
      <trkpt lat="44.49339" lon="2.55481">
        <ele>538.3</ele>
        <time>2014-08-24T08:53:35Z</time>
      </trkpt>
      <trkpt lat="44.49331" lon="2.55491">
        <ele>538.1</ele>
        <time>2014-08-24T08:53:37Z</time>
      </trkpt>
      <trkpt lat="44.49322" lon="2.55502">
        <ele>537.7</ele>
        <time>2014-08-24T08:53:39Z</time>
      </trkpt>
      <trkpt lat="44.49314" lon="2.55514">
        <ele>537.5</ele>
        <time>2014-08-24T08:53:41Z</time>
      </trkpt>
      <trkpt lat="44.49307" lon="2.55524">
        <ele>537.3</ele>
        <time>2014-08-24T08:53:43Z</time>
      </trkpt>
      <trkpt lat="44.49298" lon="2.55535">
        <ele>537.5</ele>
        <time>2014-08-24T08:53:46Z</time>
      </trkpt>
      <trkpt lat="44.49286" lon="2.55542">
        <ele>536.7</ele>
        <time>2014-08-24T08:53:50Z</time>
      </trkpt>
      <trkpt lat="44.49277" lon="2.55554">
        <ele>535.8</ele>
        <time>2014-08-24T08:53:53Z</time>
      </trkpt>
      <trkpt lat="44.4927" lon="2.55566">
        <ele>534.9</ele>
        <time>2014-08-24T08:53:56Z</time>
      </trkpt>
      <trkpt lat="44.49265" lon="2.55577">
        <ele>535.2</ele>
        <time>2014-08-24T08:54:04Z</time>
      </trkpt>
      <trkpt lat="44.49257" lon="2.55599">
        <ele>535.1</ele>
        <time>2014-08-24T09:00:01Z</time>
      </trkpt>
      <trkpt lat="44.49248" lon="2.55625">
        <ele>535.3</ele>
        <time>2014-08-24T09:00:15Z</time>
      </trkpt>
      <trkpt lat="44.49246" lon="2.55637">
        <ele>534.7</ele>
        <time>2014-08-24T09:00:38Z</time>
      </trkpt>
      <trkpt lat="44.49241" lon="2.55648">
        <ele>535.4</ele>
        <time>2014-08-24T09:00:57Z</time>
      </trkpt>
      <trkpt lat="44.49247" lon="2.55639">
        <ele>533.6</ele>
        <time>2014-08-24T09:02:15Z</time>
      </trkpt>
      <trkpt lat="44.49241" lon="2.55654">
        <ele>535.2</ele>
        <time>2014-08-24T09:04:19Z</time>
      </trkpt>
      <trkpt lat="44.49235" lon="2.55665">
        <ele>535</ele>
        <time>2014-08-24T09:04:22Z</time>
      </trkpt>
      <trkpt lat="44.49229" lon="2.55677">
        <ele>534.6</ele>
        <time>2014-08-24T09:04:25Z</time>
      </trkpt>
      <trkpt lat="44.49225" lon="2.55688">
        <ele>534.7</ele>
        <time>2014-08-24T09:04:28Z</time>
      </trkpt>
      <trkpt lat="44.49218" lon="2.55703">
        <ele>534.9</ele>
        <time>2014-08-24T09:04:32Z</time>
      </trkpt>
      <trkpt lat="44.49213" lon="2.55717">
        <ele>534.3</ele>
        <time>2014-08-24T09:04:35Z</time>
      </trkpt>
      <trkpt lat="44.49207" lon="2.55732">
        <ele>534.3</ele>
        <time>2014-08-24T09:04:38Z</time>
      </trkpt>
      <trkpt lat="44.49201" lon="2.55746">
        <ele>534.7</ele>
        <time>2014-08-24T09:04:41Z</time>
      </trkpt>
      <trkpt lat="44.49194" lon="2.5576">
        <ele>535.7</ele>
        <time>2014-08-24T09:04:44Z</time>
      </trkpt>
      <trkpt lat="44.49188" lon="2.55772">
        <ele>535.3</ele>
        <time>2014-08-24T09:04:47Z</time>
      </trkpt>
      <trkpt lat="44.4918" lon="2.55782">
        <ele>535.6</ele>
        <time>2014-08-24T09:04:50Z</time>
      </trkpt>
      <trkpt lat="44.49164" lon="2.55805">
        <ele>536.2</ele>
        <time>2014-08-24T09:04:56Z</time>
      </trkpt>
      <trkpt lat="44.49154" lon="2.55817">
        <ele>536.1</ele>
        <time>2014-08-24T09:04:59Z</time>
      </trkpt>
      <trkpt lat="44.49144" lon="2.55828">
        <ele>536.4</ele>
        <time>2014-08-24T09:05:02Z</time>
      </trkpt>
      <trkpt lat="44.49134" lon="2.55839">
        <ele>536.2</ele>
        <time>2014-08-24T09:05:05Z</time>
      </trkpt>
      <trkpt lat="44.49124" lon="2.5585">
        <ele>536.3</ele>
        <time>2014-08-24T09:05:08Z</time>
      </trkpt>
      <trkpt lat="44.49114" lon="2.55861">
        <ele>537.3</ele>
        <time>2014-08-24T09:05:11Z</time>
      </trkpt>
      <trkpt lat="44.49103" lon="2.55872">
        <ele>537.5</ele>
        <time>2014-08-24T09:05:14Z</time>
      </trkpt>
      <trkpt lat="44.49095" lon="2.55881">
        <ele>537.7</ele>
        <time>2014-08-24T09:05:17Z</time>
      </trkpt>
      <trkpt lat="44.49086" lon="2.55891">
        <ele>538.3</ele>
        <time>2014-08-24T09:05:20Z</time>
      </trkpt>
      <trkpt lat="44.49078" lon="2.55885">
        <ele>537.7</ele>
        <time>2014-08-24T09:05:29Z</time>
      </trkpt>
      <trkpt lat="44.49075" lon="2.55872">
        <ele>538.5</ele>
        <time>2014-08-24T09:05:35Z</time>
      </trkpt>
      <trkpt lat="44.49072" lon="2.55859">
        <ele>540</ele>
        <time>2014-08-24T09:05:42Z</time>
      </trkpt>
      <trkpt lat="44.49071" lon="2.55844">
        <ele>541.2</ele>
        <time>2014-08-24T09:05:49Z</time>
      </trkpt>
      <trkpt lat="44.49072" lon="2.5583">
        <ele>543.4</ele>
        <time>2014-08-24T09:05:55Z</time>
      </trkpt>
      <trkpt lat="44.49076" lon="2.55802">
        <ele>543.9</ele>
        <time>2014-08-24T09:06:06Z</time>
      </trkpt>
      <trkpt lat="44.49077" lon="2.5579">
        <ele>544.9</ele>
        <time>2014-08-24T09:06:12Z</time>
      </trkpt>
      <trkpt lat="44.49081" lon="2.55777">
        <ele>546.6</ele>
        <time>2014-08-24T09:06:18Z</time>
      </trkpt>
      <trkpt lat="44.49086" lon="2.55763">
        <ele>546.5</ele>
        <time>2014-08-24T09:06:24Z</time>
      </trkpt>
      <trkpt lat="44.49089" lon="2.55751">
        <ele>547</ele>
        <time>2014-08-24T09:06:28Z</time>
      </trkpt>
      <trkpt lat="44.49092" lon="2.55738">
        <ele>546.5</ele>
        <time>2014-08-24T09:06:33Z</time>
      </trkpt>
      <trkpt lat="44.49092" lon="2.55724">
        <ele>547.6</ele>
        <time>2014-08-24T09:06:37Z</time>
      </trkpt>
      <trkpt lat="44.49092" lon="2.55709">
        <ele>547.7</ele>
        <time>2014-08-24T09:06:41Z</time>
      </trkpt>
      <trkpt lat="44.49092" lon="2.55693">
        <ele>548.1</ele>
        <time>2014-08-24T09:06:45Z</time>
      </trkpt>
      <trkpt lat="44.4909" lon="2.5568">
        <ele>548.3</ele>
        <time>2014-08-24T09:06:48Z</time>
      </trkpt>
      <trkpt lat="44.49086" lon="2.55663">
        <ele>547.9</ele>
        <time>2014-08-24T09:06:51Z</time>
      </trkpt>
      <trkpt lat="44.4908" lon="2.5565">
        <ele>547.5</ele>
        <time>2014-08-24T09:06:53Z</time>
      </trkpt>
      <trkpt lat="44.49073" lon="2.55637">
        <ele>547.1</ele>
        <time>2014-08-24T09:06:55Z</time>
      </trkpt>
      <trkpt lat="44.49066" lon="2.55626">
        <ele>546.9</ele>
        <time>2014-08-24T09:06:57Z</time>
      </trkpt>
      <trkpt lat="44.49055" lon="2.55604">
        <ele>546.7</ele>
        <time>2014-08-24T09:07:01Z</time>
      </trkpt>
      <trkpt lat="44.4905" lon="2.55592">
        <ele>546</ele>
        <time>2014-08-24T09:07:03Z</time>
      </trkpt>
      <trkpt lat="44.49045" lon="2.55578">
        <ele>545.2</ele>
        <time>2014-08-24T09:07:05Z</time>
      </trkpt>
      <trkpt lat="44.49041" lon="2.55565">
        <ele>545.7</ele>
        <time>2014-08-24T09:07:07Z</time>
      </trkpt>
      <trkpt lat="44.49037" lon="2.55553">
        <ele>545.7</ele>
        <time>2014-08-24T09:07:09Z</time>
      </trkpt>
      <trkpt lat="44.49033" lon="2.55542">
        <ele>545.5</ele>
        <time>2014-08-24T09:07:11Z</time>
      </trkpt>
      <trkpt lat="44.4903" lon="2.5553">
        <ele>545.5</ele>
        <time>2014-08-24T09:07:13Z</time>
      </trkpt>
      <trkpt lat="44.49025" lon="2.55513">
        <ele>545.3</ele>
        <time>2014-08-24T09:07:16Z</time>
      </trkpt>
      <trkpt lat="44.4902" lon="2.55503">
        <ele>544.2</ele>
        <time>2014-08-24T09:07:27Z</time>
      </trkpt>
      <trkpt lat="44.49023" lon="2.55491">
        <ele>543.4</ele>
        <time>2014-08-24T09:08:11Z</time>
      </trkpt>
      <trkpt lat="44.49036" lon="2.55509">
        <ele>543.9</ele>
        <time>2014-08-24T09:09:10Z</time>
      </trkpt>
      <trkpt lat="44.49041" lon="2.55523">
        <ele>544.8</ele>
        <time>2014-08-24T09:09:14Z</time>
      </trkpt>
      <trkpt lat="44.4905" lon="2.55547">
        <ele>545.5</ele>
        <time>2014-08-24T09:09:21Z</time>
      </trkpt>
      <trkpt lat="44.49057" lon="2.55559">
        <ele>545.6</ele>
        <time>2014-08-24T09:09:24Z</time>
      </trkpt>
      <trkpt lat="44.49064" lon="2.55573">
        <ele>546</ele>
        <time>2014-08-24T09:09:27Z</time>
      </trkpt>
      <trkpt lat="44.49069" lon="2.55583">
        <ele>546.5</ele>
        <time>2014-08-24T09:09:29Z</time>
      </trkpt>
      <trkpt lat="44.49076" lon="2.55593">
        <ele>546.6</ele>
        <time>2014-08-24T09:09:31Z</time>
      </trkpt>
      <trkpt lat="44.49084" lon="2.55607">
        <ele>546.8</ele>
        <time>2014-08-24T09:09:34Z</time>
      </trkpt>
      <trkpt lat="44.49088" lon="2.55619">
        <ele>546.3</ele>
        <time>2014-08-24T09:09:37Z</time>
      </trkpt>
      <trkpt lat="44.49092" lon="2.55635">
        <ele>547.6</ele>
        <time>2014-08-24T09:09:41Z</time>
      </trkpt>
      <trkpt lat="44.49094" lon="2.55648">
        <ele>548.5</ele>
        <time>2014-08-24T09:09:45Z</time>
      </trkpt>
      <trkpt lat="44.49095" lon="2.55664">
        <ele>548.6</ele>
        <time>2014-08-24T09:09:49Z</time>
      </trkpt>
      <trkpt lat="44.49094" lon="2.55677">
        <ele>548.6</ele>
        <time>2014-08-24T09:09:52Z</time>
      </trkpt>
      <trkpt lat="44.49093" lon="2.55691">
        <ele>548.4</ele>
        <time>2014-08-24T09:09:55Z</time>
      </trkpt>
      <trkpt lat="44.4909" lon="2.55707">
        <ele>547.8</ele>
        <time>2014-08-24T09:09:59Z</time>
      </trkpt>
      <trkpt lat="44.49085" lon="2.55724">
        <ele>547.8</ele>
        <time>2014-08-24T09:10:03Z</time>
      </trkpt>
      <trkpt lat="44.49081" lon="2.55735">
        <ele>547.6</ele>
        <time>2014-08-24T09:10:05Z</time>
      </trkpt>
      <trkpt lat="44.49078" lon="2.55748">
        <ele>547.4</ele>
        <time>2014-08-24T09:10:07Z</time>
      </trkpt>
      <trkpt lat="44.49076" lon="2.55763">
        <ele>546.7</ele>
        <time>2014-08-24T09:10:09Z</time>
      </trkpt>
      <trkpt lat="44.49072" lon="2.55778">
        <ele>545.9</ele>
        <time>2014-08-24T09:10:11Z</time>
      </trkpt>
      <trkpt lat="44.49069" lon="2.55793">
        <ele>545.2</ele>
        <time>2014-08-24T09:10:13Z</time>
      </trkpt>
      <trkpt lat="44.49068" lon="2.55808">
        <ele>544.9</ele>
        <time>2014-08-24T09:10:15Z</time>
      </trkpt>
      <trkpt lat="44.4907" lon="2.55839">
        <ele>544</ele>
        <time>2014-08-24T09:10:19Z</time>
      </trkpt>
      <trkpt lat="44.49073" lon="2.55857">
        <ele>542.6</ele>
        <time>2014-08-24T09:10:21Z</time>
      </trkpt>
      <trkpt lat="44.49074" lon="2.55871">
        <ele>541.1</ele>
        <time>2014-08-24T09:10:23Z</time>
      </trkpt>
      <trkpt lat="44.49071" lon="2.55883">
        <ele>540</ele>
        <time>2014-08-24T09:10:25Z</time>
      </trkpt>
      <trkpt lat="44.49065" lon="2.55893">
        <ele>538.5</ele>
        <time>2014-08-24T09:10:28Z</time>
      </trkpt>
      <trkpt lat="44.49056" lon="2.55905">
        <ele>538.4</ele>
        <time>2014-08-24T09:10:32Z</time>
      </trkpt>
      <trkpt lat="44.49046" lon="2.55914">
        <ele>538.4</ele>
        <time>2014-08-24T09:10:35Z</time>
      </trkpt>
      <trkpt lat="44.49036" lon="2.55919">
        <ele>538.4</ele>
        <time>2014-08-24T09:10:38Z</time>
      </trkpt>
      <trkpt lat="44.49025" lon="2.55922">
        <ele>538.3</ele>
        <time>2014-08-24T09:10:41Z</time>
      </trkpt>
      <trkpt lat="44.49013" lon="2.55925">
        <ele>537.6</ele>
        <time>2014-08-24T09:10:44Z</time>
      </trkpt>
      <trkpt lat="44.49" lon="2.55928">
        <ele>536.9</ele>
        <time>2014-08-24T09:10:47Z</time>
      </trkpt>
      <trkpt lat="44.48991" lon="2.5593">
        <ele>536.7</ele>
        <time>2014-08-24T09:10:49Z</time>
      </trkpt>
      <trkpt lat="44.48981" lon="2.55934">
        <ele>536.5</ele>
        <time>2014-08-24T09:10:51Z</time>
      </trkpt>
      <trkpt lat="44.48971" lon="2.55938">
        <ele>536.3</ele>
        <time>2014-08-24T09:10:53Z</time>
      </trkpt>
      <trkpt lat="44.48962" lon="2.55943">
        <ele>536.1</ele>
        <time>2014-08-24T09:10:55Z</time>
      </trkpt>
      <trkpt lat="44.48953" lon="2.5595">
        <ele>535.6</ele>
        <time>2014-08-24T09:10:57Z</time>
      </trkpt>
      <trkpt lat="44.48943" lon="2.55959">
        <ele>535.2</ele>
        <time>2014-08-24T09:10:59Z</time>
      </trkpt>
      <trkpt lat="44.48933" lon="2.55969">
        <ele>534.9</ele>
        <time>2014-08-24T09:11:01Z</time>
      </trkpt>
      <trkpt lat="44.48923" lon="2.55979">
        <ele>534.4</ele>
        <time>2014-08-24T09:11:03Z</time>
      </trkpt>
      <trkpt lat="44.48914" lon="2.55988">
        <ele>534.2</ele>
        <time>2014-08-24T09:11:05Z</time>
      </trkpt>
      <trkpt lat="44.48904" lon="2.55996">
        <ele>533.2</ele>
        <time>2014-08-24T09:11:07Z</time>
      </trkpt>
      <trkpt lat="44.48894" lon="2.56004">
        <ele>532.8</ele>
        <time>2014-08-24T09:11:09Z</time>
      </trkpt>
      <trkpt lat="44.48884" lon="2.56012">
        <ele>532.8</ele>
        <time>2014-08-24T09:11:11Z</time>
      </trkpt>
      <trkpt lat="44.48875" lon="2.5602">
        <ele>532.3</ele>
        <time>2014-08-24T09:11:13Z</time>
      </trkpt>
      <trkpt lat="44.48865" lon="2.56028">
        <ele>531.7</ele>
        <time>2014-08-24T09:11:15Z</time>
      </trkpt>
      <trkpt lat="44.48857" lon="2.56036">
        <ele>531</ele>
        <time>2014-08-24T09:11:17Z</time>
      </trkpt>
      <trkpt lat="44.48838" lon="2.5605">
        <ele>530.3</ele>
        <time>2014-08-24T09:11:21Z</time>
      </trkpt>
      <trkpt lat="44.48829" lon="2.56057">
        <ele>530.2</ele>
        <time>2014-08-24T09:11:23Z</time>
      </trkpt>
      <trkpt lat="44.48821" lon="2.56065">
        <ele>530</ele>
        <time>2014-08-24T09:11:25Z</time>
      </trkpt>
      <trkpt lat="44.48811" lon="2.56076">
        <ele>529.9</ele>
        <time>2014-08-24T09:11:28Z</time>
      </trkpt>
      <trkpt lat="44.48804" lon="2.56085">
        <ele>529.9</ele>
        <time>2014-08-24T09:11:31Z</time>
      </trkpt>
      <trkpt lat="44.48797" lon="2.56093">
        <ele>529.8</ele>
        <time>2014-08-24T09:11:34Z</time>
      </trkpt>
      <trkpt lat="44.48789" lon="2.56102">
        <ele>529.8</ele>
        <time>2014-08-24T09:11:37Z</time>
      </trkpt>
      <trkpt lat="44.4878" lon="2.56112">
        <ele>529.4</ele>
        <time>2014-08-24T09:11:40Z</time>
      </trkpt>
      <trkpt lat="44.4877" lon="2.56121">
        <ele>528.9</ele>
        <time>2014-08-24T09:11:43Z</time>
      </trkpt>
      <trkpt lat="44.48761" lon="2.56132">
        <ele>528.5</ele>
        <time>2014-08-24T09:11:46Z</time>
      </trkpt>
      <trkpt lat="44.48751" lon="2.56143">
        <ele>528.8</ele>
        <time>2014-08-24T09:11:49Z</time>
      </trkpt>
      <trkpt lat="44.48741" lon="2.56156">
        <ele>528.3</ele>
        <time>2014-08-24T09:11:52Z</time>
      </trkpt>
      <trkpt lat="44.48732" lon="2.56169">
        <ele>527.9</ele>
        <time>2014-08-24T09:11:55Z</time>
      </trkpt>
      <trkpt lat="44.48724" lon="2.5618">
        <ele>528.1</ele>
        <time>2014-08-24T09:11:58Z</time>
      </trkpt>
      <trkpt lat="44.48717" lon="2.56191">
        <ele>528.4</ele>
        <time>2014-08-24T09:12:01Z</time>
      </trkpt>
      <trkpt lat="44.48709" lon="2.56201">
        <ele>528.1</ele>
        <time>2014-08-24T09:12:04Z</time>
      </trkpt>
      <trkpt lat="44.487" lon="2.56211">
        <ele>528</ele>
        <time>2014-08-24T09:12:07Z</time>
      </trkpt>
      <trkpt lat="44.48691" lon="2.56221">
        <ele>527.6</ele>
        <time>2014-08-24T09:12:10Z</time>
      </trkpt>
      <trkpt lat="44.48681" lon="2.5623">
        <ele>527.3</ele>
        <time>2014-08-24T09:12:13Z</time>
      </trkpt>
      <trkpt lat="44.48672" lon="2.56237">
        <ele>527.2</ele>
        <time>2014-08-24T09:12:16Z</time>
      </trkpt>
      <trkpt lat="44.48662" lon="2.56243">
        <ele>527</ele>
        <time>2014-08-24T09:12:19Z</time>
      </trkpt>
      <trkpt lat="44.48646" lon="2.56256">
        <ele>526.2</ele>
        <time>2014-08-24T09:12:25Z</time>
      </trkpt>
      <trkpt lat="44.48635" lon="2.56259">
        <ele>527.3</ele>
        <time>2014-08-24T09:12:29Z</time>
      </trkpt>
      <trkpt lat="44.48626" lon="2.56252">
        <ele>527.6</ele>
        <time>2014-08-24T09:12:33Z</time>
      </trkpt>
      <trkpt lat="44.48619" lon="2.56243">
        <ele>526.7</ele>
        <time>2014-08-24T09:12:37Z</time>
      </trkpt>
      <trkpt lat="44.48609" lon="2.56243">
        <ele>526.6</ele>
        <time>2014-08-24T09:12:42Z</time>
      </trkpt>
      <trkpt lat="44.48599" lon="2.56245">
        <ele>525.8</ele>
        <time>2014-08-24T09:12:47Z</time>
      </trkpt>
      <trkpt lat="44.48588" lon="2.56248">
        <ele>525.7</ele>
        <time>2014-08-24T09:12:51Z</time>
      </trkpt>
      <trkpt lat="44.48577" lon="2.56251">
        <ele>525.2</ele>
        <time>2014-08-24T09:12:55Z</time>
      </trkpt>
      <trkpt lat="44.48568" lon="2.56255">
        <ele>526.1</ele>
        <time>2014-08-24T09:12:58Z</time>
      </trkpt>
      <trkpt lat="44.48558" lon="2.56259">
        <ele>525.9</ele>
        <time>2014-08-24T09:13:01Z</time>
      </trkpt>
      <trkpt lat="44.48548" lon="2.56263">
        <ele>525.2</ele>
        <time>2014-08-24T09:13:04Z</time>
      </trkpt>
      <trkpt lat="44.48539" lon="2.56265">
        <ele>525.6</ele>
        <time>2014-08-24T09:13:07Z</time>
      </trkpt>
      <trkpt lat="44.4853" lon="2.56267">
        <ele>525.7</ele>
        <time>2014-08-24T09:13:10Z</time>
      </trkpt>
      <trkpt lat="44.4852" lon="2.56268">
        <ele>525.4</ele>
        <time>2014-08-24T09:13:13Z</time>
      </trkpt>
      <trkpt lat="44.4851" lon="2.56269">
        <ele>527.5</ele>
        <time>2014-08-24T09:13:16Z</time>
      </trkpt>
      <trkpt lat="44.48499" lon="2.5627">
        <ele>527.4</ele>
        <time>2014-08-24T09:13:19Z</time>
      </trkpt>
      <trkpt lat="44.4849" lon="2.56271">
        <ele>527.7</ele>
        <time>2014-08-24T09:13:22Z</time>
      </trkpt>
      <trkpt lat="44.48469" lon="2.56273">
        <ele>527.9</ele>
        <time>2014-08-24T09:13:28Z</time>
      </trkpt>
      <trkpt lat="44.48459" lon="2.56274">
        <ele>527.7</ele>
        <time>2014-08-24T09:13:31Z</time>
      </trkpt>
      <trkpt lat="44.48449" lon="2.56276">
        <ele>527.9</ele>
        <time>2014-08-24T09:13:34Z</time>
      </trkpt>
      <trkpt lat="44.48438" lon="2.56278">
        <ele>528.7</ele>
        <time>2014-08-24T09:13:37Z</time>
      </trkpt>
      <trkpt lat="44.48426" lon="2.56279">
        <ele>528.4</ele>
        <time>2014-08-24T09:13:40Z</time>
      </trkpt>
      <trkpt lat="44.48416" lon="2.5628">
        <ele>528.3</ele>
        <time>2014-08-24T09:13:43Z</time>
      </trkpt>
      <trkpt lat="44.48405" lon="2.56282">
        <ele>528.4</ele>
        <time>2014-08-24T09:13:46Z</time>
      </trkpt>
      <trkpt lat="44.48394" lon="2.56283">
        <ele>528.8</ele>
        <time>2014-08-24T09:13:49Z</time>
      </trkpt>
      <trkpt lat="44.48383" lon="2.56283">
        <ele>528.7</ele>
        <time>2014-08-24T09:13:52Z</time>
      </trkpt>
      <trkpt lat="44.48372" lon="2.56285">
        <ele>528.2</ele>
        <time>2014-08-24T09:13:55Z</time>
      </trkpt>
      <trkpt lat="44.4836" lon="2.56285">
        <ele>528.1</ele>
        <time>2014-08-24T09:13:58Z</time>
      </trkpt>
      <trkpt lat="44.48349" lon="2.56286">
        <ele>528.6</ele>
        <time>2014-08-24T09:14:01Z</time>
      </trkpt>
      <trkpt lat="44.48338" lon="2.56285">
        <ele>529.4</ele>
        <time>2014-08-24T09:14:04Z</time>
      </trkpt>
      <trkpt lat="44.48328" lon="2.56284">
        <ele>530.3</ele>
        <time>2014-08-24T09:14:07Z</time>
      </trkpt>
      <trkpt lat="44.48317" lon="2.56279">
        <ele>530.2</ele>
        <time>2014-08-24T09:14:10Z</time>
      </trkpt>
      <trkpt lat="44.48306" lon="2.56275">
        <ele>529.7</ele>
        <time>2014-08-24T09:14:13Z</time>
      </trkpt>
      <trkpt lat="44.48296" lon="2.56271">
        <ele>530.7</ele>
        <time>2014-08-24T09:14:16Z</time>
      </trkpt>
      <trkpt lat="44.48284" lon="2.56267">
        <ele>531.9</ele>
        <time>2014-08-24T09:14:19Z</time>
      </trkpt>
      <trkpt lat="44.48273" lon="2.56265">
        <ele>531.6</ele>
        <time>2014-08-24T09:14:22Z</time>
      </trkpt>
      <trkpt lat="44.48263" lon="2.56262">
        <ele>532.4</ele>
        <time>2014-08-24T09:14:25Z</time>
      </trkpt>
      <trkpt lat="44.48243" lon="2.56257">
        <ele>533.1</ele>
        <time>2014-08-24T09:14:31Z</time>
      </trkpt>
      <trkpt lat="44.48233" lon="2.5625">
        <ele>533.8</ele>
        <time>2014-08-24T09:14:35Z</time>
      </trkpt>
      <trkpt lat="44.48229" lon="2.56235">
        <ele>533.9</ele>
        <time>2014-08-24T09:14:39Z</time>
      </trkpt>
      <trkpt lat="44.48225" lon="2.56219">
        <ele>534.7</ele>
        <time>2014-08-24T09:14:43Z</time>
      </trkpt>
      <trkpt lat="44.48221" lon="2.56208">
        <ele>534.5</ele>
        <time>2014-08-24T09:14:46Z</time>
      </trkpt>
      <trkpt lat="44.48214" lon="2.56194">
        <ele>534.3</ele>
        <time>2014-08-24T09:14:50Z</time>
      </trkpt>
      <trkpt lat="44.48207" lon="2.56184">
        <ele>534.4</ele>
        <time>2014-08-24T09:14:53Z</time>
      </trkpt>
      <trkpt lat="44.48197" lon="2.56175">
        <ele>534.5</ele>
        <time>2014-08-24T09:14:56Z</time>
      </trkpt>
      <trkpt lat="44.48188" lon="2.56169">
        <ele>534.8</ele>
        <time>2014-08-24T09:14:58Z</time>
      </trkpt>
      <trkpt lat="44.48177" lon="2.56161">
        <ele>533.9</ele>
        <time>2014-08-24T09:15:01Z</time>
      </trkpt>
      <trkpt lat="44.48166" lon="2.56156">
        <ele>533.4</ele>
        <time>2014-08-24T09:15:04Z</time>
      </trkpt>
      <trkpt lat="44.48154" lon="2.56151">
        <ele>533.1</ele>
        <time>2014-08-24T09:15:07Z</time>
      </trkpt>
      <trkpt lat="44.48142" lon="2.56149">
        <ele>533</ele>
        <time>2014-08-24T09:15:10Z</time>
      </trkpt>
      <trkpt lat="44.48134" lon="2.56158">
        <ele>532.8</ele>
        <time>2014-08-24T09:15:13Z</time>
      </trkpt>
      <trkpt lat="44.48131" lon="2.56173">
        <ele>533.1</ele>
        <time>2014-08-24T09:15:16Z</time>
      </trkpt>
      <trkpt lat="44.4813" lon="2.56189">
        <ele>533.5</ele>
        <time>2014-08-24T09:15:19Z</time>
      </trkpt>
      <trkpt lat="44.48127" lon="2.56204">
        <ele>533.9</ele>
        <time>2014-08-24T09:15:22Z</time>
      </trkpt>
      <trkpt lat="44.48125" lon="2.56219">
        <ele>534.1</ele>
        <time>2014-08-24T09:15:25Z</time>
      </trkpt>
      <trkpt lat="44.48123" lon="2.56234">
        <ele>533.9</ele>
        <time>2014-08-24T09:15:28Z</time>
      </trkpt>
      <trkpt lat="44.48119" lon="2.56267">
        <ele>533.2</ele>
        <time>2014-08-24T09:15:34Z</time>
      </trkpt>
      <trkpt lat="44.48116" lon="2.56286">
        <ele>533.3</ele>
        <time>2014-08-24T09:15:37Z</time>
      </trkpt>
      <trkpt lat="44.48113" lon="2.563">
        <ele>533.5</ele>
        <time>2014-08-24T09:15:39Z</time>
      </trkpt>
      <trkpt lat="44.4811" lon="2.56315">
        <ele>533.5</ele>
        <time>2014-08-24T09:15:41Z</time>
      </trkpt>
      <trkpt lat="44.48108" lon="2.56329">
        <ele>533.5</ele>
        <time>2014-08-24T09:15:43Z</time>
      </trkpt>
      <trkpt lat="44.48106" lon="2.56343">
        <ele>532.9</ele>
        <time>2014-08-24T09:15:45Z</time>
      </trkpt>
      <trkpt lat="44.48104" lon="2.56361">
        <ele>531.7</ele>
        <time>2014-08-24T09:15:48Z</time>
      </trkpt>
      <trkpt lat="44.48102" lon="2.56374">
        <ele>531.5</ele>
        <time>2014-08-24T09:15:50Z</time>
      </trkpt>
      <trkpt lat="44.48101" lon="2.56388">
        <ele>531.7</ele>
        <time>2014-08-24T09:15:52Z</time>
      </trkpt>
      <trkpt lat="44.481" lon="2.56401">
        <ele>531.8</ele>
        <time>2014-08-24T09:15:54Z</time>
      </trkpt>
      <trkpt lat="44.48099" lon="2.56415">
        <ele>531.6</ele>
        <time>2014-08-24T09:15:56Z</time>
      </trkpt>
      <trkpt lat="44.48097" lon="2.56434">
        <ele>531.2</ele>
        <time>2014-08-24T09:15:59Z</time>
      </trkpt>
      <trkpt lat="44.48098" lon="2.56451">
        <ele>531.1</ele>
        <time>2014-08-24T09:16:02Z</time>
      </trkpt>
      <trkpt lat="44.48098" lon="2.5647">
        <ele>531.9</ele>
        <time>2014-08-24T09:16:05Z</time>
      </trkpt>
      <trkpt lat="44.48099" lon="2.56482">
        <ele>531.7</ele>
        <time>2014-08-24T09:16:07Z</time>
      </trkpt>
      <trkpt lat="44.48099" lon="2.565">
        <ele>531.5</ele>
        <time>2014-08-24T09:16:10Z</time>
      </trkpt>
      <trkpt lat="44.48099" lon="2.56516">
        <ele>531.1</ele>
        <time>2014-08-24T09:16:13Z</time>
      </trkpt>
      <trkpt lat="44.481" lon="2.56531">
        <ele>530.8</ele>
        <time>2014-08-24T09:16:16Z</time>
      </trkpt>
      <trkpt lat="44.48101" lon="2.56545">
        <ele>530.4</ele>
        <time>2014-08-24T09:16:19Z</time>
      </trkpt>
      <trkpt lat="44.48101" lon="2.5656">
        <ele>530.3</ele>
        <time>2014-08-24T09:16:22Z</time>
      </trkpt>
      <trkpt lat="44.48101" lon="2.56575">
        <ele>530.8</ele>
        <time>2014-08-24T09:16:25Z</time>
      </trkpt>
      <trkpt lat="44.48102" lon="2.5659">
        <ele>531.1</ele>
        <time>2014-08-24T09:16:28Z</time>
      </trkpt>
      <trkpt lat="44.48092" lon="2.56588">
        <ele>531.5</ele>
        <time>2014-08-24T09:16:33Z</time>
      </trkpt>
      <trkpt lat="44.48073" lon="2.56579">
        <ele>530.5</ele>
        <time>2014-08-24T09:16:39Z</time>
      </trkpt>
      <trkpt lat="44.48064" lon="2.56573">
        <ele>531.3</ele>
        <time>2014-08-24T09:16:42Z</time>
      </trkpt>
      <trkpt lat="44.48054" lon="2.56566">
        <ele>531</ele>
        <time>2014-08-24T09:16:45Z</time>
      </trkpt>
      <trkpt lat="44.48045" lon="2.56558">
        <ele>530.8</ele>
        <time>2014-08-24T09:16:48Z</time>
      </trkpt>
      <trkpt lat="44.48034" lon="2.56552">
        <ele>531</ele>
        <time>2014-08-24T09:16:51Z</time>
      </trkpt>
      <trkpt lat="44.48024" lon="2.56548">
        <ele>530.8</ele>
        <time>2014-08-24T09:16:54Z</time>
      </trkpt>
      <trkpt lat="44.48013" lon="2.56544">
        <ele>530.9</ele>
        <time>2014-08-24T09:16:57Z</time>
      </trkpt>
      <trkpt lat="44.48002" lon="2.56539">
        <ele>532</ele>
        <time>2014-08-24T09:17:00Z</time>
      </trkpt>
      <trkpt lat="44.47991" lon="2.56534">
        <ele>532.6</ele>
        <time>2014-08-24T09:17:03Z</time>
      </trkpt>
      <trkpt lat="44.47982" lon="2.56527">
        <ele>532</ele>
        <time>2014-08-24T09:17:06Z</time>
      </trkpt>
      <trkpt lat="44.47973" lon="2.56517">
        <ele>532.4</ele>
        <time>2014-08-24T09:17:09Z</time>
      </trkpt>
      <trkpt lat="44.47966" lon="2.56507">
        <ele>532.3</ele>
        <time>2014-08-24T09:17:12Z</time>
      </trkpt>
      <trkpt lat="44.47957" lon="2.56496">
        <ele>532.4</ele>
        <time>2014-08-24T09:17:15Z</time>
      </trkpt>
      <trkpt lat="44.47946" lon="2.56487">
        <ele>531.9</ele>
        <time>2014-08-24T09:17:18Z</time>
      </trkpt>
      <trkpt lat="44.47934" lon="2.56482">
        <ele>531.8</ele>
        <time>2014-08-24T09:17:21Z</time>
      </trkpt>
      <trkpt lat="44.47922" lon="2.56477">
        <ele>531.5</ele>
        <time>2014-08-24T09:17:24Z</time>
      </trkpt>
      <trkpt lat="44.47911" lon="2.56473">
        <ele>532</ele>
        <time>2014-08-24T09:17:27Z</time>
      </trkpt>
      <trkpt lat="44.479" lon="2.56469">
        <ele>532</ele>
        <time>2014-08-24T09:17:30Z</time>
      </trkpt>
      <trkpt lat="44.47889" lon="2.56463">
        <ele>531.4</ele>
        <time>2014-08-24T09:17:33Z</time>
      </trkpt>
      <trkpt lat="44.47878" lon="2.56455">
        <ele>531</ele>
        <time>2014-08-24T09:17:36Z</time>
      </trkpt>
      <trkpt lat="44.4786" lon="2.56434">
        <ele>531.2</ele>
        <time>2014-08-24T09:17:42Z</time>
      </trkpt>
      <trkpt lat="44.47849" lon="2.56427">
        <ele>531.3</ele>
        <time>2014-08-24T09:17:45Z</time>
      </trkpt>
      <trkpt lat="44.47837" lon="2.56423">
        <ele>531.7</ele>
        <time>2014-08-24T09:17:48Z</time>
      </trkpt>
      <trkpt lat="44.47826" lon="2.56418">
        <ele>531.8</ele>
        <time>2014-08-24T09:17:51Z</time>
      </trkpt>
      <trkpt lat="44.47814" lon="2.56415">
        <ele>532.1</ele>
        <time>2014-08-24T09:17:54Z</time>
      </trkpt>
      <trkpt lat="44.478" lon="2.56415">
        <ele>532.7</ele>
        <time>2014-08-24T09:17:57Z</time>
      </trkpt>
      <trkpt lat="44.47788" lon="2.56417">
        <ele>533.2</ele>
        <time>2014-08-24T09:18:00Z</time>
      </trkpt>
      <trkpt lat="44.47775" lon="2.5642">
        <ele>533.1</ele>
        <time>2014-08-24T09:18:03Z</time>
      </trkpt>
      <trkpt lat="44.47763" lon="2.56421">
        <ele>534.1</ele>
        <time>2014-08-24T09:18:06Z</time>
      </trkpt>
      <trkpt lat="44.4775" lon="2.56419">
        <ele>533.2</ele>
        <time>2014-08-24T09:18:09Z</time>
      </trkpt>
      <trkpt lat="44.47738" lon="2.56415">
        <ele>532.7</ele>
        <time>2014-08-24T09:18:12Z</time>
      </trkpt>
      <trkpt lat="44.47725" lon="2.56409">
        <ele>532.9</ele>
        <time>2014-08-24T09:18:15Z</time>
      </trkpt>
      <trkpt lat="44.47713" lon="2.56404">
        <ele>533.4</ele>
        <time>2014-08-24T09:18:18Z</time>
      </trkpt>
      <trkpt lat="44.47701" lon="2.56405">
        <ele>533.1</ele>
        <time>2014-08-24T09:18:21Z</time>
      </trkpt>
      <trkpt lat="44.47692" lon="2.5641">
        <ele>532.8</ele>
        <time>2014-08-24T09:18:24Z</time>
      </trkpt>
      <trkpt lat="44.4768" lon="2.56407">
        <ele>532.9</ele>
        <time>2014-08-24T09:18:27Z</time>
      </trkpt>
      <trkpt lat="44.47669" lon="2.56405">
        <ele>533.1</ele>
        <time>2014-08-24T09:18:30Z</time>
      </trkpt>
      <trkpt lat="44.47657" lon="2.56402">
        <ele>533.2</ele>
        <time>2014-08-24T09:18:33Z</time>
      </trkpt>
      <trkpt lat="44.47646" lon="2.564">
        <ele>533.5</ele>
        <time>2014-08-24T09:18:36Z</time>
      </trkpt>
      <trkpt lat="44.47634" lon="2.56399">
        <ele>533.8</ele>
        <time>2014-08-24T09:18:39Z</time>
      </trkpt>
      <trkpt lat="44.47608" lon="2.56393">
        <ele>532.6</ele>
        <time>2014-08-24T09:18:45Z</time>
      </trkpt>
      <trkpt lat="44.47598" lon="2.56391">
        <ele>532.7</ele>
        <time>2014-08-24T09:18:47Z</time>
      </trkpt>
      <trkpt lat="44.47588" lon="2.56389">
        <ele>532.6</ele>
        <time>2014-08-24T09:18:49Z</time>
      </trkpt>
      <trkpt lat="44.47579" lon="2.56385">
        <ele>532.4</ele>
        <time>2014-08-24T09:18:51Z</time>
      </trkpt>
      <trkpt lat="44.47569" lon="2.56383">
        <ele>532.6</ele>
        <time>2014-08-24T09:18:53Z</time>
      </trkpt>
      <trkpt lat="44.4756" lon="2.56381">
        <ele>532.4</ele>
        <time>2014-08-24T09:18:55Z</time>
      </trkpt>
      <trkpt lat="44.47547" lon="2.56378">
        <ele>532.2</ele>
        <time>2014-08-24T09:18:58Z</time>
      </trkpt>
      <trkpt lat="44.47534" lon="2.56375">
        <ele>533.2</ele>
        <time>2014-08-24T09:19:01Z</time>
      </trkpt>
      <trkpt lat="44.47525" lon="2.56373">
        <ele>532.8</ele>
        <time>2014-08-24T09:19:03Z</time>
      </trkpt>
      <trkpt lat="44.47515" lon="2.56371">
        <ele>532.9</ele>
        <time>2014-08-24T09:19:05Z</time>
      </trkpt>
      <trkpt lat="44.47506" lon="2.56369">
        <ele>533.1</ele>
        <time>2014-08-24T09:19:07Z</time>
      </trkpt>
      <trkpt lat="44.47497" lon="2.56367">
        <ele>532.8</ele>
        <time>2014-08-24T09:19:09Z</time>
      </trkpt>
      <trkpt lat="44.47487" lon="2.56366">
        <ele>532.8</ele>
        <time>2014-08-24T09:19:11Z</time>
      </trkpt>
      <trkpt lat="44.47477" lon="2.56364">
        <ele>533</ele>
        <time>2014-08-24T09:19:13Z</time>
      </trkpt>
      <trkpt lat="44.47468" lon="2.56362">
        <ele>533.1</ele>
        <time>2014-08-24T09:19:15Z</time>
      </trkpt>
      <trkpt lat="44.47455" lon="2.56359">
        <ele>533.5</ele>
        <time>2014-08-24T09:19:18Z</time>
      </trkpt>
      <trkpt lat="44.47443" lon="2.56356">
        <ele>534</ele>
        <time>2014-08-24T09:19:21Z</time>
      </trkpt>
      <trkpt lat="44.4743" lon="2.56353">
        <ele>534.1</ele>
        <time>2014-08-24T09:19:24Z</time>
      </trkpt>
      <trkpt lat="44.47418" lon="2.5635">
        <ele>534.3</ele>
        <time>2014-08-24T09:19:27Z</time>
      </trkpt>
      <trkpt lat="44.47406" lon="2.56347">
        <ele>534.6</ele>
        <time>2014-08-24T09:19:30Z</time>
      </trkpt>
      <trkpt lat="44.47394" lon="2.56344">
        <ele>534.5</ele>
        <time>2014-08-24T09:19:33Z</time>
      </trkpt>
      <trkpt lat="44.47381" lon="2.5634">
        <ele>534.7</ele>
        <time>2014-08-24T09:19:36Z</time>
      </trkpt>
      <trkpt lat="44.47369" lon="2.56336">
        <ele>534.8</ele>
        <time>2014-08-24T09:19:39Z</time>
      </trkpt>
      <trkpt lat="44.47357" lon="2.56332">
        <ele>535.1</ele>
        <time>2014-08-24T09:19:42Z</time>
      </trkpt>
      <trkpt lat="44.47333" lon="2.56323">
        <ele>535.5</ele>
        <time>2014-08-24T09:19:48Z</time>
      </trkpt>
      <trkpt lat="44.47321" lon="2.56317">
        <ele>535.8</ele>
        <time>2014-08-24T09:19:51Z</time>
      </trkpt>
      <trkpt lat="44.47312" lon="2.56314">
        <ele>535.7</ele>
        <time>2014-08-24T09:19:53Z</time>
      </trkpt>
      <trkpt lat="44.47302" lon="2.5631">
        <ele>535.6</ele>
        <time>2014-08-24T09:19:55Z</time>
      </trkpt>
      <trkpt lat="44.47293" lon="2.56307">
        <ele>535</ele>
        <time>2014-08-24T09:19:57Z</time>
      </trkpt>
      <trkpt lat="44.47284" lon="2.56303">
        <ele>535.1</ele>
        <time>2014-08-24T09:19:59Z</time>
      </trkpt>
      <trkpt lat="44.47275" lon="2.563">
        <ele>535.5</ele>
        <time>2014-08-24T09:20:01Z</time>
      </trkpt>
      <trkpt lat="44.47266" lon="2.56295">
        <ele>535.4</ele>
        <time>2014-08-24T09:20:03Z</time>
      </trkpt>
      <trkpt lat="44.47257" lon="2.5629">
        <ele>535.1</ele>
        <time>2014-08-24T09:20:05Z</time>
      </trkpt>
      <trkpt lat="44.47248" lon="2.56285">
        <ele>535.1</ele>
        <time>2014-08-24T09:20:07Z</time>
      </trkpt>
      <trkpt lat="44.47239" lon="2.56281">
        <ele>535</ele>
        <time>2014-08-24T09:20:09Z</time>
      </trkpt>
      <trkpt lat="44.4723" lon="2.56278">
        <ele>534.9</ele>
        <time>2014-08-24T09:20:11Z</time>
      </trkpt>
      <trkpt lat="44.47221" lon="2.56275">
        <ele>534.8</ele>
        <time>2014-08-24T09:20:13Z</time>
      </trkpt>
      <trkpt lat="44.47212" lon="2.56272">
        <ele>535.1</ele>
        <time>2014-08-24T09:20:15Z</time>
      </trkpt>
      <trkpt lat="44.47202" lon="2.56268">
        <ele>535.6</ele>
        <time>2014-08-24T09:20:17Z</time>
      </trkpt>
      <trkpt lat="44.47194" lon="2.56264">
        <ele>535.9</ele>
        <time>2014-08-24T09:20:19Z</time>
      </trkpt>
      <trkpt lat="44.47185" lon="2.5626">
        <ele>536.1</ele>
        <time>2014-08-24T09:20:21Z</time>
      </trkpt>
      <trkpt lat="44.47176" lon="2.56255">
        <ele>536</ele>
        <time>2014-08-24T09:20:23Z</time>
      </trkpt>
      <trkpt lat="44.47167" lon="2.56251">
        <ele>535.7</ele>
        <time>2014-08-24T09:20:25Z</time>
      </trkpt>
      <trkpt lat="44.47159" lon="2.56246">
        <ele>535.3</ele>
        <time>2014-08-24T09:20:27Z</time>
      </trkpt>
      <trkpt lat="44.4715" lon="2.56242">
        <ele>536</ele>
        <time>2014-08-24T09:20:29Z</time>
      </trkpt>
      <trkpt lat="44.47142" lon="2.56237">
        <ele>536.4</ele>
        <time>2014-08-24T09:20:31Z</time>
      </trkpt>
      <trkpt lat="44.47133" lon="2.56232">
        <ele>536.7</ele>
        <time>2014-08-24T09:20:33Z</time>
      </trkpt>
      <trkpt lat="44.47124" lon="2.56228">
        <ele>536.9</ele>
        <time>2014-08-24T09:20:35Z</time>
      </trkpt>
      <trkpt lat="44.47116" lon="2.56224">
        <ele>537</ele>
        <time>2014-08-24T09:20:37Z</time>
      </trkpt>
      <trkpt lat="44.47107" lon="2.5622">
        <ele>537.3</ele>
        <time>2014-08-24T09:20:39Z</time>
      </trkpt>
      <trkpt lat="44.47095" lon="2.56214">
        <ele>537.3</ele>
        <time>2014-08-24T09:20:42Z</time>
      </trkpt>
      <trkpt lat="44.47083" lon="2.5621">
        <ele>538.2</ele>
        <time>2014-08-24T09:20:45Z</time>
      </trkpt>
      <trkpt lat="44.47062" lon="2.56195">
        <ele>539.4</ele>
        <time>2014-08-24T09:20:51Z</time>
      </trkpt>
      <trkpt lat="44.4705" lon="2.56189">
        <ele>539.7</ele>
        <time>2014-08-24T09:20:54Z</time>
      </trkpt>
      <trkpt lat="44.4704" lon="2.56183">
        <ele>540.2</ele>
        <time>2014-08-24T09:20:57Z</time>
      </trkpt>
      <trkpt lat="44.4703" lon="2.56177">
        <ele>540.7</ele>
        <time>2014-08-24T09:21:00Z</time>
      </trkpt>
      <trkpt lat="44.4702" lon="2.56171">
        <ele>541.3</ele>
        <time>2014-08-24T09:21:03Z</time>
      </trkpt>
      <trkpt lat="44.47011" lon="2.56165">
        <ele>542.1</ele>
        <time>2014-08-24T09:21:06Z</time>
      </trkpt>
      <trkpt lat="44.47" lon="2.56159">
        <ele>542.4</ele>
        <time>2014-08-24T09:21:09Z</time>
      </trkpt>
      <trkpt lat="44.4699" lon="2.56153">
        <ele>541.8</ele>
        <time>2014-08-24T09:21:12Z</time>
      </trkpt>
      <trkpt lat="44.46979" lon="2.56148">
        <ele>542.4</ele>
        <time>2014-08-24T09:21:15Z</time>
      </trkpt>
      <trkpt lat="44.46968" lon="2.56143">
        <ele>543.5</ele>
        <time>2014-08-24T09:21:18Z</time>
      </trkpt>
      <trkpt lat="44.46958" lon="2.56138">
        <ele>543.6</ele>
        <time>2014-08-24T09:21:21Z</time>
      </trkpt>
      <trkpt lat="44.46947" lon="2.56132">
        <ele>544.4</ele>
        <time>2014-08-24T09:21:24Z</time>
      </trkpt>
      <trkpt lat="44.46936" lon="2.56127">
        <ele>544.9</ele>
        <time>2014-08-24T09:21:27Z</time>
      </trkpt>
      <trkpt lat="44.46925" lon="2.56121">
        <ele>545</ele>
        <time>2014-08-24T09:21:30Z</time>
      </trkpt>
      <trkpt lat="44.46913" lon="2.56116">
        <ele>545.6</ele>
        <time>2014-08-24T09:21:33Z</time>
      </trkpt>
      <trkpt lat="44.46901" lon="2.5611">
        <ele>545.9</ele>
        <time>2014-08-24T09:21:36Z</time>
      </trkpt>
      <trkpt lat="44.46888" lon="2.56105">
        <ele>546.2</ele>
        <time>2014-08-24T09:21:39Z</time>
      </trkpt>
      <trkpt lat="44.46877" lon="2.56098">
        <ele>546.4</ele>
        <time>2014-08-24T09:21:42Z</time>
      </trkpt>
      <trkpt lat="44.46864" lon="2.56092">
        <ele>546.6</ele>
        <time>2014-08-24T09:21:45Z</time>
      </trkpt>
      <trkpt lat="44.46852" lon="2.56086">
        <ele>547</ele>
        <time>2014-08-24T09:21:48Z</time>
      </trkpt>
      <trkpt lat="44.4683" lon="2.56076">
        <ele>547.2</ele>
        <time>2014-08-24T09:21:53Z</time>
      </trkpt>
      <trkpt lat="44.46822" lon="2.56072">
        <ele>548</ele>
        <time>2014-08-24T09:21:55Z</time>
      </trkpt>
      <trkpt lat="44.46813" lon="2.56067">
        <ele>548.4</ele>
        <time>2014-08-24T09:21:57Z</time>
      </trkpt>
      <trkpt lat="44.46801" lon="2.56058">
        <ele>547.8</ele>
        <time>2014-08-24T09:22:00Z</time>
      </trkpt>
      <trkpt lat="44.4679" lon="2.5605">
        <ele>548.2</ele>
        <time>2014-08-24T09:22:03Z</time>
      </trkpt>
      <trkpt lat="44.46778" lon="2.56042">
        <ele>548.5</ele>
        <time>2014-08-24T09:22:06Z</time>
      </trkpt>
      <trkpt lat="44.46767" lon="2.56033">
        <ele>548.4</ele>
        <time>2014-08-24T09:22:09Z</time>
      </trkpt>
      <trkpt lat="44.46755" lon="2.56026">
        <ele>548.5</ele>
        <time>2014-08-24T09:22:12Z</time>
      </trkpt>
      <trkpt lat="44.46743" lon="2.56019">
        <ele>547.5</ele>
        <time>2014-08-24T09:22:15Z</time>
      </trkpt>
      <trkpt lat="44.46732" lon="2.56012">
        <ele>547.8</ele>
        <time>2014-08-24T09:22:18Z</time>
      </trkpt>
      <trkpt lat="44.4672" lon="2.56006">
        <ele>548.9</ele>
        <time>2014-08-24T09:22:21Z</time>
      </trkpt>
      <trkpt lat="44.46708" lon="2.55998">
        <ele>549.3</ele>
        <time>2014-08-24T09:22:24Z</time>
      </trkpt>
      <trkpt lat="44.46696" lon="2.55991">
        <ele>550.3</ele>
        <time>2014-08-24T09:22:27Z</time>
      </trkpt>
      <trkpt lat="44.46684" lon="2.55985">
        <ele>550.4</ele>
        <time>2014-08-24T09:22:30Z</time>
      </trkpt>
      <trkpt lat="44.46672" lon="2.55979">
        <ele>550.3</ele>
        <time>2014-08-24T09:22:33Z</time>
      </trkpt>
      <trkpt lat="44.4666" lon="2.55973">
        <ele>550.5</ele>
        <time>2014-08-24T09:22:36Z</time>
      </trkpt>
      <trkpt lat="44.46647" lon="2.55969">
        <ele>550.8</ele>
        <time>2014-08-24T09:22:39Z</time>
      </trkpt>
      <trkpt lat="44.46634" lon="2.55965">
        <ele>550.9</ele>
        <time>2014-08-24T09:22:42Z</time>
      </trkpt>
      <trkpt lat="44.46625" lon="2.55963">
        <ele>550.8</ele>
        <time>2014-08-24T09:22:44Z</time>
      </trkpt>
      <trkpt lat="44.46616" lon="2.55961">
        <ele>550.4</ele>
        <time>2014-08-24T09:22:46Z</time>
      </trkpt>
      <trkpt lat="44.46606" lon="2.5596">
        <ele>550.2</ele>
        <time>2014-08-24T09:22:48Z</time>
      </trkpt>
      <trkpt lat="44.46595" lon="2.5596">
        <ele>549.7</ele>
        <time>2014-08-24T09:22:50Z</time>
      </trkpt>
      <trkpt lat="44.46572" lon="2.5596">
        <ele>549.9</ele>
        <time>2014-08-24T09:22:54Z</time>
      </trkpt>
      <trkpt lat="44.46561" lon="2.5596">
        <ele>549.9</ele>
        <time>2014-08-24T09:22:56Z</time>
      </trkpt>
      <trkpt lat="44.46551" lon="2.55961">
        <ele>549.6</ele>
        <time>2014-08-24T09:22:58Z</time>
      </trkpt>
      <trkpt lat="44.46541" lon="2.5596">
        <ele>549.1</ele>
        <time>2014-08-24T09:23:00Z</time>
      </trkpt>
      <trkpt lat="44.46531" lon="2.5596">
        <ele>548.6</ele>
        <time>2014-08-24T09:23:02Z</time>
      </trkpt>
      <trkpt lat="44.46518" lon="2.5596">
        <ele>548.8</ele>
        <time>2014-08-24T09:23:05Z</time>
      </trkpt>
      <trkpt lat="44.46508" lon="2.55959">
        <ele>549.3</ele>
        <time>2014-08-24T09:23:08Z</time>
      </trkpt>
      <trkpt lat="44.46497" lon="2.55959">
        <ele>549.3</ele>
        <time>2014-08-24T09:23:11Z</time>
      </trkpt>
      <trkpt lat="44.46485" lon="2.55959">
        <ele>550.1</ele>
        <time>2014-08-24T09:23:14Z</time>
      </trkpt>
      <trkpt lat="44.46473" lon="2.55959">
        <ele>551.1</ele>
        <time>2014-08-24T09:23:17Z</time>
      </trkpt>
      <trkpt lat="44.46462" lon="2.55958">
        <ele>551.5</ele>
        <time>2014-08-24T09:23:20Z</time>
      </trkpt>
      <trkpt lat="44.46451" lon="2.55953">
        <ele>552.9</ele>
        <time>2014-08-24T09:23:23Z</time>
      </trkpt>
      <trkpt lat="44.4644" lon="2.55949">
        <ele>552.7</ele>
        <time>2014-08-24T09:23:26Z</time>
      </trkpt>
      <trkpt lat="44.46429" lon="2.55945">
        <ele>552.8</ele>
        <time>2014-08-24T09:23:29Z</time>
      </trkpt>
      <trkpt lat="44.46419" lon="2.55938">
        <ele>552.8</ele>
        <time>2014-08-24T09:23:32Z</time>
      </trkpt>
      <trkpt lat="44.46409" lon="2.55932">
        <ele>552.7</ele>
        <time>2014-08-24T09:23:35Z</time>
      </trkpt>
      <trkpt lat="44.46399" lon="2.55925">
        <ele>552.5</ele>
        <time>2014-08-24T09:23:38Z</time>
      </trkpt>
      <trkpt lat="44.46391" lon="2.55919">
        <ele>552.2</ele>
        <time>2014-08-24T09:23:41Z</time>
      </trkpt>
      <trkpt lat="44.46391" lon="2.55904">
        <ele>551.4</ele>
        <time>2014-08-24T09:23:48Z</time>
      </trkpt>
      <trkpt lat="44.46395" lon="2.55892">
        <ele>551.4</ele>
        <time>2014-08-24T09:23:52Z</time>
      </trkpt>
      <trkpt lat="44.46407" lon="2.55865">
        <ele>551.5</ele>
        <time>2014-08-24T09:24:00Z</time>
      </trkpt>
      <trkpt lat="44.46412" lon="2.55854">
        <ele>551.7</ele>
        <time>2014-08-24T09:24:03Z</time>
      </trkpt>
      <trkpt lat="44.46416" lon="2.55841">
        <ele>551.9</ele>
        <time>2014-08-24T09:24:07Z</time>
      </trkpt>
      <trkpt lat="44.46422" lon="2.55828">
        <ele>551.4</ele>
        <time>2014-08-24T09:24:10Z</time>
      </trkpt>
      <trkpt lat="44.46427" lon="2.55817">
        <ele>550.6</ele>
        <time>2014-08-24T09:24:13Z</time>
      </trkpt>
      <trkpt lat="44.46434" lon="2.55803">
        <ele>551.3</ele>
        <time>2014-08-24T09:24:17Z</time>
      </trkpt>
      <trkpt lat="44.4644" lon="2.55788">
        <ele>551.7</ele>
        <time>2014-08-24T09:24:21Z</time>
      </trkpt>
      <trkpt lat="44.46446" lon="2.55776">
        <ele>551.7</ele>
        <time>2014-08-24T09:24:24Z</time>
      </trkpt>
      <trkpt lat="44.46452" lon="2.55763">
        <ele>550.7</ele>
        <time>2014-08-24T09:24:27Z</time>
      </trkpt>
      <trkpt lat="44.46458" lon="2.5575">
        <ele>550.9</ele>
        <time>2014-08-24T09:24:30Z</time>
      </trkpt>
      <trkpt lat="44.46464" lon="2.55739">
        <ele>550.5</ele>
        <time>2014-08-24T09:24:33Z</time>
      </trkpt>
      <trkpt lat="44.4646" lon="2.55726">
        <ele>550.4</ele>
        <time>2014-08-24T09:24:41Z</time>
      </trkpt>
      <trkpt lat="44.46451" lon="2.55723">
        <ele>550.3</ele>
        <time>2014-08-24T09:24:45Z</time>
      </trkpt>
      <trkpt lat="44.46445" lon="2.5571">
        <ele>550.2</ele>
        <time>2014-08-24T09:24:48Z</time>
      </trkpt>
      <trkpt lat="44.46447" lon="2.55692">
        <ele>549.2</ele>
        <time>2014-08-24T09:24:51Z</time>
      </trkpt>
      <trkpt lat="44.46447" lon="2.55675">
        <ele>548.3</ele>
        <time>2014-08-24T09:24:54Z</time>
      </trkpt>
      <trkpt lat="44.46447" lon="2.55646">
        <ele>547.9</ele>
        <time>2014-08-24T09:24:59Z</time>
      </trkpt>
      <trkpt lat="44.4645" lon="2.55632">
        <ele>546.7</ele>
        <time>2014-08-24T09:25:02Z</time>
      </trkpt>
      <trkpt lat="44.46449" lon="2.55616">
        <ele>546</ele>
        <time>2014-08-24T09:25:05Z</time>
      </trkpt>
      <trkpt lat="44.46442" lon="2.55607">
        <ele>545.1</ele>
        <time>2014-08-24T09:25:07Z</time>
      </trkpt>
      <trkpt lat="44.46433" lon="2.556">
        <ele>544.8</ele>
        <time>2014-08-24T09:25:09Z</time>
      </trkpt>
      <trkpt lat="44.46423" lon="2.55595">
        <ele>544.8</ele>
        <time>2014-08-24T09:25:11Z</time>
      </trkpt>
      <trkpt lat="44.46413" lon="2.55591">
        <ele>544.3</ele>
        <time>2014-08-24T09:25:13Z</time>
      </trkpt>
      <trkpt lat="44.46403" lon="2.55585">
        <ele>543.7</ele>
        <time>2014-08-24T09:25:15Z</time>
      </trkpt>
      <trkpt lat="44.46392" lon="2.55579">
        <ele>543.5</ele>
        <time>2014-08-24T09:25:17Z</time>
      </trkpt>
      <trkpt lat="44.46381" lon="2.55573">
        <ele>543.5</ele>
        <time>2014-08-24T09:25:19Z</time>
      </trkpt>
      <trkpt lat="44.4637" lon="2.55566">
        <ele>543.6</ele>
        <time>2014-08-24T09:25:21Z</time>
      </trkpt>
      <trkpt lat="44.46359" lon="2.5556">
        <ele>542.2</ele>
        <time>2014-08-24T09:25:23Z</time>
      </trkpt>
      <trkpt lat="44.46349" lon="2.55554">
        <ele>541.4</ele>
        <time>2014-08-24T09:25:25Z</time>
      </trkpt>
      <trkpt lat="44.46341" lon="2.55546">
        <ele>540.9</ele>
        <time>2014-08-24T09:25:27Z</time>
      </trkpt>
      <trkpt lat="44.46336" lon="2.55535">
        <ele>541.4</ele>
        <time>2014-08-24T09:25:29Z</time>
      </trkpt>
      <trkpt lat="44.46328" lon="2.55528">
        <ele>541.7</ele>
        <time>2014-08-24T09:25:31Z</time>
      </trkpt>
      <trkpt lat="44.4632" lon="2.55522">
        <ele>541.9</ele>
        <time>2014-08-24T09:25:33Z</time>
      </trkpt>
      <trkpt lat="44.46309" lon="2.55513">
        <ele>542.4</ele>
        <time>2014-08-24T09:25:36Z</time>
      </trkpt>
      <trkpt lat="44.46299" lon="2.55506">
        <ele>542.9</ele>
        <time>2014-08-24T09:25:39Z</time>
      </trkpt>
      <trkpt lat="44.46291" lon="2.55498">
        <ele>543</ele>
        <time>2014-08-24T09:25:42Z</time>
      </trkpt>
      <trkpt lat="44.46283" lon="2.5549">
        <ele>543.4</ele>
        <time>2014-08-24T09:25:45Z</time>
      </trkpt>
      <trkpt lat="44.46273" lon="2.55481">
        <ele>544</ele>
        <time>2014-08-24T09:25:49Z</time>
      </trkpt>
      <trkpt lat="44.46264" lon="2.55474">
        <ele>544.3</ele>
        <time>2014-08-24T09:25:53Z</time>
      </trkpt>
      <trkpt lat="44.46254" lon="2.55467">
        <ele>544.6</ele>
        <time>2014-08-24T09:25:57Z</time>
      </trkpt>
      <trkpt lat="44.46236" lon="2.55453">
        <ele>545.8</ele>
        <time>2014-08-24T09:26:04Z</time>
      </trkpt>
      <trkpt lat="44.46227" lon="2.55445">
        <ele>545.9</ele>
        <time>2014-08-24T09:26:08Z</time>
      </trkpt>
      <trkpt lat="44.46218" lon="2.55436">
        <ele>546.2</ele>
        <time>2014-08-24T09:26:12Z</time>
      </trkpt>
      <trkpt lat="44.46207" lon="2.55428">
        <ele>546.9</ele>
        <time>2014-08-24T09:26:16Z</time>
      </trkpt>
      <trkpt lat="44.46198" lon="2.55422">
        <ele>547.3</ele>
        <time>2014-08-24T09:26:19Z</time>
      </trkpt>
      <trkpt lat="44.46189" lon="2.55415">
        <ele>546.6</ele>
        <time>2014-08-24T09:26:22Z</time>
      </trkpt>
      <trkpt lat="44.4618" lon="2.55409">
        <ele>546.9</ele>
        <time>2014-08-24T09:26:25Z</time>
      </trkpt>
      <trkpt lat="44.46171" lon="2.55403">
        <ele>547.4</ele>
        <time>2014-08-24T09:26:28Z</time>
      </trkpt>
      <trkpt lat="44.46162" lon="2.55397">
        <ele>547.9</ele>
        <time>2014-08-24T09:26:31Z</time>
      </trkpt>
      <trkpt lat="44.46152" lon="2.55389">
        <ele>548.5</ele>
        <time>2014-08-24T09:26:35Z</time>
      </trkpt>
      <trkpt lat="44.46143" lon="2.5538">
        <ele>549.1</ele>
        <time>2014-08-24T09:26:40Z</time>
      </trkpt>
      <trkpt lat="44.46133" lon="2.55373">
        <ele>550.8</ele>
        <time>2014-08-24T09:26:44Z</time>
      </trkpt>
      <trkpt lat="44.46125" lon="2.55369">
        <ele>551.2</ele>
        <time>2014-08-24T09:26:48Z</time>
      </trkpt>
      <trkpt lat="44.46115" lon="2.55369">
        <ele>552.6</ele>
        <time>2014-08-24T09:26:53Z</time>
      </trkpt>
      <trkpt lat="44.46104" lon="2.55371">
        <ele>553.6</ele>
        <time>2014-08-24T09:26:58Z</time>
      </trkpt>
      <trkpt lat="44.46084" lon="2.55375">
        <ele>554.6</ele>
        <time>2014-08-24T09:27:06Z</time>
      </trkpt>
      <trkpt lat="44.46073" lon="2.55375">
        <ele>555.7</ele>
        <time>2014-08-24T09:27:10Z</time>
      </trkpt>
      <trkpt lat="44.46062" lon="2.55371">
        <ele>556.5</ele>
        <time>2014-08-24T09:27:14Z</time>
      </trkpt>
      <trkpt lat="44.46051" lon="2.55369">
        <ele>557.9</ele>
        <time>2014-08-24T09:27:18Z</time>
      </trkpt>
      <trkpt lat="44.4604" lon="2.55369">
        <ele>558.1</ele>
        <time>2014-08-24T09:27:22Z</time>
      </trkpt>
      <trkpt lat="44.46031" lon="2.5537">
        <ele>558</ele>
        <time>2014-08-24T09:27:25Z</time>
      </trkpt>
      <trkpt lat="44.46022" lon="2.55371">
        <ele>557.8</ele>
        <time>2014-08-24T09:27:28Z</time>
      </trkpt>
      <trkpt lat="44.46013" lon="2.55371">
        <ele>558.1</ele>
        <time>2014-08-24T09:27:31Z</time>
      </trkpt>
      <trkpt lat="44.46002" lon="2.55371">
        <ele>558</ele>
        <time>2014-08-24T09:27:34Z</time>
      </trkpt>
      <trkpt lat="44.4599" lon="2.55369">
        <ele>557.8</ele>
        <time>2014-08-24T09:27:37Z</time>
      </trkpt>
      <trkpt lat="44.45979" lon="2.55367">
        <ele>556.9</ele>
        <time>2014-08-24T09:27:40Z</time>
      </trkpt>
      <trkpt lat="44.45968" lon="2.55365">
        <ele>556.8</ele>
        <time>2014-08-24T09:27:43Z</time>
      </trkpt>
      <trkpt lat="44.45958" lon="2.55362">
        <ele>557.7</ele>
        <time>2014-08-24T09:27:46Z</time>
      </trkpt>
      <trkpt lat="44.45948" lon="2.5536">
        <ele>558.4</ele>
        <time>2014-08-24T09:27:50Z</time>
      </trkpt>
      <trkpt lat="44.45936" lon="2.55358">
        <ele>558.9</ele>
        <time>2014-08-24T09:27:54Z</time>
      </trkpt>
      <trkpt lat="44.45924" lon="2.55356">
        <ele>559</ele>
        <time>2014-08-24T09:27:58Z</time>
      </trkpt>
      <trkpt lat="44.45915" lon="2.55356">
        <ele>559.4</ele>
        <time>2014-08-24T09:28:01Z</time>
      </trkpt>
      <trkpt lat="44.45892" lon="2.55352">
        <ele>559.5</ele>
        <time>2014-08-24T09:28:08Z</time>
      </trkpt>
      <trkpt lat="44.45882" lon="2.55351">
        <ele>559.5</ele>
        <time>2014-08-24T09:28:11Z</time>
      </trkpt>
      <trkpt lat="44.45871" lon="2.55351">
        <ele>559.5</ele>
        <time>2014-08-24T09:28:14Z</time>
      </trkpt>
      <trkpt lat="44.45862" lon="2.55351">
        <ele>560.4</ele>
        <time>2014-08-24T09:28:17Z</time>
      </trkpt>
      <trkpt lat="44.45851" lon="2.55353">
        <ele>561.6</ele>
        <time>2014-08-24T09:28:20Z</time>
      </trkpt>
      <trkpt lat="44.45839" lon="2.55353">
        <ele>561.7</ele>
        <time>2014-08-24T09:28:23Z</time>
      </trkpt>
      <trkpt lat="44.45826" lon="2.55351">
        <ele>561.5</ele>
        <time>2014-08-24T09:28:26Z</time>
      </trkpt>
      <trkpt lat="44.45814" lon="2.55347">
        <ele>560.2</ele>
        <time>2014-08-24T09:28:29Z</time>
      </trkpt>
      <trkpt lat="44.45801" lon="2.55345">
        <ele>560.2</ele>
        <time>2014-08-24T09:28:32Z</time>
      </trkpt>
      <trkpt lat="44.45791" lon="2.55344">
        <ele>560.1</ele>
        <time>2014-08-24T09:28:34Z</time>
      </trkpt>
      <trkpt lat="44.45781" lon="2.55343">
        <ele>560</ele>
        <time>2014-08-24T09:28:36Z</time>
      </trkpt>
      <trkpt lat="44.45769" lon="2.55342">
        <ele>560</ele>
        <time>2014-08-24T09:28:38Z</time>
      </trkpt>
      <trkpt lat="44.45756" lon="2.5534">
        <ele>559.3</ele>
        <time>2014-08-24T09:28:40Z</time>
      </trkpt>
      <trkpt lat="44.45741" lon="2.55341">
        <ele>558.3</ele>
        <time>2014-08-24T09:28:42Z</time>
      </trkpt>
      <trkpt lat="44.45726" lon="2.55348">
        <ele>557.4</ele>
        <time>2014-08-24T09:28:44Z</time>
      </trkpt>
      <trkpt lat="44.4571" lon="2.55355">
        <ele>556.9</ele>
        <time>2014-08-24T09:28:46Z</time>
      </trkpt>
      <trkpt lat="44.45693" lon="2.5536">
        <ele>556.1</ele>
        <time>2014-08-24T09:28:48Z</time>
      </trkpt>
      <trkpt lat="44.45676" lon="2.55362">
        <ele>554.8</ele>
        <time>2014-08-24T09:28:50Z</time>
      </trkpt>
      <trkpt lat="44.4566" lon="2.55366">
        <ele>553.6</ele>
        <time>2014-08-24T09:28:52Z</time>
      </trkpt>
      <trkpt lat="44.45645" lon="2.55367">
        <ele>552.6</ele>
        <time>2014-08-24T09:28:54Z</time>
      </trkpt>
      <trkpt lat="44.45632" lon="2.55366">
        <ele>552.4</ele>
        <time>2014-08-24T09:28:56Z</time>
      </trkpt>
      <trkpt lat="44.45622" lon="2.55363">
        <ele>552.4</ele>
        <time>2014-08-24T09:28:58Z</time>
      </trkpt>
      <trkpt lat="44.45613" lon="2.55359">
        <ele>551.5</ele>
        <time>2014-08-24T09:29:00Z</time>
      </trkpt>
      <trkpt lat="44.45607" lon="2.55349">
        <ele>551.1</ele>
        <time>2014-08-24T09:29:02Z</time>
      </trkpt>
      <trkpt lat="44.45601" lon="2.55319">
        <ele>552.7</ele>
        <time>2014-08-24T09:29:07Z</time>
      </trkpt>
      <trkpt lat="44.456" lon="2.55302">
        <ele>552.8</ele>
        <time>2014-08-24T09:29:10Z</time>
      </trkpt>
      <trkpt lat="44.45599" lon="2.55286">
        <ele>552.9</ele>
        <time>2014-08-24T09:29:13Z</time>
      </trkpt>
      <trkpt lat="44.45598" lon="2.55271">
        <ele>553.6</ele>
        <time>2014-08-24T09:29:16Z</time>
      </trkpt>
      <trkpt lat="44.45597" lon="2.55255">
        <ele>554.3</ele>
        <time>2014-08-24T09:29:19Z</time>
      </trkpt>
      <trkpt lat="44.45595" lon="2.55239">
        <ele>554.3</ele>
        <time>2014-08-24T09:29:22Z</time>
      </trkpt>
      <trkpt lat="44.45594" lon="2.55226">
        <ele>553.8</ele>
        <time>2014-08-24T09:29:25Z</time>
      </trkpt>
      <trkpt lat="44.45601" lon="2.55216">
        <ele>554.3</ele>
        <time>2014-08-24T09:29:29Z</time>
      </trkpt>
      <trkpt lat="44.4561" lon="2.55213">
        <ele>554.3</ele>
        <time>2014-08-24T09:29:32Z</time>
      </trkpt>
      <trkpt lat="44.45619" lon="2.5521">
        <ele>554.3</ele>
        <time>2014-08-24T09:29:35Z</time>
      </trkpt>
      <trkpt lat="44.45628" lon="2.55205">
        <ele>554.3</ele>
        <time>2014-08-24T09:29:38Z</time>
      </trkpt>
      <trkpt lat="44.45638" lon="2.552">
        <ele>555.3</ele>
        <time>2014-08-24T09:29:42Z</time>
      </trkpt>
      <trkpt lat="44.45648" lon="2.55195">
        <ele>556.3</ele>
        <time>2014-08-24T09:29:46Z</time>
      </trkpt>
      <trkpt lat="44.45658" lon="2.55189">
        <ele>556.5</ele>
        <time>2014-08-24T09:29:50Z</time>
      </trkpt>
      <trkpt lat="44.45667" lon="2.55185">
        <ele>557.1</ele>
        <time>2014-08-24T09:29:54Z</time>
      </trkpt>
      <trkpt lat="44.45676" lon="2.5518">
        <ele>558.7</ele>
        <time>2014-08-24T09:29:58Z</time>
      </trkpt>
      <trkpt lat="44.45687" lon="2.55175">
        <ele>559.9</ele>
        <time>2014-08-24T09:30:03Z</time>
      </trkpt>
      <trkpt lat="44.45706" lon="2.55166">
        <ele>562.1</ele>
        <time>2014-08-24T09:30:12Z</time>
      </trkpt>
      <trkpt lat="44.45716" lon="2.55162">
        <ele>563</ele>
        <time>2014-08-24T09:30:17Z</time>
      </trkpt>
      <trkpt lat="44.45727" lon="2.55158">
        <ele>565.7</ele>
        <time>2014-08-24T09:30:22Z</time>
      </trkpt>
      <trkpt lat="44.45737" lon="2.55155">
        <ele>565.7</ele>
        <time>2014-08-24T09:30:27Z</time>
      </trkpt>
      <trkpt lat="44.45747" lon="2.55152">
        <ele>566.7</ele>
        <time>2014-08-24T09:30:32Z</time>
      </trkpt>
      <trkpt lat="44.45757" lon="2.5515">
        <ele>567.7</ele>
        <time>2014-08-24T09:30:37Z</time>
      </trkpt>
      <trkpt lat="44.45767" lon="2.55147">
        <ele>568.5</ele>
        <time>2014-08-24T09:30:42Z</time>
      </trkpt>
      <trkpt lat="44.45777" lon="2.55144">
        <ele>569.9</ele>
        <time>2014-08-24T09:30:47Z</time>
      </trkpt>
      <trkpt lat="44.45786" lon="2.5514">
        <ele>570.8</ele>
        <time>2014-08-24T09:30:52Z</time>
      </trkpt>
      <trkpt lat="44.45795" lon="2.55138">
        <ele>570.7</ele>
        <time>2014-08-24T09:30:57Z</time>
      </trkpt>
      <trkpt lat="44.45805" lon="2.55136">
        <ele>572.5</ele>
        <time>2014-08-24T09:31:02Z</time>
      </trkpt>
      <trkpt lat="44.45815" lon="2.55134">
        <ele>573.5</ele>
        <time>2014-08-24T09:31:07Z</time>
      </trkpt>
      <trkpt lat="44.45835" lon="2.55127">
        <ele>575.3</ele>
        <time>2014-08-24T09:31:17Z</time>
      </trkpt>
      <trkpt lat="44.45845" lon="2.55121">
        <ele>576.1</ele>
        <time>2014-08-24T09:31:22Z</time>
      </trkpt>
      <trkpt lat="44.45854" lon="2.55116">
        <ele>576.8</ele>
        <time>2014-08-24T09:31:27Z</time>
      </trkpt>
      <trkpt lat="44.45863" lon="2.5511">
        <ele>577</ele>
        <time>2014-08-24T09:31:32Z</time>
      </trkpt>
      <trkpt lat="44.45874" lon="2.55105">
        <ele>578.1</ele>
        <time>2014-08-24T09:31:37Z</time>
      </trkpt>
      <trkpt lat="44.45883" lon="2.55102">
        <ele>577.7</ele>
        <time>2014-08-24T09:31:41Z</time>
      </trkpt>
      <trkpt lat="44.45893" lon="2.55097">
        <ele>578.5</ele>
        <time>2014-08-24T09:31:45Z</time>
      </trkpt>
      <trkpt lat="44.45902" lon="2.55093">
        <ele>579.6</ele>
        <time>2014-08-24T09:31:49Z</time>
      </trkpt>
      <trkpt lat="44.45911" lon="2.55089">
        <ele>580</ele>
        <time>2014-08-24T09:31:53Z</time>
      </trkpt>
      <trkpt lat="44.4592" lon="2.55086">
        <ele>580.2</ele>
        <time>2014-08-24T09:31:57Z</time>
      </trkpt>
      <trkpt lat="44.45931" lon="2.55082">
        <ele>579.5</ele>
        <time>2014-08-24T09:32:01Z</time>
      </trkpt>
      <trkpt lat="44.45942" lon="2.5508">
        <ele>579.4</ele>
        <time>2014-08-24T09:32:04Z</time>
      </trkpt>
      <trkpt lat="44.45954" lon="2.55077">
        <ele>578.4</ele>
        <time>2014-08-24T09:32:07Z</time>
      </trkpt>
      <trkpt lat="44.45963" lon="2.55075">
        <ele>577.9</ele>
        <time>2014-08-24T09:32:09Z</time>
      </trkpt>
      <trkpt lat="44.45987" lon="2.55068">
        <ele>576.5</ele>
        <time>2014-08-24T09:32:13Z</time>
      </trkpt>
      <trkpt lat="44.46001" lon="2.55061">
        <ele>576.1</ele>
        <time>2014-08-24T09:32:15Z</time>
      </trkpt>
      <trkpt lat="44.46015" lon="2.55054">
        <ele>575.5</ele>
        <time>2014-08-24T09:32:17Z</time>
      </trkpt>
      <trkpt lat="44.46031" lon="2.55048">
        <ele>574.9</ele>
        <time>2014-08-24T09:32:19Z</time>
      </trkpt>
      <trkpt lat="44.46047" lon="2.55041">
        <ele>573.8</ele>
        <time>2014-08-24T09:32:21Z</time>
      </trkpt>
      <trkpt lat="44.46061" lon="2.55032">
        <ele>572.6</ele>
        <time>2014-08-24T09:32:23Z</time>
      </trkpt>
      <trkpt lat="44.46073" lon="2.55019">
        <ele>572</ele>
        <time>2014-08-24T09:32:25Z</time>
      </trkpt>
      <trkpt lat="44.46083" lon="2.55006">
        <ele>571.2</ele>
        <time>2014-08-24T09:32:27Z</time>
      </trkpt>
      <trkpt lat="44.46093" lon="2.54993">
        <ele>570.3</ele>
        <time>2014-08-24T09:32:29Z</time>
      </trkpt>
      <trkpt lat="44.46104" lon="2.54982">
        <ele>569.4</ele>
        <time>2014-08-24T09:32:31Z</time>
      </trkpt>
      <trkpt lat="44.46114" lon="2.54973">
        <ele>568.8</ele>
        <time>2014-08-24T09:32:33Z</time>
      </trkpt>
      <trkpt lat="44.46123" lon="2.54964">
        <ele>568.4</ele>
        <time>2014-08-24T09:32:35Z</time>
      </trkpt>
      <trkpt lat="44.46133" lon="2.54956">
        <ele>568.2</ele>
        <time>2014-08-24T09:32:37Z</time>
      </trkpt>
      <trkpt lat="44.46142" lon="2.54951">
        <ele>568</ele>
        <time>2014-08-24T09:32:39Z</time>
      </trkpt>
      <trkpt lat="44.46156" lon="2.54949">
        <ele>568.4</ele>
        <time>2014-08-24T09:32:42Z</time>
      </trkpt>
      <trkpt lat="44.46165" lon="2.54952">
        <ele>568.4</ele>
        <time>2014-08-24T09:32:44Z</time>
      </trkpt>
      <trkpt lat="44.46177" lon="2.54955">
        <ele>568.9</ele>
        <time>2014-08-24T09:32:47Z</time>
      </trkpt>
      <trkpt lat="44.46187" lon="2.54959">
        <ele>568.5</ele>
        <time>2014-08-24T09:32:50Z</time>
      </trkpt>
      <trkpt lat="44.46198" lon="2.54963">
        <ele>567.9</ele>
        <time>2014-08-24T09:32:54Z</time>
      </trkpt>
      <trkpt lat="44.46209" lon="2.54964">
        <ele>568.1</ele>
        <time>2014-08-24T09:32:58Z</time>
      </trkpt>
      <trkpt lat="44.46217" lon="2.54954">
        <ele>568.9</ele>
        <time>2014-08-24T09:33:01Z</time>
      </trkpt>
      <trkpt lat="44.46228" lon="2.54945">
        <ele>568.5</ele>
        <time>2014-08-24T09:33:04Z</time>
      </trkpt>
      <trkpt lat="44.46237" lon="2.54935">
        <ele>568.8</ele>
        <time>2014-08-24T09:33:07Z</time>
      </trkpt>
      <trkpt lat="44.46245" lon="2.54926">
        <ele>568.4</ele>
        <time>2014-08-24T09:33:09Z</time>
      </trkpt>
      <trkpt lat="44.46254" lon="2.54919">
        <ele>568.1</ele>
        <time>2014-08-24T09:33:11Z</time>
      </trkpt>
      <trkpt lat="44.4627" lon="2.54908">
        <ele>568.1</ele>
        <time>2014-08-24T09:33:15Z</time>
      </trkpt>
      <trkpt lat="44.46281" lon="2.54897">
        <ele>567.9</ele>
        <time>2014-08-24T09:33:18Z</time>
      </trkpt>
      <trkpt lat="44.4629" lon="2.54887">
        <ele>567.9</ele>
        <time>2014-08-24T09:33:21Z</time>
      </trkpt>
      <trkpt lat="44.46297" lon="2.54874">
        <ele>567.4</ele>
        <time>2014-08-24T09:33:25Z</time>
      </trkpt>
      <trkpt lat="44.46303" lon="2.54863">
        <ele>567.5</ele>
        <time>2014-08-24T09:33:28Z</time>
      </trkpt>
      <trkpt lat="44.46309" lon="2.5485">
        <ele>567.5</ele>
        <time>2014-08-24T09:33:31Z</time>
      </trkpt>
      <trkpt lat="44.46315" lon="2.54834">
        <ele>566.8</ele>
        <time>2014-08-24T09:33:34Z</time>
      </trkpt>
      <trkpt lat="44.46319" lon="2.54821">
        <ele>566.4</ele>
        <time>2014-08-24T09:33:36Z</time>
      </trkpt>
      <trkpt lat="44.46322" lon="2.54807">
        <ele>565.6</ele>
        <time>2014-08-24T09:33:38Z</time>
      </trkpt>
      <trkpt lat="44.46323" lon="2.54792">
        <ele>564.3</ele>
        <time>2014-08-24T09:33:40Z</time>
      </trkpt>
      <trkpt lat="44.46326" lon="2.54778">
        <ele>562.9</ele>
        <time>2014-08-24T09:33:42Z</time>
      </trkpt>
      <trkpt lat="44.46328" lon="2.54762">
        <ele>562.4</ele>
        <time>2014-08-24T09:33:44Z</time>
      </trkpt>
      <trkpt lat="44.4633" lon="2.54746">
        <ele>562.3</ele>
        <time>2014-08-24T09:33:46Z</time>
      </trkpt>
      <trkpt lat="44.46332" lon="2.54729">
        <ele>562.2</ele>
        <time>2014-08-24T09:33:48Z</time>
      </trkpt>
      <trkpt lat="44.46334" lon="2.54714">
        <ele>562</ele>
        <time>2014-08-24T09:33:50Z</time>
      </trkpt>
      <trkpt lat="44.46336" lon="2.54699">
        <ele>561.9</ele>
        <time>2014-08-24T09:33:52Z</time>
      </trkpt>
      <trkpt lat="44.46337" lon="2.54683">
        <ele>560.9</ele>
        <time>2014-08-24T09:33:54Z</time>
      </trkpt>
      <trkpt lat="44.4634" lon="2.5467">
        <ele>560.3</ele>
        <time>2014-08-24T09:33:56Z</time>
      </trkpt>
      <trkpt lat="44.46341" lon="2.54655">
        <ele>559.9</ele>
        <time>2014-08-24T09:33:58Z</time>
      </trkpt>
      <trkpt lat="44.46341" lon="2.54639">
        <ele>559.4</ele>
        <time>2014-08-24T09:34:00Z</time>
      </trkpt>
      <trkpt lat="44.4634" lon="2.54625">
        <ele>558.9</ele>
        <time>2014-08-24T09:34:02Z</time>
      </trkpt>
      <trkpt lat="44.4634" lon="2.5461">
        <ele>558.7</ele>
        <time>2014-08-24T09:34:04Z</time>
      </trkpt>
      <trkpt lat="44.4634" lon="2.54596">
        <ele>558.9</ele>
        <time>2014-08-24T09:34:06Z</time>
      </trkpt>
      <trkpt lat="44.46338" lon="2.54579">
        <ele>559.4</ele>
        <time>2014-08-24T09:34:09Z</time>
      </trkpt>
      <trkpt lat="44.46337" lon="2.54563">
        <ele>559.5</ele>
        <time>2014-08-24T09:34:12Z</time>
      </trkpt>
      <trkpt lat="44.46338" lon="2.5453">
        <ele>558.4</ele>
        <time>2014-08-24T09:34:18Z</time>
      </trkpt>
      <trkpt lat="44.46341" lon="2.54513">
        <ele>559.3</ele>
        <time>2014-08-24T09:34:21Z</time>
      </trkpt>
      <trkpt lat="44.46345" lon="2.54499">
        <ele>558.9</ele>
        <time>2014-08-24T09:34:23Z</time>
      </trkpt>
      <trkpt lat="44.46349" lon="2.54483">
        <ele>558.8</ele>
        <time>2014-08-24T09:34:25Z</time>
      </trkpt>
      <trkpt lat="44.46356" lon="2.5447">
        <ele>558.8</ele>
        <time>2014-08-24T09:34:27Z</time>
      </trkpt>
      <trkpt lat="44.46364" lon="2.54459">
        <ele>558.5</ele>
        <time>2014-08-24T09:34:29Z</time>
      </trkpt>
      <trkpt lat="44.4637" lon="2.54447">
        <ele>558.3</ele>
        <time>2014-08-24T09:34:31Z</time>
      </trkpt>
      <trkpt lat="44.46373" lon="2.54431">
        <ele>557</ele>
        <time>2014-08-24T09:34:33Z</time>
      </trkpt>
      <trkpt lat="44.46376" lon="2.54415">
        <ele>556.9</ele>
        <time>2014-08-24T09:34:35Z</time>
      </trkpt>
      <trkpt lat="44.46379" lon="2.54401">
        <ele>557.3</ele>
        <time>2014-08-24T09:34:37Z</time>
      </trkpt>
      <trkpt lat="44.46382" lon="2.54387">
        <ele>556.8</ele>
        <time>2014-08-24T09:34:39Z</time>
      </trkpt>
      <trkpt lat="44.46386" lon="2.54373">
        <ele>556.7</ele>
        <time>2014-08-24T09:34:41Z</time>
      </trkpt>
      <trkpt lat="44.46391" lon="2.54358">
        <ele>556.8</ele>
        <time>2014-08-24T09:34:43Z</time>
      </trkpt>
      <trkpt lat="44.46397" lon="2.54344">
        <ele>557</ele>
        <time>2014-08-24T09:34:45Z</time>
      </trkpt>
      <trkpt lat="44.46402" lon="2.54329">
        <ele>557.1</ele>
        <time>2014-08-24T09:34:47Z</time>
      </trkpt>
      <trkpt lat="44.46406" lon="2.54317">
        <ele>556.2</ele>
        <time>2014-08-24T09:34:49Z</time>
      </trkpt>
      <trkpt lat="44.46411" lon="2.54304">
        <ele>555.8</ele>
        <time>2014-08-24T09:34:51Z</time>
      </trkpt>
      <trkpt lat="44.46417" lon="2.54289">
        <ele>555.5</ele>
        <time>2014-08-24T09:34:53Z</time>
      </trkpt>
      <trkpt lat="44.46421" lon="2.54277">
        <ele>554.7</ele>
        <time>2014-08-24T09:34:55Z</time>
      </trkpt>
      <trkpt lat="44.46425" lon="2.54265">
        <ele>554</ele>
        <time>2014-08-24T09:34:57Z</time>
      </trkpt>
      <trkpt lat="44.4643" lon="2.5425">
        <ele>553.4</ele>
        <time>2014-08-24T09:34:59Z</time>
      </trkpt>
      <trkpt lat="44.46437" lon="2.54234">
        <ele>552.7</ele>
        <time>2014-08-24T09:35:01Z</time>
      </trkpt>
      <trkpt lat="44.46443" lon="2.5422">
        <ele>552.3</ele>
        <time>2014-08-24T09:35:03Z</time>
      </trkpt>
      <trkpt lat="44.46448" lon="2.54204">
        <ele>551.9</ele>
        <time>2014-08-24T09:35:05Z</time>
      </trkpt>
      <trkpt lat="44.46454" lon="2.54188">
        <ele>551.3</ele>
        <time>2014-08-24T09:35:07Z</time>
      </trkpt>
      <trkpt lat="44.4646" lon="2.5417">
        <ele>550.7</ele>
        <time>2014-08-24T09:35:09Z</time>
      </trkpt>
      <trkpt lat="44.46466" lon="2.54149">
        <ele>550.6</ele>
        <time>2014-08-24T09:35:11Z</time>
      </trkpt>
      <trkpt lat="44.46469" lon="2.54128">
        <ele>550</ele>
        <time>2014-08-24T09:35:13Z</time>
      </trkpt>
      <trkpt lat="44.46468" lon="2.54086">
        <ele>548.5</ele>
        <time>2014-08-24T09:35:17Z</time>
      </trkpt>
      <trkpt lat="44.46465" lon="2.54066">
        <ele>548.2</ele>
        <time>2014-08-24T09:35:19Z</time>
      </trkpt>
      <trkpt lat="44.46461" lon="2.54048">
        <ele>547.9</ele>
        <time>2014-08-24T09:35:21Z</time>
      </trkpt>
      <trkpt lat="44.46457" lon="2.54029">
        <ele>547.5</ele>
        <time>2014-08-24T09:35:23Z</time>
      </trkpt>
      <trkpt lat="44.46454" lon="2.54011">
        <ele>546.9</ele>
        <time>2014-08-24T09:35:25Z</time>
      </trkpt>
      <trkpt lat="44.46452" lon="2.53994">
        <ele>546.8</ele>
        <time>2014-08-24T09:35:27Z</time>
      </trkpt>
      <trkpt lat="44.46451" lon="2.53977">
        <ele>547.1</ele>
        <time>2014-08-24T09:35:29Z</time>
      </trkpt>
      <trkpt lat="44.46453" lon="2.53961">
        <ele>548.1</ele>
        <time>2014-08-24T09:35:32Z</time>
      </trkpt>
      <trkpt lat="44.46455" lon="2.53948">
        <ele>549.1</ele>
        <time>2014-08-24T09:35:35Z</time>
      </trkpt>
      <trkpt lat="44.46453" lon="2.53932">
        <ele>550.1</ele>
        <time>2014-08-24T09:35:39Z</time>
      </trkpt>
      <trkpt lat="44.46451" lon="2.53919">
        <ele>550.4</ele>
        <time>2014-08-24T09:35:42Z</time>
      </trkpt>
      <trkpt lat="44.46449" lon="2.53907">
        <ele>550.4</ele>
        <time>2014-08-24T09:35:45Z</time>
      </trkpt>
      <trkpt lat="44.46446" lon="2.53891">
        <ele>550.8</ele>
        <time>2014-08-24T09:35:48Z</time>
      </trkpt>
      <trkpt lat="44.46444" lon="2.53875">
        <ele>551.2</ele>
        <time>2014-08-24T09:35:51Z</time>
      </trkpt>
      <trkpt lat="44.46443" lon="2.53859">
        <ele>550.3</ele>
        <time>2014-08-24T09:35:54Z</time>
      </trkpt>
      <trkpt lat="44.46442" lon="2.53845">
        <ele>550.4</ele>
        <time>2014-08-24T09:35:57Z</time>
      </trkpt>
      <trkpt lat="44.46445" lon="2.53829">
        <ele>550.2</ele>
        <time>2014-08-24T09:36:01Z</time>
      </trkpt>
      <trkpt lat="44.46448" lon="2.53816">
        <ele>549.7</ele>
        <time>2014-08-24T09:36:04Z</time>
      </trkpt>
      <trkpt lat="44.46448" lon="2.538">
        <ele>549.7</ele>
        <time>2014-08-24T09:36:07Z</time>
      </trkpt>
      <trkpt lat="44.46442" lon="2.53788">
        <ele>549.5</ele>
        <time>2014-08-24T09:36:09Z</time>
      </trkpt>
      <trkpt lat="44.46436" lon="2.53774">
        <ele>548.8</ele>
        <time>2014-08-24T09:36:11Z</time>
      </trkpt>
      <trkpt lat="44.46433" lon="2.53759">
        <ele>548</ele>
        <time>2014-08-24T09:36:13Z</time>
      </trkpt>
      <trkpt lat="44.46434" lon="2.53744">
        <ele>548.7</ele>
        <time>2014-08-24T09:36:15Z</time>
      </trkpt>
      <trkpt lat="44.46435" lon="2.53715">
        <ele>547.3</ele>
        <time>2014-08-24T09:36:19Z</time>
      </trkpt>
      <trkpt lat="44.46437" lon="2.53699">
        <ele>546.5</ele>
        <time>2014-08-24T09:36:21Z</time>
      </trkpt>
      <trkpt lat="44.46438" lon="2.53683">
        <ele>545.9</ele>
        <time>2014-08-24T09:36:23Z</time>
      </trkpt>
      <trkpt lat="44.46439" lon="2.53669">
        <ele>545.4</ele>
        <time>2014-08-24T09:36:25Z</time>
      </trkpt>
      <trkpt lat="44.4644" lon="2.53655">
        <ele>545.5</ele>
        <time>2014-08-24T09:36:27Z</time>
      </trkpt>
      <trkpt lat="44.46441" lon="2.5364">
        <ele>545.8</ele>
        <time>2014-08-24T09:36:29Z</time>
      </trkpt>
      <trkpt lat="44.46444" lon="2.53623">
        <ele>545.3</ele>
        <time>2014-08-24T09:36:31Z</time>
      </trkpt>
      <trkpt lat="44.46449" lon="2.53607">
        <ele>544.9</ele>
        <time>2014-08-24T09:36:33Z</time>
      </trkpt>
      <trkpt lat="44.46454" lon="2.53593">
        <ele>544.5</ele>
        <time>2014-08-24T09:36:35Z</time>
      </trkpt>
      <trkpt lat="44.46458" lon="2.53577">
        <ele>544.4</ele>
        <time>2014-08-24T09:36:37Z</time>
      </trkpt>
      <trkpt lat="44.46459" lon="2.53562">
        <ele>544.6</ele>
        <time>2014-08-24T09:36:39Z</time>
      </trkpt>
      <trkpt lat="44.46459" lon="2.53549">
        <ele>545.1</ele>
        <time>2014-08-24T09:36:41Z</time>
      </trkpt>
      <trkpt lat="44.46461" lon="2.53536">
        <ele>545.8</ele>
        <time>2014-08-24T09:36:43Z</time>
      </trkpt>
      <trkpt lat="44.46464" lon="2.53522">
        <ele>546.1</ele>
        <time>2014-08-24T09:36:45Z</time>
      </trkpt>
      <trkpt lat="44.46468" lon="2.53511">
        <ele>546.1</ele>
        <time>2014-08-24T09:36:47Z</time>
      </trkpt>
      <trkpt lat="44.46475" lon="2.53495">
        <ele>547</ele>
        <time>2014-08-24T09:36:50Z</time>
      </trkpt>
      <trkpt lat="44.46482" lon="2.53483">
        <ele>546.7</ele>
        <time>2014-08-24T09:36:53Z</time>
      </trkpt>
      <trkpt lat="44.4649" lon="2.53471">
        <ele>547.4</ele>
        <time>2014-08-24T09:36:56Z</time>
      </trkpt>
      <trkpt lat="44.46497" lon="2.53461">
        <ele>548.3</ele>
        <time>2014-08-24T09:36:59Z</time>
      </trkpt>
      <trkpt lat="44.46504" lon="2.53449">
        <ele>549</ele>
        <time>2014-08-24T09:37:02Z</time>
      </trkpt>
      <trkpt lat="44.4651" lon="2.53435">
        <ele>549.6</ele>
        <time>2014-08-24T09:37:05Z</time>
      </trkpt>
      <trkpt lat="44.46514" lon="2.53423">
        <ele>549.6</ele>
        <time>2014-08-24T09:37:08Z</time>
      </trkpt>
      <trkpt lat="44.46517" lon="2.53408">
        <ele>549.5</ele>
        <time>2014-08-24T09:37:12Z</time>
      </trkpt>
      <trkpt lat="44.46521" lon="2.53395">
        <ele>549.6</ele>
        <time>2014-08-24T09:37:15Z</time>
      </trkpt>
      <trkpt lat="44.46526" lon="2.53381">
        <ele>549.8</ele>
        <time>2014-08-24T09:37:18Z</time>
      </trkpt>
      <trkpt lat="44.46539" lon="2.53351">
        <ele>550.2</ele>
        <time>2014-08-24T09:37:23Z</time>
      </trkpt>
      <trkpt lat="44.46545" lon="2.5334">
        <ele>549.5</ele>
        <time>2014-08-24T09:37:25Z</time>
      </trkpt>
      <trkpt lat="44.46551" lon="2.53331">
        <ele>548.9</ele>
        <time>2014-08-24T09:37:27Z</time>
      </trkpt>
      <trkpt lat="44.46557" lon="2.53321">
        <ele>548.4</ele>
        <time>2014-08-24T09:37:29Z</time>
      </trkpt>
      <trkpt lat="44.46563" lon="2.5331">
        <ele>548.3</ele>
        <time>2014-08-24T09:37:31Z</time>
      </trkpt>
      <trkpt lat="44.46568" lon="2.53298">
        <ele>548.3</ele>
        <time>2014-08-24T09:37:33Z</time>
      </trkpt>
      <trkpt lat="44.46573" lon="2.53287">
        <ele>548.6</ele>
        <time>2014-08-24T09:37:35Z</time>
      </trkpt>
      <trkpt lat="44.46578" lon="2.53272">
        <ele>549.6</ele>
        <time>2014-08-24T09:37:38Z</time>
      </trkpt>
      <trkpt lat="44.46584" lon="2.53259">
        <ele>550</ele>
        <time>2014-08-24T09:37:41Z</time>
      </trkpt>
      <trkpt lat="44.46589" lon="2.53248">
        <ele>550.5</ele>
        <time>2014-08-24T09:37:44Z</time>
      </trkpt>
      <trkpt lat="44.46595" lon="2.53237">
        <ele>551.5</ele>
        <time>2014-08-24T09:37:47Z</time>
      </trkpt>
      <trkpt lat="44.46602" lon="2.53227">
        <ele>552.4</ele>
        <time>2014-08-24T09:37:50Z</time>
      </trkpt>
      <trkpt lat="44.46612" lon="2.53219">
        <ele>553.2</ele>
        <time>2014-08-24T09:37:54Z</time>
      </trkpt>
      <trkpt lat="44.46622" lon="2.53213">
        <ele>554.2</ele>
        <time>2014-08-24T09:37:58Z</time>
      </trkpt>
      <trkpt lat="44.46632" lon="2.5321">
        <ele>554.4</ele>
        <time>2014-08-24T09:38:02Z</time>
      </trkpt>
      <trkpt lat="44.46641" lon="2.53207">
        <ele>554.8</ele>
        <time>2014-08-24T09:38:06Z</time>
      </trkpt>
      <trkpt lat="44.46651" lon="2.53204">
        <ele>555.7</ele>
        <time>2014-08-24T09:38:10Z</time>
      </trkpt>
      <trkpt lat="44.4666" lon="2.532">
        <ele>557.3</ele>
        <time>2014-08-24T09:38:14Z</time>
      </trkpt>
      <trkpt lat="44.46668" lon="2.53192">
        <ele>558</ele>
        <time>2014-08-24T09:38:18Z</time>
      </trkpt>
      <trkpt lat="44.46674" lon="2.53181">
        <ele>558.5</ele>
        <time>2014-08-24T09:38:22Z</time>
      </trkpt>
      <trkpt lat="44.46686" lon="2.5316">
        <ele>560.3</ele>
        <time>2014-08-24T09:38:30Z</time>
      </trkpt>
      <trkpt lat="44.4669" lon="2.53146">
        <ele>560.7</ele>
        <time>2014-08-24T09:38:34Z</time>
      </trkpt>
      <trkpt lat="44.46692" lon="2.53132">
        <ele>561.6</ele>
        <time>2014-08-24T09:38:38Z</time>
      </trkpt>
      <trkpt lat="44.46693" lon="2.53119">
        <ele>561.6</ele>
        <time>2014-08-24T09:38:41Z</time>
      </trkpt>
      <trkpt lat="44.46694" lon="2.53105">
        <ele>561.1</ele>
        <time>2014-08-24T09:38:44Z</time>
      </trkpt>
      <trkpt lat="44.46695" lon="2.5309">
        <ele>561.3</ele>
        <time>2014-08-24T09:38:47Z</time>
      </trkpt>
      <trkpt lat="44.46697" lon="2.53077">
        <ele>561.8</ele>
        <time>2014-08-24T09:38:50Z</time>
      </trkpt>
      <trkpt lat="44.467" lon="2.53063">
        <ele>562</ele>
        <time>2014-08-24T09:38:53Z</time>
      </trkpt>
      <trkpt lat="44.46702" lon="2.53048">
        <ele>563</ele>
        <time>2014-08-24T09:38:56Z</time>
      </trkpt>
      <trkpt lat="44.46703" lon="2.53033">
        <ele>561.8</ele>
        <time>2014-08-24T09:38:59Z</time>
      </trkpt>
      <trkpt lat="44.46704" lon="2.5302">
        <ele>561.9</ele>
        <time>2014-08-24T09:39:02Z</time>
      </trkpt>
      <trkpt lat="44.46707" lon="2.53006">
        <ele>561.4</ele>
        <time>2014-08-24T09:39:05Z</time>
      </trkpt>
      <trkpt lat="44.46711" lon="2.52993">
        <ele>561.9</ele>
        <time>2014-08-24T09:39:08Z</time>
      </trkpt>
      <trkpt lat="44.46714" lon="2.52978">
        <ele>562.5</ele>
        <time>2014-08-24T09:39:11Z</time>
      </trkpt>
      <trkpt lat="44.46716" lon="2.52963">
        <ele>562.7</ele>
        <time>2014-08-24T09:39:14Z</time>
      </trkpt>
      <trkpt lat="44.46719" lon="2.52949">
        <ele>562.8</ele>
        <time>2014-08-24T09:39:17Z</time>
      </trkpt>
      <trkpt lat="44.46725" lon="2.52939">
        <ele>563.2</ele>
        <time>2014-08-24T09:39:20Z</time>
      </trkpt>
      <trkpt lat="44.46734" lon="2.52932">
        <ele>562.8</ele>
        <time>2014-08-24T09:39:23Z</time>
      </trkpt>
      <trkpt lat="44.46748" lon="2.52916">
        <ele>564.7</ele>
        <time>2014-08-24T09:39:29Z</time>
      </trkpt>
      <trkpt lat="44.46755" lon="2.52902">
        <ele>565.4</ele>
        <time>2014-08-24T09:39:33Z</time>
      </trkpt>
      <trkpt lat="44.4676" lon="2.52891">
        <ele>566.4</ele>
        <time>2014-08-24T09:39:36Z</time>
      </trkpt>
      <trkpt lat="44.46764" lon="2.52878">
        <ele>568.1</ele>
        <time>2014-08-24T09:39:40Z</time>
      </trkpt>
      <trkpt lat="44.46769" lon="2.52866">
        <ele>568.7</ele>
        <time>2014-08-24T09:39:44Z</time>
      </trkpt>
      <trkpt lat="44.4677" lon="2.52853">
        <ele>569.7</ele>
        <time>2014-08-24T09:39:48Z</time>
      </trkpt>
      <trkpt lat="44.4677" lon="2.52839">
        <ele>570.2</ele>
        <time>2014-08-24T09:39:52Z</time>
      </trkpt>
      <trkpt lat="44.46769" lon="2.52826">
        <ele>570.4</ele>
        <time>2014-08-24T09:39:56Z</time>
      </trkpt>
      <trkpt lat="44.46769" lon="2.52812">
        <ele>572</ele>
        <time>2014-08-24T09:40:01Z</time>
      </trkpt>
      <trkpt lat="44.46769" lon="2.52799">
        <ele>571.6</ele>
        <time>2014-08-24T09:40:37Z</time>
      </trkpt>
      <trkpt lat="44.46737" lon="2.52764">
        <ele>570.7</ele>
        <time>2014-08-24T09:51:45Z</time>
      </trkpt>
      <trkpt lat="44.46728" lon="2.52753">
        <ele>570.7</ele>
        <time>2014-08-24T09:51:49Z</time>
      </trkpt>
      <trkpt lat="44.46719" lon="2.52743">
        <ele>571.4</ele>
        <time>2014-08-24T09:51:52Z</time>
      </trkpt>
      <trkpt lat="44.46708" lon="2.52732">
        <ele>570.3</ele>
        <time>2014-08-24T09:51:55Z</time>
      </trkpt>
      <trkpt lat="44.46699" lon="2.52725">
        <ele>570</ele>
        <time>2014-08-24T09:51:57Z</time>
      </trkpt>
      <trkpt lat="44.4669" lon="2.5272">
        <ele>569.8</ele>
        <time>2014-08-24T09:51:59Z</time>
      </trkpt>
      <trkpt lat="44.46681" lon="2.52715">
        <ele>569.8</ele>
        <time>2014-08-24T09:52:01Z</time>
      </trkpt>
      <trkpt lat="44.46671" lon="2.52709">
        <ele>569.8</ele>
        <time>2014-08-24T09:52:03Z</time>
      </trkpt>
      <trkpt lat="44.46661" lon="2.52704">
        <ele>569.7</ele>
        <time>2014-08-24T09:52:05Z</time>
      </trkpt>
      <trkpt lat="44.46649" lon="2.52699">
        <ele>569.3</ele>
        <time>2014-08-24T09:52:07Z</time>
      </trkpt>
      <trkpt lat="44.46638" lon="2.52694">
        <ele>568.8</ele>
        <time>2014-08-24T09:52:09Z</time>
      </trkpt>
      <trkpt lat="44.46626" lon="2.52691">
        <ele>568.3</ele>
        <time>2014-08-24T09:52:11Z</time>
      </trkpt>
      <trkpt lat="44.46615" lon="2.52687">
        <ele>567.4</ele>
        <time>2014-08-24T09:52:13Z</time>
      </trkpt>
      <trkpt lat="44.46605" lon="2.52684">
        <ele>566.3</ele>
        <time>2014-08-24T09:52:15Z</time>
      </trkpt>
      <trkpt lat="44.46594" lon="2.52677">
        <ele>565.1</ele>
        <time>2014-08-24T09:52:17Z</time>
      </trkpt>
      <trkpt lat="44.46588" lon="2.52664">
        <ele>564.4</ele>
        <time>2014-08-24T09:52:19Z</time>
      </trkpt>
      <trkpt lat="44.46588" lon="2.52648">
        <ele>563.9</ele>
        <time>2014-08-24T09:52:21Z</time>
      </trkpt>
      <trkpt lat="44.46592" lon="2.52633">
        <ele>562.9</ele>
        <time>2014-08-24T09:52:23Z</time>
      </trkpt>
      <trkpt lat="44.46595" lon="2.52618">
        <ele>562.4</ele>
        <time>2014-08-24T09:52:25Z</time>
      </trkpt>
      <trkpt lat="44.46598" lon="2.52605">
        <ele>562.3</ele>
        <time>2014-08-24T09:52:27Z</time>
      </trkpt>
      <trkpt lat="44.46601" lon="2.52588">
        <ele>562.6</ele>
        <time>2014-08-24T09:52:30Z</time>
      </trkpt>
      <trkpt lat="44.46603" lon="2.52572">
        <ele>562.2</ele>
        <time>2014-08-24T09:52:33Z</time>
      </trkpt>
      <trkpt lat="44.46604" lon="2.52556">
        <ele>563.1</ele>
        <time>2014-08-24T09:52:36Z</time>
      </trkpt>
      <trkpt lat="44.46606" lon="2.52542">
        <ele>564.2</ele>
        <time>2014-08-24T09:52:39Z</time>
      </trkpt>
      <trkpt lat="44.4661" lon="2.52515">
        <ele>563.3</ele>
        <time>2014-08-24T09:52:45Z</time>
      </trkpt>
      <trkpt lat="44.46612" lon="2.525">
        <ele>563.4</ele>
        <time>2014-08-24T09:52:48Z</time>
      </trkpt>
      <trkpt lat="44.46613" lon="2.52486">
        <ele>564</ele>
        <time>2014-08-24T09:52:51Z</time>
      </trkpt>
      <trkpt lat="44.46613" lon="2.52471">
        <ele>564</ele>
        <time>2014-08-24T09:52:54Z</time>
      </trkpt>
      <trkpt lat="44.46613" lon="2.52456">
        <ele>563</ele>
        <time>2014-08-24T09:52:57Z</time>
      </trkpt>
      <trkpt lat="44.46611" lon="2.52439">
        <ele>562.1</ele>
        <time>2014-08-24T09:53:00Z</time>
      </trkpt>
      <trkpt lat="44.46612" lon="2.52423">
        <ele>561.8</ele>
        <time>2014-08-24T09:53:03Z</time>
      </trkpt>
      <trkpt lat="44.46614" lon="2.52408">
        <ele>561.2</ele>
        <time>2014-08-24T09:53:06Z</time>
      </trkpt>
      <trkpt lat="44.46617" lon="2.52392">
        <ele>561.1</ele>
        <time>2014-08-24T09:53:09Z</time>
      </trkpt>
      <trkpt lat="44.46621" lon="2.52376">
        <ele>561.9</ele>
        <time>2014-08-24T09:53:12Z</time>
      </trkpt>
      <trkpt lat="44.46626" lon="2.52361">
        <ele>561</ele>
        <time>2014-08-24T09:53:15Z</time>
      </trkpt>
      <trkpt lat="44.46634" lon="2.52346">
        <ele>560.5</ele>
        <time>2014-08-24T09:53:18Z</time>
      </trkpt>
      <trkpt lat="44.46643" lon="2.52332">
        <ele>560.7</ele>
        <time>2014-08-24T09:53:21Z</time>
      </trkpt>
      <trkpt lat="44.46654" lon="2.52323">
        <ele>559.5</ele>
        <time>2014-08-24T09:53:24Z</time>
      </trkpt>
      <trkpt lat="44.46667" lon="2.52315">
        <ele>559.7</ele>
        <time>2014-08-24T09:53:27Z</time>
      </trkpt>
      <trkpt lat="44.46679" lon="2.52309">
        <ele>559.6</ele>
        <time>2014-08-24T09:53:30Z</time>
      </trkpt>
      <trkpt lat="44.46687" lon="2.52301">
        <ele>559.5</ele>
        <time>2014-08-24T09:53:32Z</time>
      </trkpt>
      <trkpt lat="44.46694" lon="2.52291">
        <ele>559.4</ele>
        <time>2014-08-24T09:53:34Z</time>
      </trkpt>
      <trkpt lat="44.46703" lon="2.5228">
        <ele>557.7</ele>
        <time>2014-08-24T09:53:36Z</time>
      </trkpt>
      <trkpt lat="44.46712" lon="2.52274">
        <ele>557</ele>
        <time>2014-08-24T09:53:38Z</time>
      </trkpt>
      <trkpt lat="44.46722" lon="2.52269">
        <ele>556.9</ele>
        <time>2014-08-24T09:53:40Z</time>
      </trkpt>
      <trkpt lat="44.46748" lon="2.52263">
        <ele>556.2</ele>
        <time>2014-08-24T09:53:45Z</time>
      </trkpt>
      <trkpt lat="44.46762" lon="2.52262">
        <ele>555.8</ele>
        <time>2014-08-24T09:53:47Z</time>
      </trkpt>
      <trkpt lat="44.46774" lon="2.52269">
        <ele>555.2</ele>
        <time>2014-08-24T09:53:49Z</time>
      </trkpt>
      <trkpt lat="44.46783" lon="2.52263">
        <ele>553.9</ele>
        <time>2014-08-24T09:53:51Z</time>
      </trkpt>
      <trkpt lat="44.46786" lon="2.52249">
        <ele>552.5</ele>
        <time>2014-08-24T09:53:53Z</time>
      </trkpt>
      <trkpt lat="44.46786" lon="2.52227">
        <ele>550.9</ele>
        <time>2014-08-24T09:53:55Z</time>
      </trkpt>
      <trkpt lat="44.46793" lon="2.52206">
        <ele>550.1</ele>
        <time>2014-08-24T09:53:57Z</time>
      </trkpt>
      <trkpt lat="44.46803" lon="2.52185">
        <ele>549.2</ele>
        <time>2014-08-24T09:53:59Z</time>
      </trkpt>
      <trkpt lat="44.46809" lon="2.52174">
        <ele>548.9</ele>
        <time>2014-08-24T09:54:00Z</time>
      </trkpt>
      <trkpt lat="44.46815" lon="2.52164">
        <ele>548</ele>
        <time>2014-08-24T09:54:01Z</time>
      </trkpt>
      <trkpt lat="44.46825" lon="2.52146">
        <ele>546.9</ele>
        <time>2014-08-24T09:54:03Z</time>
      </trkpt>
      <trkpt lat="44.46836" lon="2.52132">
        <ele>545.8</ele>
        <time>2014-08-24T09:54:05Z</time>
      </trkpt>
      <trkpt lat="44.46846" lon="2.5212">
        <ele>545</ele>
        <time>2014-08-24T09:54:07Z</time>
      </trkpt>
      <trkpt lat="44.46856" lon="2.5211">
        <ele>544.3</ele>
        <time>2014-08-24T09:54:09Z</time>
      </trkpt>
      <trkpt lat="44.46866" lon="2.52101">
        <ele>543.8</ele>
        <time>2014-08-24T09:54:11Z</time>
      </trkpt>
      <trkpt lat="44.46875" lon="2.52091">
        <ele>543.6</ele>
        <time>2014-08-24T09:54:13Z</time>
      </trkpt>
      <trkpt lat="44.46885" lon="2.52082">
        <ele>542.5</ele>
        <time>2014-08-24T09:54:15Z</time>
      </trkpt>
      <trkpt lat="44.46895" lon="2.52071">
        <ele>542.1</ele>
        <time>2014-08-24T09:54:17Z</time>
      </trkpt>
      <trkpt lat="44.46902" lon="2.52059">
        <ele>542.1</ele>
        <time>2014-08-24T09:54:19Z</time>
      </trkpt>
      <trkpt lat="44.46906" lon="2.52044">
        <ele>542.3</ele>
        <time>2014-08-24T09:54:21Z</time>
      </trkpt>
      <trkpt lat="44.4691" lon="2.52031">
        <ele>541.9</ele>
        <time>2014-08-24T09:54:23Z</time>
      </trkpt>
      <trkpt lat="44.46914" lon="2.52019">
        <ele>541.4</ele>
        <time>2014-08-24T09:54:25Z</time>
      </trkpt>
      <trkpt lat="44.46918" lon="2.52002">
        <ele>542</ele>
        <time>2014-08-24T09:54:28Z</time>
      </trkpt>
      <trkpt lat="44.46921" lon="2.51986">
        <ele>541.7</ele>
        <time>2014-08-24T09:54:31Z</time>
      </trkpt>
      <trkpt lat="44.46924" lon="2.5197">
        <ele>541.7</ele>
        <time>2014-08-24T09:54:34Z</time>
      </trkpt>
      <trkpt lat="44.46926" lon="2.51955">
        <ele>543.2</ele>
        <time>2014-08-24T09:54:37Z</time>
      </trkpt>
      <trkpt lat="44.46928" lon="2.51939">
        <ele>543.5</ele>
        <time>2014-08-24T09:54:40Z</time>
      </trkpt>
      <trkpt lat="44.4693" lon="2.51925">
        <ele>544.1</ele>
        <time>2014-08-24T09:54:43Z</time>
      </trkpt>
      <trkpt lat="44.46937" lon="2.51893">
        <ele>544.5</ele>
        <time>2014-08-24T09:54:49Z</time>
      </trkpt>
      <trkpt lat="44.46942" lon="2.51877">
        <ele>544.8</ele>
        <time>2014-08-24T09:54:52Z</time>
      </trkpt>
      <trkpt lat="44.46948" lon="2.51861">
        <ele>545.2</ele>
        <time>2014-08-24T09:54:55Z</time>
      </trkpt>
      <trkpt lat="44.46955" lon="2.51845">
        <ele>545.7</ele>
        <time>2014-08-24T09:54:58Z</time>
      </trkpt>
      <trkpt lat="44.46962" lon="2.51831">
        <ele>545.2</ele>
        <time>2014-08-24T09:55:01Z</time>
      </trkpt>
      <trkpt lat="44.4697" lon="2.51819">
        <ele>543.9</ele>
        <time>2014-08-24T09:55:04Z</time>
      </trkpt>
      <trkpt lat="44.46978" lon="2.51808">
        <ele>544.9</ele>
        <time>2014-08-24T09:55:07Z</time>
      </trkpt>
      <trkpt lat="44.46984" lon="2.51795">
        <ele>546.9</ele>
        <time>2014-08-24T09:55:10Z</time>
      </trkpt>
      <trkpt lat="44.46988" lon="2.5178">
        <ele>546.3</ele>
        <time>2014-08-24T09:55:13Z</time>
      </trkpt>
      <trkpt lat="44.46993" lon="2.51765">
        <ele>547.2</ele>
        <time>2014-08-24T09:55:16Z</time>
      </trkpt>
      <trkpt lat="44.46998" lon="2.51752">
        <ele>547.5</ele>
        <time>2014-08-24T09:55:19Z</time>
      </trkpt>
      <trkpt lat="44.47003" lon="2.51738">
        <ele>548.4</ele>
        <time>2014-08-24T09:55:22Z</time>
      </trkpt>
      <trkpt lat="44.47009" lon="2.51722">
        <ele>549.1</ele>
        <time>2014-08-24T09:55:25Z</time>
      </trkpt>
      <trkpt lat="44.47015" lon="2.51706">
        <ele>549.4</ele>
        <time>2014-08-24T09:55:28Z</time>
      </trkpt>
      <trkpt lat="44.47023" lon="2.51692">
        <ele>549.2</ele>
        <time>2014-08-24T09:55:31Z</time>
      </trkpt>
      <trkpt lat="44.47033" lon="2.51677">
        <ele>548.6</ele>
        <time>2014-08-24T09:55:34Z</time>
      </trkpt>
      <trkpt lat="44.47039" lon="2.51667">
        <ele>548.3</ele>
        <time>2014-08-24T09:55:36Z</time>
      </trkpt>
      <trkpt lat="44.47045" lon="2.51657">
        <ele>547.2</ele>
        <time>2014-08-24T09:55:38Z</time>
      </trkpt>
      <trkpt lat="44.47051" lon="2.51647">
        <ele>547</ele>
        <time>2014-08-24T09:55:40Z</time>
      </trkpt>
      <trkpt lat="44.47058" lon="2.51637">
        <ele>547.1</ele>
        <time>2014-08-24T09:55:42Z</time>
      </trkpt>
      <trkpt lat="44.47065" lon="2.51626">
        <ele>546.1</ele>
        <time>2014-08-24T09:55:44Z</time>
      </trkpt>
      <trkpt lat="44.47073" lon="2.51616">
        <ele>545.5</ele>
        <time>2014-08-24T09:55:46Z</time>
      </trkpt>
      <trkpt lat="44.47084" lon="2.51595">
        <ele>545.3</ele>
        <time>2014-08-24T09:55:50Z</time>
      </trkpt>
      <trkpt lat="44.47089" lon="2.51585">
        <ele>545.3</ele>
        <time>2014-08-24T09:55:52Z</time>
      </trkpt>
      <trkpt lat="44.47094" lon="2.51573">
        <ele>545.5</ele>
        <time>2014-08-24T09:55:54Z</time>
      </trkpt>
      <trkpt lat="44.47099" lon="2.51562">
        <ele>545.7</ele>
        <time>2014-08-24T09:55:56Z</time>
      </trkpt>
      <trkpt lat="44.47103" lon="2.5155">
        <ele>546</ele>
        <time>2014-08-24T09:55:58Z</time>
      </trkpt>
      <trkpt lat="44.47107" lon="2.51538">
        <ele>545.6</ele>
        <time>2014-08-24T09:56:00Z</time>
      </trkpt>
      <trkpt lat="44.47111" lon="2.51527">
        <ele>545.2</ele>
        <time>2014-08-24T09:56:02Z</time>
      </trkpt>
      <trkpt lat="44.47115" lon="2.51509">
        <ele>545.7</ele>
        <time>2014-08-24T09:56:05Z</time>
      </trkpt>
      <trkpt lat="44.47119" lon="2.51492">
        <ele>546.9</ele>
        <time>2014-08-24T09:56:08Z</time>
      </trkpt>
      <trkpt lat="44.47122" lon="2.51479">
        <ele>546.4</ele>
        <time>2014-08-24T09:56:10Z</time>
      </trkpt>
      <trkpt lat="44.47126" lon="2.51462">
        <ele>546.1</ele>
        <time>2014-08-24T09:56:13Z</time>
      </trkpt>
      <trkpt lat="44.47129" lon="2.5145">
        <ele>545.6</ele>
        <time>2014-08-24T09:56:15Z</time>
      </trkpt>
      <trkpt lat="44.47134" lon="2.51437">
        <ele>544.9</ele>
        <time>2014-08-24T09:56:17Z</time>
      </trkpt>
      <trkpt lat="44.47139" lon="2.51424">
        <ele>544.2</ele>
        <time>2014-08-24T09:56:19Z</time>
      </trkpt>
      <trkpt lat="44.47145" lon="2.51411">
        <ele>543.8</ele>
        <time>2014-08-24T09:56:21Z</time>
      </trkpt>
      <trkpt lat="44.47152" lon="2.51397">
        <ele>543.6</ele>
        <time>2014-08-24T09:56:23Z</time>
      </trkpt>
      <trkpt lat="44.47159" lon="2.51383">
        <ele>543.1</ele>
        <time>2014-08-24T09:56:25Z</time>
      </trkpt>
      <trkpt lat="44.47165" lon="2.5137">
        <ele>542.5</ele>
        <time>2014-08-24T09:56:27Z</time>
      </trkpt>
      <trkpt lat="44.47171" lon="2.51356">
        <ele>542.1</ele>
        <time>2014-08-24T09:56:29Z</time>
      </trkpt>
      <trkpt lat="44.47176" lon="2.51344">
        <ele>541.8</ele>
        <time>2014-08-24T09:56:31Z</time>
      </trkpt>
      <trkpt lat="44.47182" lon="2.5133">
        <ele>541.5</ele>
        <time>2014-08-24T09:56:33Z</time>
      </trkpt>
      <trkpt lat="44.47188" lon="2.51317">
        <ele>541</ele>
        <time>2014-08-24T09:56:35Z</time>
      </trkpt>
      <trkpt lat="44.47194" lon="2.51306">
        <ele>540.5</ele>
        <time>2014-08-24T09:56:37Z</time>
      </trkpt>
      <trkpt lat="44.47202" lon="2.51297">
        <ele>540.2</ele>
        <time>2014-08-24T09:56:39Z</time>
      </trkpt>
      <trkpt lat="44.4721" lon="2.51291">
        <ele>540.3</ele>
        <time>2014-08-24T09:56:41Z</time>
      </trkpt>
      <trkpt lat="44.47218" lon="2.51285">
        <ele>540.4</ele>
        <time>2014-08-24T09:56:43Z</time>
      </trkpt>
      <trkpt lat="44.47227" lon="2.5128">
        <ele>540.8</ele>
        <time>2014-08-24T09:56:45Z</time>
      </trkpt>
      <trkpt lat="44.47238" lon="2.51272">
        <ele>540.6</ele>
        <time>2014-08-24T09:56:48Z</time>
      </trkpt>
      <trkpt lat="44.47236" lon="2.51257">
        <ele>542.2</ele>
        <time>2014-08-24T09:56:57Z</time>
      </trkpt>
      <trkpt lat="44.47226" lon="2.51257">
        <ele>543</ele>
        <time>2014-08-24T09:57:00Z</time>
      </trkpt>
      <trkpt lat="44.47216" lon="2.51258">
        <ele>543.4</ele>
        <time>2014-08-24T09:57:03Z</time>
      </trkpt>
      <trkpt lat="44.47206" lon="2.51262">
        <ele>543.2</ele>
        <time>2014-08-24T09:57:06Z</time>
      </trkpt>
      <trkpt lat="44.47196" lon="2.51266">
        <ele>543.4</ele>
        <time>2014-08-24T09:57:09Z</time>
      </trkpt>
      <trkpt lat="44.47187" lon="2.51272">
        <ele>543.7</ele>
        <time>2014-08-24T09:57:12Z</time>
      </trkpt>
      <trkpt lat="44.47178" lon="2.51279">
        <ele>544.3</ele>
        <time>2014-08-24T09:57:15Z</time>
      </trkpt>
      <trkpt lat="44.47168" lon="2.51288">
        <ele>544.9</ele>
        <time>2014-08-24T09:57:18Z</time>
      </trkpt>
      <trkpt lat="44.47159" lon="2.51297">
        <ele>545.5</ele>
        <time>2014-08-24T09:57:21Z</time>
      </trkpt>
      <trkpt lat="44.47148" lon="2.51306">
        <ele>546.4</ele>
        <time>2014-08-24T09:57:24Z</time>
      </trkpt>
      <trkpt lat="44.47139" lon="2.51314">
        <ele>546.3</ele>
        <time>2014-08-24T09:57:27Z</time>
      </trkpt>
      <trkpt lat="44.47129" lon="2.51323">
        <ele>546.7</ele>
        <time>2014-08-24T09:57:30Z</time>
      </trkpt>
      <trkpt lat="44.47119" lon="2.51333">
        <ele>546.7</ele>
        <time>2014-08-24T09:57:33Z</time>
      </trkpt>
      <trkpt lat="44.47109" lon="2.51344">
        <ele>545.7</ele>
        <time>2014-08-24T09:57:36Z</time>
      </trkpt>
      <trkpt lat="44.47101" lon="2.51352">
        <ele>545.6</ele>
        <time>2014-08-24T09:57:38Z</time>
      </trkpt>
      <trkpt lat="44.47094" lon="2.5136">
        <ele>545.8</ele>
        <time>2014-08-24T09:57:40Z</time>
      </trkpt>
      <trkpt lat="44.47086" lon="2.51368">
        <ele>546.2</ele>
        <time>2014-08-24T09:57:42Z</time>
      </trkpt>
      <trkpt lat="44.47079" lon="2.51376">
        <ele>546.1</ele>
        <time>2014-08-24T09:57:44Z</time>
      </trkpt>
      <trkpt lat="44.47071" lon="2.51383">
        <ele>545.8</ele>
        <time>2014-08-24T09:57:46Z</time>
      </trkpt>
      <trkpt lat="44.47062" lon="2.51389">
        <ele>545.9</ele>
        <time>2014-08-24T09:57:48Z</time>
      </trkpt>
      <trkpt lat="44.47054" lon="2.51393">
        <ele>546.1</ele>
        <time>2014-08-24T09:57:50Z</time>
      </trkpt>
      <trkpt lat="44.47036" lon="2.51401">
        <ele>544.7</ele>
        <time>2014-08-24T09:57:54Z</time>
      </trkpt>
      <trkpt lat="44.47027" lon="2.51406">
        <ele>543.7</ele>
        <time>2014-08-24T09:57:56Z</time>
      </trkpt>
      <trkpt lat="44.47019" lon="2.51411">
        <ele>544.3</ele>
        <time>2014-08-24T09:57:58Z</time>
      </trkpt>
      <trkpt lat="44.47008" lon="2.51421">
        <ele>545.2</ele>
        <time>2014-08-24T09:58:01Z</time>
      </trkpt>
      <trkpt lat="44.46997" lon="2.51432">
        <ele>545.6</ele>
        <time>2014-08-24T09:58:04Z</time>
      </trkpt>
      <trkpt lat="44.46987" lon="2.51441">
        <ele>545.5</ele>
        <time>2014-08-24T09:58:07Z</time>
      </trkpt>
      <trkpt lat="44.46977" lon="2.5145">
        <ele>545.5</ele>
        <time>2014-08-24T09:58:10Z</time>
      </trkpt>
      <trkpt lat="44.46967" lon="2.51459">
        <ele>545.2</ele>
        <time>2014-08-24T09:58:13Z</time>
      </trkpt>
      <trkpt lat="44.46959" lon="2.51469">
        <ele>544.9</ele>
        <time>2014-08-24T09:58:16Z</time>
      </trkpt>
      <trkpt lat="44.46951" lon="2.5148">
        <ele>544.7</ele>
        <time>2014-08-24T09:58:19Z</time>
      </trkpt>
      <trkpt lat="44.46943" lon="2.51491">
        <ele>543.4</ele>
        <time>2014-08-24T09:58:22Z</time>
      </trkpt>
      <trkpt lat="44.46932" lon="2.51499">
        <ele>543.6</ele>
        <time>2014-08-24T09:58:25Z</time>
      </trkpt>
      <trkpt lat="44.46923" lon="2.51505">
        <ele>543.5</ele>
        <time>2014-08-24T09:58:27Z</time>
      </trkpt>
      <trkpt lat="44.46913" lon="2.51512">
        <ele>543.1</ele>
        <time>2014-08-24T09:58:29Z</time>
      </trkpt>
      <trkpt lat="44.46903" lon="2.51518">
        <ele>542.6</ele>
        <time>2014-08-24T09:58:31Z</time>
      </trkpt>
      <trkpt lat="44.46893" lon="2.51524">
        <ele>541.7</ele>
        <time>2014-08-24T09:58:33Z</time>
      </trkpt>
      <trkpt lat="44.46882" lon="2.5153">
        <ele>541.1</ele>
        <time>2014-08-24T09:58:35Z</time>
      </trkpt>
      <trkpt lat="44.4687" lon="2.51536">
        <ele>540.3</ele>
        <time>2014-08-24T09:58:37Z</time>
      </trkpt>
      <trkpt lat="44.46858" lon="2.51544">
        <ele>539.7</ele>
        <time>2014-08-24T09:58:39Z</time>
      </trkpt>
      <trkpt lat="44.46844" lon="2.51551">
        <ele>539.3</ele>
        <time>2014-08-24T09:58:41Z</time>
      </trkpt>
      <trkpt lat="44.4683" lon="2.51559">
        <ele>537.9</ele>
        <time>2014-08-24T09:58:43Z</time>
      </trkpt>
      <trkpt lat="44.46816" lon="2.51567">
        <ele>537.1</ele>
        <time>2014-08-24T09:58:45Z</time>
      </trkpt>
      <trkpt lat="44.46801" lon="2.51574">
        <ele>536.6</ele>
        <time>2014-08-24T09:58:47Z</time>
      </trkpt>
      <trkpt lat="44.46787" lon="2.51577">
        <ele>536.5</ele>
        <time>2014-08-24T09:58:49Z</time>
      </trkpt>
      <trkpt lat="44.46774" lon="2.5158">
        <ele>536.5</ele>
        <time>2014-08-24T09:58:51Z</time>
      </trkpt>
      <trkpt lat="44.46751" lon="2.51586">
        <ele>536.5</ele>
        <time>2014-08-24T09:58:55Z</time>
      </trkpt>
      <trkpt lat="44.46741" lon="2.5159">
        <ele>536.8</ele>
        <time>2014-08-24T09:58:57Z</time>
      </trkpt>
      <trkpt lat="44.46733" lon="2.51595">
        <ele>536.9</ele>
        <time>2014-08-24T09:58:59Z</time>
      </trkpt>
      <trkpt lat="44.46721" lon="2.51604">
        <ele>537.7</ele>
        <time>2014-08-24T09:59:02Z</time>
      </trkpt>
      <trkpt lat="44.4671" lon="2.51611">
        <ele>538.3</ele>
        <time>2014-08-24T09:59:05Z</time>
      </trkpt>
      <trkpt lat="44.467" lon="2.51618">
        <ele>538.8</ele>
        <time>2014-08-24T09:59:08Z</time>
      </trkpt>
      <trkpt lat="44.46691" lon="2.51626">
        <ele>538.9</ele>
        <time>2014-08-24T09:59:11Z</time>
      </trkpt>
      <trkpt lat="44.46682" lon="2.51636">
        <ele>538.6</ele>
        <time>2014-08-24T09:59:14Z</time>
      </trkpt>
      <trkpt lat="44.46676" lon="2.51648">
        <ele>538.6</ele>
        <time>2014-08-24T09:59:17Z</time>
      </trkpt>
      <trkpt lat="44.46668" lon="2.51659">
        <ele>538.6</ele>
        <time>2014-08-24T09:59:20Z</time>
      </trkpt>
      <trkpt lat="44.46657" lon="2.51668">
        <ele>538.1</ele>
        <time>2014-08-24T09:59:23Z</time>
      </trkpt>
      <trkpt lat="44.46646" lon="2.51674">
        <ele>537.6</ele>
        <time>2014-08-24T09:59:26Z</time>
      </trkpt>
      <trkpt lat="44.46635" lon="2.51679">
        <ele>538</ele>
        <time>2014-08-24T09:59:29Z</time>
      </trkpt>
      <trkpt lat="44.46624" lon="2.51684">
        <ele>538.6</ele>
        <time>2014-08-24T09:59:32Z</time>
      </trkpt>
      <trkpt lat="44.46612" lon="2.51689">
        <ele>537.8</ele>
        <time>2014-08-24T09:59:35Z</time>
      </trkpt>
      <trkpt lat="44.46601" lon="2.51693">
        <ele>538.8</ele>
        <time>2014-08-24T09:59:38Z</time>
      </trkpt>
      <trkpt lat="44.46589" lon="2.51695">
        <ele>538.4</ele>
        <time>2014-08-24T09:59:41Z</time>
      </trkpt>
      <trkpt lat="44.46578" lon="2.51697">
        <ele>539.2</ele>
        <time>2014-08-24T09:59:44Z</time>
      </trkpt>
      <trkpt lat="44.46566" lon="2.517">
        <ele>538.8</ele>
        <time>2014-08-24T09:59:47Z</time>
      </trkpt>
      <trkpt lat="44.46555" lon="2.51701">
        <ele>539.6</ele>
        <time>2014-08-24T09:59:50Z</time>
      </trkpt>
      <trkpt lat="44.46545" lon="2.51702">
        <ele>540.4</ele>
        <time>2014-08-24T09:59:53Z</time>
      </trkpt>
      <trkpt lat="44.46527" lon="2.51711">
        <ele>542</ele>
        <time>2014-08-24T10:00:01Z</time>
      </trkpt>
      <trkpt lat="44.46525" lon="2.51724">
        <ele>543.8</ele>
        <time>2014-08-24T10:00:05Z</time>
      </trkpt>
      <trkpt lat="44.46522" lon="2.51736">
        <ele>545.6</ele>
        <time>2014-08-24T10:00:10Z</time>
      </trkpt>
      <trkpt lat="44.46517" lon="2.51748">
        <ele>546.4</ele>
        <time>2014-08-24T10:00:15Z</time>
      </trkpt>
      <trkpt lat="44.4651" lon="2.51756">
        <ele>546.8</ele>
        <time>2014-08-24T10:00:19Z</time>
      </trkpt>
      <trkpt lat="44.46501" lon="2.51762">
        <ele>546.7</ele>
        <time>2014-08-24T10:00:23Z</time>
      </trkpt>
      <trkpt lat="44.46492" lon="2.51768">
        <ele>548.2</ele>
        <time>2014-08-24T10:00:27Z</time>
      </trkpt>
      <trkpt lat="44.46483" lon="2.51773">
        <ele>548.5</ele>
        <time>2014-08-24T10:00:31Z</time>
      </trkpt>
      <trkpt lat="44.46474" lon="2.51785">
        <ele>549.5</ele>
        <time>2014-08-24T10:00:35Z</time>
      </trkpt>
      <trkpt lat="44.46466" lon="2.51796">
        <ele>549.4</ele>
        <time>2014-08-24T10:00:39Z</time>
      </trkpt>
      <trkpt lat="44.46459" lon="2.51804">
        <ele>550.7</ele>
        <time>2014-08-24T10:00:42Z</time>
      </trkpt>
      <trkpt lat="44.46451" lon="2.51815">
        <ele>551.1</ele>
        <time>2014-08-24T10:00:46Z</time>
      </trkpt>
      <trkpt lat="44.46444" lon="2.51823">
        <ele>551.6</ele>
        <time>2014-08-24T10:00:49Z</time>
      </trkpt>
      <trkpt lat="44.46435" lon="2.51834">
        <ele>552.1</ele>
        <time>2014-08-24T10:00:53Z</time>
      </trkpt>
      <trkpt lat="44.46428" lon="2.51843">
        <ele>552.1</ele>
        <time>2014-08-24T10:00:56Z</time>
      </trkpt>
      <trkpt lat="44.46415" lon="2.51865">
        <ele>552.4</ele>
        <time>2014-08-24T10:01:02Z</time>
      </trkpt>
      <trkpt lat="44.46407" lon="2.51875">
        <ele>551.6</ele>
        <time>2014-08-24T10:01:05Z</time>
      </trkpt>
      <trkpt lat="44.46399" lon="2.51886">
        <ele>552.3</ele>
        <time>2014-08-24T10:01:08Z</time>
      </trkpt>
      <trkpt lat="44.46391" lon="2.51896">
        <ele>552.2</ele>
        <time>2014-08-24T10:01:11Z</time>
      </trkpt>
      <trkpt lat="44.46382" lon="2.51906">
        <ele>552.2</ele>
        <time>2014-08-24T10:01:14Z</time>
      </trkpt>
      <trkpt lat="44.46373" lon="2.51918">
        <ele>552.1</ele>
        <time>2014-08-24T10:01:17Z</time>
      </trkpt>
      <trkpt lat="44.46364" lon="2.51929">
        <ele>551.7</ele>
        <time>2014-08-24T10:01:20Z</time>
      </trkpt>
      <trkpt lat="44.46354" lon="2.5194">
        <ele>551.7</ele>
        <time>2014-08-24T10:01:23Z</time>
      </trkpt>
      <trkpt lat="44.46344" lon="2.51947">
        <ele>551.9</ele>
        <time>2014-08-24T10:01:26Z</time>
      </trkpt>
      <trkpt lat="44.46333" lon="2.51951">
        <ele>551.9</ele>
        <time>2014-08-24T10:01:29Z</time>
      </trkpt>
      <trkpt lat="44.46321" lon="2.51951">
        <ele>551.9</ele>
        <time>2014-08-24T10:01:32Z</time>
      </trkpt>
      <trkpt lat="44.4631" lon="2.51949">
        <ele>551.8</ele>
        <time>2014-08-24T10:01:35Z</time>
      </trkpt>
      <trkpt lat="44.46299" lon="2.51947">
        <ele>551.6</ele>
        <time>2014-08-24T10:01:38Z</time>
      </trkpt>
      <trkpt lat="44.46289" lon="2.51944">
        <ele>551.5</ele>
        <time>2014-08-24T10:01:41Z</time>
      </trkpt>
      <trkpt lat="44.46278" lon="2.51941">
        <ele>552</ele>
        <time>2014-08-24T10:01:44Z</time>
      </trkpt>
      <trkpt lat="44.46264" lon="2.51937">
        <ele>552.2</ele>
        <time>2014-08-24T10:01:47Z</time>
      </trkpt>
      <trkpt lat="44.46255" lon="2.51934">
        <ele>551.7</ele>
        <time>2014-08-24T10:01:49Z</time>
      </trkpt>
      <trkpt lat="44.46246" lon="2.51932">
        <ele>551.7</ele>
        <time>2014-08-24T10:01:51Z</time>
      </trkpt>
      <trkpt lat="44.46234" lon="2.51928">
        <ele>551.7</ele>
        <time>2014-08-24T10:01:54Z</time>
      </trkpt>
      <trkpt lat="44.46223" lon="2.51924">
        <ele>551.5</ele>
        <time>2014-08-24T10:01:57Z</time>
      </trkpt>
      <trkpt lat="44.46211" lon="2.51921">
        <ele>551.4</ele>
        <time>2014-08-24T10:02:00Z</time>
      </trkpt>
      <trkpt lat="44.4619" lon="2.51916">
        <ele>551.8</ele>
        <time>2014-08-24T10:02:06Z</time>
      </trkpt>
      <trkpt lat="44.4618" lon="2.51913">
        <ele>551.6</ele>
        <time>2014-08-24T10:02:09Z</time>
      </trkpt>
      <trkpt lat="44.4617" lon="2.51911">
        <ele>551.4</ele>
        <time>2014-08-24T10:02:12Z</time>
      </trkpt>
      <trkpt lat="44.46159" lon="2.51908">
        <ele>551.2</ele>
        <time>2014-08-24T10:02:15Z</time>
      </trkpt>
      <trkpt lat="44.46149" lon="2.51905">
        <ele>551.9</ele>
        <time>2014-08-24T10:02:18Z</time>
      </trkpt>
      <trkpt lat="44.46139" lon="2.519">
        <ele>552.1</ele>
        <time>2014-08-24T10:02:21Z</time>
      </trkpt>
      <trkpt lat="44.46132" lon="2.51891">
        <ele>551.9</ele>
        <time>2014-08-24T10:02:24Z</time>
      </trkpt>
      <trkpt lat="44.46124" lon="2.51884">
        <ele>552.6</ele>
        <time>2014-08-24T10:02:27Z</time>
      </trkpt>
      <trkpt lat="44.46115" lon="2.51878">
        <ele>553.9</ele>
        <time>2014-08-24T10:02:30Z</time>
      </trkpt>
      <trkpt lat="44.46106" lon="2.51871">
        <ele>554.4</ele>
        <time>2014-08-24T10:02:33Z</time>
      </trkpt>
      <trkpt lat="44.46097" lon="2.51864">
        <ele>554.5</ele>
        <time>2014-08-24T10:02:36Z</time>
      </trkpt>
      <trkpt lat="44.4609" lon="2.51854">
        <ele>554.3</ele>
        <time>2014-08-24T10:02:39Z</time>
      </trkpt>
      <trkpt lat="44.46084" lon="2.51843">
        <ele>554.8</ele>
        <time>2014-08-24T10:02:42Z</time>
      </trkpt>
      <trkpt lat="44.46078" lon="2.51832">
        <ele>556.1</ele>
        <time>2014-08-24T10:02:45Z</time>
      </trkpt>
      <trkpt lat="44.46072" lon="2.51821">
        <ele>556.9</ele>
        <time>2014-08-24T10:02:48Z</time>
      </trkpt>
      <trkpt lat="44.46067" lon="2.5181">
        <ele>557.3</ele>
        <time>2014-08-24T10:02:51Z</time>
      </trkpt>
      <trkpt lat="44.46062" lon="2.518">
        <ele>557.8</ele>
        <time>2014-08-24T10:02:54Z</time>
      </trkpt>
      <trkpt lat="44.46056" lon="2.51789">
        <ele>558.4</ele>
        <time>2014-08-24T10:02:57Z</time>
      </trkpt>
      <trkpt lat="44.46049" lon="2.51779">
        <ele>558.8</ele>
        <time>2014-08-24T10:03:00Z</time>
      </trkpt>
      <trkpt lat="44.46041" lon="2.5177">
        <ele>558.7</ele>
        <time>2014-08-24T10:03:03Z</time>
      </trkpt>
      <trkpt lat="44.46025" lon="2.51749">
        <ele>557.2</ele>
        <time>2014-08-24T10:03:09Z</time>
      </trkpt>
      <trkpt lat="44.46016" lon="2.51736">
        <ele>557.6</ele>
        <time>2014-08-24T10:03:12Z</time>
      </trkpt>
      <trkpt lat="44.46007" lon="2.51725">
        <ele>557.5</ele>
        <time>2014-08-24T10:03:15Z</time>
      </trkpt>
      <trkpt lat="44.45998" lon="2.51713">
        <ele>557.3</ele>
        <time>2014-08-24T10:03:18Z</time>
      </trkpt>
      <trkpt lat="44.4599" lon="2.517">
        <ele>556.5</ele>
        <time>2014-08-24T10:03:21Z</time>
      </trkpt>
      <trkpt lat="44.45981" lon="2.51688">
        <ele>556.1</ele>
        <time>2014-08-24T10:03:24Z</time>
      </trkpt>
      <trkpt lat="44.45973" lon="2.51675">
        <ele>555.6</ele>
        <time>2014-08-24T10:03:27Z</time>
      </trkpt>
      <trkpt lat="44.45964" lon="2.5166">
        <ele>555.1</ele>
        <time>2014-08-24T10:03:30Z</time>
      </trkpt>
      <trkpt lat="44.45956" lon="2.51647">
        <ele>555.3</ele>
        <time>2014-08-24T10:03:33Z</time>
      </trkpt>
      <trkpt lat="44.45947" lon="2.51635">
        <ele>556</ele>
        <time>2014-08-24T10:03:36Z</time>
      </trkpt>
      <trkpt lat="44.45938" lon="2.51625">
        <ele>556.4</ele>
        <time>2014-08-24T10:03:39Z</time>
      </trkpt>
      <trkpt lat="44.45929" lon="2.51615">
        <ele>556.3</ele>
        <time>2014-08-24T10:03:42Z</time>
      </trkpt>
      <trkpt lat="44.4592" lon="2.51606">
        <ele>556.5</ele>
        <time>2014-08-24T10:03:45Z</time>
      </trkpt>
      <trkpt lat="44.45912" lon="2.51597">
        <ele>557.4</ele>
        <time>2014-08-24T10:03:48Z</time>
      </trkpt>
      <trkpt lat="44.45904" lon="2.51587">
        <ele>557.6</ele>
        <time>2014-08-24T10:03:51Z</time>
      </trkpt>
      <trkpt lat="44.45897" lon="2.51576">
        <ele>558.4</ele>
        <time>2014-08-24T10:03:54Z</time>
      </trkpt>
      <trkpt lat="44.4589" lon="2.51564">
        <ele>559.1</ele>
        <time>2014-08-24T10:03:57Z</time>
      </trkpt>
      <trkpt lat="44.45884" lon="2.51552">
        <ele>560.4</ele>
        <time>2014-08-24T10:04:00Z</time>
      </trkpt>
      <trkpt lat="44.45878" lon="2.5154">
        <ele>560.3</ele>
        <time>2014-08-24T10:04:03Z</time>
      </trkpt>
      <trkpt lat="44.45872" lon="2.51528">
        <ele>560.3</ele>
        <time>2014-08-24T10:04:06Z</time>
      </trkpt>
      <trkpt lat="44.45862" lon="2.51505">
        <ele>561.6</ele>
        <time>2014-08-24T10:04:12Z</time>
      </trkpt>
      <trkpt lat="44.45859" lon="2.51493">
        <ele>562.1</ele>
        <time>2014-08-24T10:04:15Z</time>
      </trkpt>
      <trkpt lat="44.45855" lon="2.51481">
        <ele>562.9</ele>
        <time>2014-08-24T10:04:18Z</time>
      </trkpt>
      <trkpt lat="44.45852" lon="2.51469">
        <ele>563.4</ele>
        <time>2014-08-24T10:04:21Z</time>
      </trkpt>
      <trkpt lat="44.45847" lon="2.51454">
        <ele>563.5</ele>
        <time>2014-08-24T10:04:25Z</time>
      </trkpt>
      <trkpt lat="44.45843" lon="2.51438">
        <ele>564.2</ele>
        <time>2014-08-24T10:04:29Z</time>
      </trkpt>
      <trkpt lat="44.45839" lon="2.51426">
        <ele>563.7</ele>
        <time>2014-08-24T10:04:32Z</time>
      </trkpt>
      <trkpt lat="44.45836" lon="2.51413">
        <ele>563.9</ele>
        <time>2014-08-24T10:04:35Z</time>
      </trkpt>
      <trkpt lat="44.45833" lon="2.51401">
        <ele>564.4</ele>
        <time>2014-08-24T10:04:38Z</time>
      </trkpt>
      <trkpt lat="44.45831" lon="2.51388">
        <ele>564.7</ele>
        <time>2014-08-24T10:04:41Z</time>
      </trkpt>
      <trkpt lat="44.45828" lon="2.51372">
        <ele>566.4</ele>
        <time>2014-08-24T10:04:45Z</time>
      </trkpt>
      <trkpt lat="44.45827" lon="2.51356">
        <ele>566.9</ele>
        <time>2014-08-24T10:04:49Z</time>
      </trkpt>
      <trkpt lat="44.45825" lon="2.51341">
        <ele>566.7</ele>
        <time>2014-08-24T10:04:53Z</time>
      </trkpt>
      <trkpt lat="44.45823" lon="2.51328">
        <ele>566.8</ele>
        <time>2014-08-24T10:04:56Z</time>
      </trkpt>
      <trkpt lat="44.45821" lon="2.51315">
        <ele>566.5</ele>
        <time>2014-08-24T10:04:59Z</time>
      </trkpt>
      <trkpt lat="44.45819" lon="2.51302">
        <ele>566.9</ele>
        <time>2014-08-24T10:05:02Z</time>
      </trkpt>
      <trkpt lat="44.45817" lon="2.51288">
        <ele>567.6</ele>
        <time>2014-08-24T10:05:05Z</time>
      </trkpt>
      <trkpt lat="44.45815" lon="2.51275">
        <ele>567.9</ele>
        <time>2014-08-24T10:05:08Z</time>
      </trkpt>
      <trkpt lat="44.4581" lon="2.5125">
        <ele>567.2</ele>
        <time>2014-08-24T10:05:14Z</time>
      </trkpt>
      <trkpt lat="44.45806" lon="2.51237">
        <ele>568.1</ele>
        <time>2014-08-24T10:05:17Z</time>
      </trkpt>
      <trkpt lat="44.45802" lon="2.51225">
        <ele>569.2</ele>
        <time>2014-08-24T10:05:20Z</time>
      </trkpt>
      <trkpt lat="44.45797" lon="2.51213">
        <ele>568.8</ele>
        <time>2014-08-24T10:05:23Z</time>
      </trkpt>
      <trkpt lat="44.45793" lon="2.512">
        <ele>569.5</ele>
        <time>2014-08-24T10:05:26Z</time>
      </trkpt>
      <trkpt lat="44.45788" lon="2.51189">
        <ele>569.5</ele>
        <time>2014-08-24T10:05:29Z</time>
      </trkpt>
      <trkpt lat="44.45783" lon="2.51175">
        <ele>569.7</ele>
        <time>2014-08-24T10:05:33Z</time>
      </trkpt>
      <trkpt lat="44.45778" lon="2.51163">
        <ele>569.8</ele>
        <time>2014-08-24T10:05:36Z</time>
      </trkpt>
      <trkpt lat="44.45773" lon="2.51148">
        <ele>570</ele>
        <time>2014-08-24T10:05:40Z</time>
      </trkpt>
      <trkpt lat="44.45768" lon="2.51134">
        <ele>569.4</ele>
        <time>2014-08-24T10:05:44Z</time>
      </trkpt>
      <trkpt lat="44.45764" lon="2.51121">
        <ele>569.1</ele>
        <time>2014-08-24T10:05:47Z</time>
      </trkpt>
      <trkpt lat="44.45758" lon="2.51107">
        <ele>568.8</ele>
        <time>2014-08-24T10:05:50Z</time>
      </trkpt>
      <trkpt lat="44.45753" lon="2.51092">
        <ele>568.6</ele>
        <time>2014-08-24T10:05:53Z</time>
      </trkpt>
      <trkpt lat="44.45748" lon="2.51081">
        <ele>568.5</ele>
        <time>2014-08-24T10:05:55Z</time>
      </trkpt>
      <trkpt lat="44.45743" lon="2.51069">
        <ele>568.4</ele>
        <time>2014-08-24T10:05:57Z</time>
      </trkpt>
      <trkpt lat="44.45738" lon="2.51057">
        <ele>568.3</ele>
        <time>2014-08-24T10:05:59Z</time>
      </trkpt>
      <trkpt lat="44.45733" lon="2.51043">
        <ele>567.8</ele>
        <time>2014-08-24T10:06:01Z</time>
      </trkpt>
      <trkpt lat="44.45727" lon="2.51029">
        <ele>567</ele>
        <time>2014-08-24T10:06:03Z</time>
      </trkpt>
      <trkpt lat="44.45721" lon="2.51014">
        <ele>566.3</ele>
        <time>2014-08-24T10:06:05Z</time>
      </trkpt>
      <trkpt lat="44.45713" lon="2.51">
        <ele>565.8</ele>
        <time>2014-08-24T10:06:07Z</time>
      </trkpt>
      <trkpt lat="44.45705" lon="2.50986">
        <ele>564.9</ele>
        <time>2014-08-24T10:06:09Z</time>
      </trkpt>
      <trkpt lat="44.45689" lon="2.50956">
        <ele>563</ele>
        <time>2014-08-24T10:06:13Z</time>
      </trkpt>
      <trkpt lat="44.45683" lon="2.50944">
        <ele>562.5</ele>
        <time>2014-08-24T10:06:15Z</time>
      </trkpt>
      <trkpt lat="44.45675" lon="2.50937">
        <ele>558.1</ele>
        <time>2014-08-24T10:06:25Z</time>
      </trkpt>
      <trkpt lat="44.45676" lon="2.50924">
        <ele>558.5</ele>
        <time>2014-08-24T10:07:39Z</time>
      </trkpt>
      <trkpt lat="44.4567" lon="2.50898">
        <ele>559</ele>
        <time>2014-08-24T10:08:11Z</time>
      </trkpt>
      <trkpt lat="44.45664" lon="2.50885">
        <ele>558.1</ele>
        <time>2014-08-24T10:08:14Z</time>
      </trkpt>
      <trkpt lat="44.45658" lon="2.50871">
        <ele>557.3</ele>
        <time>2014-08-24T10:08:17Z</time>
      </trkpt>
      <trkpt lat="44.45654" lon="2.5086">
        <ele>556.7</ele>
        <time>2014-08-24T10:08:19Z</time>
      </trkpt>
      <trkpt lat="44.4565" lon="2.50848">
        <ele>556.7</ele>
        <time>2014-08-24T10:08:21Z</time>
      </trkpt>
      <trkpt lat="44.45645" lon="2.50837">
        <ele>556.9</ele>
        <time>2014-08-24T10:08:23Z</time>
      </trkpt>
      <trkpt lat="44.45641" lon="2.50826">
        <ele>557.2</ele>
        <time>2014-08-24T10:08:25Z</time>
      </trkpt>
      <trkpt lat="44.45636" lon="2.50815">
        <ele>557.1</ele>
        <time>2014-08-24T10:08:27Z</time>
      </trkpt>
      <trkpt lat="44.45631" lon="2.50804">
        <ele>556.8</ele>
        <time>2014-08-24T10:08:29Z</time>
      </trkpt>
      <trkpt lat="44.45625" lon="2.50794">
        <ele>556.5</ele>
        <time>2014-08-24T10:08:31Z</time>
      </trkpt>
      <trkpt lat="44.45616" lon="2.5078">
        <ele>556</ele>
        <time>2014-08-24T10:08:34Z</time>
      </trkpt>
      <trkpt lat="44.45608" lon="2.50765">
        <ele>556.1</ele>
        <time>2014-08-24T10:08:37Z</time>
      </trkpt>
      <trkpt lat="44.45604" lon="2.50753">
        <ele>555.9</ele>
        <time>2014-08-24T10:08:39Z</time>
      </trkpt>
      <trkpt lat="44.456" lon="2.50736">
        <ele>555.5</ele>
        <time>2014-08-24T10:08:42Z</time>
      </trkpt>
      <trkpt lat="44.4559" lon="2.50707">
        <ele>557.7</ele>
        <time>2014-08-24T10:08:48Z</time>
      </trkpt>
      <trkpt lat="44.45586" lon="2.50695">
        <ele>557.3</ele>
        <time>2014-08-24T10:08:51Z</time>
      </trkpt>
      <trkpt lat="44.45577" lon="2.50687">
        <ele>558.1</ele>
        <time>2014-08-24T10:08:55Z</time>
      </trkpt>
      <trkpt lat="44.45565" lon="2.50692">
        <ele>558.7</ele>
        <time>2014-08-24T10:08:58Z</time>
      </trkpt>
      <trkpt lat="44.45555" lon="2.50695">
        <ele>557.3</ele>
        <time>2014-08-24T10:09:00Z</time>
      </trkpt>
      <trkpt lat="44.45545" lon="2.50699">
        <ele>556.5</ele>
        <time>2014-08-24T10:09:02Z</time>
      </trkpt>
      <trkpt lat="44.45532" lon="2.50702">
        <ele>556</ele>
        <time>2014-08-24T10:09:04Z</time>
      </trkpt>
      <trkpt lat="44.45519" lon="2.50703">
        <ele>555.3</ele>
        <time>2014-08-24T10:09:06Z</time>
      </trkpt>
      <trkpt lat="44.45504" lon="2.50706">
        <ele>554.7</ele>
        <time>2014-08-24T10:09:08Z</time>
      </trkpt>
      <trkpt lat="44.45488" lon="2.50711">
        <ele>554.1</ele>
        <time>2014-08-24T10:09:10Z</time>
      </trkpt>
      <trkpt lat="44.45473" lon="2.50716">
        <ele>552.9</ele>
        <time>2014-08-24T10:09:12Z</time>
      </trkpt>
      <trkpt lat="44.45458" lon="2.50722">
        <ele>552.2</ele>
        <time>2014-08-24T10:09:14Z</time>
      </trkpt>
      <trkpt lat="44.45444" lon="2.50727">
        <ele>550.8</ele>
        <time>2014-08-24T10:09:16Z</time>
      </trkpt>
      <trkpt lat="44.4543" lon="2.50731">
        <ele>550</ele>
        <time>2014-08-24T10:09:18Z</time>
      </trkpt>
      <trkpt lat="44.45417" lon="2.50733">
        <ele>549.4</ele>
        <time>2014-08-24T10:09:20Z</time>
      </trkpt>
      <trkpt lat="44.45406" lon="2.50737">
        <ele>548.5</ele>
        <time>2014-08-24T10:09:22Z</time>
      </trkpt>
      <trkpt lat="44.45394" lon="2.50739">
        <ele>547.9</ele>
        <time>2014-08-24T10:09:24Z</time>
      </trkpt>
      <trkpt lat="44.45383" lon="2.50742">
        <ele>547.5</ele>
        <time>2014-08-24T10:09:26Z</time>
      </trkpt>
      <trkpt lat="44.45373" lon="2.50744">
        <ele>547.9</ele>
        <time>2014-08-24T10:09:28Z</time>
      </trkpt>
      <trkpt lat="44.45364" lon="2.50744">
        <ele>548.1</ele>
        <time>2014-08-24T10:09:30Z</time>
      </trkpt>
      <trkpt lat="44.45354" lon="2.50741">
        <ele>548</ele>
        <time>2014-08-24T10:09:32Z</time>
      </trkpt>
      <trkpt lat="44.45341" lon="2.50738">
        <ele>548.6</ele>
        <time>2014-08-24T10:09:35Z</time>
      </trkpt>
      <trkpt lat="44.45328" lon="2.50736">
        <ele>549.6</ele>
        <time>2014-08-24T10:09:38Z</time>
      </trkpt>
      <trkpt lat="44.45317" lon="2.50734">
        <ele>550.3</ele>
        <time>2014-08-24T10:09:41Z</time>
      </trkpt>
      <trkpt lat="44.45305" lon="2.50732">
        <ele>550.2</ele>
        <time>2014-08-24T10:09:45Z</time>
      </trkpt>
      <trkpt lat="44.45286" lon="2.5073">
        <ele>552.3</ele>
        <time>2014-08-24T10:09:53Z</time>
      </trkpt>
      <trkpt lat="44.45276" lon="2.5073">
        <ele>553.8</ele>
        <time>2014-08-24T10:09:58Z</time>
      </trkpt>
      <trkpt lat="44.45266" lon="2.5073">
        <ele>554.6</ele>
        <time>2014-08-24T10:10:03Z</time>
      </trkpt>
      <trkpt lat="44.45256" lon="2.50729">
        <ele>555.4</ele>
        <time>2014-08-24T10:10:08Z</time>
      </trkpt>
      <trkpt lat="44.45245" lon="2.50728">
        <ele>556.5</ele>
        <time>2014-08-24T10:10:13Z</time>
      </trkpt>
      <trkpt lat="44.45235" lon="2.50728">
        <ele>557.1</ele>
        <time>2014-08-24T10:10:18Z</time>
      </trkpt>
      <trkpt lat="44.45226" lon="2.50725">
        <ele>558</ele>
        <time>2014-08-24T10:10:23Z</time>
      </trkpt>
      <trkpt lat="44.45219" lon="2.50716">
        <ele>558.9</ele>
        <time>2014-08-24T10:10:27Z</time>
      </trkpt>
      <trkpt lat="44.45213" lon="2.50703">
        <ele>559.9</ele>
        <time>2014-08-24T10:10:32Z</time>
      </trkpt>
      <trkpt lat="44.45208" lon="2.50693">
        <ele>559.7</ele>
        <time>2014-08-24T10:10:36Z</time>
      </trkpt>
      <trkpt lat="44.45201" lon="2.50683">
        <ele>559.9</ele>
        <time>2014-08-24T10:10:40Z</time>
      </trkpt>
      <trkpt lat="44.45195" lon="2.50673">
        <ele>559.9</ele>
        <time>2014-08-24T10:10:44Z</time>
      </trkpt>
      <trkpt lat="44.45188" lon="2.50664">
        <ele>561</ele>
        <time>2014-08-24T10:10:48Z</time>
      </trkpt>
      <trkpt lat="44.45174" lon="2.50643">
        <ele>562.2</ele>
        <time>2014-08-24T10:10:56Z</time>
      </trkpt>
      <trkpt lat="44.45168" lon="2.50632">
        <ele>563.1</ele>
        <time>2014-08-24T10:11:00Z</time>
      </trkpt>
      <trkpt lat="44.45163" lon="2.5062">
        <ele>563.6</ele>
        <time>2014-08-24T10:11:05Z</time>
      </trkpt>
      <trkpt lat="44.45154" lon="2.50625">
        <ele>562.4</ele>
        <time>2014-08-24T10:12:33Z</time>
      </trkpt>
      <trkpt lat="44.45145" lon="2.50647">
        <ele>563.9</ele>
        <time>2014-08-24T10:13:08Z</time>
      </trkpt>
      <trkpt lat="44.45141" lon="2.50662">
        <ele>564.9</ele>
        <time>2014-08-24T10:13:12Z</time>
      </trkpt>
      <trkpt lat="44.45138" lon="2.50675">
        <ele>565.2</ele>
        <time>2014-08-24T10:13:15Z</time>
      </trkpt>
      <trkpt lat="44.45136" lon="2.50687">
        <ele>565.7</ele>
        <time>2014-08-24T10:13:18Z</time>
      </trkpt>
      <trkpt lat="44.45133" lon="2.50702">
        <ele>565.6</ele>
        <time>2014-08-24T10:13:21Z</time>
      </trkpt>
      <trkpt lat="44.4513" lon="2.50716">
        <ele>565.2</ele>
        <time>2014-08-24T10:13:24Z</time>
      </trkpt>
      <trkpt lat="44.45128" lon="2.50729">
        <ele>565.7</ele>
        <time>2014-08-24T10:13:27Z</time>
      </trkpt>
      <trkpt lat="44.45125" lon="2.50742">
        <ele>565.7</ele>
        <time>2014-08-24T10:13:31Z</time>
      </trkpt>
      <trkpt lat="44.45121" lon="2.50757">
        <ele>565.9</ele>
        <time>2014-08-24T10:13:35Z</time>
      </trkpt>
      <trkpt lat="44.45112" lon="2.50781">
        <ele>564.4</ele>
        <time>2014-08-24T10:14:49Z</time>
      </trkpt>
      <trkpt lat="44.45097" lon="2.50801">
        <ele>565.2</ele>
        <time>2014-08-24T10:15:05Z</time>
      </trkpt>
      <trkpt lat="44.45091" lon="2.5081">
        <ele>563.4</ele>
        <time>2014-08-24T10:15:48Z</time>
      </trkpt>
      <trkpt lat="44.45083" lon="2.50821">
        <ele>564</ele>
        <time>2014-08-24T10:15:54Z</time>
      </trkpt>
      <trkpt lat="44.45066" lon="2.50827">
        <ele>563.4</ele>
        <time>2014-08-24T10:15:59Z</time>
      </trkpt>
      <trkpt lat="44.45056" lon="2.50827">
        <ele>563</ele>
        <time>2014-08-24T10:16:01Z</time>
      </trkpt>
      <trkpt lat="44.45047" lon="2.50826">
        <ele>562.9</ele>
        <time>2014-08-24T10:16:03Z</time>
      </trkpt>
      <trkpt lat="44.45037" lon="2.50824">
        <ele>562.9</ele>
        <time>2014-08-24T10:16:05Z</time>
      </trkpt>
      <trkpt lat="44.45029" lon="2.50822">
        <ele>562.5</ele>
        <time>2014-08-24T10:16:07Z</time>
      </trkpt>
      <trkpt lat="44.45016" lon="2.50818">
        <ele>561.7</ele>
        <time>2014-08-24T10:16:10Z</time>
      </trkpt>
      <trkpt lat="44.45004" lon="2.50815">
        <ele>561.2</ele>
        <time>2014-08-24T10:16:13Z</time>
      </trkpt>
      <trkpt lat="44.44993" lon="2.50815">
        <ele>561.8</ele>
        <time>2014-08-24T10:16:16Z</time>
      </trkpt>
      <trkpt lat="44.44981" lon="2.50815">
        <ele>562.9</ele>
        <time>2014-08-24T10:16:19Z</time>
      </trkpt>
      <trkpt lat="44.44971" lon="2.50816">
        <ele>563</ele>
        <time>2014-08-24T10:16:22Z</time>
      </trkpt>
      <trkpt lat="44.44961" lon="2.50816">
        <ele>563.2</ele>
        <time>2014-08-24T10:16:26Z</time>
      </trkpt>
      <trkpt lat="44.44951" lon="2.50814">
        <ele>563.8</ele>
        <time>2014-08-24T10:17:11Z</time>
      </trkpt>
      <trkpt lat="44.44931" lon="2.50809">
        <ele>563.4</ele>
        <time>2014-08-24T10:17:20Z</time>
      </trkpt>
      <trkpt lat="44.44921" lon="2.50807">
        <ele>563.2</ele>
        <time>2014-08-24T10:17:23Z</time>
      </trkpt>
      <trkpt lat="44.4491" lon="2.50804">
        <ele>562.8</ele>
        <time>2014-08-24T10:17:26Z</time>
      </trkpt>
      <trkpt lat="44.44897" lon="2.508">
        <ele>562.4</ele>
        <time>2014-08-24T10:17:29Z</time>
      </trkpt>
      <trkpt lat="44.44888" lon="2.50798">
        <ele>562.6</ele>
        <time>2014-08-24T10:17:31Z</time>
      </trkpt>
      <trkpt lat="44.44878" lon="2.50795">
        <ele>562.3</ele>
        <time>2014-08-24T10:17:33Z</time>
      </trkpt>
      <trkpt lat="44.44867" lon="2.50792">
        <ele>561.8</ele>
        <time>2014-08-24T10:17:35Z</time>
      </trkpt>
      <trkpt lat="44.44855" lon="2.50789">
        <ele>561</ele>
        <time>2014-08-24T10:17:37Z</time>
      </trkpt>
      <trkpt lat="44.44843" lon="2.50787">
        <ele>560.3</ele>
        <time>2014-08-24T10:17:39Z</time>
      </trkpt>
      <trkpt lat="44.4483" lon="2.50783">
        <ele>559.8</ele>
        <time>2014-08-24T10:17:41Z</time>
      </trkpt>
      <trkpt lat="44.44817" lon="2.5078">
        <ele>559.1</ele>
        <time>2014-08-24T10:17:43Z</time>
      </trkpt>
      <trkpt lat="44.44803" lon="2.50776">
        <ele>558.5</ele>
        <time>2014-08-24T10:17:45Z</time>
      </trkpt>
      <trkpt lat="44.4479" lon="2.50773">
        <ele>558.3</ele>
        <time>2014-08-24T10:17:47Z</time>
      </trkpt>
      <trkpt lat="44.44777" lon="2.50771">
        <ele>557.8</ele>
        <time>2014-08-24T10:17:49Z</time>
      </trkpt>
      <trkpt lat="44.44765" lon="2.50768">
        <ele>557.2</ele>
        <time>2014-08-24T10:17:51Z</time>
      </trkpt>
      <trkpt lat="44.44755" lon="2.50766">
        <ele>556.9</ele>
        <time>2014-08-24T10:17:53Z</time>
      </trkpt>
      <trkpt lat="44.44745" lon="2.5077">
        <ele>556.3</ele>
        <time>2014-08-24T10:17:56Z</time>
      </trkpt>
      <trkpt lat="44.44738" lon="2.50779">
        <ele>556.3</ele>
        <time>2014-08-24T10:17:59Z</time>
      </trkpt>
      <trkpt lat="44.44736" lon="2.50792">
        <ele>556.6</ele>
        <time>2014-08-24T10:18:02Z</time>
      </trkpt>
      <trkpt lat="44.44734" lon="2.50806">
        <ele>556.7</ele>
        <time>2014-08-24T10:18:05Z</time>
      </trkpt>
      <trkpt lat="44.44731" lon="2.50818">
        <ele>557</ele>
        <time>2014-08-24T10:18:12Z</time>
      </trkpt>
      <trkpt lat="44.44728" lon="2.5083">
        <ele>557.3</ele>
        <time>2014-08-24T10:18:24Z</time>
      </trkpt>
      <trkpt lat="44.44722" lon="2.508">
        <ele>556.9</ele>
        <time>2014-08-24T10:18:44Z</time>
      </trkpt>
      <trkpt lat="44.4472" lon="2.50784">
        <ele>556.1</ele>
        <time>2014-08-24T10:18:47Z</time>
      </trkpt>
      <trkpt lat="44.44717" lon="2.50766">
        <ele>555.7</ele>
        <time>2014-08-24T10:18:50Z</time>
      </trkpt>
      <trkpt lat="44.44715" lon="2.50752">
        <ele>555.5</ele>
        <time>2014-08-24T10:18:52Z</time>
      </trkpt>
      <trkpt lat="44.44714" lon="2.50739">
        <ele>555.6</ele>
        <time>2014-08-24T10:18:54Z</time>
      </trkpt>
      <trkpt lat="44.44713" lon="2.50722">
        <ele>555.6</ele>
        <time>2014-08-24T10:18:57Z</time>
      </trkpt>
      <trkpt lat="44.44712" lon="2.50709">
        <ele>554.3</ele>
        <time>2014-08-24T10:19:00Z</time>
      </trkpt>
      <trkpt lat="44.44709" lon="2.50694">
        <ele>554.3</ele>
        <time>2014-08-24T10:19:03Z</time>
      </trkpt>
      <trkpt lat="44.44706" lon="2.50679">
        <ele>554</ele>
        <time>2014-08-24T10:19:06Z</time>
      </trkpt>
      <trkpt lat="44.44703" lon="2.50666">
        <ele>552.9</ele>
        <time>2014-08-24T10:19:09Z</time>
      </trkpt>
      <trkpt lat="44.447" lon="2.50653">
        <ele>552.3</ele>
        <time>2014-08-24T10:19:12Z</time>
      </trkpt>
      <trkpt lat="44.44698" lon="2.50639">
        <ele>551.9</ele>
        <time>2014-08-24T10:19:15Z</time>
      </trkpt>
      <trkpt lat="44.44696" lon="2.50624">
        <ele>551.5</ele>
        <time>2014-08-24T10:19:18Z</time>
      </trkpt>
      <trkpt lat="44.44692" lon="2.50609">
        <ele>551.4</ele>
        <time>2014-08-24T10:19:22Z</time>
      </trkpt>
      <trkpt lat="44.44688" lon="2.50593">
        <ele>551.1</ele>
        <time>2014-08-24T10:19:26Z</time>
      </trkpt>
      <trkpt lat="44.4468" lon="2.50567">
        <ele>549.3</ele>
        <time>2014-08-24T10:19:32Z</time>
      </trkpt>
      <trkpt lat="44.44676" lon="2.50554">
        <ele>548.2</ele>
        <time>2014-08-24T10:19:36Z</time>
      </trkpt>
      <trkpt lat="44.4467" lon="2.50543">
        <ele>547.4</ele>
        <time>2014-08-24T10:19:39Z</time>
      </trkpt>
      <trkpt lat="44.44666" lon="2.50532">
        <ele>546.8</ele>
        <time>2014-08-24T10:19:42Z</time>
      </trkpt>
      <trkpt lat="44.4466" lon="2.50519">
        <ele>546.5</ele>
        <time>2014-08-24T10:19:46Z</time>
      </trkpt>
      <trkpt lat="44.44656" lon="2.50503">
        <ele>545.5</ele>
        <time>2014-08-24T10:19:50Z</time>
      </trkpt>
      <trkpt lat="44.44652" lon="2.50492">
        <ele>545.4</ele>
        <time>2014-08-24T10:19:55Z</time>
      </trkpt>
      <trkpt lat="44.44644" lon="2.50483">
        <ele>544.5</ele>
        <time>2014-08-24T10:20:00Z</time>
      </trkpt>
      <trkpt lat="44.44633" lon="2.50475">
        <ele>543.3</ele>
        <time>2014-08-24T10:20:04Z</time>
      </trkpt>
      <trkpt lat="44.44624" lon="2.50466">
        <ele>542.1</ele>
        <time>2014-08-24T10:20:07Z</time>
      </trkpt>
      <trkpt lat="44.4462" lon="2.50454">
        <ele>541.1</ele>
        <time>2014-08-24T10:20:10Z</time>
      </trkpt>
      <trkpt lat="44.44615" lon="2.50443">
        <ele>540.9</ele>
        <time>2014-08-24T10:20:15Z</time>
      </trkpt>
      <trkpt lat="44.44608" lon="2.50435">
        <ele>538.9</ele>
        <time>2014-08-24T10:20:29Z</time>
      </trkpt>
      <trkpt lat="44.44595" lon="2.5041">
        <ele>538.3</ele>
        <time>2014-08-24T10:20:48Z</time>
      </trkpt>
      <trkpt lat="44.4459" lon="2.50397">
        <ele>537.6</ele>
        <time>2014-08-24T10:20:51Z</time>
      </trkpt>
      <trkpt lat="44.44582" lon="2.50384">
        <ele>536.8</ele>
        <time>2014-08-24T10:20:54Z</time>
      </trkpt>
      <trkpt lat="44.44577" lon="2.50371">
        <ele>536.4</ele>
        <time>2014-08-24T10:20:56Z</time>
      </trkpt>
      <trkpt lat="44.44574" lon="2.50359">
        <ele>536.2</ele>
        <time>2014-08-24T10:20:58Z</time>
      </trkpt>
      <trkpt lat="44.44572" lon="2.50345">
        <ele>536.1</ele>
        <time>2014-08-24T10:21:00Z</time>
      </trkpt>
      <trkpt lat="44.4457" lon="2.50331">
        <ele>535</ele>
        <time>2014-08-24T10:21:02Z</time>
      </trkpt>
      <trkpt lat="44.44565" lon="2.50314">
        <ele>533.7</ele>
        <time>2014-08-24T10:21:04Z</time>
      </trkpt>
      <trkpt lat="44.4456" lon="2.50301">
        <ele>532.5</ele>
        <time>2014-08-24T10:21:06Z</time>
      </trkpt>
      <trkpt lat="44.44556" lon="2.50286">
        <ele>530.1</ele>
        <time>2014-08-24T10:21:09Z</time>
      </trkpt>
      <trkpt lat="44.44556" lon="2.50272">
        <ele>528.7</ele>
        <time>2014-08-24T10:21:11Z</time>
      </trkpt>
      <trkpt lat="44.44557" lon="2.50257">
        <ele>527.3</ele>
        <time>2014-08-24T10:21:13Z</time>
      </trkpt>
      <trkpt lat="44.44555" lon="2.50241">
        <ele>525.5</ele>
        <time>2014-08-24T10:21:16Z</time>
      </trkpt>
      <trkpt lat="44.44558" lon="2.50226">
        <ele>521.8</ele>
        <time>2014-08-24T10:21:20Z</time>
      </trkpt>
      <trkpt lat="44.44556" lon="2.50213">
        <ele>519.5</ele>
        <time>2014-08-24T10:21:23Z</time>
      </trkpt>
      <trkpt lat="44.44556" lon="2.50199">
        <ele>516.4</ele>
        <time>2014-08-24T10:21:26Z</time>
      </trkpt>
      <trkpt lat="44.44555" lon="2.50183">
        <ele>513</ele>
        <time>2014-08-24T10:21:29Z</time>
      </trkpt>
      <trkpt lat="44.44555" lon="2.50171">
        <ele>510.8</ele>
        <time>2014-08-24T10:21:32Z</time>
      </trkpt>
      <trkpt lat="44.4456" lon="2.50142">
        <ele>502.9</ele>
        <time>2014-08-24T10:21:38Z</time>
      </trkpt>
      <trkpt lat="44.44566" lon="2.5013">
        <ele>499.6</ele>
        <time>2014-08-24T10:21:41Z</time>
      </trkpt>
      <trkpt lat="44.44584" lon="2.50052">
        <ele>492.9</ele>
        <time>2014-08-24T10:23:01Z</time>
      </trkpt>
      <trkpt lat="44.44581" lon="2.50024">
        <ele>475.2</ele>
        <time>2014-08-24T10:23:05Z</time>
      </trkpt>
      <trkpt lat="44.44583" lon="2.50007">
        <ele>466.3</ele>
        <time>2014-08-24T10:23:08Z</time>
      </trkpt>
      <trkpt lat="44.44589" lon="2.49992">
        <ele>460.6</ele>
        <time>2014-08-24T10:23:11Z</time>
      </trkpt>
      <trkpt lat="44.44591" lon="2.49979">
        <ele>450.7</ele>
        <time>2014-08-24T10:23:20Z</time>
      </trkpt>
      <trkpt lat="44.44601" lon="2.49982">
        <ele>448.5</ele>
        <time>2014-08-24T10:23:54Z</time>
      </trkpt>
      <trkpt lat="44.44607" lon="2.49992">
        <ele>448.8</ele>
        <time>2014-08-24T10:23:58Z</time>
      </trkpt>
      <trkpt lat="44.44615" lon="2.50002">
        <ele>448.6</ele>
        <time>2014-08-24T10:24:01Z</time>
      </trkpt>
      <trkpt lat="44.44621" lon="2.50015">
        <ele>448.3</ele>
        <time>2014-08-24T10:24:04Z</time>
      </trkpt>
      <trkpt lat="44.44639" lon="2.5004">
        <ele>447.2</ele>
        <time>2014-08-24T10:24:10Z</time>
      </trkpt>
      <trkpt lat="44.4465" lon="2.50048">
        <ele>447.1</ele>
        <time>2014-08-24T10:24:12Z</time>
      </trkpt>
      <trkpt lat="44.44663" lon="2.50054">
        <ele>447</ele>
        <time>2014-08-24T10:24:14Z</time>
      </trkpt>
      <trkpt lat="44.44676" lon="2.50058">
        <ele>446.6</ele>
        <time>2014-08-24T10:24:16Z</time>
      </trkpt>
      <trkpt lat="44.44688" lon="2.50063">
        <ele>446</ele>
        <time>2014-08-24T10:24:18Z</time>
      </trkpt>
      <trkpt lat="44.447" lon="2.5007">
        <ele>445.6</ele>
        <time>2014-08-24T10:24:20Z</time>
      </trkpt>
      <trkpt lat="44.44712" lon="2.50078">
        <ele>445.3</ele>
        <time>2014-08-24T10:24:22Z</time>
      </trkpt>
      <trkpt lat="44.44724" lon="2.50086">
        <ele>444.9</ele>
        <time>2014-08-24T10:24:24Z</time>
      </trkpt>
      <trkpt lat="44.44735" lon="2.50094">
        <ele>444</ele>
        <time>2014-08-24T10:24:26Z</time>
      </trkpt>
      <trkpt lat="44.44756" lon="2.50111">
        <ele>443.3</ele>
        <time>2014-08-24T10:24:30Z</time>
      </trkpt>
      <trkpt lat="44.44767" lon="2.5012">
        <ele>442.8</ele>
        <time>2014-08-24T10:24:32Z</time>
      </trkpt>
      <trkpt lat="44.44778" lon="2.50129">
        <ele>442.5</ele>
        <time>2014-08-24T10:24:34Z</time>
      </trkpt>
      <trkpt lat="44.44788" lon="2.50137">
        <ele>442.5</ele>
        <time>2014-08-24T10:24:36Z</time>
      </trkpt>
      <trkpt lat="44.44816" lon="2.5016">
        <ele>442.5</ele>
        <time>2014-08-24T10:24:42Z</time>
      </trkpt>
      <trkpt lat="44.44826" lon="2.50166">
        <ele>442.4</ele>
        <time>2014-08-24T10:24:44Z</time>
      </trkpt>
      <trkpt lat="44.44836" lon="2.50171">
        <ele>442.4</ele>
        <time>2014-08-24T10:24:46Z</time>
      </trkpt>
      <trkpt lat="44.44847" lon="2.50175">
        <ele>442.4</ele>
        <time>2014-08-24T10:24:48Z</time>
      </trkpt>
      <trkpt lat="44.44857" lon="2.50177">
        <ele>442.4</ele>
        <time>2014-08-24T10:24:50Z</time>
      </trkpt>
      <trkpt lat="44.44868" lon="2.5018">
        <ele>442.6</ele>
        <time>2014-08-24T10:24:52Z</time>
      </trkpt>
      <trkpt lat="44.44879" lon="2.50182">
        <ele>443</ele>
        <time>2014-08-24T10:24:54Z</time>
      </trkpt>
      <trkpt lat="44.44889" lon="2.50184">
        <ele>443.4</ele>
        <time>2014-08-24T10:24:56Z</time>
      </trkpt>
      <trkpt lat="44.449" lon="2.50187">
        <ele>444.3</ele>
        <time>2014-08-24T10:24:58Z</time>
      </trkpt>
      <trkpt lat="44.44911" lon="2.5019">
        <ele>444.7</ele>
        <time>2014-08-24T10:25:00Z</time>
      </trkpt>
      <trkpt lat="44.44921" lon="2.50193">
        <ele>444.8</ele>
        <time>2014-08-24T10:25:02Z</time>
      </trkpt>
      <trkpt lat="44.44932" lon="2.50195">
        <ele>444.7</ele>
        <time>2014-08-24T10:25:04Z</time>
      </trkpt>
      <trkpt lat="44.44942" lon="2.50198">
        <ele>444.7</ele>
        <time>2014-08-24T10:25:06Z</time>
      </trkpt>
      <trkpt lat="44.44963" lon="2.50197">
        <ele>445.3</ele>
        <time>2014-08-24T10:25:10Z</time>
      </trkpt>
      <trkpt lat="44.44972" lon="2.50192">
        <ele>446.2</ele>
        <time>2014-08-24T10:25:12Z</time>
      </trkpt>
      <trkpt lat="44.44979" lon="2.50183">
        <ele>446.6</ele>
        <time>2014-08-24T10:25:14Z</time>
      </trkpt>
      <trkpt lat="44.44983" lon="2.50172">
        <ele>446.9</ele>
        <time>2014-08-24T10:25:16Z</time>
      </trkpt>
      <trkpt lat="44.44987" lon="2.50156">
        <ele>447.6</ele>
        <time>2014-08-24T10:25:19Z</time>
      </trkpt>
      <trkpt lat="44.4499" lon="2.50143">
        <ele>448.4</ele>
        <time>2014-08-24T10:25:22Z</time>
      </trkpt>
      <trkpt lat="44.44993" lon="2.50129">
        <ele>449</ele>
        <time>2014-08-24T10:25:27Z</time>
      </trkpt>
      <trkpt lat="44.44995" lon="2.50117">
        <ele>449.8</ele>
        <time>2014-08-24T10:25:32Z</time>
      </trkpt>
      <trkpt lat="44.44997" lon="2.50102">
        <ele>450.2</ele>
        <time>2014-08-24T10:25:37Z</time>
      </trkpt>
      <trkpt lat="44.44999" lon="2.50089">
        <ele>451</ele>
        <time>2014-08-24T10:25:41Z</time>
      </trkpt>
      <trkpt lat="44.45001" lon="2.50075">
        <ele>452.4</ele>
        <time>2014-08-24T10:25:45Z</time>
      </trkpt>
      <trkpt lat="44.45003" lon="2.5006">
        <ele>451.6</ele>
        <time>2014-08-24T10:25:49Z</time>
      </trkpt>
      <trkpt lat="44.45005" lon="2.50044">
        <ele>452.4</ele>
        <time>2014-08-24T10:25:53Z</time>
      </trkpt>
      <trkpt lat="44.45006" lon="2.50028">
        <ele>453.6</ele>
        <time>2014-08-24T10:25:57Z</time>
      </trkpt>
      <trkpt lat="44.45007" lon="2.50014">
        <ele>453.7</ele>
        <time>2014-08-24T10:26:00Z</time>
      </trkpt>
      <trkpt lat="44.45009" lon="2.49998">
        <ele>453.5</ele>
        <time>2014-08-24T10:26:03Z</time>
      </trkpt>
      <trkpt lat="44.4501" lon="2.49982">
        <ele>452.8</ele>
        <time>2014-08-24T10:26:06Z</time>
      </trkpt>
      <trkpt lat="44.45012" lon="2.49967">
        <ele>452.2</ele>
        <time>2014-08-24T10:26:09Z</time>
      </trkpt>
      <trkpt lat="44.45015" lon="2.49936">
        <ele>452.5</ele>
        <time>2014-08-24T10:26:15Z</time>
      </trkpt>
      <trkpt lat="44.45014" lon="2.49922">
        <ele>451.8</ele>
        <time>2014-08-24T10:26:18Z</time>
      </trkpt>
      <trkpt lat="44.45013" lon="2.49906">
        <ele>451.6</ele>
        <time>2014-08-24T10:26:21Z</time>
      </trkpt>
      <trkpt lat="44.45011" lon="2.4989">
        <ele>452.2</ele>
        <time>2014-08-24T10:26:24Z</time>
      </trkpt>
      <trkpt lat="44.45012" lon="2.49874">
        <ele>451.9</ele>
        <time>2014-08-24T10:26:27Z</time>
      </trkpt>
      <trkpt lat="44.45012" lon="2.49857">
        <ele>451</ele>
        <time>2014-08-24T10:26:30Z</time>
      </trkpt>
      <trkpt lat="44.45013" lon="2.49844">
        <ele>451</ele>
        <time>2014-08-24T10:26:32Z</time>
      </trkpt>
      <trkpt lat="44.45014" lon="2.4983">
        <ele>450.1</ele>
        <time>2014-08-24T10:26:34Z</time>
      </trkpt>
      <trkpt lat="44.45015" lon="2.49815">
        <ele>449.3</ele>
        <time>2014-08-24T10:26:36Z</time>
      </trkpt>
      <trkpt lat="44.45016" lon="2.49799">
        <ele>448.6</ele>
        <time>2014-08-24T10:26:38Z</time>
      </trkpt>
      <trkpt lat="44.45017" lon="2.49783">
        <ele>448.1</ele>
        <time>2014-08-24T10:26:40Z</time>
      </trkpt>
      <trkpt lat="44.45018" lon="2.49768">
        <ele>448.1</ele>
        <time>2014-08-24T10:26:42Z</time>
      </trkpt>
      <trkpt lat="44.45019" lon="2.49753">
        <ele>448.1</ele>
        <time>2014-08-24T10:26:44Z</time>
      </trkpt>
      <trkpt lat="44.45019" lon="2.49737">
        <ele>447.4</ele>
        <time>2014-08-24T10:26:46Z</time>
      </trkpt>
      <trkpt lat="44.45018" lon="2.49722">
        <ele>446.5</ele>
        <time>2014-08-24T10:26:48Z</time>
      </trkpt>
      <trkpt lat="44.45017" lon="2.49704">
        <ele>446.1</ele>
        <time>2014-08-24T10:26:50Z</time>
      </trkpt>
      <trkpt lat="44.45016" lon="2.49688">
        <ele>445.6</ele>
        <time>2014-08-24T10:26:52Z</time>
      </trkpt>
      <trkpt lat="44.45016" lon="2.49673">
        <ele>445.2</ele>
        <time>2014-08-24T10:26:54Z</time>
      </trkpt>
      <trkpt lat="44.45016" lon="2.49658">
        <ele>446.2</ele>
        <time>2014-08-24T10:26:56Z</time>
      </trkpt>
      <trkpt lat="44.45016" lon="2.49645">
        <ele>446.7</ele>
        <time>2014-08-24T10:26:58Z</time>
      </trkpt>
      <trkpt lat="44.45015" lon="2.49627">
        <ele>447.7</ele>
        <time>2014-08-24T10:27:01Z</time>
      </trkpt>
      <trkpt lat="44.45016" lon="2.49609">
        <ele>446.7</ele>
        <time>2014-08-24T10:27:04Z</time>
      </trkpt>
      <trkpt lat="44.45017" lon="2.49593">
        <ele>447.7</ele>
        <time>2014-08-24T10:27:07Z</time>
      </trkpt>
      <trkpt lat="44.45017" lon="2.49577">
        <ele>448</ele>
        <time>2014-08-24T10:27:10Z</time>
      </trkpt>
      <trkpt lat="44.45017" lon="2.49562">
        <ele>448.3</ele>
        <time>2014-08-24T10:27:13Z</time>
      </trkpt>
      <trkpt lat="44.45018" lon="2.49535">
        <ele>450.5</ele>
        <time>2014-08-24T10:27:19Z</time>
      </trkpt>
      <trkpt lat="44.45013" lon="2.49521">
        <ele>450.9</ele>
        <time>2014-08-24T10:27:23Z</time>
      </trkpt>
      <trkpt lat="44.45009" lon="2.49509">
        <ele>452.7</ele>
        <time>2014-08-24T10:27:26Z</time>
      </trkpt>
      <trkpt lat="44.4501" lon="2.49482">
        <ele>453.1</ele>
        <time>2014-08-24T10:27:35Z</time>
      </trkpt>
      <trkpt lat="44.45008" lon="2.49468">
        <ele>456.3</ele>
        <time>2014-08-24T10:27:41Z</time>
      </trkpt>
      <trkpt lat="44.45006" lon="2.49455">
        <ele>458.2</ele>
        <time>2014-08-24T10:27:47Z</time>
      </trkpt>
      <trkpt lat="44.44997" lon="2.49446">
        <ele>459.9</ele>
        <time>2014-08-24T10:27:54Z</time>
      </trkpt>
      <trkpt lat="44.4499" lon="2.49438">
        <ele>461.1</ele>
        <time>2014-08-24T10:28:02Z</time>
      </trkpt>
      <trkpt lat="44.4498" lon="2.49433">
        <ele>462.2</ele>
        <time>2014-08-24T10:28:09Z</time>
      </trkpt>
      <trkpt lat="44.44968" lon="2.49432">
        <ele>463.8</ele>
        <time>2014-08-24T10:28:14Z</time>
      </trkpt>
      <trkpt lat="44.4496" lon="2.49428">
        <ele>464.5</ele>
        <time>2014-08-24T10:28:19Z</time>
      </trkpt>
      <trkpt lat="44.44975" lon="2.49416">
        <ele>467</ele>
        <time>2014-08-24T10:28:38Z</time>
      </trkpt>
      <trkpt lat="44.44985" lon="2.49411">
        <ele>468.2</ele>
        <time>2014-08-24T10:28:45Z</time>
      </trkpt>
      <trkpt lat="44.44994" lon="2.49409">
        <ele>470.4</ele>
        <time>2014-08-24T10:28:51Z</time>
      </trkpt>
      <trkpt lat="44.45003" lon="2.49414">
        <ele>471.6</ele>
        <time>2014-08-24T10:28:58Z</time>
      </trkpt>
      <trkpt lat="44.45012" lon="2.49421">
        <ele>471.3</ele>
        <time>2014-08-24T10:29:05Z</time>
      </trkpt>
      <trkpt lat="44.45018" lon="2.49433">
        <ele>472.8</ele>
        <time>2014-08-24T10:29:11Z</time>
      </trkpt>
      <trkpt lat="44.45026" lon="2.4944">
        <ele>473.9</ele>
        <time>2014-08-24T10:29:18Z</time>
      </trkpt>
      <trkpt lat="44.45025" lon="2.49426">
        <ele>475</ele>
        <time>2014-08-24T10:29:25Z</time>
      </trkpt>
      <trkpt lat="44.45011" lon="2.49405">
        <ele>477.8</ele>
        <time>2014-08-24T10:29:37Z</time>
      </trkpt>
      <trkpt lat="44.45004" lon="2.49394">
        <ele>479</ele>
        <time>2014-08-24T10:29:42Z</time>
      </trkpt>
      <trkpt lat="44.44999" lon="2.49383">
        <ele>479.6</ele>
        <time>2014-08-24T10:29:47Z</time>
      </trkpt>
      <trkpt lat="44.44994" lon="2.49371">
        <ele>480.6</ele>
        <time>2014-08-24T10:29:52Z</time>
      </trkpt>
      <trkpt lat="44.44993" lon="2.49358">
        <ele>482.6</ele>
        <time>2014-08-24T10:29:57Z</time>
      </trkpt>
      <trkpt lat="44.44995" lon="2.49345">
        <ele>483.2</ele>
        <time>2014-08-24T10:30:02Z</time>
      </trkpt>
      <trkpt lat="44.44998" lon="2.49331">
        <ele>483.2</ele>
        <time>2014-08-24T10:30:07Z</time>
      </trkpt>
      <trkpt lat="44.45001" lon="2.49318">
        <ele>484.1</ele>
        <time>2014-08-24T10:30:12Z</time>
      </trkpt>
      <trkpt lat="44.45007" lon="2.49307">
        <ele>485.2</ele>
        <time>2014-08-24T10:30:18Z</time>
      </trkpt>
      <trkpt lat="44.45014" lon="2.49316">
        <ele>486.5</ele>
        <time>2014-08-24T10:30:25Z</time>
      </trkpt>
      <trkpt lat="44.45015" lon="2.49329">
        <ele>487.3</ele>
        <time>2014-08-24T10:30:30Z</time>
      </trkpt>
      <trkpt lat="44.45014" lon="2.49356">
        <ele>490.5</ele>
        <time>2014-08-24T10:30:43Z</time>
      </trkpt>
      <trkpt lat="44.4502" lon="2.49367">
        <ele>491.1</ele>
        <time>2014-08-24T10:31:49Z</time>
      </trkpt>
      <trkpt lat="44.45029" lon="2.49391">
        <ele>492.2</ele>
        <time>2014-08-24T10:31:59Z</time>
      </trkpt>
      <trkpt lat="44.45035" lon="2.49404">
        <ele>492.2</ele>
        <time>2014-08-24T10:32:04Z</time>
      </trkpt>
      <trkpt lat="44.45043" lon="2.49411">
        <ele>492.5</ele>
        <time>2014-08-24T10:32:08Z</time>
      </trkpt>
      <trkpt lat="44.45052" lon="2.49417">
        <ele>493.1</ele>
        <time>2014-08-24T10:32:12Z</time>
      </trkpt>
      <trkpt lat="44.4506" lon="2.49428">
        <ele>493.7</ele>
        <time>2014-08-24T10:32:16Z</time>
      </trkpt>
      <trkpt lat="44.45065" lon="2.49441">
        <ele>495.1</ele>
        <time>2014-08-24T10:32:20Z</time>
      </trkpt>
      <trkpt lat="44.45069" lon="2.49455">
        <ele>495.3</ele>
        <time>2014-08-24T10:32:24Z</time>
      </trkpt>
      <trkpt lat="44.4507" lon="2.4947">
        <ele>496.3</ele>
        <time>2014-08-24T10:32:29Z</time>
      </trkpt>
      <trkpt lat="44.4507" lon="2.49483">
        <ele>498.2</ele>
        <time>2014-08-24T10:32:33Z</time>
      </trkpt>
      <trkpt lat="44.45071" lon="2.49496">
        <ele>497.8</ele>
        <time>2014-08-24T10:32:37Z</time>
      </trkpt>
      <trkpt lat="44.45071" lon="2.49509">
        <ele>497.6</ele>
        <time>2014-08-24T10:32:41Z</time>
      </trkpt>
      <trkpt lat="44.45071" lon="2.49522">
        <ele>498</ele>
        <time>2014-08-24T10:32:45Z</time>
      </trkpt>
      <trkpt lat="44.45071" lon="2.49535">
        <ele>499.1</ele>
        <time>2014-08-24T10:32:49Z</time>
      </trkpt>
      <trkpt lat="44.4507" lon="2.4955">
        <ele>500.1</ele>
        <time>2014-08-24T10:32:54Z</time>
      </trkpt>
      <trkpt lat="44.45072" lon="2.49579">
        <ele>501.9</ele>
        <time>2014-08-24T10:33:04Z</time>
      </trkpt>
      <trkpt lat="44.45074" lon="2.49593">
        <ele>502.8</ele>
        <time>2014-08-24T10:33:09Z</time>
      </trkpt>
      <trkpt lat="44.45076" lon="2.49605">
        <ele>504.1</ele>
        <time>2014-08-24T10:33:14Z</time>
      </trkpt>
      <trkpt lat="44.45078" lon="2.49618">
        <ele>505.5</ele>
        <time>2014-08-24T10:33:19Z</time>
      </trkpt>
      <trkpt lat="44.4508" lon="2.4963">
        <ele>505.5</ele>
        <time>2014-08-24T10:33:24Z</time>
      </trkpt>
      <trkpt lat="44.45081" lon="2.49644">
        <ele>507.7</ele>
        <time>2014-08-24T10:33:30Z</time>
      </trkpt>
      <trkpt lat="44.45081" lon="2.49658">
        <ele>508.5</ele>
        <time>2014-08-24T10:33:36Z</time>
      </trkpt>
      <trkpt lat="44.45085" lon="2.4967">
        <ele>509.3</ele>
        <time>2014-08-24T10:33:41Z</time>
      </trkpt>
      <trkpt lat="44.45092" lon="2.49681">
        <ele>510.2</ele>
        <time>2014-08-24T10:33:46Z</time>
      </trkpt>
      <trkpt lat="44.45097" lon="2.49692">
        <ele>510.9</ele>
        <time>2014-08-24T10:33:51Z</time>
      </trkpt>
      <trkpt lat="44.45103" lon="2.49704">
        <ele>511.6</ele>
        <time>2014-08-24T10:33:56Z</time>
      </trkpt>
      <trkpt lat="44.45101" lon="2.49731">
        <ele>513.1</ele>
        <time>2014-08-24T10:34:05Z</time>
      </trkpt>
      <trkpt lat="44.451" lon="2.49745">
        <ele>513.4</ele>
        <time>2014-08-24T10:34:09Z</time>
      </trkpt>
      <trkpt lat="44.45102" lon="2.49759">
        <ele>514.7</ele>
        <time>2014-08-24T10:34:13Z</time>
      </trkpt>
      <trkpt lat="44.45106" lon="2.49772">
        <ele>515.9</ele>
        <time>2014-08-24T10:34:17Z</time>
      </trkpt>
      <trkpt lat="44.45111" lon="2.49785">
        <ele>516.8</ele>
        <time>2014-08-24T10:34:21Z</time>
      </trkpt>
      <trkpt lat="44.45118" lon="2.49795">
        <ele>516.6</ele>
        <time>2014-08-24T10:34:25Z</time>
      </trkpt>
      <trkpt lat="44.45127" lon="2.49803">
        <ele>517.6</ele>
        <time>2014-08-24T10:34:29Z</time>
      </trkpt>
      <trkpt lat="44.45135" lon="2.49809">
        <ele>517.6</ele>
        <time>2014-08-24T10:34:33Z</time>
      </trkpt>
      <trkpt lat="44.45144" lon="2.49813">
        <ele>518.3</ele>
        <time>2014-08-24T10:34:39Z</time>
      </trkpt>
      <trkpt lat="44.45149" lon="2.49801">
        <ele>518.9</ele>
        <time>2014-08-24T10:35:11Z</time>
      </trkpt>
      <trkpt lat="44.45146" lon="2.49771">
        <ele>520.4</ele>
        <time>2014-08-24T10:35:21Z</time>
      </trkpt>
      <trkpt lat="44.45146" lon="2.49756">
        <ele>521.2</ele>
        <time>2014-08-24T10:35:26Z</time>
      </trkpt>
      <trkpt lat="44.45146" lon="2.49743">
        <ele>522.7</ele>
        <time>2014-08-24T10:35:30Z</time>
      </trkpt>
      <trkpt lat="44.45146" lon="2.49727">
        <ele>523.5</ele>
        <time>2014-08-24T10:35:35Z</time>
      </trkpt>
      <trkpt lat="44.45143" lon="2.49713">
        <ele>523.9</ele>
        <time>2014-08-24T10:35:40Z</time>
      </trkpt>
      <trkpt lat="44.45138" lon="2.49702">
        <ele>525</ele>
        <time>2014-08-24T10:35:45Z</time>
      </trkpt>
      <trkpt lat="44.45132" lon="2.4969">
        <ele>525.7</ele>
        <time>2014-08-24T10:35:51Z</time>
      </trkpt>
      <trkpt lat="44.45128" lon="2.49678">
        <ele>527.1</ele>
        <time>2014-08-24T10:35:56Z</time>
      </trkpt>
      <trkpt lat="44.45127" lon="2.49665">
        <ele>529.1</ele>
        <time>2014-08-24T10:36:01Z</time>
      </trkpt>
      <trkpt lat="44.45127" lon="2.49651">
        <ele>528.9</ele>
        <time>2014-08-24T10:36:06Z</time>
      </trkpt>
      <trkpt lat="44.45128" lon="2.49638">
        <ele>529.6</ele>
        <time>2014-08-24T10:36:11Z</time>
      </trkpt>
      <trkpt lat="44.45129" lon="2.49625">
        <ele>531.2</ele>
        <time>2014-08-24T10:36:16Z</time>
      </trkpt>
      <trkpt lat="44.45127" lon="2.49594">
        <ele>530.7</ele>
        <time>2014-08-24T10:36:26Z</time>
      </trkpt>
      <trkpt lat="44.45125" lon="2.49582">
        <ele>531.5</ele>
        <time>2014-08-24T10:36:29Z</time>
      </trkpt>
      <trkpt lat="44.45123" lon="2.49568">
        <ele>531.1</ele>
        <time>2014-08-24T10:36:32Z</time>
      </trkpt>
      <trkpt lat="44.4512" lon="2.49552">
        <ele>531.2</ele>
        <time>2014-08-24T10:36:35Z</time>
      </trkpt>
      <trkpt lat="44.45117" lon="2.49534">
        <ele>530.7</ele>
        <time>2014-08-24T10:36:38Z</time>
      </trkpt>
      <trkpt lat="44.45116" lon="2.4952">
        <ele>530.4</ele>
        <time>2014-08-24T10:36:40Z</time>
      </trkpt>
      <trkpt lat="44.45116" lon="2.49508">
        <ele>530.2</ele>
        <time>2014-08-24T10:36:42Z</time>
      </trkpt>
      <trkpt lat="44.45116" lon="2.49495">
        <ele>529.6</ele>
        <time>2014-08-24T10:36:44Z</time>
      </trkpt>
      <trkpt lat="44.45115" lon="2.49481">
        <ele>529.6</ele>
        <time>2014-08-24T10:36:46Z</time>
      </trkpt>
      <trkpt lat="44.45113" lon="2.49467">
        <ele>529.7</ele>
        <time>2014-08-24T10:36:48Z</time>
      </trkpt>
      <trkpt lat="44.45113" lon="2.49453">
        <ele>529.7</ele>
        <time>2014-08-24T10:36:50Z</time>
      </trkpt>
      <trkpt lat="44.45114" lon="2.49439">
        <ele>529.7</ele>
        <time>2014-08-24T10:36:52Z</time>
      </trkpt>
      <trkpt lat="44.45115" lon="2.49425">
        <ele>529.1</ele>
        <time>2014-08-24T10:36:54Z</time>
      </trkpt>
      <trkpt lat="44.45117" lon="2.4941">
        <ele>528.6</ele>
        <time>2014-08-24T10:36:56Z</time>
      </trkpt>
      <trkpt lat="44.45118" lon="2.49394">
        <ele>528.3</ele>
        <time>2014-08-24T10:36:58Z</time>
      </trkpt>
      <trkpt lat="44.45118" lon="2.49377">
        <ele>529.2</ele>
        <time>2014-08-24T10:37:00Z</time>
      </trkpt>
      <trkpt lat="44.45118" lon="2.49359">
        <ele>528.4</ele>
        <time>2014-08-24T10:37:02Z</time>
      </trkpt>
      <trkpt lat="44.45117" lon="2.49341">
        <ele>527</ele>
        <time>2014-08-24T10:37:04Z</time>
      </trkpt>
      <trkpt lat="44.45117" lon="2.49324">
        <ele>526.5</ele>
        <time>2014-08-24T10:37:06Z</time>
      </trkpt>
      <trkpt lat="44.45118" lon="2.49307">
        <ele>526.5</ele>
        <time>2014-08-24T10:37:08Z</time>
      </trkpt>
      <trkpt lat="44.45118" lon="2.4929">
        <ele>526.2</ele>
        <time>2014-08-24T10:37:10Z</time>
      </trkpt>
      <trkpt lat="44.45119" lon="2.49273">
        <ele>525.3</ele>
        <time>2014-08-24T10:37:12Z</time>
      </trkpt>
      <trkpt lat="44.45119" lon="2.49258">
        <ele>524.2</ele>
        <time>2014-08-24T10:37:14Z</time>
      </trkpt>
      <trkpt lat="44.4512" lon="2.49245">
        <ele>522</ele>
        <time>2014-08-24T10:37:19Z</time>
      </trkpt>
      <trkpt lat="44.45121" lon="2.49212">
        <ele>520.1</ele>
        <time>2014-08-24T10:37:25Z</time>
      </trkpt>
      <trkpt lat="44.45123" lon="2.49197">
        <ele>520</ele>
        <time>2014-08-24T10:37:27Z</time>
      </trkpt>
      <trkpt lat="44.45127" lon="2.49185">
        <ele>519.3</ele>
        <time>2014-08-24T10:37:29Z</time>
      </trkpt>
      <trkpt lat="44.45136" lon="2.49177">
        <ele>518.1</ele>
        <time>2014-08-24T10:37:32Z</time>
      </trkpt>
      <trkpt lat="44.45145" lon="2.49173">
        <ele>517.7</ele>
        <time>2014-08-24T10:37:36Z</time>
      </trkpt>
      <trkpt lat="44.45155" lon="2.4917">
        <ele>516.8</ele>
        <time>2014-08-24T10:37:41Z</time>
      </trkpt>
      <trkpt lat="44.45163" lon="2.49165">
        <ele>518.7</ele>
        <time>2014-08-24T10:37:46Z</time>
      </trkpt>
      <trkpt lat="44.45169" lon="2.49152">
        <ele>520.1</ele>
        <time>2014-08-24T10:37:52Z</time>
      </trkpt>
      <trkpt lat="44.45173" lon="2.4914">
        <ele>521.4</ele>
        <time>2014-08-24T10:37:58Z</time>
      </trkpt>
      <trkpt lat="44.45178" lon="2.49128">
        <ele>523</ele>
        <time>2014-08-24T10:38:04Z</time>
      </trkpt>
      <trkpt lat="44.45183" lon="2.49116">
        <ele>524</ele>
        <time>2014-08-24T10:38:09Z</time>
      </trkpt>
      <trkpt lat="44.45188" lon="2.49105">
        <ele>524.4</ele>
        <time>2014-08-24T10:38:14Z</time>
      </trkpt>
      <trkpt lat="44.45194" lon="2.49092">
        <ele>524.9</ele>
        <time>2014-08-24T10:38:19Z</time>
      </trkpt>
      <trkpt lat="44.45199" lon="2.49079">
        <ele>525.4</ele>
        <time>2014-08-24T10:38:24Z</time>
      </trkpt>
      <trkpt lat="44.4521" lon="2.49051">
        <ele>526.2</ele>
        <time>2014-08-24T10:38:32Z</time>
      </trkpt>
      <trkpt lat="44.45214" lon="2.49037">
        <ele>526.8</ele>
        <time>2014-08-24T10:38:36Z</time>
      </trkpt>
      <trkpt lat="44.45219" lon="2.49025">
        <ele>527.4</ele>
        <time>2014-08-24T10:38:40Z</time>
      </trkpt>
      <trkpt lat="44.45227" lon="2.49015">
        <ele>527.5</ele>
        <time>2014-08-24T10:38:44Z</time>
      </trkpt>
      <trkpt lat="44.45234" lon="2.49006">
        <ele>528</ele>
        <time>2014-08-24T10:38:48Z</time>
      </trkpt>
      <trkpt lat="44.45241" lon="2.48997">
        <ele>528.7</ele>
        <time>2014-08-24T10:38:52Z</time>
      </trkpt>
      <trkpt lat="44.45248" lon="2.48987">
        <ele>529.7</ele>
        <time>2014-08-24T10:38:56Z</time>
      </trkpt>
      <trkpt lat="44.45254" lon="2.48975">
        <ele>528.6</ele>
        <time>2014-08-24T10:39:00Z</time>
      </trkpt>
      <trkpt lat="44.45259" lon="2.48963">
        <ele>529.4</ele>
        <time>2014-08-24T10:39:04Z</time>
      </trkpt>
      <trkpt lat="44.45264" lon="2.48952">
        <ele>530.2</ele>
        <time>2014-08-24T10:39:08Z</time>
      </trkpt>
      <trkpt lat="44.45268" lon="2.48936">
        <ele>530.7</ele>
        <time>2014-08-24T10:39:12Z</time>
      </trkpt>
      <trkpt lat="44.45272" lon="2.48924">
        <ele>531.2</ele>
        <time>2014-08-24T10:39:15Z</time>
      </trkpt>
      <trkpt lat="44.45278" lon="2.48909">
        <ele>530.6</ele>
        <time>2014-08-24T10:39:19Z</time>
      </trkpt>
      <trkpt lat="44.45283" lon="2.48898">
        <ele>530.7</ele>
        <time>2014-08-24T10:39:22Z</time>
      </trkpt>
      <trkpt lat="44.45291" lon="2.48886">
        <ele>531.6</ele>
        <time>2014-08-24T10:39:26Z</time>
      </trkpt>
      <trkpt lat="44.45307" lon="2.48868">
        <ele>532.5</ele>
        <time>2014-08-24T10:39:34Z</time>
      </trkpt>
      <trkpt lat="44.45314" lon="2.48858">
        <ele>532.3</ele>
        <time>2014-08-24T10:39:38Z</time>
      </trkpt>
      <trkpt lat="44.45321" lon="2.48849">
        <ele>532.6</ele>
        <time>2014-08-24T10:39:42Z</time>
      </trkpt>
      <trkpt lat="44.45328" lon="2.4884">
        <ele>532.5</ele>
        <time>2014-08-24T10:39:45Z</time>
      </trkpt>
      <trkpt lat="44.45335" lon="2.48832">
        <ele>533.8</ele>
        <time>2014-08-24T10:39:48Z</time>
      </trkpt>
      <trkpt lat="44.45344" lon="2.48822">
        <ele>534.8</ele>
        <time>2014-08-24T10:39:52Z</time>
      </trkpt>
      <trkpt lat="44.45353" lon="2.48816">
        <ele>534.7</ele>
        <time>2014-08-24T10:39:55Z</time>
      </trkpt>
      <trkpt lat="44.45365" lon="2.48812">
        <ele>534.9</ele>
        <time>2014-08-24T10:39:59Z</time>
      </trkpt>
      <trkpt lat="44.45373" lon="2.48806">
        <ele>534.7</ele>
        <time>2014-08-24T10:40:02Z</time>
      </trkpt>
      <trkpt lat="44.4538" lon="2.48799">
        <ele>535.4</ele>
        <time>2014-08-24T10:40:05Z</time>
      </trkpt>
      <trkpt lat="44.45388" lon="2.4879">
        <ele>535.9</ele>
        <time>2014-08-24T10:40:09Z</time>
      </trkpt>
      <trkpt lat="44.45393" lon="2.4878">
        <ele>535.5</ele>
        <time>2014-08-24T10:40:12Z</time>
      </trkpt>
      <trkpt lat="44.45398" lon="2.48768">
        <ele>535.6</ele>
        <time>2014-08-24T10:40:15Z</time>
      </trkpt>
      <trkpt lat="44.45402" lon="2.48756">
        <ele>536.3</ele>
        <time>2014-08-24T10:40:18Z</time>
      </trkpt>
      <trkpt lat="44.45405" lon="2.48742">
        <ele>536.3</ele>
        <time>2014-08-24T10:40:21Z</time>
      </trkpt>
      <trkpt lat="44.4541" lon="2.48729">
        <ele>536.3</ele>
        <time>2014-08-24T10:40:24Z</time>
      </trkpt>
      <trkpt lat="44.45414" lon="2.48717">
        <ele>536.3</ele>
        <time>2014-08-24T10:40:27Z</time>
      </trkpt>
      <trkpt lat="44.45424" lon="2.48694">
        <ele>535.6</ele>
        <time>2014-08-24T10:40:33Z</time>
      </trkpt>
      <trkpt lat="44.4543" lon="2.48681">
        <ele>536</ele>
        <time>2014-08-24T10:40:36Z</time>
      </trkpt>
      <trkpt lat="44.45439" lon="2.48671">
        <ele>536.2</ele>
        <time>2014-08-24T10:40:39Z</time>
      </trkpt>
      <trkpt lat="44.45449" lon="2.48661">
        <ele>535.9</ele>
        <time>2014-08-24T10:40:42Z</time>
      </trkpt>
      <trkpt lat="44.45458" lon="2.48649">
        <ele>534.8</ele>
        <time>2014-08-24T10:40:45Z</time>
      </trkpt>
      <trkpt lat="44.45471" lon="2.48644">
        <ele>536.3</ele>
        <time>2014-08-24T10:40:48Z</time>
      </trkpt>
      <trkpt lat="44.4548" lon="2.48639">
        <ele>535.6</ele>
        <time>2014-08-24T10:40:50Z</time>
      </trkpt>
      <trkpt lat="44.45489" lon="2.48634">
        <ele>534.9</ele>
        <time>2014-08-24T10:40:52Z</time>
      </trkpt>
      <trkpt lat="44.45497" lon="2.48627">
        <ele>534.2</ele>
        <time>2014-08-24T10:40:54Z</time>
      </trkpt>
      <trkpt lat="44.45505" lon="2.48619">
        <ele>533.6</ele>
        <time>2014-08-24T10:40:56Z</time>
      </trkpt>
      <trkpt lat="44.45514" lon="2.48612">
        <ele>533.1</ele>
        <time>2014-08-24T10:40:58Z</time>
      </trkpt>
      <trkpt lat="44.45522" lon="2.48602">
        <ele>533.4</ele>
        <time>2014-08-24T10:41:00Z</time>
      </trkpt>
      <trkpt lat="44.45529" lon="2.48591">
        <ele>533.1</ele>
        <time>2014-08-24T10:41:02Z</time>
      </trkpt>
      <trkpt lat="44.45537" lon="2.48579">
        <ele>532.1</ele>
        <time>2014-08-24T10:41:05Z</time>
      </trkpt>
      <trkpt lat="44.45546" lon="2.48569">
        <ele>531.8</ele>
        <time>2014-08-24T10:41:08Z</time>
      </trkpt>
      <trkpt lat="44.45556" lon="2.48562">
        <ele>532.4</ele>
        <time>2014-08-24T10:41:11Z</time>
      </trkpt>
      <trkpt lat="44.45564" lon="2.48555">
        <ele>532.8</ele>
        <time>2014-08-24T10:41:14Z</time>
      </trkpt>
      <trkpt lat="44.45572" lon="2.48546">
        <ele>533.4</ele>
        <time>2014-08-24T10:41:18Z</time>
      </trkpt>
      <trkpt lat="44.45583" lon="2.4854">
        <ele>534.4</ele>
        <time>2014-08-24T10:41:22Z</time>
      </trkpt>
      <trkpt lat="44.45592" lon="2.48532">
        <ele>536</ele>
        <time>2014-08-24T10:41:26Z</time>
      </trkpt>
      <trkpt lat="44.45601" lon="2.48526">
        <ele>536.4</ele>
        <time>2014-08-24T10:41:29Z</time>
      </trkpt>
      <trkpt lat="44.4562" lon="2.48514">
        <ele>536.7</ele>
        <time>2014-08-24T10:41:35Z</time>
      </trkpt>
      <trkpt lat="44.4563" lon="2.48508">
        <ele>536.2</ele>
        <time>2014-08-24T10:41:38Z</time>
      </trkpt>
      <trkpt lat="44.4564" lon="2.48506">
        <ele>536.8</ele>
        <time>2014-08-24T10:41:41Z</time>
      </trkpt>
      <trkpt lat="44.45651" lon="2.48504">
        <ele>537</ele>
        <time>2014-08-24T10:41:44Z</time>
      </trkpt>
      <trkpt lat="44.4566" lon="2.48499">
        <ele>536.7</ele>
        <time>2014-08-24T10:41:47Z</time>
      </trkpt>
      <trkpt lat="44.4567" lon="2.48495">
        <ele>536.9</ele>
        <time>2014-08-24T10:41:50Z</time>
      </trkpt>
      <trkpt lat="44.45679" lon="2.48488">
        <ele>536.5</ele>
        <time>2014-08-24T10:41:53Z</time>
      </trkpt>
      <trkpt lat="44.45686" lon="2.48482">
        <ele>536.3</ele>
        <time>2014-08-24T10:41:56Z</time>
      </trkpt>
      <trkpt lat="44.45694" lon="2.48474">
        <ele>537.5</ele>
        <time>2014-08-24T10:42:00Z</time>
      </trkpt>
      <trkpt lat="44.45695" lon="2.48461">
        <ele>538</ele>
        <time>2014-08-24T10:42:04Z</time>
      </trkpt>
      <trkpt lat="44.45694" lon="2.48448">
        <ele>537.8</ele>
        <time>2014-08-24T10:42:10Z</time>
      </trkpt>
      <trkpt lat="44.45703" lon="2.48444">
        <ele>535.8</ele>
        <time>2014-08-24T10:42:27Z</time>
      </trkpt>
      <trkpt lat="44.45714" lon="2.48446">
        <ele>534.3</ele>
        <time>2014-08-24T10:42:32Z</time>
      </trkpt>
      <trkpt lat="44.45732" lon="2.48458">
        <ele>532.4</ele>
        <time>2014-08-24T10:42:38Z</time>
      </trkpt>
      <trkpt lat="44.45742" lon="2.48468">
        <ele>530.7</ele>
        <time>2014-08-24T10:42:41Z</time>
      </trkpt>
      <trkpt lat="44.45751" lon="2.48474">
        <ele>529.1</ele>
        <time>2014-08-24T10:42:43Z</time>
      </trkpt>
      <trkpt lat="44.45761" lon="2.48478">
        <ele>529</ele>
        <time>2014-08-24T10:42:45Z</time>
      </trkpt>
      <trkpt lat="44.45775" lon="2.48483">
        <ele>528.4</ele>
        <time>2014-08-24T10:42:47Z</time>
      </trkpt>
      <trkpt lat="44.45789" lon="2.48486">
        <ele>527.6</ele>
        <time>2014-08-24T10:42:49Z</time>
      </trkpt>
      <trkpt lat="44.45805" lon="2.48489">
        <ele>527.1</ele>
        <time>2014-08-24T10:42:51Z</time>
      </trkpt>
      <trkpt lat="44.45821" lon="2.48491">
        <ele>526.8</ele>
        <time>2014-08-24T10:42:53Z</time>
      </trkpt>
      <trkpt lat="44.45838" lon="2.48493">
        <ele>524.6</ele>
        <time>2014-08-24T10:42:55Z</time>
      </trkpt>
      <trkpt lat="44.45855" lon="2.48496">
        <ele>523.1</ele>
        <time>2014-08-24T10:42:57Z</time>
      </trkpt>
      <trkpt lat="44.45872" lon="2.48494">
        <ele>522.1</ele>
        <time>2014-08-24T10:42:59Z</time>
      </trkpt>
      <trkpt lat="44.45888" lon="2.48491">
        <ele>520.5</ele>
        <time>2014-08-24T10:43:01Z</time>
      </trkpt>
      <trkpt lat="44.45903" lon="2.4848">
        <ele>518.6</ele>
        <time>2014-08-24T10:43:03Z</time>
      </trkpt>
      <trkpt lat="44.45915" lon="2.48465">
        <ele>516.8</ele>
        <time>2014-08-24T10:43:05Z</time>
      </trkpt>
      <trkpt lat="44.45925" lon="2.48445">
        <ele>515.1</ele>
        <time>2014-08-24T10:43:07Z</time>
      </trkpt>
      <trkpt lat="44.45935" lon="2.48419">
        <ele>512</ele>
        <time>2014-08-24T10:43:09Z</time>
      </trkpt>
      <trkpt lat="44.45945" lon="2.48375">
        <ele>509</ele>
        <time>2014-08-24T10:43:13Z</time>
      </trkpt>
      <trkpt lat="44.45955" lon="2.48351">
        <ele>507.9</ele>
        <time>2014-08-24T10:43:16Z</time>
      </trkpt>
      <trkpt lat="44.45962" lon="2.48333">
        <ele>507</ele>
        <time>2014-08-24T10:43:18Z</time>
      </trkpt>
      <trkpt lat="44.4597" lon="2.48316">
        <ele>505.7</ele>
        <time>2014-08-24T10:43:20Z</time>
      </trkpt>
      <trkpt lat="44.45977" lon="2.48301">
        <ele>504.9</ele>
        <time>2014-08-24T10:43:22Z</time>
      </trkpt>
      <trkpt lat="44.45984" lon="2.48287">
        <ele>504.8</ele>
        <time>2014-08-24T10:43:24Z</time>
      </trkpt>
      <trkpt lat="44.4599" lon="2.48275">
        <ele>504.3</ele>
        <time>2014-08-24T10:43:26Z</time>
      </trkpt>
      <trkpt lat="44.45997" lon="2.48263">
        <ele>503.8</ele>
        <time>2014-08-24T10:43:28Z</time>
      </trkpt>
      <trkpt lat="44.46004" lon="2.48252">
        <ele>504.6</ele>
        <time>2014-08-24T10:43:30Z</time>
      </trkpt>
      <trkpt lat="44.46011" lon="2.48243">
        <ele>504.4</ele>
        <time>2014-08-24T10:43:32Z</time>
      </trkpt>
      <trkpt lat="44.46019" lon="2.48232">
        <ele>503.9</ele>
        <time>2014-08-24T10:43:34Z</time>
      </trkpt>
      <trkpt lat="44.46034" lon="2.48212">
        <ele>504.8</ele>
        <time>2014-08-24T10:43:38Z</time>
      </trkpt>
      <trkpt lat="44.46041" lon="2.48202">
        <ele>503.7</ele>
        <time>2014-08-24T10:43:40Z</time>
      </trkpt>
      <trkpt lat="44.4605" lon="2.4819">
        <ele>503.6</ele>
        <time>2014-08-24T10:43:43Z</time>
      </trkpt>
      <trkpt lat="44.46057" lon="2.48176">
        <ele>503.8</ele>
        <time>2014-08-24T10:43:46Z</time>
      </trkpt>
      <trkpt lat="44.46067" lon="2.48163">
        <ele>504.2</ele>
        <time>2014-08-24T10:43:49Z</time>
      </trkpt>
      <trkpt lat="44.46075" lon="2.48156">
        <ele>504.3</ele>
        <time>2014-08-24T10:43:51Z</time>
      </trkpt>
      <trkpt lat="44.46082" lon="2.48148">
        <ele>504.3</ele>
        <time>2014-08-24T10:43:53Z</time>
      </trkpt>
      <trkpt lat="44.46091" lon="2.4814">
        <ele>505</ele>
        <time>2014-08-24T10:43:55Z</time>
      </trkpt>
      <trkpt lat="44.46099" lon="2.48132">
        <ele>505.3</ele>
        <time>2014-08-24T10:43:57Z</time>
      </trkpt>
      <trkpt lat="44.46107" lon="2.48125">
        <ele>504.6</ele>
        <time>2014-08-24T10:43:59Z</time>
      </trkpt>
      <trkpt lat="44.46116" lon="2.48119">
        <ele>504.5</ele>
        <time>2014-08-24T10:44:01Z</time>
      </trkpt>
      <trkpt lat="44.46124" lon="2.48111">
        <ele>504.7</ele>
        <time>2014-08-24T10:44:03Z</time>
      </trkpt>
      <trkpt lat="44.46132" lon="2.481">
        <ele>504.1</ele>
        <time>2014-08-24T10:44:05Z</time>
      </trkpt>
      <trkpt lat="44.4614" lon="2.48084">
        <ele>502.6</ele>
        <time>2014-08-24T10:44:07Z</time>
      </trkpt>
      <trkpt lat="44.46152" lon="2.48068">
        <ele>501</ele>
        <time>2014-08-24T10:44:09Z</time>
      </trkpt>
      <trkpt lat="44.46163" lon="2.48055">
        <ele>499.1</ele>
        <time>2014-08-24T10:44:11Z</time>
      </trkpt>
      <trkpt lat="44.4618" lon="2.4805">
        <ele>498</ele>
        <time>2014-08-24T10:44:13Z</time>
      </trkpt>
      <trkpt lat="44.46189" lon="2.48048">
        <ele>496.7</ele>
        <time>2014-08-24T10:44:14Z</time>
      </trkpt>
      <trkpt lat="44.46204" lon="2.48051">
        <ele>495</ele>
        <time>2014-08-24T10:44:16Z</time>
      </trkpt>
      <trkpt lat="44.46217" lon="2.48064">
        <ele>491.8</ele>
        <time>2014-08-24T10:44:18Z</time>
      </trkpt>
      <trkpt lat="44.46228" lon="2.48076">
        <ele>489.6</ele>
        <time>2014-08-24T10:44:20Z</time>
      </trkpt>
      <trkpt lat="44.46243" lon="2.48075">
        <ele>488.1</ele>
        <time>2014-08-24T10:44:22Z</time>
      </trkpt>
      <trkpt lat="44.46258" lon="2.48078">
        <ele>485.9</ele>
        <time>2014-08-24T10:44:24Z</time>
      </trkpt>
      <trkpt lat="44.46271" lon="2.48088">
        <ele>484</ele>
        <time>2014-08-24T10:44:26Z</time>
      </trkpt>
      <trkpt lat="44.46282" lon="2.48091">
        <ele>482.4</ele>
        <time>2014-08-24T10:44:28Z</time>
      </trkpt>
      <trkpt lat="44.46291" lon="2.48085">
        <ele>480.8</ele>
        <time>2014-08-24T10:44:30Z</time>
      </trkpt>
      <trkpt lat="44.46301" lon="2.48079">
        <ele>479.5</ele>
        <time>2014-08-24T10:44:32Z</time>
      </trkpt>
      <trkpt lat="44.46311" lon="2.48077">
        <ele>478.4</ele>
        <time>2014-08-24T10:44:34Z</time>
      </trkpt>
      <trkpt lat="44.46321" lon="2.48075">
        <ele>477.7</ele>
        <time>2014-08-24T10:44:36Z</time>
      </trkpt>
      <trkpt lat="44.46345" lon="2.48065">
        <ele>476.9</ele>
        <time>2014-08-24T10:44:41Z</time>
      </trkpt>
      <trkpt lat="44.46354" lon="2.4806">
        <ele>475.8</ele>
        <time>2014-08-24T10:44:43Z</time>
      </trkpt>
      <trkpt lat="44.46364" lon="2.48053">
        <ele>475.2</ele>
        <time>2014-08-24T10:44:45Z</time>
      </trkpt>
      <trkpt lat="44.46373" lon="2.48046">
        <ele>474.4</ele>
        <time>2014-08-24T10:44:47Z</time>
      </trkpt>
      <trkpt lat="44.46381" lon="2.4804">
        <ele>474.3</ele>
        <time>2014-08-24T10:44:49Z</time>
      </trkpt>
      <trkpt lat="44.46393" lon="2.48032">
        <ele>474</ele>
        <time>2014-08-24T10:44:52Z</time>
      </trkpt>
      <trkpt lat="44.46403" lon="2.48029">
        <ele>472.8</ele>
        <time>2014-08-24T10:44:55Z</time>
      </trkpt>
      <trkpt lat="44.46409" lon="2.48017">
        <ele>470.9</ele>
        <time>2014-08-24T10:45:01Z</time>
      </trkpt>
      <trkpt lat="44.46411" lon="2.48002">
        <ele>471.1</ele>
        <time>2014-08-24T10:45:04Z</time>
      </trkpt>
      <trkpt lat="44.46415" lon="2.47986">
        <ele>470.3</ele>
        <time>2014-08-24T10:45:07Z</time>
      </trkpt>
      <trkpt lat="44.46419" lon="2.47969">
        <ele>470.4</ele>
        <time>2014-08-24T10:45:10Z</time>
      </trkpt>
      <trkpt lat="44.46423" lon="2.47952">
        <ele>470</ele>
        <time>2014-08-24T10:45:13Z</time>
      </trkpt>
      <trkpt lat="44.46425" lon="2.47939">
        <ele>469.5</ele>
        <time>2014-08-24T10:45:15Z</time>
      </trkpt>
      <trkpt lat="44.46426" lon="2.47927">
        <ele>469.2</ele>
        <time>2014-08-24T10:45:17Z</time>
      </trkpt>
      <trkpt lat="44.46427" lon="2.47914">
        <ele>468.6</ele>
        <time>2014-08-24T10:45:19Z</time>
      </trkpt>
      <trkpt lat="44.46429" lon="2.479">
        <ele>468.5</ele>
        <time>2014-08-24T10:45:21Z</time>
      </trkpt>
      <trkpt lat="44.4643" lon="2.47886">
        <ele>468.5</ele>
        <time>2014-08-24T10:45:23Z</time>
      </trkpt>
      <trkpt lat="44.4643" lon="2.47871">
        <ele>468.5</ele>
        <time>2014-08-24T10:45:25Z</time>
      </trkpt>
      <trkpt lat="44.46429" lon="2.47857">
        <ele>468.6</ele>
        <time>2014-08-24T10:45:27Z</time>
      </trkpt>
      <trkpt lat="44.46427" lon="2.47843">
        <ele>468.8</ele>
        <time>2014-08-24T10:45:29Z</time>
      </trkpt>
      <trkpt lat="44.46423" lon="2.47829">
        <ele>469.5</ele>
        <time>2014-08-24T10:45:31Z</time>
      </trkpt>
      <trkpt lat="44.46418" lon="2.47816">
        <ele>469.8</ele>
        <time>2014-08-24T10:45:33Z</time>
      </trkpt>
      <trkpt lat="44.46413" lon="2.47803">
        <ele>468.7</ele>
        <time>2014-08-24T10:45:35Z</time>
      </trkpt>
      <trkpt lat="44.46407" lon="2.47787">
        <ele>467.9</ele>
        <time>2014-08-24T10:45:38Z</time>
      </trkpt>
      <trkpt lat="44.46398" lon="2.47764">
        <ele>467.9</ele>
        <time>2014-08-24T10:45:42Z</time>
      </trkpt>
      <trkpt lat="44.46394" lon="2.47748">
        <ele>467.9</ele>
        <time>2014-08-24T10:45:45Z</time>
      </trkpt>
      <trkpt lat="44.46402" lon="2.47741">
        <ele>467.4</ele>
        <time>2014-08-24T10:45:48Z</time>
      </trkpt>
      <trkpt lat="44.46411" lon="2.47736">
        <ele>467.6</ele>
        <time>2014-08-24T10:45:51Z</time>
      </trkpt>
      <trkpt lat="44.46419" lon="2.4773">
        <ele>467.5</ele>
        <time>2014-08-24T10:45:55Z</time>
      </trkpt>
      <trkpt lat="44.46427" lon="2.47722">
        <ele>468.2</ele>
        <time>2014-08-24T10:46:01Z</time>
      </trkpt>
      <trkpt lat="44.46433" lon="2.4771">
        <ele>468.4</ele>
        <time>2014-08-24T10:46:05Z</time>
      </trkpt>
      <trkpt lat="44.46441" lon="2.47702">
        <ele>468.5</ele>
        <time>2014-08-24T10:46:09Z</time>
      </trkpt>
      <trkpt lat="44.4645" lon="2.47692">
        <ele>468.3</ele>
        <time>2014-08-24T10:46:13Z</time>
      </trkpt>
      <trkpt lat="44.46456" lon="2.47683">
        <ele>468.8</ele>
        <time>2014-08-24T10:46:16Z</time>
      </trkpt>
      <trkpt lat="44.46463" lon="2.47672">
        <ele>468.9</ele>
        <time>2014-08-24T10:46:20Z</time>
      </trkpt>
      <trkpt lat="44.46471" lon="2.4766">
        <ele>469.7</ele>
        <time>2014-08-24T10:46:24Z</time>
      </trkpt>
      <trkpt lat="44.46478" lon="2.47647">
        <ele>469.4</ele>
        <time>2014-08-24T10:46:28Z</time>
      </trkpt>
      <trkpt lat="44.46484" lon="2.47636">
        <ele>469.5</ele>
        <time>2014-08-24T10:46:31Z</time>
      </trkpt>
      <trkpt lat="44.46489" lon="2.47622">
        <ele>469.2</ele>
        <time>2014-08-24T10:46:34Z</time>
      </trkpt>
      <trkpt lat="44.46495" lon="2.47607">
        <ele>468.9</ele>
        <time>2014-08-24T10:46:37Z</time>
      </trkpt>
      <trkpt lat="44.46501" lon="2.47593">
        <ele>469.4</ele>
        <time>2014-08-24T10:46:40Z</time>
      </trkpt>
      <trkpt lat="44.46524" lon="2.47577">
        <ele>468.2</ele>
        <time>2014-08-24T10:46:45Z</time>
      </trkpt>
      <trkpt lat="44.46537" lon="2.47577">
        <ele>467.1</ele>
        <time>2014-08-24T10:46:47Z</time>
      </trkpt>
      <trkpt lat="44.46551" lon="2.47578">
        <ele>465.7</ele>
        <time>2014-08-24T10:46:49Z</time>
      </trkpt>
      <trkpt lat="44.46567" lon="2.47578">
        <ele>464.6</ele>
        <time>2014-08-24T10:46:51Z</time>
      </trkpt>
      <trkpt lat="44.46584" lon="2.4758">
        <ele>463.4</ele>
        <time>2014-08-24T10:46:53Z</time>
      </trkpt>
      <trkpt lat="44.466" lon="2.47579">
        <ele>462.3</ele>
        <time>2014-08-24T10:46:55Z</time>
      </trkpt>
      <trkpt lat="44.46614" lon="2.47571">
        <ele>460.9</ele>
        <time>2014-08-24T10:46:57Z</time>
      </trkpt>
      <trkpt lat="44.46628" lon="2.4755">
        <ele>459</ele>
        <time>2014-08-24T10:46:59Z</time>
      </trkpt>
      <trkpt lat="44.4664" lon="2.47505">
        <ele>457</ele>
        <time>2014-08-24T10:47:03Z</time>
      </trkpt>
      <trkpt lat="44.46645" lon="2.47453">
        <ele>454</ele>
        <time>2014-08-24T10:47:07Z</time>
      </trkpt>
      <trkpt lat="44.46647" lon="2.47396">
        <ele>451</ele>
        <time>2014-08-24T10:47:11Z</time>
      </trkpt>
      <trkpt lat="44.46652" lon="2.47338">
        <ele>448</ele>
        <time>2014-08-24T10:47:15Z</time>
      </trkpt>
      <trkpt lat="44.46658" lon="2.47303">
        <ele>447.7</ele>
        <time>2014-08-24T10:47:18Z</time>
      </trkpt>
      <trkpt lat="44.46663" lon="2.4729">
        <ele>446.4</ele>
        <time>2014-08-24T10:47:19Z</time>
      </trkpt>
      <trkpt lat="44.46667" lon="2.47277">
        <ele>445.5</ele>
        <time>2014-08-24T10:47:20Z</time>
      </trkpt>
      <trkpt lat="44.46683" lon="2.47249">
        <ele>442</ele>
        <time>2014-08-24T10:47:22Z</time>
      </trkpt>
      <trkpt lat="44.46718" lon="2.47217">
        <ele>437</ele>
        <time>2014-08-24T10:47:26Z</time>
      </trkpt>
      <trkpt lat="44.46754" lon="2.47189">
        <ele>434</ele>
        <time>2014-08-24T10:47:30Z</time>
      </trkpt>
      <trkpt lat="44.46791" lon="2.47159">
        <ele>431</ele>
        <time>2014-08-24T10:47:34Z</time>
      </trkpt>
      <trkpt lat="44.46825" lon="2.47126">
        <ele>429</ele>
        <time>2014-08-24T10:47:38Z</time>
      </trkpt>
      <trkpt lat="44.4686" lon="2.47095">
        <ele>424</ele>
        <time>2014-08-24T10:47:42Z</time>
      </trkpt>
      <trkpt lat="44.46921" lon="2.47101">
        <ele>416</ele>
        <time>2014-08-24T10:47:50Z</time>
      </trkpt>
      <trkpt lat="44.46915" lon="2.47079">
        <ele>409</ele>
        <time>2014-08-24T10:47:58Z</time>
      </trkpt>
      <trkpt lat="44.46898" lon="2.47057">
        <ele>407</ele>
        <time>2014-08-24T10:48:02Z</time>
      </trkpt>
      <trkpt lat="44.46877" lon="2.47054">
        <ele>406</ele>
        <time>2014-08-24T10:48:06Z</time>
      </trkpt>
      <trkpt lat="44.46854" lon="2.47064">
        <ele>405</ele>
        <time>2014-08-24T10:48:10Z</time>
      </trkpt>
      <trkpt lat="44.46841" lon="2.47067">
        <ele>403</ele>
        <time>2014-08-24T10:48:14Z</time>
      </trkpt>
      <trkpt lat="44.46855" lon="2.47047">
        <ele>402</ele>
        <time>2014-08-24T10:48:18Z</time>
      </trkpt>
      <trkpt lat="44.46884" lon="2.47022">
        <ele>399</ele>
        <time>2014-08-24T10:48:22Z</time>
      </trkpt>
      <trkpt lat="44.46918" lon="2.47002">
        <ele>395</ele>
        <time>2014-08-24T10:48:26Z</time>
      </trkpt>
      <trkpt lat="44.46939" lon="2.46999">
        <ele>387</ele>
        <time>2014-08-24T10:48:30Z</time>
      </trkpt>
      <trkpt lat="44.4695" lon="2.46994">
        <ele>381</ele>
        <time>2014-08-24T10:48:34Z</time>
      </trkpt>
      <trkpt lat="44.4696" lon="2.46983">
        <ele>377</ele>
        <time>2014-08-24T10:48:38Z</time>
      </trkpt>
      <trkpt lat="44.46973" lon="2.46953">
        <ele>374</ele>
        <time>2014-08-24T10:48:42Z</time>
      </trkpt>
      <trkpt lat="44.46977" lon="2.46906">
        <ele>368</ele>
        <time>2014-08-24T10:48:46Z</time>
      </trkpt>
      <trkpt lat="44.46998" lon="2.46807">
        <ele>355</ele>
        <time>2014-08-24T10:48:54Z</time>
      </trkpt>
      <trkpt lat="44.4701" lon="2.46759">
        <ele>348</ele>
        <time>2014-08-24T10:48:58Z</time>
      </trkpt>
      <trkpt lat="44.47017" lon="2.46716">
        <ele>339</ele>
        <time>2014-08-24T10:49:02Z</time>
      </trkpt>
      <trkpt lat="44.47031" lon="2.46691">
        <ele>331</ele>
        <time>2014-08-24T10:49:06Z</time>
      </trkpt>
      <trkpt lat="44.47039" lon="2.46673">
        <ele>325</ele>
        <time>2014-08-24T10:49:10Z</time>
      </trkpt>
      <trkpt lat="44.4702" lon="2.46661">
        <ele>320</ele>
        <time>2014-08-24T10:49:18Z</time>
      </trkpt>
      <trkpt lat="44.47001" lon="2.46655">
        <ele>318</ele>
        <time>2014-08-24T10:49:22Z</time>
      </trkpt>
      <trkpt lat="44.47028" lon="2.46643">
        <ele>313</ele>
        <time>2014-08-24T10:49:30Z</time>
      </trkpt>
      <trkpt lat="44.47051" lon="2.46652">
        <ele>311</ele>
        <time>2014-08-24T10:49:34Z</time>
      </trkpt>
      <trkpt lat="44.47074" lon="2.46665">
        <ele>309</ele>
        <time>2014-08-24T10:49:38Z</time>
      </trkpt>
      <trkpt lat="44.47084" lon="2.46656">
        <ele>305</ele>
        <time>2014-08-24T10:49:42Z</time>
      </trkpt>
      <trkpt lat="44.47089" lon="2.46637">
        <ele>302</ele>
        <time>2014-08-24T10:49:46Z</time>
      </trkpt>
      <trkpt lat="44.47092" lon="2.46613">
        <ele>301</ele>
        <time>2014-08-24T10:49:54Z</time>
      </trkpt>
      <trkpt lat="44.47088" lon="2.46586">
        <ele>301.2</ele>
        <time>2014-08-24T10:50:01Z</time>
      </trkpt>
      <trkpt lat="44.47087" lon="2.46573">
        <ele>301.5</ele>
        <time>2014-08-24T10:50:04Z</time>
      </trkpt>
      <trkpt lat="44.47087" lon="2.46557">
        <ele>302</ele>
        <time>2014-08-24T10:50:07Z</time>
      </trkpt>
      <trkpt lat="44.47086" lon="2.4654">
        <ele>302.3</ele>
        <time>2014-08-24T10:50:10Z</time>
      </trkpt>
      <trkpt lat="44.47085" lon="2.46524">
        <ele>302.7</ele>
        <time>2014-08-24T10:50:13Z</time>
      </trkpt>
      <trkpt lat="44.47086" lon="2.46508">
        <ele>302.4</ele>
        <time>2014-08-24T10:50:16Z</time>
      </trkpt>
      <trkpt lat="44.47086" lon="2.46491">
        <ele>302</ele>
        <time>2014-08-24T10:50:19Z</time>
      </trkpt>
      <trkpt lat="44.47084" lon="2.46476">
        <ele>302</ele>
        <time>2014-08-24T10:50:22Z</time>
      </trkpt>
      <trkpt lat="44.47073" lon="2.46476">
        <ele>302.7</ele>
        <time>2014-08-24T10:50:27Z</time>
      </trkpt>
      <trkpt lat="44.4707" lon="2.4646">
        <ele>302</ele>
        <time>2014-08-24T10:50:30Z</time>
      </trkpt>
      <trkpt lat="44.47078" lon="2.46447">
        <ele>301.2</ele>
        <time>2014-08-24T10:50:32Z</time>
      </trkpt>
      <trkpt lat="44.4709" lon="2.46438">
        <ele>300.4</ele>
        <time>2014-08-24T10:50:34Z</time>
      </trkpt>
      <trkpt lat="44.47103" lon="2.46432">
        <ele>298</ele>
        <time>2014-08-24T10:50:36Z</time>
      </trkpt>
      <trkpt lat="44.47117" lon="2.46426">
        <ele>297.8</ele>
        <time>2014-08-24T10:50:39Z</time>
      </trkpt>
      <trkpt lat="44.47128" lon="2.46422">
        <ele>296.7</ele>
        <time>2014-08-24T10:50:41Z</time>
      </trkpt>
      <trkpt lat="44.47141" lon="2.4642">
        <ele>296</ele>
        <time>2014-08-24T10:50:43Z</time>
      </trkpt>
      <trkpt lat="44.47155" lon="2.46419">
        <ele>295.1</ele>
        <time>2014-08-24T10:50:45Z</time>
      </trkpt>
      <trkpt lat="44.47165" lon="2.46418">
        <ele>294</ele>
        <time>2014-08-24T10:50:47Z</time>
      </trkpt>
      <trkpt lat="44.47175" lon="2.46422">
        <ele>292.8</ele>
        <time>2014-08-24T10:50:50Z</time>
      </trkpt>
      <trkpt lat="44.47188" lon="2.46426">
        <ele>292.3</ele>
        <time>2014-08-24T10:50:53Z</time>
      </trkpt>
      <trkpt lat="44.47197" lon="2.46428">
        <ele>292</ele>
        <time>2014-08-24T10:50:55Z</time>
      </trkpt>
      <trkpt lat="44.47211" lon="2.4643">
        <ele>291</ele>
        <time>2014-08-24T10:50:58Z</time>
      </trkpt>
      <trkpt lat="44.47232" lon="2.46439">
        <ele>289.5</ele>
        <time>2014-08-24T10:51:03Z</time>
      </trkpt>
      <trkpt lat="44.4724" lon="2.46444">
        <ele>288.3</ele>
        <time>2014-08-24T10:51:06Z</time>
      </trkpt>
      <trkpt lat="44.47249" lon="2.46435">
        <ele>288.1</ele>
        <time>2014-08-24T10:51:11Z</time>
      </trkpt>
      <trkpt lat="44.47255" lon="2.46425">
        <ele>287.3</ele>
        <time>2014-08-24T10:51:14Z</time>
      </trkpt>
      <trkpt lat="44.4726" lon="2.46414">
        <ele>287.1</ele>
        <time>2014-08-24T10:51:17Z</time>
      </trkpt>
      <trkpt lat="44.47266" lon="2.46402">
        <ele>286.7</ele>
        <time>2014-08-24T10:51:20Z</time>
      </trkpt>
      <trkpt lat="44.4728" lon="2.46376">
        <ele>286</ele>
        <time>2014-08-24T10:51:26Z</time>
      </trkpt>
      <trkpt lat="44.47288" lon="2.46361">
        <ele>286</ele>
        <time>2014-08-24T10:51:30Z</time>
      </trkpt>
      <trkpt lat="44.47298" lon="2.4636">
        <ele>286</ele>
        <time>2014-08-24T10:51:34Z</time>
      </trkpt>
      <trkpt lat="44.47313" lon="2.46358">
        <ele>286</ele>
        <time>2014-08-24T10:51:39Z</time>
      </trkpt>
      <trkpt lat="44.47331" lon="2.46362">
        <ele>286</ele>
        <time>2014-08-24T10:51:44Z</time>
      </trkpt>
      <trkpt lat="44.47342" lon="2.46365">
        <ele>286.4</ele>
        <time>2014-08-24T10:51:48Z</time>
      </trkpt>
      <trkpt lat="44.47352" lon="2.46363">
        <ele>285.8</ele>
        <time>2014-08-24T10:51:52Z</time>
      </trkpt>
      <trkpt lat="44.47356" lon="2.46351">
        <ele>285.3</ele>
        <time>2014-08-24T10:51:57Z</time>
      </trkpt>
      <trkpt lat="44.4736" lon="2.46338">
        <ele>286.3</ele>
        <time>2014-08-24T10:52:01Z</time>
      </trkpt>
      <trkpt lat="44.47369" lon="2.46313">
        <ele>286.1</ele>
        <time>2014-08-24T10:52:11Z</time>
      </trkpt>
      <trkpt lat="44.47366" lon="2.4631">
        <ele>286.4</ele>
        <time>2014-08-24T10:53:51Z</time>
      </trkpt>
    </trkseg>
  </trk>
</gpx>